<?xml version="1.0" encoding="UTF-8"?>
<gpx version="1.1" creator="https://www.youtrack.es" xsi:schemaLocation="http://www.topografix.com/GPX/1/1 http://www.topografix.com/GPX/1/1/gpx.xsd http://www.garmin.com/xmlschemas/GpxExtensions/v3 http://www.garmin.com/xmlschemas/GpxExtensionsv3.xsd http://www.garmin.com/xmlschemas/TrackPointExtension/v1 http://www.garmin.com/xmlschemas/TrackPointExtensionv1.xsd" xmlns:gpxtpx="http://www.garmin.com/xmlschemas/TrackPointExtension/v1" xmlns:gpxx="http://www.garmin.com/xmlschemas/GpxExtensions/v3" xmlns:xsi="http://www.w3.org/2001/XMLSchema-instance">
  <metadata>
    <link href="https://www.youtrack.es">
      <text>YouTrack.es</text>
    </link>
    <time>2026-05-08T12:48:37Z</time>
  </metadata>
  <trk>
    <src>https://www.youtrack.es</src>
    <link href="https://www.youtrack.es/ruta/20457-escondite-mirones">
      <text>YouTrack.es</text>
    </link>
    <trkseg>
      <trkpt lat="43.2394344" lon="-3.7016886">
        <ele>417.095978</ele>
        <time>2021-03-20T18:02:35.989Z</time>
      </trkpt>
      <trkpt lat="43.2394774" lon="-3.7017207">
        <ele>417.031006</ele>
        <time>2021-03-20T18:02:35.133Z</time>
      </trkpt>
      <trkpt lat="43.2395009" lon="-3.7017422">
        <ele>419.023987</ele>
        <time>2021-03-20T18:02:34.309Z</time>
      </trkpt>
      <trkpt lat="43.2395400" lon="-3.7017690">
        <ele>417.006989</ele>
        <time>2021-03-20T18:02:33.310Z</time>
      </trkpt>
      <trkpt lat="43.2395673" lon="-3.7018280">
        <ele>418.058014</ele>
        <time>2021-03-20T18:02:32.182Z</time>
      </trkpt>
      <trkpt lat="43.2395282" lon="-3.7018656">
        <ele>419.094025</ele>
        <time>2021-03-20T18:02:31.574Z</time>
      </trkpt>
      <trkpt lat="43.2394600" lon="-3.7018800">
        <ele>421.014008</ele>
        <time>2015-04-26T10:08:36.000Z</time>
      </trkpt>
      <trkpt lat="43.2393510" lon="-3.7018740">
        <ele>420.062988</ele>
        <time>2015-04-26T10:08:40.000Z</time>
      </trkpt>
      <trkpt lat="43.2392480" lon="-3.7018000">
        <ele>418.083984</ele>
        <time>2015-04-26T10:08:44.000Z</time>
      </trkpt>
      <trkpt lat="43.2391610" lon="-3.7017130">
        <ele>420.016998</ele>
        <time>2015-04-26T10:08:48.000Z</time>
      </trkpt>
      <trkpt lat="43.2390620" lon="-3.7016570">
        <ele>420.076996</ele>
        <time>2015-04-26T10:08:52.000Z</time>
      </trkpt>
      <trkpt lat="43.2389670" lon="-3.7016250">
        <ele>421.035980</ele>
        <time>2015-04-26T10:08:55.000Z</time>
      </trkpt>
      <trkpt lat="43.2388710" lon="-3.7015920">
        <ele>421.017029</ele>
        <time>2015-04-26T10:08:59.000Z</time>
      </trkpt>
      <trkpt lat="43.2387620" lon="-3.7015840">
        <ele>421.017975</ele>
        <time>2015-04-26T10:09:03.000Z</time>
      </trkpt>
      <trkpt lat="43.2386570" lon="-3.7016200">
        <ele>422.006989</ele>
        <time>2015-04-26T10:09:08.000Z</time>
      </trkpt>
      <trkpt lat="43.2385560" lon="-3.7016670">
        <ele>423.051971</ele>
        <time>2015-04-26T10:09:13.000Z</time>
      </trkpt>
      <trkpt lat="43.2384490" lon="-3.7016800">
        <ele>424.027985</ele>
        <time>2015-04-26T10:09:18.000Z</time>
      </trkpt>
      <trkpt lat="43.2383410" lon="-3.7017110">
        <ele>423.048004</ele>
        <time>2015-04-26T10:09:23.000Z</time>
      </trkpt>
      <trkpt lat="43.2382530" lon="-3.7017390">
        <ele>423.046997</ele>
        <time>2015-04-26T10:09:27.000Z</time>
      </trkpt>
      <trkpt lat="43.2381480" lon="-3.7017610">
        <ele>426.088013</ele>
        <time>2015-04-26T10:09:32.000Z</time>
      </trkpt>
      <trkpt lat="43.2380510" lon="-3.7017590">
        <ele>426.060974</ele>
        <time>2015-04-26T10:09:38.000Z</time>
      </trkpt>
      <trkpt lat="43.2379520" lon="-3.7017380">
        <ele>427.080994</ele>
        <time>2015-04-26T10:09:44.000Z</time>
      </trkpt>
      <trkpt lat="43.2378470" lon="-3.7017080">
        <ele>431.062988</ele>
        <time>2015-04-26T10:09:49.000Z</time>
      </trkpt>
      <trkpt lat="43.2377550" lon="-3.7017310">
        <ele>434.044006</ele>
        <time>2015-04-26T10:09:53.000Z</time>
      </trkpt>
      <trkpt lat="43.2376610" lon="-3.7017740">
        <ele>433.018005</ele>
        <time>2015-04-26T10:09:57.000Z</time>
      </trkpt>
      <trkpt lat="43.2375770" lon="-3.7018360">
        <ele>435.007019</ele>
        <time>2015-04-26T10:10:01.000Z</time>
      </trkpt>
      <trkpt lat="43.2374920" lon="-3.7018890">
        <ele>438.064972</ele>
        <time>2015-04-26T10:10:05.000Z</time>
      </trkpt>
      <trkpt lat="43.2374060" lon="-3.7019520">
        <ele>436.011017</ele>
        <time>2015-04-26T10:10:09.000Z</time>
      </trkpt>
      <trkpt lat="43.2373280" lon="-3.7020260">
        <ele>437.080994</ele>
        <time>2015-04-26T10:10:14.000Z</time>
      </trkpt>
      <trkpt lat="43.2372340" lon="-3.7020730">
        <ele>433.030029</ele>
        <time>2015-04-26T10:10:19.000Z</time>
      </trkpt>
      <trkpt lat="43.2371370" lon="-3.7020860">
        <ele>433.071014</ele>
        <time>2015-04-26T10:10:24.000Z</time>
      </trkpt>
      <trkpt lat="43.2370510" lon="-3.7020370">
        <ele>431.093994</ele>
        <time>2015-04-26T10:10:28.000Z</time>
      </trkpt>
      <trkpt lat="43.2369490" lon="-3.7019980">
        <ele>430.023987</ele>
        <time>2015-04-26T10:10:33.000Z</time>
      </trkpt>
      <trkpt lat="43.2368590" lon="-3.7020540">
        <ele>431.068024</ele>
        <time>2015-04-26T10:10:38.000Z</time>
      </trkpt>
      <trkpt lat="43.2368570" lon="-3.7021970">
        <ele>430.041992</ele>
        <time>2015-04-26T10:10:43.000Z</time>
      </trkpt>
      <trkpt lat="43.2369340" lon="-3.7022900">
        <ele>424.026001</ele>
        <time>2015-04-26T10:10:48.000Z</time>
      </trkpt>
      <trkpt lat="43.2369910" lon="-3.7024040">
        <ele>429.007019</ele>
        <time>2015-04-26T10:10:54.000Z</time>
      </trkpt>
      <trkpt lat="43.2370350" lon="-3.7025350">
        <ele>436.014984</ele>
        <time>2015-04-26T10:10:59.000Z</time>
      </trkpt>
      <trkpt lat="43.2370730" lon="-3.7026500">
        <ele>437.031006</ele>
        <time>2015-04-26T10:11:03.000Z</time>
      </trkpt>
      <trkpt lat="43.2371080" lon="-3.7027860">
        <ele>436.021027</ele>
        <time>2015-04-26T10:11:08.000Z</time>
      </trkpt>
      <trkpt lat="43.2371160" lon="-3.7029170">
        <ele>437.059998</ele>
        <time>2015-04-26T10:11:14.000Z</time>
      </trkpt>
      <trkpt lat="43.2371410" lon="-3.7030490">
        <ele>439.040985</ele>
        <time>2015-04-26T10:11:19.000Z</time>
      </trkpt>
      <trkpt lat="43.2371930" lon="-3.7031780">
        <ele>441.083984</ele>
        <time>2015-04-26T10:11:24.000Z</time>
      </trkpt>
      <trkpt lat="43.2371980" lon="-3.7033140">
        <ele>442.093994</ele>
        <time>2015-04-26T10:11:28.000Z</time>
      </trkpt>
      <trkpt lat="43.2372180" lon="-3.7034370">
        <ele>442.058014</ele>
        <time>2015-04-26T10:11:33.000Z</time>
      </trkpt>
      <trkpt lat="43.2372570" lon="-3.7035670">
        <ele>442.052002</ele>
        <time>2015-04-26T10:11:39.000Z</time>
      </trkpt>
      <trkpt lat="43.2372850" lon="-3.7037050">
        <ele>446.017029</ele>
        <time>2015-04-26T10:11:45.000Z</time>
      </trkpt>
      <trkpt lat="43.2373020" lon="-3.7038510">
        <ele>450.006989</ele>
        <time>2015-04-26T10:11:51.000Z</time>
      </trkpt>
      <trkpt lat="43.2373250" lon="-3.7039790">
        <ele>452.093994</ele>
        <time>2015-04-26T10:11:56.000Z</time>
      </trkpt>
      <trkpt lat="43.2373560" lon="-3.7041090">
        <ele>453.010010</ele>
        <time>2015-04-26T10:12:02.000Z</time>
      </trkpt>
      <trkpt lat="43.2373850" lon="-3.7042470">
        <ele>453.059998</ele>
        <time>2015-04-26T10:12:08.000Z</time>
      </trkpt>
      <trkpt lat="43.2372980" lon="-3.7043360">
        <ele>455.079010</ele>
        <time>2015-04-26T10:12:13.000Z</time>
      </trkpt>
      <trkpt lat="43.2371990" lon="-3.7043250">
        <ele>454.019989</ele>
        <time>2015-04-26T10:12:18.000Z</time>
      </trkpt>
      <trkpt lat="43.2371250" lon="-3.7042360">
        <ele>457.072998</ele>
        <time>2015-04-26T10:12:23.000Z</time>
      </trkpt>
      <trkpt lat="43.2371150" lon="-3.7041050">
        <ele>455.083008</ele>
        <time>2015-04-26T10:12:27.000Z</time>
      </trkpt>
      <trkpt lat="43.2371130" lon="-3.7039750">
        <ele>457.028992</ele>
        <time>2015-04-26T10:12:31.000Z</time>
      </trkpt>
      <trkpt lat="43.2370830" lon="-3.7038390">
        <ele>456.000000</ele>
        <time>2015-04-26T10:12:36.000Z</time>
      </trkpt>
      <trkpt lat="43.2370490" lon="-3.7037050">
        <ele>456.020020</ele>
        <time>2015-04-26T10:12:42.000Z</time>
      </trkpt>
      <trkpt lat="43.2369980" lon="-3.7035850">
        <ele>458.006989</ele>
        <time>2015-04-26T10:12:47.000Z</time>
      </trkpt>
      <trkpt lat="43.2369470" lon="-3.7034830">
        <ele>461.040985</ele>
        <time>2015-04-26T10:12:52.000Z</time>
      </trkpt>
      <trkpt lat="43.2368890" lon="-3.7033630">
        <ele>463.066986</ele>
        <time>2015-04-26T10:12:58.000Z</time>
      </trkpt>
      <trkpt lat="43.2368110" lon="-3.7032690">
        <ele>467.027008</ele>
        <time>2015-04-26T10:13:04.000Z</time>
      </trkpt>
      <trkpt lat="43.2367310" lon="-3.7031980">
        <ele>467.076019</ele>
        <time>2015-04-26T10:13:09.000Z</time>
      </trkpt>
      <trkpt lat="43.2366340" lon="-3.7031450">
        <ele>466.066986</ele>
        <time>2015-04-26T10:13:15.000Z</time>
      </trkpt>
      <trkpt lat="43.2365320" lon="-3.7031390">
        <ele>466.040009</ele>
        <time>2015-04-26T10:13:21.000Z</time>
      </trkpt>
      <trkpt lat="43.2364390" lon="-3.7031470">
        <ele>468.029999</ele>
        <time>2015-04-26T10:13:26.000Z</time>
      </trkpt>
      <trkpt lat="43.2363330" lon="-3.7031320">
        <ele>470.032013</ele>
        <time>2015-04-26T10:13:31.000Z</time>
      </trkpt>
      <trkpt lat="43.2362270" lon="-3.7031040">
        <ele>469.092010</ele>
        <time>2015-04-26T10:13:36.000Z</time>
      </trkpt>
      <trkpt lat="43.2361220" lon="-3.7030620">
        <ele>476.010986</ele>
        <time>2015-04-26T10:13:41.000Z</time>
      </trkpt>
      <trkpt lat="43.2360290" lon="-3.7030110">
        <ele>476.006989</ele>
        <time>2015-04-26T10:13:46.000Z</time>
      </trkpt>
      <trkpt lat="43.2359350" lon="-3.7029380">
        <ele>473.032013</ele>
        <time>2015-04-26T10:13:52.000Z</time>
      </trkpt>
      <trkpt lat="43.2358760" lon="-3.7028140">
        <ele>475.078003</ele>
        <time>2015-04-26T10:13:57.000Z</time>
      </trkpt>
      <trkpt lat="43.2358380" lon="-3.7026900">
        <ele>477.048004</ele>
        <time>2015-04-26T10:14:01.000Z</time>
      </trkpt>
      <trkpt lat="43.2357840" lon="-3.7025720">
        <ele>477.087006</ele>
        <time>2015-04-26T10:14:06.000Z</time>
      </trkpt>
      <trkpt lat="43.2357000" lon="-3.7025020">
        <ele>477.037994</ele>
        <time>2015-04-26T10:14:10.000Z</time>
      </trkpt>
      <trkpt lat="43.2356000" lon="-3.7024960">
        <ele>480.061005</ele>
        <time>2015-04-26T10:14:15.000Z</time>
      </trkpt>
      <trkpt lat="43.2355100" lon="-3.7025380">
        <ele>484.051025</ele>
        <time>2015-04-26T10:14:20.000Z</time>
      </trkpt>
      <trkpt lat="43.2354060" lon="-3.7025610">
        <ele>484.082001</ele>
        <time>2015-04-26T10:14:25.000Z</time>
      </trkpt>
      <trkpt lat="43.2353150" lon="-3.7025630">
        <ele>484.042999</ele>
        <time>2015-04-26T10:14:29.000Z</time>
      </trkpt>
      <trkpt lat="43.2352120" lon="-3.7025620">
        <ele>480.016998</ele>
        <time>2015-04-26T10:14:34.000Z</time>
      </trkpt>
      <trkpt lat="43.2351130" lon="-3.7025270">
        <ele>482.007019</ele>
        <time>2015-04-26T10:14:39.000Z</time>
      </trkpt>
      <trkpt lat="43.2350410" lon="-3.7024470">
        <ele>483.056976</ele>
        <time>2015-04-26T10:14:43.000Z</time>
      </trkpt>
      <trkpt lat="43.2349960" lon="-3.7023080">
        <ele>481.022980</ele>
        <time>2015-04-26T10:14:48.000Z</time>
      </trkpt>
      <trkpt lat="43.2349930" lon="-3.7021570">
        <ele>479.052979</ele>
        <time>2015-04-26T10:14:53.000Z</time>
      </trkpt>
      <trkpt lat="43.2349480" lon="-3.7020110">
        <ele>478.052002</ele>
        <time>2015-04-26T10:14:57.000Z</time>
      </trkpt>
      <trkpt lat="43.2348930" lon="-3.7019080">
        <ele>477.042999</ele>
        <time>2015-04-26T10:15:01.000Z</time>
      </trkpt>
      <trkpt lat="43.2347920" lon="-3.7018700">
        <ele>477.016022</ele>
        <time>2015-04-26T10:15:07.000Z</time>
      </trkpt>
      <trkpt lat="43.2346990" lon="-3.7018100">
        <ele>472.015991</ele>
        <time>2015-04-26T10:15:12.000Z</time>
      </trkpt>
      <trkpt lat="43.2346060" lon="-3.7017800">
        <ele>471.015015</ele>
        <time>2015-04-26T10:15:15.000Z</time>
      </trkpt>
      <trkpt lat="43.2344820" lon="-3.7017740">
        <ele>468.065002</ele>
        <time>2015-04-26T10:15:18.000Z</time>
      </trkpt>
      <trkpt lat="43.2343710" lon="-3.7017860">
        <ele>470.011017</ele>
        <time>2015-04-26T10:15:21.000Z</time>
      </trkpt>
      <trkpt lat="43.2342720" lon="-3.7018330">
        <ele>467.006989</ele>
        <time>2015-04-26T10:15:24.000Z</time>
      </trkpt>
      <trkpt lat="43.2341830" lon="-3.7018600">
        <ele>467.089996</ele>
        <time>2015-04-26T10:15:27.000Z</time>
      </trkpt>
      <trkpt lat="43.2340800" lon="-3.7018270">
        <ele>467.066010</ele>
        <time>2015-04-26T10:15:32.000Z</time>
      </trkpt>
      <trkpt lat="43.2339810" lon="-3.7017960">
        <ele>466.065979</ele>
        <time>2015-04-26T10:15:36.000Z</time>
      </trkpt>
      <trkpt lat="43.2338700" lon="-3.7017790">
        <ele>464.014984</ele>
        <time>2015-04-26T10:15:41.000Z</time>
      </trkpt>
      <trkpt lat="43.2337680" lon="-3.7017580">
        <ele>461.056000</ele>
        <time>2015-04-26T10:15:45.000Z</time>
      </trkpt>
      <trkpt lat="43.2336620" lon="-3.7017740">
        <ele>462.088989</ele>
        <time>2015-04-26T10:15:48.000Z</time>
      </trkpt>
      <trkpt lat="43.2335570" lon="-3.7017910">
        <ele>462.079010</ele>
        <time>2015-04-26T10:15:51.000Z</time>
      </trkpt>
      <trkpt lat="43.2334510" lon="-3.7017900">
        <ele>459.044983</ele>
        <time>2015-04-26T10:15:54.000Z</time>
      </trkpt>
      <trkpt lat="43.2333410" lon="-3.7017500">
        <ele>458.047028</ele>
        <time>2015-04-26T10:15:57.000Z</time>
      </trkpt>
      <trkpt lat="43.2332380" lon="-3.7016930">
        <ele>457.010986</ele>
        <time>2015-04-26T10:16:00.000Z</time>
      </trkpt>
      <trkpt lat="43.2331390" lon="-3.7016260">
        <ele>460.007019</ele>
        <time>2015-04-26T10:16:03.000Z</time>
      </trkpt>
      <trkpt lat="43.2330620" lon="-3.7015200">
        <ele>461.042999</ele>
        <time>2015-04-26T10:16:06.000Z</time>
      </trkpt>
      <trkpt lat="43.2329540" lon="-3.7014590">
        <ele>462.019012</ele>
        <time>2015-04-26T10:16:10.000Z</time>
      </trkpt>
      <trkpt lat="43.2328370" lon="-3.7014560">
        <ele>461.058990</ele>
        <time>2015-04-26T10:16:13.000Z</time>
      </trkpt>
      <trkpt lat="43.2327100" lon="-3.7014840">
        <ele>460.088013</ele>
        <time>2015-04-26T10:16:16.000Z</time>
      </trkpt>
      <trkpt lat="43.2325860" lon="-3.7015080">
        <ele>460.098999</ele>
        <time>2015-04-26T10:16:19.000Z</time>
      </trkpt>
      <trkpt lat="43.2324590" lon="-3.7015420">
        <ele>459.082001</ele>
        <time>2015-04-26T10:16:22.000Z</time>
      </trkpt>
      <trkpt lat="43.2323300" lon="-3.7015610">
        <ele>462.011993</ele>
        <time>2015-04-26T10:16:25.000Z</time>
      </trkpt>
      <trkpt lat="43.2322360" lon="-3.7015600">
        <ele>461.084015</ele>
        <time>2015-04-26T10:16:27.000Z</time>
      </trkpt>
      <trkpt lat="43.2321140" lon="-3.7016170">
        <ele>464.006989</ele>
        <time>2015-04-26T10:16:30.000Z</time>
      </trkpt>
      <trkpt lat="43.2320290" lon="-3.7016830">
        <ele>463.016998</ele>
        <time>2015-04-26T10:16:32.000Z</time>
      </trkpt>
      <trkpt lat="43.2319220" lon="-3.7017580">
        <ele>467.006989</ele>
        <time>2015-04-26T10:16:35.000Z</time>
      </trkpt>
      <trkpt lat="43.2318170" lon="-3.7018380">
        <ele>467.077026</ele>
        <time>2015-04-26T10:16:38.000Z</time>
      </trkpt>
      <trkpt lat="43.2317070" lon="-3.7019110">
        <ele>467.072998</ele>
        <time>2015-04-26T10:16:41.000Z</time>
      </trkpt>
      <trkpt lat="43.2316020" lon="-3.7020080">
        <ele>468.023010</ele>
        <time>2015-04-26T10:16:44.000Z</time>
      </trkpt>
      <trkpt lat="43.2315250" lon="-3.7021120">
        <ele>469.031982</ele>
        <time>2015-04-26T10:16:47.000Z</time>
      </trkpt>
      <trkpt lat="43.2314710" lon="-3.7022420">
        <ele>467.032990</ele>
        <time>2015-04-26T10:16:50.000Z</time>
      </trkpt>
      <trkpt lat="43.2314430" lon="-3.7023790">
        <ele>466.026001</ele>
        <time>2015-04-26T10:16:53.000Z</time>
      </trkpt>
      <trkpt lat="43.2314160" lon="-3.7025040">
        <ele>466.015991</ele>
        <time>2015-04-26T10:16:56.000Z</time>
      </trkpt>
      <trkpt lat="43.2313750" lon="-3.7026310">
        <ele>467.072998</ele>
        <time>2015-04-26T10:16:59.000Z</time>
      </trkpt>
      <trkpt lat="43.2313350" lon="-3.7027620">
        <ele>468.084991</ele>
        <time>2015-04-26T10:17:02.000Z</time>
      </trkpt>
      <trkpt lat="43.2312560" lon="-3.7028580">
        <ele>468.013000</ele>
        <time>2015-04-26T10:17:05.000Z</time>
      </trkpt>
      <trkpt lat="43.2311540" lon="-3.7029260">
        <ele>466.007019</ele>
        <time>2015-04-26T10:17:08.000Z</time>
      </trkpt>
      <trkpt lat="43.2310450" lon="-3.7029810">
        <ele>469.096008</ele>
        <time>2015-04-26T10:17:11.000Z</time>
      </trkpt>
      <trkpt lat="43.2309380" lon="-3.7030290">
        <ele>469.041992</ele>
        <time>2015-04-26T10:17:14.000Z</time>
      </trkpt>
      <trkpt lat="43.2308300" lon="-3.7030800">
        <ele>471.011993</ele>
        <time>2015-04-26T10:17:17.000Z</time>
      </trkpt>
      <trkpt lat="43.2307240" lon="-3.7031060">
        <ele>467.070984</ele>
        <time>2015-04-26T10:17:20.000Z</time>
      </trkpt>
      <trkpt lat="43.2306210" lon="-3.7031330">
        <ele>470.012024</ele>
        <time>2015-04-26T10:17:23.000Z</time>
      </trkpt>
      <trkpt lat="43.2305130" lon="-3.7031960">
        <ele>470.024994</ele>
        <time>2015-04-26T10:17:26.000Z</time>
      </trkpt>
      <trkpt lat="43.2304380" lon="-3.7033340">
        <ele>471.054993</ele>
        <time>2015-04-26T10:17:29.000Z</time>
      </trkpt>
      <trkpt lat="43.2303690" lon="-3.7034550">
        <ele>470.015991</ele>
        <time>2015-04-26T10:17:32.000Z</time>
      </trkpt>
      <trkpt lat="43.2302900" lon="-3.7035530">
        <ele>469.075989</ele>
        <time>2015-04-26T10:17:35.000Z</time>
      </trkpt>
      <trkpt lat="43.2301930" lon="-3.7036150">
        <ele>464.013031</ele>
        <time>2015-04-26T10:17:38.000Z</time>
      </trkpt>
      <trkpt lat="43.2300940" lon="-3.7036890">
        <ele>471.007019</ele>
        <time>2015-04-26T10:17:41.000Z</time>
      </trkpt>
      <trkpt lat="43.2299970" lon="-3.7037610">
        <ele>473.069977</ele>
        <time>2015-04-26T10:17:44.000Z</time>
      </trkpt>
      <trkpt lat="43.2298920" lon="-3.7038100">
        <ele>470.076019</ele>
        <time>2015-04-26T10:17:47.000Z</time>
      </trkpt>
      <trkpt lat="43.2297680" lon="-3.7038710">
        <ele>470.015991</ele>
        <time>2015-04-26T10:17:50.000Z</time>
      </trkpt>
      <trkpt lat="43.2296800" lon="-3.7039350">
        <ele>472.035004</ele>
        <time>2015-04-26T10:17:52.000Z</time>
      </trkpt>
      <trkpt lat="43.2295920" lon="-3.7040270">
        <ele>473.026001</ele>
        <time>2015-04-26T10:17:55.000Z</time>
      </trkpt>
      <trkpt lat="43.2295310" lon="-3.7041580">
        <ele>473.098999</ele>
        <time>2015-04-26T10:17:59.000Z</time>
      </trkpt>
      <trkpt lat="43.2294890" lon="-3.7042860">
        <ele>475.098999</ele>
        <time>2015-04-26T10:18:02.000Z</time>
      </trkpt>
      <trkpt lat="43.2294530" lon="-3.7044300">
        <ele>477.069000</ele>
        <time>2015-04-26T10:18:05.000Z</time>
      </trkpt>
      <trkpt lat="43.2294170" lon="-3.7045680">
        <ele>476.003998</ele>
        <time>2015-04-26T10:18:08.000Z</time>
      </trkpt>
      <trkpt lat="43.2293590" lon="-3.7046880">
        <ele>478.023987</ele>
        <time>2015-04-26T10:18:11.000Z</time>
      </trkpt>
      <trkpt lat="43.2292800" lon="-3.7047820">
        <ele>478.006989</ele>
        <time>2015-04-26T10:18:14.000Z</time>
      </trkpt>
      <trkpt lat="43.2291780" lon="-3.7048460">
        <ele>474.084991</ele>
        <time>2015-04-26T10:18:17.000Z</time>
      </trkpt>
      <trkpt lat="43.2290640" lon="-3.7048690">
        <ele>476.070984</ele>
        <time>2015-04-26T10:18:20.000Z</time>
      </trkpt>
      <trkpt lat="43.2289510" lon="-3.7048670">
        <ele>474.050995</ele>
        <time>2015-04-26T10:18:23.000Z</time>
      </trkpt>
      <trkpt lat="43.2288460" lon="-3.7048230">
        <ele>477.029999</ele>
        <time>2015-04-26T10:18:26.000Z</time>
      </trkpt>
      <trkpt lat="43.2287440" lon="-3.7048070">
        <ele>479.061005</ele>
        <time>2015-04-26T10:18:29.000Z</time>
      </trkpt>
      <trkpt lat="43.2286380" lon="-3.7048060">
        <ele>477.024017</ele>
        <time>2015-04-26T10:18:32.000Z</time>
      </trkpt>
      <trkpt lat="43.2285420" lon="-3.7048450">
        <ele>479.083984</ele>
        <time>2015-04-26T10:18:36.000Z</time>
      </trkpt>
      <trkpt lat="43.2284420" lon="-3.7048500">
        <ele>476.070984</ele>
        <time>2015-04-26T10:18:38.000Z</time>
      </trkpt>
      <trkpt lat="43.2283450" lon="-3.7048060">
        <ele>478.040985</ele>
        <time>2015-04-26T10:18:42.000Z</time>
      </trkpt>
      <trkpt lat="43.2282590" lon="-3.7047150">
        <ele>481.014984</ele>
        <time>2015-04-26T10:18:45.000Z</time>
      </trkpt>
      <trkpt lat="43.2281780" lon="-3.7046110">
        <ele>481.006989</ele>
        <time>2015-04-26T10:18:48.000Z</time>
      </trkpt>
      <trkpt lat="43.2280890" lon="-3.7045160">
        <ele>481.085999</ele>
        <time>2015-04-26T10:18:52.000Z</time>
      </trkpt>
      <trkpt lat="43.2279930" lon="-3.7044610">
        <ele>479.022003</ele>
        <time>2015-04-26T10:18:56.000Z</time>
      </trkpt>
      <trkpt lat="43.2278860" lon="-3.7044130">
        <ele>478.071991</ele>
        <time>2015-04-26T10:19:00.000Z</time>
      </trkpt>
      <trkpt lat="43.2277960" lon="-3.7044300">
        <ele>480.020996</ele>
        <time>2015-04-26T10:19:03.000Z</time>
      </trkpt>
      <trkpt lat="43.2276780" lon="-3.7044190">
        <ele>480.041992</ele>
        <time>2015-04-26T10:19:07.000Z</time>
      </trkpt>
      <trkpt lat="43.2275740" lon="-3.7044470">
        <ele>479.075012</ele>
        <time>2015-04-26T10:19:11.000Z</time>
      </trkpt>
      <trkpt lat="43.2274790" lon="-3.7044950">
        <ele>485.015015</ele>
        <time>2015-04-26T10:19:15.000Z</time>
      </trkpt>
      <trkpt lat="43.2273830" lon="-3.7045310">
        <ele>486.095978</ele>
        <time>2015-04-26T10:19:19.000Z</time>
      </trkpt>
      <trkpt lat="43.2273010" lon="-3.7046030">
        <ele>483.030975</ele>
        <time>2015-04-26T10:19:24.000Z</time>
      </trkpt>
      <trkpt lat="43.2272200" lon="-3.7046950">
        <ele>488.024017</ele>
        <time>2015-04-26T10:19:29.000Z</time>
      </trkpt>
      <trkpt lat="43.2271530" lon="-3.7048000">
        <ele>491.007019</ele>
        <time>2015-04-26T10:19:34.000Z</time>
      </trkpt>
      <trkpt lat="43.2270320" lon="-3.7048950">
        <ele>489.037994</ele>
        <time>2015-04-26T10:19:39.000Z</time>
      </trkpt>
      <trkpt lat="43.2269480" lon="-3.7049980">
        <ele>490.024017</ele>
        <time>2015-04-26T10:19:43.000Z</time>
      </trkpt>
      <trkpt lat="43.2268680" lon="-3.7050880">
        <ele>489.074005</ele>
        <time>2015-04-26T10:19:47.000Z</time>
      </trkpt>
      <trkpt lat="43.2267820" lon="-3.7051700">
        <ele>491.023010</ele>
        <time>2015-04-26T10:19:52.000Z</time>
      </trkpt>
      <trkpt lat="43.2266870" lon="-3.7052040">
        <ele>492.074005</ele>
        <time>2015-04-26T10:20:00.000Z</time>
      </trkpt>
      <trkpt lat="43.2265840" lon="-3.7052360">
        <ele>490.076996</ele>
        <time>2015-04-26T10:20:06.000Z</time>
      </trkpt>
      <trkpt lat="43.2264940" lon="-3.7052690">
        <ele>490.046997</ele>
        <time>2015-04-26T10:20:11.000Z</time>
      </trkpt>
      <trkpt lat="43.2263860" lon="-3.7052380">
        <ele>491.018982</ele>
        <time>2015-04-26T10:20:16.000Z</time>
      </trkpt>
      <trkpt lat="43.2262770" lon="-3.7052360">
        <ele>493.009003</ele>
        <time>2015-04-26T10:20:21.000Z</time>
      </trkpt>
      <trkpt lat="43.2261920" lon="-3.7052820">
        <ele>493.018982</ele>
        <time>2015-04-26T10:20:25.000Z</time>
      </trkpt>
      <trkpt lat="43.2260920" lon="-3.7053380">
        <ele>499.007019</ele>
        <time>2015-04-26T10:20:30.000Z</time>
      </trkpt>
      <trkpt lat="43.2259960" lon="-3.7054110">
        <ele>506.029999</ele>
        <time>2015-04-26T10:20:35.000Z</time>
      </trkpt>
      <trkpt lat="43.2259290" lon="-3.7055150">
        <ele>509.085999</ele>
        <time>2015-04-26T10:20:40.000Z</time>
      </trkpt>
      <trkpt lat="43.2258670" lon="-3.7056120">
        <ele>517.065979</ele>
        <time>2015-04-26T10:20:45.000Z</time>
      </trkpt>
      <trkpt lat="43.2257900" lon="-3.7057130">
        <ele>517.065002</ele>
        <time>2015-04-26T10:20:50.000Z</time>
      </trkpt>
      <trkpt lat="43.2257150" lon="-3.7058120">
        <ele>516.075989</ele>
        <time>2015-04-26T10:20:55.000Z</time>
      </trkpt>
      <trkpt lat="43.2256360" lon="-3.7058960">
        <ele>518.058960</ele>
        <time>2015-04-26T10:21:00.000Z</time>
      </trkpt>
      <trkpt lat="43.2255550" lon="-3.7059940">
        <ele>519.039001</ele>
        <time>2015-04-26T10:21:05.000Z</time>
      </trkpt>
      <trkpt lat="43.2255550" lon="-3.7060760">
        <ele>517.085022</ele>
        <time>2015-04-26T10:21:15.000Z</time>
      </trkpt>
      <trkpt lat="43.2255150" lon="-3.7061060">
        <ele>516.088989</ele>
        <time>2015-04-26T10:21:46.000Z</time>
      </trkpt>
      <trkpt lat="43.2255110" lon="-3.7061070">
        <ele>517.017029</ele>
        <time>2015-04-26T10:22:27.000Z</time>
      </trkpt>
      <trkpt lat="43.2255180" lon="-3.7061800">
        <ele>519.007019</ele>
        <time>2015-04-26T10:22:55.000Z</time>
      </trkpt>
      <trkpt lat="43.2256110" lon="-3.7062330">
        <ele>519.036987</ele>
        <time>2015-04-26T10:22:59.000Z</time>
      </trkpt>
      <trkpt lat="43.2257000" lon="-3.7061860">
        <ele>520.072998</ele>
        <time>2015-04-26T10:23:02.000Z</time>
      </trkpt>
      <trkpt lat="43.2257890" lon="-3.7061150">
        <ele>517.023010</ele>
        <time>2015-04-26T10:23:06.000Z</time>
      </trkpt>
      <trkpt lat="43.2258750" lon="-3.7060460">
        <ele>517.031982</ele>
        <time>2015-04-26T10:23:10.000Z</time>
      </trkpt>
      <trkpt lat="43.2259600" lon="-3.7059720">
        <ele>518.093018</ele>
        <time>2015-04-26T10:23:14.000Z</time>
      </trkpt>
      <trkpt lat="43.2260410" lon="-3.7058980">
        <ele>516.065979</ele>
        <time>2015-04-26T10:23:18.000Z</time>
      </trkpt>
      <trkpt lat="43.2261230" lon="-3.7058260">
        <ele>514.055969</ele>
        <time>2015-04-26T10:23:22.000Z</time>
      </trkpt>
      <trkpt lat="43.2262140" lon="-3.7057570">
        <ele>516.052002</ele>
        <time>2015-04-26T10:23:26.000Z</time>
      </trkpt>
      <trkpt lat="43.2262980" lon="-3.7056800">
        <ele>515.052979</ele>
        <time>2015-04-26T10:23:30.000Z</time>
      </trkpt>
      <trkpt lat="43.2263840" lon="-3.7056280">
        <ele>514.007996</ele>
        <time>2015-04-26T10:23:34.000Z</time>
      </trkpt>
      <trkpt lat="43.2264780" lon="-3.7055900">
        <ele>515.007019</ele>
        <time>2015-04-26T10:23:38.000Z</time>
      </trkpt>
      <trkpt lat="43.2265830" lon="-3.7055520">
        <ele>519.014038</ele>
        <time>2015-04-26T10:23:42.000Z</time>
      </trkpt>
      <trkpt lat="43.2266810" lon="-3.7055400">
        <ele>520.029968</ele>
        <time>2015-04-26T10:23:46.000Z</time>
      </trkpt>
      <trkpt lat="43.2267930" lon="-3.7055410">
        <ele>521.010010</ele>
        <time>2015-04-26T10:23:51.000Z</time>
      </trkpt>
      <trkpt lat="43.2268980" lon="-3.7055350">
        <ele>523.059021</ele>
        <time>2015-04-26T10:23:55.000Z</time>
      </trkpt>
      <trkpt lat="43.2270040" lon="-3.7055360">
        <ele>526.070007</ele>
        <time>2015-04-26T10:23:59.000Z</time>
      </trkpt>
      <trkpt lat="43.2270950" lon="-3.7055390">
        <ele>532.023010</ele>
        <time>2015-04-26T10:24:03.000Z</time>
      </trkpt>
      <trkpt lat="43.2271860" lon="-3.7055370">
        <ele>531.062988</ele>
        <time>2015-04-26T10:24:07.000Z</time>
      </trkpt>
      <trkpt lat="43.2272850" lon="-3.7055260">
        <ele>531.065002</ele>
        <time>2015-04-26T10:24:12.000Z</time>
      </trkpt>
      <trkpt lat="43.2273910" lon="-3.7055300">
        <ele>530.067993</ele>
        <time>2015-04-26T10:24:19.000Z</time>
      </trkpt>
      <trkpt lat="43.2274930" lon="-3.7055570">
        <ele>529.013977</ele>
        <time>2015-04-26T10:24:25.000Z</time>
      </trkpt>
      <trkpt lat="43.2275930" lon="-3.7055900">
        <ele>531.007019</ele>
        <time>2015-04-26T10:24:30.000Z</time>
      </trkpt>
      <trkpt lat="43.2276890" lon="-3.7056350">
        <ele>534.084961</ele>
        <time>2015-04-26T10:24:35.000Z</time>
      </trkpt>
      <trkpt lat="43.2277890" lon="-3.7056630">
        <ele>535.060974</ele>
        <time>2015-04-26T10:24:40.000Z</time>
      </trkpt>
      <trkpt lat="43.2278880" lon="-3.7056880">
        <ele>535.031006</ele>
        <time>2015-04-26T10:24:45.000Z</time>
      </trkpt>
      <trkpt lat="43.2279860" lon="-3.7057160">
        <ele>537.049988</ele>
        <time>2015-04-26T10:24:50.000Z</time>
      </trkpt>
      <trkpt lat="43.2280770" lon="-3.7057410">
        <ele>540.060974</ele>
        <time>2015-04-26T10:24:55.000Z</time>
      </trkpt>
      <trkpt lat="43.2281800" lon="-3.7057860">
        <ele>537.023987</ele>
        <time>2015-04-26T10:25:01.000Z</time>
      </trkpt>
      <trkpt lat="43.2282740" lon="-3.7058320">
        <ele>536.054016</ele>
        <time>2015-04-26T10:25:06.000Z</time>
      </trkpt>
      <trkpt lat="43.2283740" lon="-3.7058770">
        <ele>533.051025</ele>
        <time>2015-04-26T10:25:11.000Z</time>
      </trkpt>
      <trkpt lat="43.2284680" lon="-3.7059180">
        <ele>538.000977</ele>
        <time>2015-04-26T10:25:16.000Z</time>
      </trkpt>
      <trkpt lat="43.2285740" lon="-3.7059380">
        <ele>539.010986</ele>
        <time>2015-04-26T10:25:21.000Z</time>
      </trkpt>
      <trkpt lat="43.2286790" lon="-3.7059670">
        <ele>537.007019</ele>
        <time>2015-04-26T10:25:26.000Z</time>
      </trkpt>
      <trkpt lat="43.2287770" lon="-3.7060260">
        <ele>544.033997</ele>
        <time>2015-04-26T10:25:31.000Z</time>
      </trkpt>
      <trkpt lat="43.2288650" lon="-3.7060950">
        <ele>541.030029</ele>
        <time>2015-04-26T10:25:36.000Z</time>
      </trkpt>
      <trkpt lat="43.2289470" lon="-3.7061620">
        <ele>539.029968</ele>
        <time>2015-04-26T10:25:41.000Z</time>
      </trkpt>
      <trkpt lat="43.2290390" lon="-3.7062180">
        <ele>543.039001</ele>
        <time>2015-04-26T10:25:46.000Z</time>
      </trkpt>
      <trkpt lat="43.2291300" lon="-3.7062910">
        <ele>542.020020</ele>
        <time>2015-04-26T10:25:50.000Z</time>
      </trkpt>
      <trkpt lat="43.2292280" lon="-3.7063230">
        <ele>542.072998</ele>
        <time>2015-04-26T10:25:55.000Z</time>
      </trkpt>
      <trkpt lat="43.2293160" lon="-3.7062770">
        <ele>545.083008</ele>
        <time>2015-04-26T10:26:00.000Z</time>
      </trkpt>
      <trkpt lat="43.2294140" lon="-3.7062290">
        <ele>547.038025</ele>
        <time>2015-04-26T10:26:06.000Z</time>
      </trkpt>
      <trkpt lat="43.2295160" lon="-3.7062010">
        <ele>547.070007</ele>
        <time>2015-04-26T10:26:10.000Z</time>
      </trkpt>
      <trkpt lat="43.2296200" lon="-3.7061800">
        <ele>549.016968</ele>
        <time>2015-04-26T10:26:17.000Z</time>
      </trkpt>
      <trkpt lat="43.2297040" lon="-3.7061250">
        <ele>553.007019</ele>
        <time>2015-04-26T10:26:22.000Z</time>
      </trkpt>
      <trkpt lat="43.2297900" lon="-3.7060410">
        <ele>554.082031</ele>
        <time>2015-04-26T10:26:27.000Z</time>
      </trkpt>
      <trkpt lat="43.2298770" lon="-3.7059770">
        <ele>549.057983</ele>
        <time>2015-04-26T10:26:33.000Z</time>
      </trkpt>
      <trkpt lat="43.2299680" lon="-3.7059110">
        <ele>554.088013</ele>
        <time>2015-04-26T10:26:38.000Z</time>
      </trkpt>
      <trkpt lat="43.2300430" lon="-3.7058400">
        <ele>555.046997</ele>
        <time>2015-04-26T10:26:43.000Z</time>
      </trkpt>
      <trkpt lat="43.2301210" lon="-3.7057630">
        <ele>550.098022</ele>
        <time>2015-04-26T10:26:48.000Z</time>
      </trkpt>
      <trkpt lat="43.2302020" lon="-3.7056870">
        <ele>550.051025</ele>
        <time>2015-04-26T10:26:53.000Z</time>
      </trkpt>
      <trkpt lat="43.2302770" lon="-3.7056060">
        <ele>556.080994</ele>
        <time>2015-04-26T10:26:59.000Z</time>
      </trkpt>
      <trkpt lat="43.2303710" lon="-3.7055730">
        <ele>549.026001</ele>
        <time>2015-04-26T10:27:04.000Z</time>
      </trkpt>
      <trkpt lat="43.2304710" lon="-3.7055610">
        <ele>551.046997</ele>
        <time>2015-04-26T10:27:09.000Z</time>
      </trkpt>
      <trkpt lat="43.2305760" lon="-3.7055660">
        <ele>556.010986</ele>
        <time>2015-04-26T10:27:14.000Z</time>
      </trkpt>
      <trkpt lat="43.2307010" lon="-3.7055610">
        <ele>559.007019</ele>
        <time>2015-04-26T10:27:17.000Z</time>
      </trkpt>
      <trkpt lat="43.2307900" lon="-3.7055830">
        <ele>562.010986</ele>
        <time>2015-04-26T10:27:20.000Z</time>
      </trkpt>
      <trkpt lat="43.2308840" lon="-3.7055190">
        <ele>567.096985</ele>
        <time>2015-04-26T10:27:28.000Z</time>
      </trkpt>
      <trkpt lat="43.2309810" lon="-3.7054200">
        <ele>569.036987</ele>
        <time>2015-04-26T10:27:33.000Z</time>
      </trkpt>
      <trkpt lat="43.2310510" lon="-3.7053310">
        <ele>571.066040</ele>
        <time>2015-04-26T10:27:38.000Z</time>
      </trkpt>
      <trkpt lat="43.2311080" lon="-3.7052210">
        <ele>568.057007</ele>
        <time>2015-04-26T10:27:44.000Z</time>
      </trkpt>
      <trkpt lat="43.2311570" lon="-3.7050970">
        <ele>570.020020</ele>
        <time>2015-04-26T10:27:50.000Z</time>
      </trkpt>
      <trkpt lat="43.2312230" lon="-3.7049910">
        <ele>571.090027</ele>
        <time>2015-04-26T10:27:55.000Z</time>
      </trkpt>
      <trkpt lat="43.2312850" lon="-3.7048870">
        <ele>570.057983</ele>
        <time>2015-04-26T10:28:00.000Z</time>
      </trkpt>
      <trkpt lat="43.2313420" lon="-3.7047920">
        <ele>573.052002</ele>
        <time>2015-04-26T10:28:05.000Z</time>
      </trkpt>
      <trkpt lat="43.2314190" lon="-3.7046890">
        <ele>575.016968</ele>
        <time>2015-04-26T10:28:11.000Z</time>
      </trkpt>
      <trkpt lat="43.2315240" lon="-3.7046370">
        <ele>577.007019</ele>
        <time>2015-04-26T10:28:16.000Z</time>
      </trkpt>
      <trkpt lat="43.2316230" lon="-3.7045990">
        <ele>579.074036</ele>
        <time>2015-04-26T10:28:20.000Z</time>
      </trkpt>
      <trkpt lat="43.2317310" lon="-3.7045880">
        <ele>576.039978</ele>
        <time>2015-04-26T10:28:25.000Z</time>
      </trkpt>
      <trkpt lat="43.2318350" lon="-3.7046270">
        <ele>575.079956</ele>
        <time>2015-04-26T10:28:31.000Z</time>
      </trkpt>
      <trkpt lat="43.2319260" lon="-3.7046660">
        <ele>570.059021</ele>
        <time>2015-04-26T10:28:36.000Z</time>
      </trkpt>
      <trkpt lat="43.2320300" lon="-3.7046780">
        <ele>569.089966</ele>
        <time>2015-04-26T10:28:42.000Z</time>
      </trkpt>
      <trkpt lat="43.2321240" lon="-3.7046870">
        <ele>569.062988</ele>
        <time>2015-04-26T10:28:47.000Z</time>
      </trkpt>
      <trkpt lat="43.2322190" lon="-3.7047140">
        <ele>571.083008</ele>
        <time>2015-04-26T10:28:52.000Z</time>
      </trkpt>
      <trkpt lat="43.2323190" lon="-3.7047400">
        <ele>573.092957</ele>
        <time>2015-04-26T10:28:57.000Z</time>
      </trkpt>
      <trkpt lat="43.2324230" lon="-3.7047820">
        <ele>574.065002</ele>
        <time>2015-04-26T10:29:02.000Z</time>
      </trkpt>
      <trkpt lat="43.2325230" lon="-3.7047920">
        <ele>572.020996</ele>
        <time>2015-04-26T10:29:07.000Z</time>
      </trkpt>
      <trkpt lat="43.2326130" lon="-3.7048120">
        <ele>574.007019</ele>
        <time>2015-04-26T10:29:12.000Z</time>
      </trkpt>
      <trkpt lat="43.2327030" lon="-3.7048520">
        <ele>574.078003</ele>
        <time>2015-04-26T10:29:18.000Z</time>
      </trkpt>
      <trkpt lat="43.2327860" lon="-3.7049070">
        <ele>579.054016</ele>
        <time>2015-04-26T10:29:23.000Z</time>
      </trkpt>
      <trkpt lat="43.2328870" lon="-3.7049410">
        <ele>580.033997</ele>
        <time>2015-04-26T10:29:28.000Z</time>
      </trkpt>
      <trkpt lat="43.2329840" lon="-3.7049840">
        <ele>582.083008</ele>
        <time>2015-04-26T10:29:33.000Z</time>
      </trkpt>
      <trkpt lat="43.2330650" lon="-3.7050390">
        <ele>583.014038</ele>
        <time>2015-04-26T10:29:38.000Z</time>
      </trkpt>
      <trkpt lat="43.2331540" lon="-3.7050800">
        <ele>586.077026</ele>
        <time>2015-04-26T10:29:43.000Z</time>
      </trkpt>
      <trkpt lat="43.2332440" lon="-3.7051220">
        <ele>586.046997</ele>
        <time>2015-04-26T10:29:48.000Z</time>
      </trkpt>
      <trkpt lat="43.2333270" lon="-3.7051840">
        <ele>589.036987</ele>
        <time>2015-04-26T10:29:53.000Z</time>
      </trkpt>
      <trkpt lat="43.2334290" lon="-3.7052260">
        <ele>589.049011</ele>
        <time>2015-04-26T10:29:59.000Z</time>
      </trkpt>
      <trkpt lat="43.2335180" lon="-3.7052510">
        <ele>590.013000</ele>
        <time>2015-04-26T10:30:04.000Z</time>
      </trkpt>
      <trkpt lat="43.2336060" lon="-3.7053120">
        <ele>588.007019</ele>
        <time>2015-04-26T10:30:10.000Z</time>
      </trkpt>
      <trkpt lat="43.2336970" lon="-3.7053720">
        <ele>589.041992</ele>
        <time>2015-04-26T10:30:17.000Z</time>
      </trkpt>
      <trkpt lat="43.2337660" lon="-3.7054540">
        <ele>594.028015</ele>
        <time>2015-04-26T10:30:23.000Z</time>
      </trkpt>
      <trkpt lat="43.2338300" lon="-3.7055420">
        <ele>594.097961</ele>
        <time>2015-04-26T10:30:28.000Z</time>
      </trkpt>
      <trkpt lat="43.2338990" lon="-3.7056570">
        <ele>593.086975</ele>
        <time>2015-04-26T10:30:34.000Z</time>
      </trkpt>
      <trkpt lat="43.2339400" lon="-3.7057690">
        <ele>597.097961</ele>
        <time>2015-04-26T10:30:39.000Z</time>
      </trkpt>
      <trkpt lat="43.2339710" lon="-3.7058990">
        <ele>597.091003</ele>
        <time>2015-04-26T10:30:45.000Z</time>
      </trkpt>
      <trkpt lat="43.2339660" lon="-3.7060240">
        <ele>598.051025</ele>
        <time>2015-04-26T10:30:50.000Z</time>
      </trkpt>
      <trkpt lat="43.2339330" lon="-3.7061570">
        <ele>596.074036</ele>
        <time>2015-04-26T10:30:55.000Z</time>
      </trkpt>
      <trkpt lat="43.2338750" lon="-3.7062780">
        <ele>598.055969</ele>
        <time>2015-04-26T10:31:00.000Z</time>
      </trkpt>
      <trkpt lat="43.2338210" lon="-3.7063860">
        <ele>602.020996</ele>
        <time>2015-04-26T10:31:05.000Z</time>
      </trkpt>
      <trkpt lat="43.2337720" lon="-3.7065160">
        <ele>599.007019</ele>
        <time>2015-04-26T10:31:10.000Z</time>
      </trkpt>
      <trkpt lat="43.2337390" lon="-3.7066300">
        <ele>596.036011</ele>
        <time>2015-04-26T10:31:14.000Z</time>
      </trkpt>
      <trkpt lat="43.2337190" lon="-3.7067590">
        <ele>595.072021</ele>
        <time>2015-04-26T10:31:18.000Z</time>
      </trkpt>
      <trkpt lat="43.2337070" lon="-3.7068980">
        <ele>598.041992</ele>
        <time>2015-04-26T10:31:22.000Z</time>
      </trkpt>
      <trkpt lat="43.2337110" lon="-3.7070340">
        <ele>598.010986</ele>
        <time>2015-04-26T10:31:27.000Z</time>
      </trkpt>
      <trkpt lat="43.2337090" lon="-3.7071800">
        <ele>601.041992</ele>
        <time>2015-04-26T10:31:32.000Z</time>
      </trkpt>
      <trkpt lat="43.2337320" lon="-3.7073230">
        <ele>601.025024</ele>
        <time>2015-04-26T10:31:38.000Z</time>
      </trkpt>
      <trkpt lat="43.2337250" lon="-3.7074600">
        <ele>604.065002</ele>
        <time>2015-04-26T10:31:43.000Z</time>
      </trkpt>
      <trkpt lat="43.2337300" lon="-3.7075950">
        <ele>608.010986</ele>
        <time>2015-04-26T10:31:49.000Z</time>
      </trkpt>
      <trkpt lat="43.2337110" lon="-3.7077210">
        <ele>612.020996</ele>
        <time>2015-04-26T10:31:54.000Z</time>
      </trkpt>
      <trkpt lat="43.2336620" lon="-3.7078360">
        <ele>610.002991</ele>
        <time>2015-04-26T10:31:58.000Z</time>
      </trkpt>
      <trkpt lat="43.2336160" lon="-3.7079480">
        <ele>611.006958</ele>
        <time>2015-04-26T10:32:02.000Z</time>
      </trkpt>
      <trkpt lat="43.2335850" lon="-3.7080740">
        <ele>611.059998</ele>
        <time>2015-04-26T10:32:07.000Z</time>
      </trkpt>
      <trkpt lat="43.2335250" lon="-3.7081960">
        <ele>613.036011</ele>
        <time>2015-04-26T10:32:12.000Z</time>
      </trkpt>
      <trkpt lat="43.2334690" lon="-3.7083300">
        <ele>610.036011</ele>
        <time>2015-04-26T10:32:17.000Z</time>
      </trkpt>
      <trkpt lat="43.2334280" lon="-3.7084480">
        <ele>606.035034</ele>
        <time>2015-04-26T10:32:21.000Z</time>
      </trkpt>
      <trkpt lat="43.2333710" lon="-3.7085740">
        <ele>607.036011</ele>
        <time>2015-04-26T10:32:26.000Z</time>
      </trkpt>
      <trkpt lat="43.2333060" lon="-3.7086760">
        <ele>607.088989</ele>
        <time>2015-04-26T10:32:29.000Z</time>
      </trkpt>
      <trkpt lat="43.2332810" lon="-3.7088030">
        <ele>606.039001</ele>
        <time>2015-04-26T10:32:33.000Z</time>
      </trkpt>
      <trkpt lat="43.2332890" lon="-3.7089400">
        <ele>604.070984</ele>
        <time>2015-04-26T10:32:37.000Z</time>
      </trkpt>
      <trkpt lat="43.2333180" lon="-3.7090920">
        <ele>606.041016</ele>
        <time>2015-04-26T10:32:41.000Z</time>
      </trkpt>
      <trkpt lat="43.2333380" lon="-3.7092260">
        <ele>610.015015</ele>
        <time>2015-04-26T10:32:45.000Z</time>
      </trkpt>
      <trkpt lat="43.2333850" lon="-3.7093420">
        <ele>609.007019</ele>
        <time>2015-04-26T10:32:49.000Z</time>
      </trkpt>
      <trkpt lat="43.2334690" lon="-3.7094590">
        <ele>610.056030</ele>
        <time>2015-04-26T10:32:53.000Z</time>
      </trkpt>
      <trkpt lat="43.2335620" lon="-3.7095520">
        <ele>614.081970</ele>
        <time>2015-04-26T10:32:57.000Z</time>
      </trkpt>
      <trkpt lat="43.2336600" lon="-3.7095930">
        <ele>616.032043</ele>
        <time>2015-04-26T10:33:01.000Z</time>
      </trkpt>
      <trkpt lat="43.2337680" lon="-3.7096260">
        <ele>615.011047</ele>
        <time>2015-04-26T10:33:05.000Z</time>
      </trkpt>
      <trkpt lat="43.2338530" lon="-3.7096850">
        <ele>617.071960</ele>
        <time>2015-04-26T10:33:10.000Z</time>
      </trkpt>
      <trkpt lat="43.2339560" lon="-3.7097110">
        <ele>616.085022</ele>
        <time>2015-04-26T10:33:16.000Z</time>
      </trkpt>
      <trkpt lat="43.2340560" lon="-3.7097570">
        <ele>616.034973</ele>
        <time>2015-04-26T10:33:22.000Z</time>
      </trkpt>
      <trkpt lat="43.2341540" lon="-3.7098160">
        <ele>616.032043</ele>
        <time>2015-04-26T10:33:27.000Z</time>
      </trkpt>
      <trkpt lat="43.2342500" lon="-3.7098670">
        <ele>615.092041</ele>
        <time>2015-04-26T10:33:32.000Z</time>
      </trkpt>
      <trkpt lat="43.2343380" lon="-3.7099230">
        <ele>615.011047</ele>
        <time>2015-04-26T10:33:37.000Z</time>
      </trkpt>
      <trkpt lat="43.2344300" lon="-3.7099600">
        <ele>618.007019</ele>
        <time>2015-04-26T10:33:42.000Z</time>
      </trkpt>
      <trkpt lat="43.2345180" lon="-3.7100040">
        <ele>614.071960</ele>
        <time>2015-04-26T10:33:47.000Z</time>
      </trkpt>
      <trkpt lat="43.2346120" lon="-3.7100550">
        <ele>616.038025</ele>
        <time>2015-04-26T10:33:52.000Z</time>
      </trkpt>
      <trkpt lat="43.2347030" lon="-3.7101150">
        <ele>617.037964</ele>
        <time>2015-04-26T10:33:57.000Z</time>
      </trkpt>
      <trkpt lat="43.2347810" lon="-3.7101850">
        <ele>617.067017</ele>
        <time>2015-04-26T10:34:02.000Z</time>
      </trkpt>
      <trkpt lat="43.2348680" lon="-3.7102600">
        <ele>618.078003</ele>
        <time>2015-04-26T10:34:07.000Z</time>
      </trkpt>
      <trkpt lat="43.2349220" lon="-3.7103610">
        <ele>613.060974</ele>
        <time>2015-04-26T10:34:12.000Z</time>
      </trkpt>
      <trkpt lat="43.2349490" lon="-3.7104850">
        <ele>615.011047</ele>
        <time>2015-04-26T10:34:17.000Z</time>
      </trkpt>
      <trkpt lat="43.2349510" lon="-3.7106180">
        <ele>620.078003</ele>
        <time>2015-04-26T10:34:23.000Z</time>
      </trkpt>
      <trkpt lat="43.2349210" lon="-3.7107470">
        <ele>619.032959</ele>
        <time>2015-04-26T10:34:28.000Z</time>
      </trkpt>
      <trkpt lat="43.2348870" lon="-3.7108780">
        <ele>620.026001</ele>
        <time>2015-04-26T10:34:33.000Z</time>
      </trkpt>
      <trkpt lat="43.2348430" lon="-3.7109920">
        <ele>622.006958</ele>
        <time>2015-04-26T10:34:38.000Z</time>
      </trkpt>
      <trkpt lat="43.2347980" lon="-3.7111150">
        <ele>621.056030</ele>
        <time>2015-04-26T10:34:44.000Z</time>
      </trkpt>
      <trkpt lat="43.2347580" lon="-3.7112430">
        <ele>621.031982</ele>
        <time>2015-04-26T10:34:50.000Z</time>
      </trkpt>
      <trkpt lat="43.2347220" lon="-3.7113580">
        <ele>625.011963</ele>
        <time>2015-04-26T10:34:54.000Z</time>
      </trkpt>
      <trkpt lat="43.2347050" lon="-3.7114830">
        <ele>627.020996</ele>
        <time>2015-04-26T10:34:59.000Z</time>
      </trkpt>
      <trkpt lat="43.2347040" lon="-3.7116200">
        <ele>630.071960</ele>
        <time>2015-04-26T10:35:05.000Z</time>
      </trkpt>
      <trkpt lat="43.2347220" lon="-3.7117510">
        <ele>630.014954</ele>
        <time>2015-04-26T10:35:12.000Z</time>
      </trkpt>
      <trkpt lat="43.2347760" lon="-3.7118670">
        <ele>630.025024</ele>
        <time>2015-04-26T10:35:18.000Z</time>
      </trkpt>
      <trkpt lat="43.2348110" lon="-3.7119810">
        <ele>631.036011</ele>
        <time>2015-04-26T10:35:23.000Z</time>
      </trkpt>
      <trkpt lat="43.2348390" lon="-3.7121120">
        <ele>631.017029</ele>
        <time>2015-04-26T10:35:29.000Z</time>
      </trkpt>
      <trkpt lat="43.2348930" lon="-3.7122360">
        <ele>630.018005</ele>
        <time>2015-04-26T10:35:35.000Z</time>
      </trkpt>
      <trkpt lat="43.2349660" lon="-3.7123420">
        <ele>630.007019</ele>
        <time>2015-04-26T10:35:42.000Z</time>
      </trkpt>
      <trkpt lat="43.2350200" lon="-3.7124530">
        <ele>631.072021</ele>
        <time>2015-04-26T10:35:47.000Z</time>
      </trkpt>
      <trkpt lat="43.2350740" lon="-3.7125650">
        <ele>631.047974</ele>
        <time>2015-04-26T10:35:54.000Z</time>
      </trkpt>
      <trkpt lat="43.2351080" lon="-3.7126820">
        <ele>636.028015</ele>
        <time>2015-04-26T10:35:59.000Z</time>
      </trkpt>
      <trkpt lat="43.2351330" lon="-3.7128020">
        <ele>634.036987</ele>
        <time>2015-04-26T10:36:04.000Z</time>
      </trkpt>
      <trkpt lat="43.2351490" lon="-3.7129290">
        <ele>636.088013</ele>
        <time>2015-04-26T10:36:09.000Z</time>
      </trkpt>
      <trkpt lat="43.2351550" lon="-3.7130720">
        <ele>636.060974</ele>
        <time>2015-04-26T10:36:15.000Z</time>
      </trkpt>
      <trkpt lat="43.2351390" lon="-3.7132080">
        <ele>638.080994</ele>
        <time>2015-04-26T10:36:21.000Z</time>
      </trkpt>
      <trkpt lat="43.2351110" lon="-3.7133450">
        <ele>641.095947</ele>
        <time>2015-04-26T10:36:27.000Z</time>
      </trkpt>
      <trkpt lat="43.2350830" lon="-3.7134650">
        <ele>639.031006</ele>
        <time>2015-04-26T10:36:32.000Z</time>
      </trkpt>
      <trkpt lat="43.2350410" lon="-3.7135780">
        <ele>644.024048</ele>
        <time>2015-04-26T10:36:37.000Z</time>
      </trkpt>
      <trkpt lat="43.2349940" lon="-3.7136920">
        <ele>645.007019</ele>
        <time>2015-04-26T10:36:41.000Z</time>
      </trkpt>
      <trkpt lat="43.2349560" lon="-3.7138090">
        <ele>648.037964</ele>
        <time>2015-04-26T10:36:46.000Z</time>
      </trkpt>
      <trkpt lat="43.2349130" lon="-3.7139200">
        <ele>650.043945</ele>
        <time>2015-04-26T10:36:51.000Z</time>
      </trkpt>
      <trkpt lat="43.2348440" lon="-3.7140150">
        <ele>651.083984</ele>
        <time>2015-04-26T10:36:56.000Z</time>
      </trkpt>
      <trkpt lat="43.2348030" lon="-3.7141350">
        <ele>648.092957</ele>
        <time>2015-04-26T10:37:02.000Z</time>
      </trkpt>
      <trkpt lat="43.2347490" lon="-3.7142430">
        <ele>646.064026</ele>
        <time>2015-04-26T10:37:06.000Z</time>
      </trkpt>
      <trkpt lat="43.2346670" lon="-3.7143110">
        <ele>646.016968</ele>
        <time>2015-04-26T10:37:11.000Z</time>
      </trkpt>
      <trkpt lat="43.2346060" lon="-3.7144240">
        <ele>648.026978</ele>
        <time>2015-04-26T10:37:16.000Z</time>
      </trkpt>
      <trkpt lat="43.2345650" lon="-3.7145340">
        <ele>648.055969</ele>
        <time>2015-04-26T10:37:21.000Z</time>
      </trkpt>
      <trkpt lat="43.2345810" lon="-3.7146660">
        <ele>648.058960</ele>
        <time>2015-04-26T10:37:27.000Z</time>
      </trkpt>
      <trkpt lat="43.2345220" lon="-3.7147690">
        <ele>647.013977</ele>
        <time>2015-04-26T10:37:33.000Z</time>
      </trkpt>
      <trkpt lat="43.2345470" lon="-3.7149030">
        <ele>648.007019</ele>
        <time>2015-04-26T10:37:38.000Z</time>
      </trkpt>
      <trkpt lat="43.2345720" lon="-3.7150430">
        <ele>643.084045</ele>
        <time>2015-04-26T10:37:43.000Z</time>
      </trkpt>
      <trkpt lat="43.2345770" lon="-3.7151840">
        <ele>642.049988</ele>
        <time>2015-04-26T10:37:48.000Z</time>
      </trkpt>
      <trkpt lat="43.2345640" lon="-3.7153370">
        <ele>644.079956</ele>
        <time>2015-04-26T10:37:53.000Z</time>
      </trkpt>
      <trkpt lat="43.2345590" lon="-3.7154870">
        <ele>644.059021</ele>
        <time>2015-04-26T10:37:57.000Z</time>
      </trkpt>
      <trkpt lat="43.2345520" lon="-3.7156320">
        <ele>646.020020</ele>
        <time>2015-04-26T10:38:02.000Z</time>
      </trkpt>
      <trkpt lat="43.2345510" lon="-3.7157710">
        <ele>645.042969</ele>
        <time>2015-04-26T10:38:07.000Z</time>
      </trkpt>
      <trkpt lat="43.2345540" lon="-3.7159010">
        <ele>648.053040</ele>
        <time>2015-04-26T10:38:13.000Z</time>
      </trkpt>
      <trkpt lat="43.2345500" lon="-3.7159800">
        <ele>648.078979</ele>
        <time>2015-04-26T10:38:47.000Z</time>
      </trkpt>
      <trkpt lat="43.2345190" lon="-3.7161010">
        <ele>649.005005</ele>
        <time>2015-04-26T10:38:50.000Z</time>
      </trkpt>
      <trkpt lat="43.2344760" lon="-3.7162110">
        <ele>647.024963</ele>
        <time>2015-04-26T10:38:53.000Z</time>
      </trkpt>
      <trkpt lat="43.2344250" lon="-3.7163560">
        <ele>651.007019</ele>
        <time>2015-04-26T10:38:57.000Z</time>
      </trkpt>
      <trkpt lat="43.2343890" lon="-3.7164950">
        <ele>651.075989</ele>
        <time>2015-04-26T10:39:01.000Z</time>
      </trkpt>
      <trkpt lat="43.2343450" lon="-3.7166320">
        <ele>653.042053</ele>
        <time>2015-04-26T10:39:06.000Z</time>
      </trkpt>
      <trkpt lat="43.2343120" lon="-3.7167670">
        <ele>653.052002</ele>
        <time>2015-04-26T10:39:10.000Z</time>
      </trkpt>
      <trkpt lat="43.2342720" lon="-3.7168970">
        <ele>653.041016</ele>
        <time>2015-04-26T10:39:14.000Z</time>
      </trkpt>
      <trkpt lat="43.2342480" lon="-3.7170390">
        <ele>656.072021</ele>
        <time>2015-04-26T10:39:19.000Z</time>
      </trkpt>
      <trkpt lat="43.2342480" lon="-3.7171870">
        <ele>656.054993</ele>
        <time>2015-04-26T10:39:23.000Z</time>
      </trkpt>
      <trkpt lat="43.2342620" lon="-3.7173310">
        <ele>656.034973</ele>
        <time>2015-04-26T10:39:27.000Z</time>
      </trkpt>
      <trkpt lat="43.2343090" lon="-3.7174570">
        <ele>657.098999</ele>
        <time>2015-04-26T10:39:31.000Z</time>
      </trkpt>
      <trkpt lat="43.2343750" lon="-3.7175510">
        <ele>655.007019</ele>
        <time>2015-04-26T10:39:34.000Z</time>
      </trkpt>
      <trkpt lat="43.2344550" lon="-3.7176320">
        <ele>655.027039</ele>
        <time>2015-04-26T10:39:38.000Z</time>
      </trkpt>
      <trkpt lat="43.2345240" lon="-3.7177140">
        <ele>658.007019</ele>
        <time>2015-04-26T10:39:42.000Z</time>
      </trkpt>
      <trkpt lat="43.2345960" lon="-3.7177990">
        <ele>658.037964</ele>
        <time>2015-04-26T10:39:46.000Z</time>
      </trkpt>
      <trkpt lat="43.2346680" lon="-3.7178870">
        <ele>659.083984</ele>
        <time>2015-04-26T10:39:50.000Z</time>
      </trkpt>
      <trkpt lat="43.2347390" lon="-3.7179750">
        <ele>658.023987</ele>
        <time>2015-04-26T10:39:54.000Z</time>
      </trkpt>
      <trkpt lat="43.2348050" lon="-3.7180740">
        <ele>656.063049</ele>
        <time>2015-04-26T10:39:58.000Z</time>
      </trkpt>
      <trkpt lat="43.2348700" lon="-3.7181670">
        <ele>658.023987</ele>
        <time>2015-04-26T10:40:02.000Z</time>
      </trkpt>
      <trkpt lat="43.2349470" lon="-3.7182530">
        <ele>660.096985</ele>
        <time>2015-04-26T10:40:06.000Z</time>
      </trkpt>
      <trkpt lat="43.2350120" lon="-3.7183520">
        <ele>660.026978</ele>
        <time>2015-04-26T10:40:10.000Z</time>
      </trkpt>
      <trkpt lat="43.2350910" lon="-3.7184210">
        <ele>661.016052</ele>
        <time>2015-04-26T10:40:14.000Z</time>
      </trkpt>
      <trkpt lat="43.2351840" lon="-3.7184550">
        <ele>660.076050</ele>
        <time>2015-04-26T10:40:18.000Z</time>
      </trkpt>
      <trkpt lat="43.2352880" lon="-3.7184340">
        <ele>659.013000</ele>
        <time>2015-04-26T10:40:22.000Z</time>
      </trkpt>
      <trkpt lat="43.2353830" lon="-3.7183620">
        <ele>659.007019</ele>
        <time>2015-04-26T10:40:26.000Z</time>
      </trkpt>
      <trkpt lat="43.2354820" lon="-3.7182690">
        <ele>660.010010</ele>
        <time>2015-04-26T10:40:30.000Z</time>
      </trkpt>
      <trkpt lat="43.2355750" lon="-3.7181670">
        <ele>660.015991</ele>
        <time>2015-04-26T10:40:34.000Z</time>
      </trkpt>
      <trkpt lat="43.2356550" lon="-3.7180850">
        <ele>662.015991</ele>
        <time>2015-04-26T10:40:37.000Z</time>
      </trkpt>
      <trkpt lat="43.2357340" lon="-3.7180000">
        <ele>662.054993</ele>
        <time>2015-04-26T10:40:40.000Z</time>
      </trkpt>
      <trkpt lat="43.2358140" lon="-3.7179200">
        <ele>663.015991</ele>
        <time>2015-04-26T10:40:43.000Z</time>
      </trkpt>
      <trkpt lat="43.2359010" lon="-3.7178360">
        <ele>664.058960</ele>
        <time>2015-04-26T10:40:46.000Z</time>
      </trkpt>
      <trkpt lat="43.2359880" lon="-3.7177580">
        <ele>664.028992</ele>
        <time>2015-04-26T10:40:49.000Z</time>
      </trkpt>
      <trkpt lat="43.2360700" lon="-3.7176810">
        <ele>663.013000</ele>
        <time>2015-04-26T10:40:52.000Z</time>
      </trkpt>
      <trkpt lat="43.2361520" lon="-3.7176090">
        <ele>664.042969</ele>
        <time>2015-04-26T10:40:55.000Z</time>
      </trkpt>
      <trkpt lat="43.2362380" lon="-3.7175450">
        <ele>665.007019</ele>
        <time>2015-04-26T10:40:58.000Z</time>
      </trkpt>
      <trkpt lat="43.2363300" lon="-3.7174790">
        <ele>666.006958</ele>
        <time>2015-04-26T10:41:02.000Z</time>
      </trkpt>
      <trkpt lat="43.2364200" lon="-3.7174070">
        <ele>666.040039</ele>
        <time>2015-04-26T10:41:05.000Z</time>
      </trkpt>
      <trkpt lat="43.2364990" lon="-3.7173250">
        <ele>665.055969</ele>
        <time>2015-04-26T10:41:08.000Z</time>
      </trkpt>
      <trkpt lat="43.2365780" lon="-3.7172480">
        <ele>663.065979</ele>
        <time>2015-04-26T10:41:11.000Z</time>
      </trkpt>
      <trkpt lat="43.2366540" lon="-3.7171690">
        <ele>664.094971</ele>
        <time>2015-04-26T10:41:14.000Z</time>
      </trkpt>
      <trkpt lat="43.2367420" lon="-3.7170940">
        <ele>663.026001</ele>
        <time>2015-04-26T10:41:17.000Z</time>
      </trkpt>
      <trkpt lat="43.2368210" lon="-3.7170050">
        <ele>663.038940</ele>
        <time>2015-04-26T10:41:20.000Z</time>
      </trkpt>
      <trkpt lat="43.2368930" lon="-3.7168980">
        <ele>662.048950</ele>
        <time>2015-04-26T10:41:23.000Z</time>
      </trkpt>
      <trkpt lat="43.2369390" lon="-3.7167680">
        <ele>660.063965</ele>
        <time>2015-04-26T10:41:26.000Z</time>
      </trkpt>
      <trkpt lat="43.2370050" lon="-3.7166280">
        <ele>661.005981</ele>
        <time>2015-04-26T10:41:29.000Z</time>
      </trkpt>
      <trkpt lat="43.2370640" lon="-3.7164780">
        <ele>660.015991</ele>
        <time>2015-04-26T10:41:32.000Z</time>
      </trkpt>
      <trkpt lat="43.2371260" lon="-3.7163230">
        <ele>662.007019</ele>
        <time>2015-04-26T10:41:35.000Z</time>
      </trkpt>
      <trkpt lat="43.2371790" lon="-3.7161590">
        <ele>662.034973</ele>
        <time>2015-04-26T10:41:38.000Z</time>
      </trkpt>
      <trkpt lat="43.2372240" lon="-3.7159870">
        <ele>662.061035</ele>
        <time>2015-04-26T10:41:41.000Z</time>
      </trkpt>
      <trkpt lat="43.2372630" lon="-3.7158170">
        <ele>662.050964</ele>
        <time>2015-04-26T10:41:44.000Z</time>
      </trkpt>
      <trkpt lat="43.2372930" lon="-3.7156810">
        <ele>662.040039</ele>
        <time>2015-04-26T10:41:46.000Z</time>
      </trkpt>
      <trkpt lat="43.2373430" lon="-3.7155670">
        <ele>661.060974</ele>
        <time>2015-04-26T10:41:48.000Z</time>
      </trkpt>
      <trkpt lat="43.2374080" lon="-3.7154560">
        <ele>661.083984</ele>
        <time>2015-04-26T10:41:50.000Z</time>
      </trkpt>
      <trkpt lat="43.2374920" lon="-3.7153480">
        <ele>659.063965</ele>
        <time>2015-04-26T10:41:52.000Z</time>
      </trkpt>
      <trkpt lat="43.2376020" lon="-3.7152730">
        <ele>659.010986</ele>
        <time>2015-04-26T10:41:54.000Z</time>
      </trkpt>
      <trkpt lat="43.2377880" lon="-3.7152680">
        <ele>658.020996</ele>
        <time>2015-04-26T10:41:56.000Z</time>
      </trkpt>
      <trkpt lat="43.2379110" lon="-3.7153040">
        <ele>657.003052</ele>
        <time>2015-04-26T10:41:58.000Z</time>
      </trkpt>
      <trkpt lat="43.2380410" lon="-3.7153850">
        <ele>655.007019</ele>
        <time>2015-04-26T10:42:00.000Z</time>
      </trkpt>
      <trkpt lat="43.2381930" lon="-3.7154770">
        <ele>655.020020</ele>
        <time>2015-04-26T10:42:02.000Z</time>
      </trkpt>
      <trkpt lat="43.2383300" lon="-3.7155340">
        <ele>655.036011</ele>
        <time>2015-04-26T10:42:04.000Z</time>
      </trkpt>
      <trkpt lat="43.2384950" lon="-3.7155400">
        <ele>654.065979</ele>
        <time>2015-04-26T10:42:06.000Z</time>
      </trkpt>
      <trkpt lat="43.2386320" lon="-3.7154290">
        <ele>655.014954</ele>
        <time>2015-04-26T10:42:08.000Z</time>
      </trkpt>
      <trkpt lat="43.2387160" lon="-3.7153290">
        <ele>652.096008</ele>
        <time>2015-04-26T10:42:09.000Z</time>
      </trkpt>
      <trkpt lat="43.2387770" lon="-3.7152210">
        <ele>653.079041</ele>
        <time>2015-04-26T10:42:10.000Z</time>
      </trkpt>
      <trkpt lat="43.2388950" lon="-3.7150320">
        <ele>654.049011</ele>
        <time>2015-04-26T10:42:12.000Z</time>
      </trkpt>
      <trkpt lat="43.2389820" lon="-3.7149510">
        <ele>654.092957</ele>
        <time>2015-04-26T10:42:13.000Z</time>
      </trkpt>
      <trkpt lat="43.2390730" lon="-3.7148750">
        <ele>652.065002</ele>
        <time>2015-04-26T10:42:14.000Z</time>
      </trkpt>
      <trkpt lat="43.2392120" lon="-3.7147080">
        <ele>650.020996</ele>
        <time>2015-04-26T10:42:16.000Z</time>
      </trkpt>
      <trkpt lat="43.2393250" lon="-3.7145900">
        <ele>651.007019</ele>
        <time>2015-04-26T10:42:18.000Z</time>
      </trkpt>
      <trkpt lat="43.2394300" lon="-3.7145120">
        <ele>648.078003</ele>
        <time>2015-04-26T10:42:20.000Z</time>
      </trkpt>
      <trkpt lat="43.2395360" lon="-3.7145460">
        <ele>648.054016</ele>
        <time>2015-04-26T10:42:21.000Z</time>
      </trkpt>
      <trkpt lat="43.2396090" lon="-3.7146310">
        <ele>648.064026</ele>
        <time>2015-04-26T10:42:22.000Z</time>
      </trkpt>
      <trkpt lat="43.2397090" lon="-3.7148100">
        <ele>648.023010</ele>
        <time>2015-04-26T10:42:24.000Z</time>
      </trkpt>
      <trkpt lat="43.2397840" lon="-3.7149760">
        <ele>647.024048</ele>
        <time>2015-04-26T10:42:26.000Z</time>
      </trkpt>
      <trkpt lat="43.2398420" lon="-3.7151730">
        <ele>648.076965</ele>
        <time>2015-04-26T10:42:28.000Z</time>
      </trkpt>
      <trkpt lat="43.2399030" lon="-3.7153400">
        <ele>646.077026</ele>
        <time>2015-04-26T10:42:30.000Z</time>
      </trkpt>
      <trkpt lat="43.2399470" lon="-3.7155240">
        <ele>643.073975</ele>
        <time>2015-04-26T10:42:32.000Z</time>
      </trkpt>
      <trkpt lat="43.2400010" lon="-3.7156850">
        <ele>644.056030</ele>
        <time>2015-04-26T10:42:34.000Z</time>
      </trkpt>
      <trkpt lat="43.2400440" lon="-3.7158550">
        <ele>645.020996</ele>
        <time>2015-04-26T10:42:36.000Z</time>
      </trkpt>
      <trkpt lat="43.2400910" lon="-3.7160230">
        <ele>649.007019</ele>
        <time>2015-04-26T10:42:38.000Z</time>
      </trkpt>
      <trkpt lat="43.2401220" lon="-3.7161790">
        <ele>648.085999</ele>
        <time>2015-04-26T10:42:40.000Z</time>
      </trkpt>
      <trkpt lat="43.2401890" lon="-3.7162840">
        <ele>651.062012</ele>
        <time>2015-04-26T10:42:42.000Z</time>
      </trkpt>
      <trkpt lat="43.2402400" lon="-3.7164430">
        <ele>646.031982</ele>
        <time>2015-04-26T10:42:45.000Z</time>
      </trkpt>
      <trkpt lat="43.2402570" lon="-3.7165920">
        <ele>646.050964</ele>
        <time>2015-04-26T10:42:49.000Z</time>
      </trkpt>
      <trkpt lat="43.2402890" lon="-3.7167210">
        <ele>649.021973</ele>
        <time>2015-04-26T10:42:54.000Z</time>
      </trkpt>
      <trkpt lat="43.2403250" lon="-3.7168490">
        <ele>651.035034</ele>
        <time>2015-04-26T10:42:59.000Z</time>
      </trkpt>
      <trkpt lat="43.2403550" lon="-3.7169800">
        <ele>653.044983</ele>
        <time>2015-04-26T10:43:04.000Z</time>
      </trkpt>
      <trkpt lat="43.2403410" lon="-3.7170410">
        <ele>650.086975</ele>
        <time>2015-04-26T10:43:31.000Z</time>
      </trkpt>
      <trkpt lat="43.2403790" lon="-3.7171700">
        <ele>650.042053</ele>
        <time>2015-04-26T10:43:34.000Z</time>
      </trkpt>
      <trkpt lat="43.2404140" lon="-3.7172940">
        <ele>646.026001</ele>
        <time>2015-04-26T10:43:37.000Z</time>
      </trkpt>
      <trkpt lat="43.2404220" lon="-3.7174530">
        <ele>649.007019</ele>
        <time>2015-04-26T10:43:41.000Z</time>
      </trkpt>
      <trkpt lat="43.2404440" lon="-3.7175830">
        <ele>650.067017</ele>
        <time>2015-04-26T10:43:45.000Z</time>
      </trkpt>
      <trkpt lat="43.2404670" lon="-3.7177140">
        <ele>649.023010</ele>
        <time>2015-04-26T10:43:49.000Z</time>
      </trkpt>
      <trkpt lat="43.2404880" lon="-3.7178560">
        <ele>648.033020</ele>
        <time>2015-04-26T10:43:53.000Z</time>
      </trkpt>
      <trkpt lat="43.2405350" lon="-3.7179660">
        <ele>653.052002</ele>
        <time>2015-04-26T10:43:57.000Z</time>
      </trkpt>
      <trkpt lat="43.2405750" lon="-3.7181000">
        <ele>656.082947</ele>
        <time>2015-04-26T10:44:01.000Z</time>
      </trkpt>
      <trkpt lat="43.2406170" lon="-3.7182220">
        <ele>656.025940</ele>
        <time>2015-04-26T10:44:05.000Z</time>
      </trkpt>
      <trkpt lat="43.2406440" lon="-3.7183690">
        <ele>657.065979</ele>
        <time>2015-04-26T10:44:10.000Z</time>
      </trkpt>
      <trkpt lat="43.2406630" lon="-3.7185110">
        <ele>658.067017</ele>
        <time>2015-04-26T10:44:15.000Z</time>
      </trkpt>
      <trkpt lat="43.2406920" lon="-3.7186290">
        <ele>660.080994</ele>
        <time>2015-04-26T10:44:20.000Z</time>
      </trkpt>
      <trkpt lat="43.2407090" lon="-3.7187580">
        <ele>663.019043</ele>
        <time>2015-04-26T10:44:27.000Z</time>
      </trkpt>
      <trkpt lat="43.2407320" lon="-3.7188840">
        <ele>664.007019</ele>
        <time>2015-04-26T10:44:34.000Z</time>
      </trkpt>
      <trkpt lat="43.2407650" lon="-3.7190100">
        <ele>664.054993</ele>
        <time>2015-04-26T10:44:41.000Z</time>
      </trkpt>
      <trkpt lat="43.2408010" lon="-3.7191290">
        <ele>668.091003</ele>
        <time>2015-04-26T10:44:47.000Z</time>
      </trkpt>
      <trkpt lat="43.2408040" lon="-3.7192650">
        <ele>667.010986</ele>
        <time>2015-04-26T10:44:54.000Z</time>
      </trkpt>
      <trkpt lat="43.2407840" lon="-3.7194000">
        <ele>672.070007</ele>
        <time>2015-04-26T10:45:01.000Z</time>
      </trkpt>
      <trkpt lat="43.2407480" lon="-3.7195280">
        <ele>674.030945</ele>
        <time>2015-04-26T10:45:08.000Z</time>
      </trkpt>
      <trkpt lat="43.2407550" lon="-3.7196510">
        <ele>676.014038</ele>
        <time>2015-04-26T10:45:15.000Z</time>
      </trkpt>
      <trkpt lat="43.2407700" lon="-3.7197880">
        <ele>677.093994</ele>
        <time>2015-04-26T10:45:23.000Z</time>
      </trkpt>
      <trkpt lat="43.2407790" lon="-3.7199170">
        <ele>678.095032</ele>
        <time>2015-04-26T10:45:31.000Z</time>
      </trkpt>
      <trkpt lat="43.2407700" lon="-3.7200540">
        <ele>682.049011</ele>
        <time>2015-04-26T10:45:39.000Z</time>
      </trkpt>
      <trkpt lat="43.2407600" lon="-3.7201890">
        <ele>681.023010</ele>
        <time>2015-04-26T10:45:46.000Z</time>
      </trkpt>
      <trkpt lat="43.2407880" lon="-3.7203130">
        <ele>680.007019</ele>
        <time>2015-04-26T10:45:53.000Z</time>
      </trkpt>
      <trkpt lat="43.2408000" lon="-3.7204410">
        <ele>681.057983</ele>
        <time>2015-04-26T10:46:00.000Z</time>
      </trkpt>
      <trkpt lat="43.2407780" lon="-3.7205710">
        <ele>679.074036</ele>
        <time>2015-04-26T10:46:07.000Z</time>
      </trkpt>
      <trkpt lat="43.2407460" lon="-3.7206960">
        <ele>681.093994</ele>
        <time>2015-04-26T10:46:14.000Z</time>
      </trkpt>
      <trkpt lat="43.2407370" lon="-3.7208450">
        <ele>680.043030</ele>
        <time>2015-04-26T10:46:20.000Z</time>
      </trkpt>
      <trkpt lat="43.2407340" lon="-3.7209830">
        <ele>678.043945</ele>
        <time>2015-04-26T10:46:25.000Z</time>
      </trkpt>
      <trkpt lat="43.2407110" lon="-3.7211180">
        <ele>679.067017</ele>
        <time>2015-04-26T10:46:30.000Z</time>
      </trkpt>
      <trkpt lat="43.2407070" lon="-3.7212490">
        <ele>679.076965</ele>
        <time>2015-04-26T10:46:35.000Z</time>
      </trkpt>
      <trkpt lat="43.2407340" lon="-3.7213700">
        <ele>678.033020</ele>
        <time>2015-04-26T10:46:39.000Z</time>
      </trkpt>
      <trkpt lat="43.2407850" lon="-3.7214880">
        <ele>676.023010</ele>
        <time>2015-04-26T10:46:43.000Z</time>
      </trkpt>
      <trkpt lat="43.2408430" lon="-3.7215880">
        <ele>678.015015</ele>
        <time>2015-04-26T10:46:46.000Z</time>
      </trkpt>
      <trkpt lat="43.2408860" lon="-3.7217060">
        <ele>678.006958</ele>
        <time>2015-04-26T10:46:49.000Z</time>
      </trkpt>
      <trkpt lat="43.2409550" lon="-3.7217980">
        <ele>677.041992</ele>
        <time>2015-04-26T10:46:52.000Z</time>
      </trkpt>
      <trkpt lat="43.2410220" lon="-3.7218840">
        <ele>676.048035</ele>
        <time>2015-04-26T10:46:55.000Z</time>
      </trkpt>
      <trkpt lat="43.2411160" lon="-3.7219240">
        <ele>677.018005</ele>
        <time>2015-04-26T10:46:58.000Z</time>
      </trkpt>
      <trkpt lat="43.2412320" lon="-3.7219220">
        <ele>678.017029</ele>
        <time>2015-04-26T10:47:01.000Z</time>
      </trkpt>
      <trkpt lat="43.2413330" lon="-3.7219110">
        <ele>678.027954</ele>
        <time>2015-04-26T10:47:04.000Z</time>
      </trkpt>
      <trkpt lat="43.2414220" lon="-3.7218700">
        <ele>679.060974</ele>
        <time>2015-04-26T10:47:07.000Z</time>
      </trkpt>
      <trkpt lat="43.2415330" lon="-3.7218560">
        <ele>679.060974</ele>
        <time>2015-04-26T10:47:11.000Z</time>
      </trkpt>
      <trkpt lat="43.2416340" lon="-3.7218790">
        <ele>678.026978</ele>
        <time>2015-04-26T10:47:15.000Z</time>
      </trkpt>
      <trkpt lat="43.2417260" lon="-3.7219160">
        <ele>679.067993</ele>
        <time>2015-04-26T10:47:18.000Z</time>
      </trkpt>
      <trkpt lat="43.2418120" lon="-3.7219770">
        <ele>684.013977</ele>
        <time>2015-04-26T10:47:21.000Z</time>
      </trkpt>
      <trkpt lat="43.2419000" lon="-3.7220610">
        <ele>683.007019</ele>
        <time>2015-04-26T10:47:24.000Z</time>
      </trkpt>
      <trkpt lat="43.2419690" lon="-3.7221410">
        <ele>685.060974</ele>
        <time>2015-04-26T10:47:27.000Z</time>
      </trkpt>
      <trkpt lat="43.2420260" lon="-3.7222450">
        <ele>684.016968</ele>
        <time>2015-04-26T10:47:31.000Z</time>
      </trkpt>
      <trkpt lat="43.2420600" lon="-3.7223880">
        <ele>685.037048</ele>
        <time>2015-04-26T10:47:35.000Z</time>
      </trkpt>
      <trkpt lat="43.2421200" lon="-3.7225100">
        <ele>687.075989</ele>
        <time>2015-04-26T10:47:39.000Z</time>
      </trkpt>
      <trkpt lat="43.2421850" lon="-3.7226120">
        <ele>686.067017</ele>
        <time>2015-04-26T10:47:44.000Z</time>
      </trkpt>
      <trkpt lat="43.2422530" lon="-3.7227130">
        <ele>693.070007</ele>
        <time>2015-04-26T10:47:50.000Z</time>
      </trkpt>
      <trkpt lat="43.2423480" lon="-3.7227910">
        <ele>696.059998</ele>
        <time>2015-04-26T10:47:55.000Z</time>
      </trkpt>
      <trkpt lat="43.2424310" lon="-3.7228630">
        <ele>698.017029</ele>
        <time>2015-04-26T10:48:00.000Z</time>
      </trkpt>
      <trkpt lat="43.2424990" lon="-3.7229640">
        <ele>700.086975</ele>
        <time>2015-04-26T10:48:06.000Z</time>
      </trkpt>
      <trkpt lat="43.2425660" lon="-3.7230600">
        <ele>697.015015</ele>
        <time>2015-04-26T10:48:12.000Z</time>
      </trkpt>
      <trkpt lat="43.2426580" lon="-3.7230940">
        <ele>691.006958</ele>
        <time>2015-04-26T10:48:18.000Z</time>
      </trkpt>
      <trkpt lat="43.2427530" lon="-3.7231410">
        <ele>694.020020</ele>
        <time>2015-04-26T10:48:25.000Z</time>
      </trkpt>
      <trkpt lat="43.2428520" lon="-3.7231790">
        <ele>692.075989</ele>
        <time>2015-04-26T10:48:32.000Z</time>
      </trkpt>
      <trkpt lat="43.2429510" lon="-3.7231570">
        <ele>691.076050</ele>
        <time>2015-04-26T10:48:38.000Z</time>
      </trkpt>
      <trkpt lat="43.2430570" lon="-3.7231470">
        <ele>696.034973</ele>
        <time>2015-04-26T10:48:43.000Z</time>
      </trkpt>
      <trkpt lat="43.2431500" lon="-3.7231210">
        <ele>695.085999</ele>
        <time>2015-04-26T10:48:46.000Z</time>
      </trkpt>
      <trkpt lat="43.2432460" lon="-3.7230910">
        <ele>693.048950</ele>
        <time>2015-04-26T10:48:51.000Z</time>
      </trkpt>
      <trkpt lat="43.2433340" lon="-3.7230220">
        <ele>695.049011</ele>
        <time>2015-04-26T10:48:58.000Z</time>
      </trkpt>
      <trkpt lat="43.2434230" lon="-3.7229510">
        <ele>697.085999</ele>
        <time>2015-04-26T10:49:04.000Z</time>
      </trkpt>
      <trkpt lat="43.2435050" lon="-3.7228770">
        <ele>696.059998</ele>
        <time>2015-04-26T10:49:10.000Z</time>
      </trkpt>
      <trkpt lat="43.2436010" lon="-3.7228270">
        <ele>693.026001</ele>
        <time>2015-04-26T10:49:16.000Z</time>
      </trkpt>
      <trkpt lat="43.2436990" lon="-3.7227800">
        <ele>696.007019</ele>
        <time>2015-04-26T10:49:21.000Z</time>
      </trkpt>
      <trkpt lat="43.2437840" lon="-3.7227380">
        <ele>696.096985</ele>
        <time>2015-04-26T10:49:25.000Z</time>
      </trkpt>
      <trkpt lat="43.2438880" lon="-3.7227480">
        <ele>696.013062</ele>
        <time>2015-04-26T10:49:30.000Z</time>
      </trkpt>
      <trkpt lat="43.2439940" lon="-3.7227460">
        <ele>698.092957</ele>
        <time>2015-04-26T10:49:35.000Z</time>
      </trkpt>
      <trkpt lat="43.2440990" lon="-3.7227640">
        <ele>699.091980</ele>
        <time>2015-04-26T10:49:40.000Z</time>
      </trkpt>
      <trkpt lat="43.2442090" lon="-3.7227770">
        <ele>696.052979</ele>
        <time>2015-04-26T10:49:45.000Z</time>
      </trkpt>
      <trkpt lat="43.2443020" lon="-3.7227580">
        <ele>697.045959</ele>
        <time>2015-04-26T10:49:50.000Z</time>
      </trkpt>
      <trkpt lat="43.2443880" lon="-3.7227140">
        <ele>698.035950</ele>
        <time>2015-04-26T10:49:55.000Z</time>
      </trkpt>
      <trkpt lat="43.2444660" lon="-3.7226460">
        <ele>700.085999</ele>
        <time>2015-04-26T10:50:00.000Z</time>
      </trkpt>
      <trkpt lat="43.2445350" lon="-3.7225470">
        <ele>704.059998</ele>
        <time>2015-04-26T10:50:05.000Z</time>
      </trkpt>
      <trkpt lat="43.2446040" lon="-3.7224560">
        <ele>706.025940</ele>
        <time>2015-04-26T10:50:10.000Z</time>
      </trkpt>
      <trkpt lat="43.2446930" lon="-3.7224200">
        <ele>703.006958</ele>
        <time>2015-04-26T10:50:17.000Z</time>
      </trkpt>
      <trkpt lat="43.2447710" lon="-3.7224800">
        <ele>704.096985</ele>
        <time>2015-04-26T10:50:22.000Z</time>
      </trkpt>
      <trkpt lat="43.2448390" lon="-3.7225920">
        <ele>706.033020</ele>
        <time>2015-04-26T10:50:27.000Z</time>
      </trkpt>
      <trkpt lat="43.2448640" lon="-3.7227310">
        <ele>709.052979</ele>
        <time>2015-04-26T10:50:32.000Z</time>
      </trkpt>
      <trkpt lat="43.2448400" lon="-3.7228730">
        <ele>707.072021</ele>
        <time>2015-04-26T10:50:37.000Z</time>
      </trkpt>
      <trkpt lat="43.2448120" lon="-3.7229950">
        <ele>707.033020</ele>
        <time>2015-04-26T10:50:42.000Z</time>
      </trkpt>
      <trkpt lat="43.2448570" lon="-3.7231400">
        <ele>711.055969</ele>
        <time>2015-04-26T10:50:47.000Z</time>
      </trkpt>
      <trkpt lat="43.2449110" lon="-3.7232590">
        <ele>713.056030</ele>
        <time>2015-04-26T10:50:52.000Z</time>
      </trkpt>
      <trkpt lat="43.2449480" lon="-3.7233840">
        <ele>714.013000</ele>
        <time>2015-04-26T10:50:57.000Z</time>
      </trkpt>
      <trkpt lat="43.2449960" lon="-3.7235000">
        <ele>716.042969</ele>
        <time>2015-04-26T10:51:02.000Z</time>
      </trkpt>
      <trkpt lat="43.2450510" lon="-3.7236210">
        <ele>720.007019</ele>
        <time>2015-04-26T10:51:07.000Z</time>
      </trkpt>
      <trkpt lat="43.2451170" lon="-3.7237170">
        <ele>720.007019</ele>
        <time>2015-04-26T10:51:12.000Z</time>
      </trkpt>
      <trkpt lat="43.2451950" lon="-3.7238020">
        <ele>724.089966</ele>
        <time>2015-04-26T10:51:19.000Z</time>
      </trkpt>
      <trkpt lat="43.2452940" lon="-3.7238430">
        <ele>722.026001</ele>
        <time>2015-04-26T10:51:26.000Z</time>
      </trkpt>
      <trkpt lat="43.2453910" lon="-3.7238960">
        <ele>721.036011</ele>
        <time>2015-04-26T10:51:32.000Z</time>
      </trkpt>
      <trkpt lat="43.2454860" lon="-3.7239610">
        <ele>724.014954</ele>
        <time>2015-04-26T10:51:38.000Z</time>
      </trkpt>
      <trkpt lat="43.2455700" lon="-3.7240490">
        <ele>722.065979</ele>
        <time>2015-04-26T10:51:44.000Z</time>
      </trkpt>
      <trkpt lat="43.2456560" lon="-3.7241170">
        <ele>721.078979</ele>
        <time>2015-04-26T10:51:50.000Z</time>
      </trkpt>
      <trkpt lat="43.2457440" lon="-3.7241800">
        <ele>723.028992</ele>
        <time>2015-04-26T10:51:57.000Z</time>
      </trkpt>
      <trkpt lat="43.2458200" lon="-3.7242550">
        <ele>724.098022</ele>
        <time>2015-04-26T10:52:03.000Z</time>
      </trkpt>
      <trkpt lat="43.2458980" lon="-3.7243180">
        <ele>725.015015</ele>
        <time>2015-04-26T10:52:11.000Z</time>
      </trkpt>
      <trkpt lat="43.2459740" lon="-3.7243880">
        <ele>726.026001</ele>
        <time>2015-04-26T10:52:18.000Z</time>
      </trkpt>
      <trkpt lat="43.2460310" lon="-3.7245020">
        <ele>728.006958</ele>
        <time>2015-04-26T10:52:25.000Z</time>
      </trkpt>
      <trkpt lat="43.2460590" lon="-3.7246400">
        <ele>729.037964</ele>
        <time>2015-04-26T10:52:32.000Z</time>
      </trkpt>
      <trkpt lat="43.2460610" lon="-3.7247770">
        <ele>729.023987</ele>
        <time>2015-04-26T10:52:39.000Z</time>
      </trkpt>
      <trkpt lat="43.2460480" lon="-3.7249020">
        <ele>730.053955</ele>
        <time>2015-04-26T10:52:46.000Z</time>
      </trkpt>
      <trkpt lat="43.2459830" lon="-3.7249960">
        <ele>732.083008</ele>
        <time>2015-04-26T10:52:54.000Z</time>
      </trkpt>
      <trkpt lat="43.2458950" lon="-3.7250380">
        <ele>733.084045</ele>
        <time>2015-04-26T10:53:03.000Z</time>
      </trkpt>
      <trkpt lat="43.2457990" lon="-3.7250140">
        <ele>732.017029</ele>
        <time>2015-04-26T10:53:12.000Z</time>
      </trkpt>
      <trkpt lat="43.2457110" lon="-3.7249820">
        <ele>735.037048</ele>
        <time>2015-04-26T10:53:21.000Z</time>
      </trkpt>
      <trkpt lat="43.2456220" lon="-3.7249570">
        <ele>736.032043</ele>
        <time>2015-04-26T10:53:30.000Z</time>
      </trkpt>
      <trkpt lat="43.2455270" lon="-3.7249260">
        <ele>737.091980</ele>
        <time>2015-04-26T10:53:37.000Z</time>
      </trkpt>
      <trkpt lat="43.2454300" lon="-3.7249450">
        <ele>736.010986</ele>
        <time>2015-04-26T10:53:43.000Z</time>
      </trkpt>
      <trkpt lat="43.2453310" lon="-3.7249550">
        <ele>736.007019</ele>
        <time>2015-04-26T10:53:49.000Z</time>
      </trkpt>
      <trkpt lat="43.2452330" lon="-3.7249610">
        <ele>737.091980</ele>
        <time>2015-04-26T10:53:55.000Z</time>
      </trkpt>
      <trkpt lat="43.2451380" lon="-3.7249910">
        <ele>739.088013</ele>
        <time>2015-04-26T10:54:02.000Z</time>
      </trkpt>
      <trkpt lat="43.2450470" lon="-3.7250240">
        <ele>740.027954</ele>
        <time>2015-04-26T10:54:09.000Z</time>
      </trkpt>
      <trkpt lat="43.2449560" lon="-3.7250850">
        <ele>742.087036</ele>
        <time>2015-04-26T10:54:16.000Z</time>
      </trkpt>
      <trkpt lat="43.2448590" lon="-3.7251250">
        <ele>742.048035</ele>
        <time>2015-04-26T10:54:23.000Z</time>
      </trkpt>
      <trkpt lat="43.2447620" lon="-3.7251530">
        <ele>743.031067</ele>
        <time>2015-04-26T10:54:30.000Z</time>
      </trkpt>
      <trkpt lat="43.2446740" lon="-3.7251810">
        <ele>744.091003</ele>
        <time>2015-04-26T10:54:36.000Z</time>
      </trkpt>
      <trkpt lat="43.2445780" lon="-3.7251900">
        <ele>743.088989</ele>
        <time>2015-04-26T10:54:42.000Z</time>
      </trkpt>
      <trkpt lat="43.2444760" lon="-3.7251800">
        <ele>744.005981</ele>
        <time>2015-04-26T10:54:49.000Z</time>
      </trkpt>
      <trkpt lat="43.2443750" lon="-3.7251730">
        <ele>745.026001</ele>
        <time>2015-04-26T10:54:56.000Z</time>
      </trkpt>
      <trkpt lat="43.2442710" lon="-3.7251670">
        <ele>747.006958</ele>
        <time>2015-04-26T10:55:03.000Z</time>
      </trkpt>
      <trkpt lat="43.2441690" lon="-3.7251610">
        <ele>747.026978</ele>
        <time>2015-04-26T10:55:10.000Z</time>
      </trkpt>
      <trkpt lat="43.2440800" lon="-3.7251400">
        <ele>747.022949</ele>
        <time>2015-04-26T10:55:16.000Z</time>
      </trkpt>
      <trkpt lat="43.2439800" lon="-3.7251250">
        <ele>746.083008</ele>
        <time>2015-04-26T10:55:23.000Z</time>
      </trkpt>
      <trkpt lat="43.2438770" lon="-3.7251000">
        <ele>745.062012</ele>
        <time>2015-04-26T10:55:29.000Z</time>
      </trkpt>
      <trkpt lat="43.2437860" lon="-3.7251210">
        <ele>745.073059</ele>
        <time>2015-04-26T10:55:35.000Z</time>
      </trkpt>
      <trkpt lat="43.2436970" lon="-3.7251950">
        <ele>747.065979</ele>
        <time>2015-04-26T10:55:42.000Z</time>
      </trkpt>
      <trkpt lat="43.2436130" lon="-3.7252680">
        <ele>750.015991</ele>
        <time>2015-04-26T10:55:49.000Z</time>
      </trkpt>
      <trkpt lat="43.2435310" lon="-3.7253430">
        <ele>751.087036</ele>
        <time>2015-04-26T10:55:56.000Z</time>
      </trkpt>
      <trkpt lat="43.2434370" lon="-3.7254060">
        <ele>751.041992</ele>
        <time>2015-04-26T10:56:03.000Z</time>
      </trkpt>
      <trkpt lat="43.2433460" lon="-3.7254630">
        <ele>751.026001</ele>
        <time>2015-04-26T10:56:10.000Z</time>
      </trkpt>
      <trkpt lat="43.2432550" lon="-3.7255230">
        <ele>753.006958</ele>
        <time>2015-04-26T10:56:17.000Z</time>
      </trkpt>
      <trkpt lat="43.2431550" lon="-3.7255440">
        <ele>753.077026</ele>
        <time>2015-04-26T10:56:24.000Z</time>
      </trkpt>
      <trkpt lat="43.2430640" lon="-3.7255190">
        <ele>756.072998</ele>
        <time>2015-04-26T10:56:29.000Z</time>
      </trkpt>
      <trkpt lat="43.2429640" lon="-3.7254850">
        <ele>759.072998</ele>
        <time>2015-04-26T10:56:36.000Z</time>
      </trkpt>
      <trkpt lat="43.2428670" lon="-3.7254550">
        <ele>761.062012</ele>
        <time>2015-04-26T10:56:43.000Z</time>
      </trkpt>
      <trkpt lat="43.2427700" lon="-3.7254250">
        <ele>762.093018</ele>
        <time>2015-04-26T10:56:50.000Z</time>
      </trkpt>
      <trkpt lat="43.2426720" lon="-3.7253950">
        <ele>761.096008</ele>
        <time>2015-04-26T10:56:57.000Z</time>
      </trkpt>
      <trkpt lat="43.2425820" lon="-3.7253870">
        <ele>764.075989</ele>
        <time>2015-04-26T10:57:04.000Z</time>
      </trkpt>
      <trkpt lat="43.2424870" lon="-3.7253700">
        <ele>765.079041</ele>
        <time>2015-04-26T10:57:11.000Z</time>
      </trkpt>
      <trkpt lat="43.2423870" lon="-3.7253680">
        <ele>764.005005</ele>
        <time>2015-04-26T10:57:18.000Z</time>
      </trkpt>
      <trkpt lat="43.2422890" lon="-3.7253970">
        <ele>764.025024</ele>
        <time>2015-04-26T10:57:25.000Z</time>
      </trkpt>
      <trkpt lat="43.2421920" lon="-3.7254400">
        <ele>764.007019</ele>
        <time>2015-04-26T10:57:32.000Z</time>
      </trkpt>
      <trkpt lat="43.2421020" lon="-3.7254770">
        <ele>764.085999</ele>
        <time>2015-04-26T10:57:38.000Z</time>
      </trkpt>
      <trkpt lat="43.2420100" lon="-3.7255010">
        <ele>764.051941</ele>
        <time>2015-04-26T10:57:43.000Z</time>
      </trkpt>
      <trkpt lat="43.2419160" lon="-3.7255220">
        <ele>763.052002</ele>
        <time>2015-04-26T10:57:49.000Z</time>
      </trkpt>
      <trkpt lat="43.2418840" lon="-3.7255350">
        <ele>761.041016</ele>
        <time>2015-04-26T10:58:29.000Z</time>
      </trkpt>
      <trkpt lat="43.2418840" lon="-3.7255350">
        <ele>762.011963</ele>
        <time>2015-04-26T10:59:10.000Z</time>
      </trkpt>
      <trkpt lat="43.2418840" lon="-3.7255350">
        <ele>761.075012</ele>
        <time>2015-04-26T10:59:50.000Z</time>
      </trkpt>
      <trkpt lat="43.2418840" lon="-3.7255340">
        <ele>760.094971</ele>
        <time>2015-04-26T11:00:31.000Z</time>
      </trkpt>
      <trkpt lat="43.2418830" lon="-3.7255340">
        <ele>760.081970</ele>
        <time>2015-04-26T11:01:11.000Z</time>
      </trkpt>
      <trkpt lat="43.2418820" lon="-3.7255440">
        <ele>761.043030</ele>
        <time>2015-04-26T11:01:51.000Z</time>
      </trkpt>
      <trkpt lat="43.2418930" lon="-3.7255330">
        <ele>761.016968</ele>
        <time>2015-04-26T11:06:20.000Z</time>
      </trkpt>
      <trkpt lat="43.2418320" lon="-3.7255360">
        <ele>760.006958</ele>
        <time>2015-04-26T11:06:50.000Z</time>
      </trkpt>
      <trkpt lat="43.2417190" lon="-3.7255400">
        <ele>761.027039</ele>
        <time>2015-04-26T11:06:55.000Z</time>
      </trkpt>
      <trkpt lat="43.2416270" lon="-3.7255490">
        <ele>763.072998</ele>
        <time>2015-04-26T11:06:58.000Z</time>
      </trkpt>
      <trkpt lat="43.2415320" lon="-3.7255780">
        <ele>763.083008</ele>
        <time>2015-04-26T11:07:02.000Z</time>
      </trkpt>
      <trkpt lat="43.2414450" lon="-3.7256170">
        <ele>764.071960</ele>
        <time>2015-04-26T11:07:05.000Z</time>
      </trkpt>
      <trkpt lat="43.2413360" lon="-3.7256850">
        <ele>764.042969</ele>
        <time>2015-04-26T11:07:09.000Z</time>
      </trkpt>
      <trkpt lat="43.2412470" lon="-3.7257810">
        <ele>764.055969</ele>
        <time>2015-04-26T11:07:13.000Z</time>
      </trkpt>
      <trkpt lat="43.2411600" lon="-3.7258850">
        <ele>762.075989</ele>
        <time>2015-04-26T11:07:17.000Z</time>
      </trkpt>
      <trkpt lat="43.2410810" lon="-3.7259960">
        <ele>764.036987</ele>
        <time>2015-04-26T11:07:21.000Z</time>
      </trkpt>
      <trkpt lat="43.2410140" lon="-3.7261160">
        <ele>765.048950</ele>
        <time>2015-04-26T11:07:25.000Z</time>
      </trkpt>
      <trkpt lat="43.2409520" lon="-3.7262390">
        <ele>764.013000</ele>
        <time>2015-04-26T11:07:29.000Z</time>
      </trkpt>
      <trkpt lat="43.2409020" lon="-3.7263420">
        <ele>763.006958</ele>
        <time>2015-04-26T11:07:32.000Z</time>
      </trkpt>
      <trkpt lat="43.2408480" lon="-3.7264830">
        <ele>764.021973</ele>
        <time>2015-04-26T11:07:36.000Z</time>
      </trkpt>
      <trkpt lat="43.2407850" lon="-3.7266200">
        <ele>764.098022</ele>
        <time>2015-04-26T11:07:40.000Z</time>
      </trkpt>
      <trkpt lat="43.2407330" lon="-3.7267290">
        <ele>763.038025</ele>
        <time>2015-04-26T11:07:43.000Z</time>
      </trkpt>
      <trkpt lat="43.2406800" lon="-3.7268430">
        <ele>765.016968</ele>
        <time>2015-04-26T11:07:46.000Z</time>
      </trkpt>
      <trkpt lat="43.2406210" lon="-3.7269630">
        <ele>764.088013</ele>
        <time>2015-04-26T11:07:49.000Z</time>
      </trkpt>
      <trkpt lat="43.2405540" lon="-3.7270760">
        <ele>764.080994</ele>
        <time>2015-04-26T11:07:52.000Z</time>
      </trkpt>
      <trkpt lat="43.2404840" lon="-3.7271970">
        <ele>764.091064</ele>
        <time>2015-04-26T11:07:55.000Z</time>
      </trkpt>
      <trkpt lat="43.2404280" lon="-3.7273080">
        <ele>764.062012</ele>
        <time>2015-04-26T11:07:57.000Z</time>
      </trkpt>
      <trkpt lat="43.2403610" lon="-3.7274470">
        <ele>763.083008</ele>
        <time>2015-04-26T11:07:59.000Z</time>
      </trkpt>
      <trkpt lat="43.2403310" lon="-3.7275770">
        <ele>763.010986</ele>
        <time>2015-04-26T11:08:01.000Z</time>
      </trkpt>
      <trkpt lat="43.2402740" lon="-3.7277120">
        <ele>763.006958</ele>
        <time>2015-04-26T11:08:03.000Z</time>
      </trkpt>
      <trkpt lat="43.2402220" lon="-3.7278680">
        <ele>764.085022</ele>
        <time>2015-04-26T11:08:05.000Z</time>
      </trkpt>
      <trkpt lat="43.2401650" lon="-3.7280210">
        <ele>762.091003</ele>
        <time>2015-04-26T11:08:07.000Z</time>
      </trkpt>
      <trkpt lat="43.2401270" lon="-3.7281700">
        <ele>761.091003</ele>
        <time>2015-04-26T11:08:09.000Z</time>
      </trkpt>
      <trkpt lat="43.2400790" lon="-3.7282930">
        <ele>760.030029</ele>
        <time>2015-04-26T11:08:11.000Z</time>
      </trkpt>
      <trkpt lat="43.2400550" lon="-3.7284270">
        <ele>757.071045</ele>
        <time>2015-04-26T11:08:13.000Z</time>
      </trkpt>
      <trkpt lat="43.2399900" lon="-3.7285890">
        <ele>758.084045</ele>
        <time>2015-04-26T11:08:15.000Z</time>
      </trkpt>
      <trkpt lat="43.2399360" lon="-3.7287260">
        <ele>757.033997</ele>
        <time>2015-04-26T11:08:17.000Z</time>
      </trkpt>
      <trkpt lat="43.2398810" lon="-3.7288680">
        <ele>759.057983</ele>
        <time>2015-04-26T11:08:19.000Z</time>
      </trkpt>
      <trkpt lat="43.2398000" lon="-3.7290050">
        <ele>757.052002</ele>
        <time>2015-04-26T11:08:21.000Z</time>
      </trkpt>
      <trkpt lat="43.2397600" lon="-3.7291500">
        <ele>757.017029</ele>
        <time>2015-04-26T11:08:23.000Z</time>
      </trkpt>
      <trkpt lat="43.2397360" lon="-3.7293000">
        <ele>755.007019</ele>
        <time>2015-04-26T11:08:25.000Z</time>
      </trkpt>
      <trkpt lat="43.2396610" lon="-3.7294440">
        <ele>754.044006</ele>
        <time>2015-04-26T11:08:27.000Z</time>
      </trkpt>
      <trkpt lat="43.2396210" lon="-3.7296110">
        <ele>753.040039</ele>
        <time>2015-04-26T11:08:29.000Z</time>
      </trkpt>
      <trkpt lat="43.2396050" lon="-3.7297690">
        <ele>754.070007</ele>
        <time>2015-04-26T11:08:31.000Z</time>
      </trkpt>
      <trkpt lat="43.2396160" lon="-3.7299320">
        <ele>754.088989</ele>
        <time>2015-04-26T11:08:33.000Z</time>
      </trkpt>
      <trkpt lat="43.2396220" lon="-3.7301400">
        <ele>752.039978</ele>
        <time>2015-04-26T11:08:35.000Z</time>
      </trkpt>
      <trkpt lat="43.2396300" lon="-3.7303680">
        <ele>750.013000</ele>
        <time>2015-04-26T11:08:37.000Z</time>
      </trkpt>
      <trkpt lat="43.2396310" lon="-3.7305730">
        <ele>749.062988</ele>
        <time>2015-04-26T11:08:39.000Z</time>
      </trkpt>
      <trkpt lat="43.2396410" lon="-3.7308200">
        <ele>748.060974</ele>
        <time>2015-04-26T11:08:41.000Z</time>
      </trkpt>
      <trkpt lat="43.2396960" lon="-3.7310480">
        <ele>747.020996</ele>
        <time>2015-04-26T11:08:43.000Z</time>
      </trkpt>
      <trkpt lat="43.2397480" lon="-3.7311570">
        <ele>746.013062</ele>
        <time>2015-04-26T11:08:44.000Z</time>
      </trkpt>
      <trkpt lat="43.2398030" lon="-3.7312780">
        <ele>744.006958</ele>
        <time>2015-04-26T11:08:45.000Z</time>
      </trkpt>
      <trkpt lat="43.2399080" lon="-3.7315650">
        <ele>742.074951</ele>
        <time>2015-04-26T11:08:46.000Z</time>
      </trkpt>
      <trkpt lat="43.2399490" lon="-3.7317000">
        <ele>740.041016</ele>
        <time>2015-04-26T11:08:47.000Z</time>
      </trkpt>
      <trkpt lat="43.2400110" lon="-3.7318280">
        <ele>738.080994</ele>
        <time>2015-04-26T11:08:48.000Z</time>
      </trkpt>
      <trkpt lat="43.2400870" lon="-3.7319520">
        <ele>737.089966</ele>
        <time>2015-04-26T11:08:49.000Z</time>
      </trkpt>
      <trkpt lat="43.2401600" lon="-3.7320700">
        <ele>735.060974</ele>
        <time>2015-04-26T11:08:50.000Z</time>
      </trkpt>
      <trkpt lat="43.2402230" lon="-3.7321730">
        <ele>734.093994</ele>
        <time>2015-04-26T11:08:51.000Z</time>
      </trkpt>
      <trkpt lat="43.2402690" lon="-3.7322800">
        <ele>733.073975</ele>
        <time>2015-04-26T11:08:52.000Z</time>
      </trkpt>
      <trkpt lat="43.2403760" lon="-3.7324540">
        <ele>734.067993</ele>
        <time>2015-04-26T11:08:54.000Z</time>
      </trkpt>
      <trkpt lat="43.2404540" lon="-3.7326130">
        <ele>732.041992</ele>
        <time>2015-04-26T11:08:56.000Z</time>
      </trkpt>
      <trkpt lat="43.2404880" lon="-3.7327940">
        <ele>732.026001</ele>
        <time>2015-04-26T11:08:58.000Z</time>
      </trkpt>
      <trkpt lat="43.2404800" lon="-3.7329830">
        <ele>731.007019</ele>
        <time>2015-04-26T11:09:00.000Z</time>
      </trkpt>
      <trkpt lat="43.2403890" lon="-3.7331670">
        <ele>730.094971</ele>
        <time>2015-04-26T11:09:02.000Z</time>
      </trkpt>
      <trkpt lat="43.2402630" lon="-3.7333180">
        <ele>728.020996</ele>
        <time>2015-04-26T11:09:04.000Z</time>
      </trkpt>
      <trkpt lat="43.2401680" lon="-3.7333890">
        <ele>725.010986</ele>
        <time>2015-04-26T11:09:05.000Z</time>
      </trkpt>
      <trkpt lat="43.2400770" lon="-3.7334320">
        <ele>723.080017</ele>
        <time>2015-04-26T11:09:06.000Z</time>
      </trkpt>
      <trkpt lat="43.2399170" lon="-3.7334910">
        <ele>723.090942</ele>
        <time>2015-04-26T11:09:08.000Z</time>
      </trkpt>
      <trkpt lat="43.2397640" lon="-3.7335300">
        <ele>723.044006</ele>
        <time>2015-04-26T11:09:10.000Z</time>
      </trkpt>
      <trkpt lat="43.2396230" lon="-3.7335850">
        <ele>722.043945</ele>
        <time>2015-04-26T11:09:12.000Z</time>
      </trkpt>
      <trkpt lat="43.2394770" lon="-3.7336240">
        <ele>722.097961</ele>
        <time>2015-04-26T11:09:14.000Z</time>
      </trkpt>
      <trkpt lat="43.2393110" lon="-3.7336410">
        <ele>722.015015</ele>
        <time>2015-04-26T11:09:16.000Z</time>
      </trkpt>
      <trkpt lat="43.2391360" lon="-3.7336010">
        <ele>721.026001</ele>
        <time>2015-04-26T11:09:18.000Z</time>
      </trkpt>
      <trkpt lat="43.2389690" lon="-3.7335000">
        <ele>719.006958</ele>
        <time>2015-04-26T11:09:20.000Z</time>
      </trkpt>
      <trkpt lat="43.2388620" lon="-3.7334720">
        <ele>719.097961</ele>
        <time>2015-04-26T11:09:21.000Z</time>
      </trkpt>
      <trkpt lat="43.2387530" lon="-3.7334520">
        <ele>718.064026</ele>
        <time>2015-04-26T11:09:22.000Z</time>
      </trkpt>
      <trkpt lat="43.2386490" lon="-3.7334540">
        <ele>717.083984</ele>
        <time>2015-04-26T11:09:23.000Z</time>
      </trkpt>
      <trkpt lat="43.2385430" lon="-3.7334850">
        <ele>719.042969</ele>
        <time>2015-04-26T11:09:24.000Z</time>
      </trkpt>
      <trkpt lat="43.2384430" lon="-3.7334910">
        <ele>719.033997</ele>
        <time>2015-04-26T11:09:26.000Z</time>
      </trkpt>
      <trkpt lat="43.2383480" lon="-3.7335170">
        <ele>720.087036</ele>
        <time>2015-04-26T11:09:27.000Z</time>
      </trkpt>
      <trkpt lat="43.2381920" lon="-3.7335840">
        <ele>719.067017</ele>
        <time>2015-04-26T11:09:29.000Z</time>
      </trkpt>
      <trkpt lat="43.2380340" lon="-3.7336630">
        <ele>719.095032</ele>
        <time>2015-04-26T11:09:31.000Z</time>
      </trkpt>
      <trkpt lat="43.2378910" lon="-3.7338670">
        <ele>719.049011</ele>
        <time>2015-04-26T11:09:32.000Z</time>
      </trkpt>
      <trkpt lat="43.2378220" lon="-3.7339490">
        <ele>717.023010</ele>
        <time>2015-04-26T11:09:33.000Z</time>
      </trkpt>
      <trkpt lat="43.2377310" lon="-3.7340230">
        <ele>716.006958</ele>
        <time>2015-04-26T11:09:34.000Z</time>
      </trkpt>
      <trkpt lat="43.2376010" lon="-3.7342380">
        <ele>713.088013</ele>
        <time>2015-04-26T11:09:36.000Z</time>
      </trkpt>
      <trkpt lat="43.2374450" lon="-3.7343670">
        <ele>711.023987</ele>
        <time>2015-04-26T11:09:38.000Z</time>
      </trkpt>
      <trkpt lat="43.2373310" lon="-3.7344640">
        <ele>708.064026</ele>
        <time>2015-04-26T11:09:40.000Z</time>
      </trkpt>
      <trkpt lat="43.2372250" lon="-3.7346360">
        <ele>709.032959</ele>
        <time>2015-04-26T11:09:42.000Z</time>
      </trkpt>
      <trkpt lat="43.2371930" lon="-3.7347680">
        <ele>709.024048</ele>
        <time>2015-04-26T11:09:43.000Z</time>
      </trkpt>
      <trkpt lat="43.2371550" lon="-3.7349100">
        <ele>708.027039</ele>
        <time>2015-04-26T11:09:44.000Z</time>
      </trkpt>
      <trkpt lat="43.2371450" lon="-3.7350780">
        <ele>706.057007</ele>
        <time>2015-04-26T11:09:45.000Z</time>
      </trkpt>
      <trkpt lat="43.2371220" lon="-3.7352390">
        <ele>707.046997</ele>
        <time>2015-04-26T11:09:46.000Z</time>
      </trkpt>
      <trkpt lat="43.2370810" lon="-3.7354110">
        <ele>707.028992</ele>
        <time>2015-04-26T11:09:47.000Z</time>
      </trkpt>
      <trkpt lat="43.2370440" lon="-3.7356010">
        <ele>706.020996</ele>
        <time>2015-04-26T11:09:48.000Z</time>
      </trkpt>
      <trkpt lat="43.2370140" lon="-3.7357590">
        <ele>706.007019</ele>
        <time>2015-04-26T11:09:49.000Z</time>
      </trkpt>
      <trkpt lat="43.2369990" lon="-3.7359230">
        <ele>704.092957</ele>
        <time>2015-04-26T11:09:50.000Z</time>
      </trkpt>
      <trkpt lat="43.2369890" lon="-3.7360910">
        <ele>704.039063</ele>
        <time>2015-04-26T11:09:51.000Z</time>
      </trkpt>
      <trkpt lat="43.2369910" lon="-3.7362460">
        <ele>704.019043</ele>
        <time>2015-04-26T11:09:52.000Z</time>
      </trkpt>
      <trkpt lat="43.2369890" lon="-3.7363850">
        <ele>702.057983</ele>
        <time>2015-04-26T11:09:53.000Z</time>
      </trkpt>
      <trkpt lat="43.2370480" lon="-3.7365050">
        <ele>701.098999</ele>
        <time>2015-04-26T11:09:54.000Z</time>
      </trkpt>
      <trkpt lat="43.2370430" lon="-3.7366360">
        <ele>699.091980</ele>
        <time>2015-04-26T11:09:55.000Z</time>
      </trkpt>
      <trkpt lat="43.2370810" lon="-3.7367950">
        <ele>702.032043</ele>
        <time>2015-04-26T11:09:56.000Z</time>
      </trkpt>
      <trkpt lat="43.2370640" lon="-3.7369550">
        <ele>702.021973</ele>
        <time>2015-04-26T11:09:57.000Z</time>
      </trkpt>
      <trkpt lat="43.2370800" lon="-3.7371030">
        <ele>701.062012</ele>
        <time>2015-04-26T11:09:58.000Z</time>
      </trkpt>
      <trkpt lat="43.2370570" lon="-3.7372770">
        <ele>700.007996</ele>
        <time>2015-04-26T11:09:59.000Z</time>
      </trkpt>
      <trkpt lat="43.2370460" lon="-3.7374550">
        <ele>700.006958</ele>
        <time>2015-04-26T11:10:00.000Z</time>
      </trkpt>
      <trkpt lat="43.2370820" lon="-3.7376050">
        <ele>699.050964</ele>
        <time>2015-04-26T11:10:01.000Z</time>
      </trkpt>
      <trkpt lat="43.2371120" lon="-3.7377690">
        <ele>698.017029</ele>
        <time>2015-04-26T11:10:02.000Z</time>
      </trkpt>
      <trkpt lat="43.2371500" lon="-3.7379130">
        <ele>698.067017</ele>
        <time>2015-04-26T11:10:03.000Z</time>
      </trkpt>
      <trkpt lat="43.2372140" lon="-3.7380290">
        <ele>697.065979</ele>
        <time>2015-04-26T11:10:04.000Z</time>
      </trkpt>
      <trkpt lat="43.2372050" lon="-3.7381680">
        <ele>697.026978</ele>
        <time>2015-04-26T11:10:05.000Z</time>
      </trkpt>
      <trkpt lat="43.2371710" lon="-3.7384120">
        <ele>696.070007</ele>
        <time>2015-04-26T11:10:07.000Z</time>
      </trkpt>
      <trkpt lat="43.2371390" lon="-3.7385280">
        <ele>694.070007</ele>
        <time>2015-04-26T11:10:08.000Z</time>
      </trkpt>
      <trkpt lat="43.2370580" lon="-3.7387300">
        <ele>693.045044</ele>
        <time>2015-04-26T11:10:10.000Z</time>
      </trkpt>
      <trkpt lat="43.2370200" lon="-3.7388710">
        <ele>696.046936</ele>
        <time>2015-04-26T11:10:12.000Z</time>
      </trkpt>
      <trkpt lat="43.2369890" lon="-3.7390640">
        <ele>699.011047</ele>
        <time>2015-04-26T11:10:15.000Z</time>
      </trkpt>
      <trkpt lat="43.2369790" lon="-3.7392250">
        <ele>700.006958</ele>
        <time>2015-04-26T11:10:17.000Z</time>
      </trkpt>
      <trkpt lat="43.2369700" lon="-3.7393700">
        <ele>702.093018</ele>
        <time>2015-04-26T11:10:21.000Z</time>
      </trkpt>
      <trkpt lat="43.2369730" lon="-3.7395040">
        <ele>705.078979</ele>
        <time>2015-04-26T11:10:24.000Z</time>
      </trkpt>
      <trkpt lat="43.2369350" lon="-3.7396380">
        <ele>706.059021</ele>
        <time>2015-04-26T11:10:29.000Z</time>
      </trkpt>
      <trkpt lat="43.2369570" lon="-3.7397770">
        <ele>708.057983</ele>
        <time>2015-04-26T11:10:35.000Z</time>
      </trkpt>
      <trkpt lat="43.2369340" lon="-3.7399140">
        <ele>707.038940</ele>
        <time>2015-04-26T11:10:41.000Z</time>
      </trkpt>
      <trkpt lat="43.2369980" lon="-3.7400000">
        <ele>710.072021</ele>
        <time>2015-04-26T11:10:47.000Z</time>
      </trkpt>
      <trkpt lat="43.2369990" lon="-3.7401320">
        <ele>709.052002</ele>
        <time>2015-04-26T11:10:54.000Z</time>
      </trkpt>
      <trkpt lat="43.2370180" lon="-3.7402660">
        <ele>709.013977</ele>
        <time>2015-04-26T11:11:02.000Z</time>
      </trkpt>
      <trkpt lat="43.2370120" lon="-3.7403960">
        <ele>714.053955</ele>
        <time>2015-04-26T11:11:09.000Z</time>
      </trkpt>
      <trkpt lat="43.2370510" lon="-3.7405180">
        <ele>716.008972</ele>
        <time>2015-04-26T11:11:16.000Z</time>
      </trkpt>
      <trkpt lat="43.2370640" lon="-3.7406540">
        <ele>718.007019</ele>
        <time>2015-04-26T11:11:23.000Z</time>
      </trkpt>
      <trkpt lat="43.2370690" lon="-3.7407950">
        <ele>721.049988</ele>
        <time>2015-04-26T11:11:31.000Z</time>
      </trkpt>
      <trkpt lat="43.2370820" lon="-3.7409230">
        <ele>721.046021</ele>
        <time>2015-04-26T11:11:37.000Z</time>
      </trkpt>
      <trkpt lat="43.2370630" lon="-3.7410460">
        <ele>722.085999</ele>
        <time>2015-04-26T11:11:44.000Z</time>
      </trkpt>
      <trkpt lat="43.2370520" lon="-3.7411740">
        <ele>723.085022</ele>
        <time>2015-04-26T11:11:51.000Z</time>
      </trkpt>
      <trkpt lat="43.2370350" lon="-3.7412980">
        <ele>723.035950</ele>
        <time>2015-04-26T11:11:58.000Z</time>
      </trkpt>
      <trkpt lat="43.2370030" lon="-3.7414200">
        <ele>724.098999</ele>
        <time>2015-04-26T11:12:05.000Z</time>
      </trkpt>
      <trkpt lat="43.2369840" lon="-3.7415460">
        <ele>725.079041</ele>
        <time>2015-04-26T11:12:13.000Z</time>
      </trkpt>
      <trkpt lat="43.2369710" lon="-3.7416720">
        <ele>723.062988</ele>
        <time>2015-04-26T11:12:22.000Z</time>
      </trkpt>
      <trkpt lat="43.2369600" lon="-3.7418010">
        <ele>723.044006</ele>
        <time>2015-04-26T11:12:28.000Z</time>
      </trkpt>
      <trkpt lat="43.2369380" lon="-3.7419320">
        <ele>725.018005</ele>
        <time>2015-04-26T11:12:35.000Z</time>
      </trkpt>
      <trkpt lat="43.2369480" lon="-3.7420710">
        <ele>724.007019</ele>
        <time>2015-04-26T11:12:43.000Z</time>
      </trkpt>
      <trkpt lat="43.2369450" lon="-3.7422010">
        <ele>722.075012</ele>
        <time>2015-04-26T11:12:50.000Z</time>
      </trkpt>
      <trkpt lat="43.2369740" lon="-3.7423270">
        <ele>719.051025</ele>
        <time>2015-04-26T11:12:58.000Z</time>
      </trkpt>
      <trkpt lat="43.2369950" lon="-3.7424580">
        <ele>717.041016</ele>
        <time>2015-04-26T11:13:05.000Z</time>
      </trkpt>
      <trkpt lat="43.2370400" lon="-3.7425800">
        <ele>722.079956</ele>
        <time>2015-04-26T11:13:12.000Z</time>
      </trkpt>
      <trkpt lat="43.2370260" lon="-3.7427310">
        <ele>721.041016</ele>
        <time>2015-04-26T11:13:17.000Z</time>
      </trkpt>
      <trkpt lat="43.2370170" lon="-3.7428700">
        <ele>721.084045</ele>
        <time>2015-04-26T11:13:21.000Z</time>
      </trkpt>
      <trkpt lat="43.2370080" lon="-3.7430170">
        <ele>720.093994</ele>
        <time>2015-04-26T11:13:25.000Z</time>
      </trkpt>
      <trkpt lat="43.2370010" lon="-3.7431750">
        <ele>720.096985</ele>
        <time>2015-04-26T11:13:29.000Z</time>
      </trkpt>
      <trkpt lat="43.2369720" lon="-3.7432930">
        <ele>717.023010</ele>
        <time>2015-04-26T11:13:32.000Z</time>
      </trkpt>
      <trkpt lat="43.2369440" lon="-3.7434460">
        <ele>719.024963</ele>
        <time>2015-04-26T11:13:36.000Z</time>
      </trkpt>
      <trkpt lat="43.2369480" lon="-3.7435800">
        <ele>720.007019</ele>
        <time>2015-04-26T11:13:40.000Z</time>
      </trkpt>
      <trkpt lat="43.2369360" lon="-3.7437090">
        <ele>725.047974</ele>
        <time>2015-04-26T11:13:44.000Z</time>
      </trkpt>
      <trkpt lat="43.2369030" lon="-3.7438260">
        <ele>725.074036</ele>
        <time>2015-04-26T11:13:49.000Z</time>
      </trkpt>
      <trkpt lat="43.2368550" lon="-3.7439360">
        <ele>723.064026</ele>
        <time>2015-04-26T11:13:53.000Z</time>
      </trkpt>
      <trkpt lat="43.2367960" lon="-3.7440560">
        <ele>725.033020</ele>
        <time>2015-04-26T11:13:57.000Z</time>
      </trkpt>
      <trkpt lat="43.2367320" lon="-3.7441670">
        <ele>724.064026</ele>
        <time>2015-04-26T11:14:01.000Z</time>
      </trkpt>
      <trkpt lat="43.2366470" lon="-3.7442770">
        <ele>723.067017</ele>
        <time>2015-04-26T11:14:05.000Z</time>
      </trkpt>
      <trkpt lat="43.2365740" lon="-3.7443820">
        <ele>726.067017</ele>
        <time>2015-04-26T11:14:09.000Z</time>
      </trkpt>
      <trkpt lat="43.2365020" lon="-3.7444850">
        <ele>725.075012</ele>
        <time>2015-04-26T11:14:13.000Z</time>
      </trkpt>
      <trkpt lat="43.2364300" lon="-3.7445840">
        <ele>722.027954</ele>
        <time>2015-04-26T11:14:17.000Z</time>
      </trkpt>
      <trkpt lat="43.2363390" lon="-3.7447180">
        <ele>724.020020</ele>
        <time>2015-04-26T11:14:22.000Z</time>
      </trkpt>
      <trkpt lat="43.2362660" lon="-3.7448090">
        <ele>721.007019</ele>
        <time>2015-04-26T11:14:26.000Z</time>
      </trkpt>
      <trkpt lat="43.2361940" lon="-3.7449080">
        <ele>721.036011</ele>
        <time>2015-04-26T11:14:30.000Z</time>
      </trkpt>
      <trkpt lat="43.2361300" lon="-3.7450130">
        <ele>725.031982</ele>
        <time>2015-04-26T11:14:34.000Z</time>
      </trkpt>
      <trkpt lat="43.2360910" lon="-3.7451340">
        <ele>722.052002</ele>
        <time>2015-04-26T11:14:38.000Z</time>
      </trkpt>
      <trkpt lat="43.2360480" lon="-3.7452710">
        <ele>723.051025</ele>
        <time>2015-04-26T11:14:42.000Z</time>
      </trkpt>
      <trkpt lat="43.2359950" lon="-3.7453980">
        <ele>719.092041</ele>
        <time>2015-04-26T11:14:46.000Z</time>
      </trkpt>
      <trkpt lat="43.2359490" lon="-3.7455300">
        <ele>722.054993</ele>
        <time>2015-04-26T11:14:50.000Z</time>
      </trkpt>
      <trkpt lat="43.2358740" lon="-3.7456490">
        <ele>721.075012</ele>
        <time>2015-04-26T11:14:54.000Z</time>
      </trkpt>
      <trkpt lat="43.2357920" lon="-3.7457480">
        <ele>723.032043</ele>
        <time>2015-04-26T11:14:57.000Z</time>
      </trkpt>
      <trkpt lat="43.2357030" lon="-3.7458590">
        <ele>721.091980</ele>
        <time>2015-04-26T11:15:00.000Z</time>
      </trkpt>
      <trkpt lat="43.2356350" lon="-3.7459500">
        <ele>720.010986</ele>
        <time>2015-04-26T11:15:02.000Z</time>
      </trkpt>
      <trkpt lat="43.2355680" lon="-3.7460490">
        <ele>714.007019</ele>
        <time>2015-04-26T11:15:04.000Z</time>
      </trkpt>
      <trkpt lat="43.2354800" lon="-3.7461850">
        <ele>711.071960</ele>
        <time>2015-04-26T11:15:06.000Z</time>
      </trkpt>
      <trkpt lat="43.2353840" lon="-3.7462560">
        <ele>713.018005</ele>
        <time>2015-04-26T11:15:09.000Z</time>
      </trkpt>
      <trkpt lat="43.2353070" lon="-3.7463540">
        <ele>712.027954</ele>
        <time>2015-04-26T11:15:12.000Z</time>
      </trkpt>
      <trkpt lat="43.2352370" lon="-3.7464510">
        <ele>711.057007</ele>
        <time>2015-04-26T11:15:14.000Z</time>
      </trkpt>
      <trkpt lat="43.2352090" lon="-3.7465760">
        <ele>710.088013</ele>
        <time>2015-04-26T11:15:16.000Z</time>
      </trkpt>
      <trkpt lat="43.2352650" lon="-3.7467710">
        <ele>709.081055</ele>
        <time>2015-04-26T11:15:18.000Z</time>
      </trkpt>
      <trkpt lat="43.2353870" lon="-3.7469150">
        <ele>709.091003</ele>
        <time>2015-04-26T11:15:20.000Z</time>
      </trkpt>
      <trkpt lat="43.2354810" lon="-3.7469400">
        <ele>711.044983</ele>
        <time>2015-04-26T11:15:21.000Z</time>
      </trkpt>
      <trkpt lat="43.2356400" lon="-3.7470100">
        <ele>712.047058</ele>
        <time>2015-04-26T11:15:23.000Z</time>
      </trkpt>
      <trkpt lat="43.2357220" lon="-3.7470640">
        <ele>711.010986</ele>
        <time>2015-04-26T11:15:24.000Z</time>
      </trkpt>
      <trkpt lat="43.2358880" lon="-3.7471900">
        <ele>711.007019</ele>
        <time>2015-04-26T11:15:26.000Z</time>
      </trkpt>
      <trkpt lat="43.2359630" lon="-3.7472710">
        <ele>712.093018</ele>
        <time>2015-04-26T11:15:27.000Z</time>
      </trkpt>
      <trkpt lat="43.2360640" lon="-3.7473360">
        <ele>711.089050</ele>
        <time>2015-04-26T11:15:28.000Z</time>
      </trkpt>
      <trkpt lat="43.2361480" lon="-3.7474080">
        <ele>712.098999</ele>
        <time>2015-04-26T11:15:29.000Z</time>
      </trkpt>
      <trkpt lat="43.2362590" lon="-3.7474400">
        <ele>713.038025</ele>
        <time>2015-04-26T11:15:30.000Z</time>
      </trkpt>
      <trkpt lat="43.2363470" lon="-3.7474030">
        <ele>709.039001</ele>
        <time>2015-04-26T11:15:31.000Z</time>
      </trkpt>
      <trkpt lat="43.2364580" lon="-3.7473570">
        <ele>710.031982</ele>
        <time>2015-04-26T11:15:32.000Z</time>
      </trkpt>
      <trkpt lat="43.2365500" lon="-3.7473490">
        <ele>710.031982</ele>
        <time>2015-04-26T11:15:33.000Z</time>
      </trkpt>
      <trkpt lat="43.2366660" lon="-3.7473630">
        <ele>709.086975</ele>
        <time>2015-04-26T11:15:34.000Z</time>
      </trkpt>
      <trkpt lat="43.2368000" lon="-3.7474120">
        <ele>708.041992</ele>
        <time>2015-04-26T11:15:36.000Z</time>
      </trkpt>
      <trkpt lat="43.2368300" lon="-3.7475440">
        <ele>708.026001</ele>
        <time>2015-04-26T11:15:37.000Z</time>
      </trkpt>
      <trkpt lat="43.2368710" lon="-3.7477120">
        <ele>708.007019</ele>
        <time>2015-04-26T11:15:39.000Z</time>
      </trkpt>
      <trkpt lat="43.2368980" lon="-3.7479120">
        <ele>708.067017</ele>
        <time>2015-04-26T11:15:41.000Z</time>
      </trkpt>
      <trkpt lat="43.2369140" lon="-3.7481200">
        <ele>710.033020</ele>
        <time>2015-04-26T11:15:43.000Z</time>
      </trkpt>
      <trkpt lat="43.2368520" lon="-3.7482580">
        <ele>709.082947</ele>
        <time>2015-04-26T11:15:44.000Z</time>
      </trkpt>
      <trkpt lat="43.2367980" lon="-3.7483830">
        <ele>709.082031</ele>
        <time>2015-04-26T11:15:45.000Z</time>
      </trkpt>
      <trkpt lat="43.2367450" lon="-3.7486380">
        <ele>708.023010</ele>
        <time>2015-04-26T11:15:47.000Z</time>
      </trkpt>
      <trkpt lat="43.2367060" lon="-3.7488510">
        <ele>708.046021</ele>
        <time>2015-04-26T11:15:49.000Z</time>
      </trkpt>
      <trkpt lat="43.2366840" lon="-3.7490340">
        <ele>706.096008</ele>
        <time>2015-04-26T11:15:51.000Z</time>
      </trkpt>
      <trkpt lat="43.2367370" lon="-3.7492020">
        <ele>704.021973</ele>
        <time>2015-04-26T11:15:53.000Z</time>
      </trkpt>
      <trkpt lat="43.2367440" lon="-3.7493770">
        <ele>703.061951</ele>
        <time>2015-04-26T11:15:55.000Z</time>
      </trkpt>
      <trkpt lat="43.2367530" lon="-3.7495060">
        <ele>704.007996</ele>
        <time>2015-04-26T11:15:57.000Z</time>
      </trkpt>
      <trkpt lat="43.2367700" lon="-3.7496290">
        <ele>702.007019</ele>
        <time>2015-04-26T11:15:59.000Z</time>
      </trkpt>
      <trkpt lat="43.2367640" lon="-3.7497930">
        <ele>703.081055</ele>
        <time>2015-04-26T11:16:02.000Z</time>
      </trkpt>
      <trkpt lat="43.2367290" lon="-3.7499120">
        <ele>705.096985</ele>
        <time>2015-04-26T11:16:04.000Z</time>
      </trkpt>
      <trkpt lat="43.2366870" lon="-3.7500250">
        <ele>702.096985</ele>
        <time>2015-04-26T11:16:06.000Z</time>
      </trkpt>
      <trkpt lat="43.2366830" lon="-3.7501550">
        <ele>705.026001</ele>
        <time>2015-04-26T11:16:08.000Z</time>
      </trkpt>
      <trkpt lat="43.2366540" lon="-3.7502950">
        <ele>705.087036</ele>
        <time>2015-04-26T11:16:10.000Z</time>
      </trkpt>
      <trkpt lat="43.2366720" lon="-3.7504330">
        <ele>705.069946</ele>
        <time>2015-04-26T11:16:12.000Z</time>
      </trkpt>
      <trkpt lat="43.2367160" lon="-3.7505430">
        <ele>704.030029</ele>
        <time>2015-04-26T11:16:15.000Z</time>
      </trkpt>
      <trkpt lat="43.2367170" lon="-3.7506840">
        <ele>706.063049</ele>
        <time>2015-04-26T11:16:17.000Z</time>
      </trkpt>
      <trkpt lat="43.2367360" lon="-3.7508280">
        <ele>705.044006</ele>
        <time>2015-04-26T11:16:19.000Z</time>
      </trkpt>
      <trkpt lat="43.2367220" lon="-3.7509990">
        <ele>707.018005</ele>
        <time>2015-04-26T11:16:21.000Z</time>
      </trkpt>
      <trkpt lat="43.2368020" lon="-3.7511000">
        <ele>710.006958</ele>
        <time>2015-04-26T11:16:24.000Z</time>
      </trkpt>
      <trkpt lat="43.2369060" lon="-3.7511370">
        <ele>710.015015</ele>
        <time>2015-04-26T11:16:27.000Z</time>
      </trkpt>
      <trkpt lat="43.2369650" lon="-3.7512310">
        <ele>711.010986</ele>
        <time>2015-04-26T11:16:33.000Z</time>
      </trkpt>
      <trkpt lat="43.2370590" lon="-3.7512820">
        <ele>712.050964</ele>
        <time>2015-04-26T11:16:37.000Z</time>
      </trkpt>
      <trkpt lat="43.2371520" lon="-3.7513370">
        <ele>713.040039</ele>
        <time>2015-04-26T11:16:42.000Z</time>
      </trkpt>
      <trkpt lat="43.2372370" lon="-3.7514270">
        <ele>713.051025</ele>
        <time>2015-04-26T11:16:47.000Z</time>
      </trkpt>
      <trkpt lat="43.2373130" lon="-3.7515130">
        <ele>713.094055</ele>
        <time>2015-04-26T11:16:52.000Z</time>
      </trkpt>
      <trkpt lat="43.2374230" lon="-3.7515320">
        <ele>713.083984</ele>
        <time>2015-04-26T11:16:57.000Z</time>
      </trkpt>
      <trkpt lat="43.2375050" lon="-3.7515850">
        <ele>713.019043</ele>
        <time>2015-04-26T11:17:01.000Z</time>
      </trkpt>
      <trkpt lat="43.2375770" lon="-3.7516610">
        <ele>711.009033</ele>
        <time>2015-04-26T11:17:05.000Z</time>
      </trkpt>
      <trkpt lat="43.2376590" lon="-3.7517570">
        <ele>712.018982</ele>
        <time>2015-04-26T11:17:09.000Z</time>
      </trkpt>
      <trkpt lat="43.2377540" lon="-3.7518590">
        <ele>708.007019</ele>
        <time>2015-04-26T11:17:13.000Z</time>
      </trkpt>
      <trkpt lat="43.2378460" lon="-3.7519300">
        <ele>710.059998</ele>
        <time>2015-04-26T11:17:16.000Z</time>
      </trkpt>
      <trkpt lat="43.2379320" lon="-3.7520040">
        <ele>709.056030</ele>
        <time>2015-04-26T11:17:19.000Z</time>
      </trkpt>
      <trkpt lat="43.2380110" lon="-3.7520920">
        <ele>711.085999</ele>
        <time>2015-04-26T11:17:23.000Z</time>
      </trkpt>
      <trkpt lat="43.2381250" lon="-3.7520980">
        <ele>711.034973</ele>
        <time>2015-04-26T11:17:26.000Z</time>
      </trkpt>
      <trkpt lat="43.2382150" lon="-3.7520420">
        <ele>709.025940</ele>
        <time>2015-04-26T11:17:28.000Z</time>
      </trkpt>
      <trkpt lat="43.2383430" lon="-3.7519310">
        <ele>709.079041</ele>
        <time>2015-04-26T11:17:30.000Z</time>
      </trkpt>
      <trkpt lat="43.2384570" lon="-3.7518110">
        <ele>703.059021</ele>
        <time>2015-04-26T11:17:32.000Z</time>
      </trkpt>
      <trkpt lat="43.2385690" lon="-3.7517700">
        <ele>702.046997</ele>
        <time>2015-04-26T11:17:34.000Z</time>
      </trkpt>
      <trkpt lat="43.2386530" lon="-3.7516970">
        <ele>701.028992</ele>
        <time>2015-04-26T11:17:36.000Z</time>
      </trkpt>
      <trkpt lat="43.2388120" lon="-3.7516720">
        <ele>700.020996</ele>
        <time>2015-04-26T11:17:38.000Z</time>
      </trkpt>
      <trkpt lat="43.2389170" lon="-3.7516740">
        <ele>697.006958</ele>
        <time>2015-04-26T11:17:39.000Z</time>
      </trkpt>
      <trkpt lat="43.2390490" lon="-3.7516480">
        <ele>698.013000</ele>
        <time>2015-04-26T11:17:41.000Z</time>
      </trkpt>
      <trkpt lat="43.2391520" lon="-3.7516540">
        <ele>697.068970</ele>
        <time>2015-04-26T11:17:42.000Z</time>
      </trkpt>
      <trkpt lat="43.2392480" lon="-3.7516650">
        <ele>703.059021</ele>
        <time>2015-04-26T11:17:43.000Z</time>
      </trkpt>
      <trkpt lat="43.2393360" lon="-3.7517900">
        <ele>704.047974</ele>
        <time>2015-04-26T11:17:45.000Z</time>
      </trkpt>
      <trkpt lat="43.2393880" lon="-3.7519060">
        <ele>703.059021</ele>
        <time>2015-04-26T11:17:46.000Z</time>
      </trkpt>
      <trkpt lat="43.2393860" lon="-3.7520980">
        <ele>706.031982</ele>
        <time>2015-04-26T11:17:48.000Z</time>
      </trkpt>
      <trkpt lat="43.2393500" lon="-3.7523120">
        <ele>705.021973</ele>
        <time>2015-04-26T11:17:50.000Z</time>
      </trkpt>
      <trkpt lat="43.2393110" lon="-3.7524280">
        <ele>704.094971</ele>
        <time>2015-04-26T11:17:51.000Z</time>
      </trkpt>
      <trkpt lat="43.2392920" lon="-3.7526410">
        <ele>704.049011</ele>
        <time>2015-04-26T11:17:53.000Z</time>
      </trkpt>
      <trkpt lat="43.2392540" lon="-3.7528330">
        <ele>701.023010</ele>
        <time>2015-04-26T11:17:55.000Z</time>
      </trkpt>
      <trkpt lat="43.2392720" lon="-3.7530040">
        <ele>700.006958</ele>
        <time>2015-04-26T11:17:57.000Z</time>
      </trkpt>
      <trkpt lat="43.2393180" lon="-3.7531560">
        <ele>701.088013</ele>
        <time>2015-04-26T11:17:59.000Z</time>
      </trkpt>
      <trkpt lat="43.2393800" lon="-3.7533010">
        <ele>702.053955</ele>
        <time>2015-04-26T11:18:01.000Z</time>
      </trkpt>
      <trkpt lat="43.2394670" lon="-3.7534360">
        <ele>702.073975</ele>
        <time>2015-04-26T11:18:03.000Z</time>
      </trkpt>
      <trkpt lat="43.2395380" lon="-3.7535610">
        <ele>701.062988</ele>
        <time>2015-04-26T11:18:06.000Z</time>
      </trkpt>
      <trkpt lat="43.2396100" lon="-3.7536860">
        <ele>702.053955</ele>
        <time>2015-04-26T11:18:08.000Z</time>
      </trkpt>
      <trkpt lat="43.2396700" lon="-3.7538150">
        <ele>699.086975</ele>
        <time>2015-04-26T11:18:10.000Z</time>
      </trkpt>
      <trkpt lat="43.2397390" lon="-3.7539410">
        <ele>699.016968</ele>
        <time>2015-04-26T11:18:12.000Z</time>
      </trkpt>
      <trkpt lat="43.2398090" lon="-3.7540830">
        <ele>698.087036</ele>
        <time>2015-04-26T11:18:14.000Z</time>
      </trkpt>
      <trkpt lat="43.2398340" lon="-3.7542630">
        <ele>696.041992</ele>
        <time>2015-04-26T11:18:16.000Z</time>
      </trkpt>
      <trkpt lat="43.2398760" lon="-3.7544360">
        <ele>695.026001</ele>
        <time>2015-04-26T11:18:18.000Z</time>
      </trkpt>
      <trkpt lat="43.2398670" lon="-3.7546400">
        <ele>693.007019</ele>
        <time>2015-04-26T11:18:20.000Z</time>
      </trkpt>
      <trkpt lat="43.2399980" lon="-3.7547570">
        <ele>694.097046</ele>
        <time>2015-04-26T11:18:22.000Z</time>
      </trkpt>
      <trkpt lat="43.2400690" lon="-3.7549490">
        <ele>695.073059</ele>
        <time>2015-04-26T11:18:24.000Z</time>
      </trkpt>
      <trkpt lat="43.2401480" lon="-3.7551530">
        <ele>695.062988</ele>
        <time>2015-04-26T11:18:26.000Z</time>
      </trkpt>
      <trkpt lat="43.2402490" lon="-3.7553260">
        <ele>693.091980</ele>
        <time>2015-04-26T11:18:28.000Z</time>
      </trkpt>
      <trkpt lat="43.2403520" lon="-3.7553310">
        <ele>691.072998</ele>
        <time>2015-04-26T11:18:29.000Z</time>
      </trkpt>
      <trkpt lat="43.2404970" lon="-3.7553280">
        <ele>694.065979</ele>
        <time>2015-04-26T11:18:31.000Z</time>
      </trkpt>
      <trkpt lat="43.2406670" lon="-3.7552360">
        <ele>691.045959</ele>
        <time>2015-04-26T11:18:33.000Z</time>
      </trkpt>
      <trkpt lat="43.2407630" lon="-3.7552170">
        <ele>691.026978</ele>
        <time>2015-04-26T11:18:34.000Z</time>
      </trkpt>
      <trkpt lat="43.2409400" lon="-3.7552170">
        <ele>694.067993</ele>
        <time>2015-04-26T11:18:36.000Z</time>
      </trkpt>
      <trkpt lat="43.2410640" lon="-3.7552180">
        <ele>693.013977</ele>
        <time>2015-04-26T11:18:37.000Z</time>
      </trkpt>
      <trkpt lat="43.2412320" lon="-3.7551700">
        <ele>695.007019</ele>
        <time>2015-04-26T11:18:39.000Z</time>
      </trkpt>
      <trkpt lat="43.2413910" lon="-3.7551010">
        <ele>693.020996</ele>
        <time>2015-04-26T11:18:41.000Z</time>
      </trkpt>
      <trkpt lat="43.2414920" lon="-3.7550790">
        <ele>688.026978</ele>
        <time>2015-04-26T11:18:42.000Z</time>
      </trkpt>
      <trkpt lat="43.2416250" lon="-3.7550850">
        <ele>687.027039</ele>
        <time>2015-04-26T11:18:44.000Z</time>
      </trkpt>
      <trkpt lat="43.2417410" lon="-3.7551110">
        <ele>690.075989</ele>
        <time>2015-04-26T11:18:46.000Z</time>
      </trkpt>
      <trkpt lat="43.2418130" lon="-3.7551880">
        <ele>692.026978</ele>
        <time>2015-04-26T11:18:48.000Z</time>
      </trkpt>
      <trkpt lat="43.2418770" lon="-3.7553270">
        <ele>688.049988</ele>
        <time>2015-04-26T11:18:52.000Z</time>
      </trkpt>
      <trkpt lat="43.2418930" lon="-3.7554750">
        <ele>692.050049</ele>
        <time>2015-04-26T11:18:55.000Z</time>
      </trkpt>
      <trkpt lat="43.2419430" lon="-3.7555840">
        <ele>689.087036</ele>
        <time>2015-04-26T11:18:59.000Z</time>
      </trkpt>
      <trkpt lat="43.2420020" lon="-3.7557140">
        <ele>687.041992</ele>
        <time>2015-04-26T11:19:04.000Z</time>
      </trkpt>
      <trkpt lat="43.2420530" lon="-3.7558370">
        <ele>688.026001</ele>
        <time>2015-04-26T11:19:09.000Z</time>
      </trkpt>
      <trkpt lat="43.2420910" lon="-3.7559520">
        <ele>687.007019</ele>
        <time>2015-04-26T11:19:13.000Z</time>
      </trkpt>
      <trkpt lat="43.2421460" lon="-3.7560600">
        <ele>689.076965</ele>
        <time>2015-04-26T11:19:18.000Z</time>
      </trkpt>
      <trkpt lat="43.2422400" lon="-3.7561240">
        <ele>689.033020</ele>
        <time>2015-04-26T11:19:24.000Z</time>
      </trkpt>
      <trkpt lat="43.2423310" lon="-3.7561530">
        <ele>687.052979</ele>
        <time>2015-04-26T11:19:28.000Z</time>
      </trkpt>
      <trkpt lat="43.2424280" lon="-3.7561340">
        <ele>687.091980</ele>
        <time>2015-04-26T11:19:32.000Z</time>
      </trkpt>
      <trkpt lat="43.2425050" lon="-3.7560550">
        <ele>686.072998</ele>
        <time>2015-04-26T11:19:40.000Z</time>
      </trkpt>
      <trkpt lat="43.2424900" lon="-3.7560740">
        <ele>686.035950</ele>
        <time>2015-04-26T11:20:20.000Z</time>
      </trkpt>
      <trkpt lat="43.2425520" lon="-3.7560620">
        <ele>683.015991</ele>
        <time>2015-04-26T11:20:49.000Z</time>
      </trkpt>
      <trkpt lat="43.2426460" lon="-3.7560230">
        <ele>684.032959</ele>
        <time>2015-04-26T11:20:52.000Z</time>
      </trkpt>
      <trkpt lat="43.2427270" lon="-3.7559560">
        <ele>688.022949</ele>
        <time>2015-04-26T11:20:55.000Z</time>
      </trkpt>
      <trkpt lat="43.2428170" lon="-3.7558650">
        <ele>689.015015</ele>
        <time>2015-04-26T11:20:59.000Z</time>
      </trkpt>
      <trkpt lat="43.2429010" lon="-3.7557770">
        <ele>690.007019</ele>
        <time>2015-04-26T11:21:03.000Z</time>
      </trkpt>
      <trkpt lat="43.2429870" lon="-3.7556750">
        <ele>694.022034</ele>
        <time>2015-04-26T11:21:07.000Z</time>
      </trkpt>
      <trkpt lat="43.2430700" lon="-3.7555870">
        <ele>694.027954</ele>
        <time>2015-04-26T11:21:12.000Z</time>
      </trkpt>
      <trkpt lat="43.2431540" lon="-3.7555100">
        <ele>694.077942</ele>
        <time>2015-04-26T11:21:16.000Z</time>
      </trkpt>
      <trkpt lat="43.2432430" lon="-3.7554230">
        <ele>695.017029</ele>
        <time>2015-04-26T11:21:20.000Z</time>
      </trkpt>
      <trkpt lat="43.2433190" lon="-3.7553530">
        <ele>698.057983</ele>
        <time>2015-04-26T11:21:23.000Z</time>
      </trkpt>
      <trkpt lat="43.2434190" lon="-3.7552980">
        <ele>693.080994</ele>
        <time>2015-04-26T11:21:26.000Z</time>
      </trkpt>
      <trkpt lat="43.2435500" lon="-3.7552530">
        <ele>695.090942</ele>
        <time>2015-04-26T11:21:29.000Z</time>
      </trkpt>
      <trkpt lat="43.2436560" lon="-3.7552280">
        <ele>696.052979</ele>
        <time>2015-04-26T11:21:31.000Z</time>
      </trkpt>
      <trkpt lat="43.2437730" lon="-3.7551330">
        <ele>697.004028</ele>
        <time>2015-04-26T11:21:34.000Z</time>
      </trkpt>
      <trkpt lat="43.2438970" lon="-3.7550800">
        <ele>695.014038</ele>
        <time>2015-04-26T11:21:36.000Z</time>
      </trkpt>
      <trkpt lat="43.2439750" lon="-3.7550170">
        <ele>697.006958</ele>
        <time>2015-04-26T11:21:37.000Z</time>
      </trkpt>
      <trkpt lat="43.2441460" lon="-3.7549890">
        <ele>694.054016</ele>
        <time>2015-04-26T11:21:40.000Z</time>
      </trkpt>
      <trkpt lat="43.2442370" lon="-3.7549760">
        <ele>693.029968</ele>
        <time>2015-04-26T11:21:42.000Z</time>
      </trkpt>
      <trkpt lat="43.2442730" lon="-3.7548520">
        <ele>694.049988</ele>
        <time>2015-04-26T11:21:44.000Z</time>
      </trkpt>
      <trkpt lat="43.2443710" lon="-3.7547800">
        <ele>692.069031</ele>
        <time>2015-04-26T11:21:46.000Z</time>
      </trkpt>
      <trkpt lat="43.2444820" lon="-3.7547350">
        <ele>691.020020</ele>
        <time>2015-04-26T11:21:48.000Z</time>
      </trkpt>
      <trkpt lat="43.2446060" lon="-3.7546220">
        <ele>690.072998</ele>
        <time>2015-04-26T11:21:50.000Z</time>
      </trkpt>
      <trkpt lat="43.2446980" lon="-3.7546160">
        <ele>690.093018</ele>
        <time>2015-04-26T11:21:51.000Z</time>
      </trkpt>
      <trkpt lat="43.2448550" lon="-3.7546450">
        <ele>690.093018</ele>
        <time>2015-04-26T11:21:53.000Z</time>
      </trkpt>
      <trkpt lat="43.2449540" lon="-3.7547380">
        <ele>688.065002</ele>
        <time>2015-04-26T11:21:55.000Z</time>
      </trkpt>
      <trkpt lat="43.2450330" lon="-3.7548530">
        <ele>689.020996</ele>
        <time>2015-04-26T11:21:57.000Z</time>
      </trkpt>
      <trkpt lat="43.2451520" lon="-3.7549390">
        <ele>688.006958</ele>
        <time>2015-04-26T11:21:59.000Z</time>
      </trkpt>
      <trkpt lat="43.2452450" lon="-3.7550400">
        <ele>689.067993</ele>
        <time>2015-04-26T11:22:01.000Z</time>
      </trkpt>
      <trkpt lat="43.2453110" lon="-3.7551500">
        <ele>690.064026</ele>
        <time>2015-04-26T11:22:03.000Z</time>
      </trkpt>
      <trkpt lat="43.2453780" lon="-3.7552390">
        <ele>689.073975</ele>
        <time>2015-04-26T11:22:05.000Z</time>
      </trkpt>
      <trkpt lat="43.2454410" lon="-3.7553420">
        <ele>689.053040</ele>
        <time>2015-04-26T11:22:07.000Z</time>
      </trkpt>
      <trkpt lat="43.2455110" lon="-3.7555100">
        <ele>689.064026</ele>
        <time>2015-04-26T11:22:09.000Z</time>
      </trkpt>
      <trkpt lat="43.2456100" lon="-3.7556750">
        <ele>685.037048</ele>
        <time>2015-04-26T11:22:11.000Z</time>
      </trkpt>
      <trkpt lat="43.2456930" lon="-3.7558610">
        <ele>684.047058</ele>
        <time>2015-04-26T11:22:13.000Z</time>
      </trkpt>
      <trkpt lat="43.2457310" lon="-3.7559750">
        <ele>683.085022</ele>
        <time>2015-04-26T11:22:14.000Z</time>
      </trkpt>
      <trkpt lat="43.2458250" lon="-3.7559300">
        <ele>683.089050</ele>
        <time>2015-04-26T11:22:15.000Z</time>
      </trkpt>
      <trkpt lat="43.2459980" lon="-3.7558680">
        <ele>683.016968</ele>
        <time>2015-04-26T11:22:16.000Z</time>
      </trkpt>
      <trkpt lat="43.2461470" lon="-3.7558660">
        <ele>682.006958</ele>
        <time>2015-04-26T11:22:18.000Z</time>
      </trkpt>
      <trkpt lat="43.2463080" lon="-3.7559250">
        <ele>682.096985</ele>
        <time>2015-04-26T11:22:20.000Z</time>
      </trkpt>
      <trkpt lat="43.2463600" lon="-3.7560280">
        <ele>680.043030</ele>
        <time>2015-04-26T11:22:21.000Z</time>
      </trkpt>
      <trkpt lat="43.2465010" lon="-3.7561500">
        <ele>681.093018</ele>
        <time>2015-04-26T11:22:23.000Z</time>
      </trkpt>
      <trkpt lat="43.2466620" lon="-3.7561580">
        <ele>679.021973</ele>
        <time>2015-04-26T11:22:25.000Z</time>
      </trkpt>
      <trkpt lat="43.2468530" lon="-3.7560830">
        <ele>680.072998</ele>
        <time>2015-04-26T11:22:27.000Z</time>
      </trkpt>
      <trkpt lat="43.2469950" lon="-3.7560280">
        <ele>676.046021</ele>
        <time>2015-04-26T11:22:29.000Z</time>
      </trkpt>
      <trkpt lat="43.2471350" lon="-3.7560720">
        <ele>674.036011</ele>
        <time>2015-04-26T11:22:31.000Z</time>
      </trkpt>
      <trkpt lat="43.2472320" lon="-3.7561240">
        <ele>671.023987</ele>
        <time>2015-04-26T11:22:32.000Z</time>
      </trkpt>
      <trkpt lat="43.2473230" lon="-3.7561640">
        <ele>672.023010</ele>
        <time>2015-04-26T11:22:33.000Z</time>
      </trkpt>
      <trkpt lat="43.2474470" lon="-3.7562030">
        <ele>673.096008</ele>
        <time>2015-04-26T11:22:34.000Z</time>
      </trkpt>
      <trkpt lat="43.2476030" lon="-3.7562540">
        <ele>672.085999</ele>
        <time>2015-04-26T11:22:36.000Z</time>
      </trkpt>
      <trkpt lat="43.2477220" lon="-3.7562370">
        <ele>673.048035</ele>
        <time>2015-04-26T11:22:38.000Z</time>
      </trkpt>
      <trkpt lat="43.2477580" lon="-3.7562810">
        <ele>675.061035</ele>
        <time>2015-04-26T11:22:48.000Z</time>
      </trkpt>
      <trkpt lat="43.2477939" lon="-3.7563039">
        <ele>674.016968</ele>
        <time>2015-04-26T11:23:00.000Z</time>
      </trkpt>
      <trkpt lat="43.2479072" lon="-3.7563415">
        <ele>672.006958</ele>
        <time>2015-04-26T11:56:02.000Z</time>
      </trkpt>
      <trkpt lat="43.2480070" lon="-3.7563470">
        <ele>671.043030</ele>
        <time>2015-04-26T11:56:04.000Z</time>
      </trkpt>
      <trkpt lat="43.2481610" lon="-3.7562820">
        <ele>671.048950</ele>
        <time>2015-04-26T11:56:07.000Z</time>
      </trkpt>
      <trkpt lat="43.2482540" lon="-3.7562160">
        <ele>671.039001</ele>
        <time>2015-04-26T11:56:09.000Z</time>
      </trkpt>
      <trkpt lat="43.2483610" lon="-3.7561620">
        <ele>670.017944</ele>
        <time>2015-04-26T11:56:11.000Z</time>
      </trkpt>
      <trkpt lat="43.2484910" lon="-3.7560800">
        <ele>670.058960</ele>
        <time>2015-04-26T11:56:13.000Z</time>
      </trkpt>
      <trkpt lat="43.2486120" lon="-3.7559850">
        <ele>673.092041</ele>
        <time>2015-04-26T11:56:15.000Z</time>
      </trkpt>
      <trkpt lat="43.2487190" lon="-3.7558850">
        <ele>668.062012</ele>
        <time>2015-04-26T11:56:17.000Z</time>
      </trkpt>
      <trkpt lat="43.2488550" lon="-3.7557960">
        <ele>664.041992</ele>
        <time>2015-04-26T11:56:19.000Z</time>
      </trkpt>
      <trkpt lat="43.2489490" lon="-3.7556710">
        <ele>664.021973</ele>
        <time>2015-04-26T11:56:21.000Z</time>
      </trkpt>
      <trkpt lat="43.2490570" lon="-3.7555290">
        <ele>663.013977</ele>
        <time>2015-04-26T11:56:23.000Z</time>
      </trkpt>
      <trkpt lat="43.2491440" lon="-3.7554630">
        <ele>662.007019</ele>
        <time>2015-04-26T11:56:24.000Z</time>
      </trkpt>
      <trkpt lat="43.2492270" lon="-3.7552740">
        <ele>664.023010</ele>
        <time>2015-04-26T11:56:27.000Z</time>
      </trkpt>
      <trkpt lat="43.2492960" lon="-3.7551340">
        <ele>664.098999</ele>
        <time>2015-04-26T11:56:29.000Z</time>
      </trkpt>
      <trkpt lat="43.2492940" lon="-3.7549900">
        <ele>665.068970</ele>
        <time>2015-04-26T11:56:31.000Z</time>
      </trkpt>
      <trkpt lat="43.2493690" lon="-3.7548160">
        <ele>662.098022</ele>
        <time>2015-04-26T11:56:33.000Z</time>
      </trkpt>
      <trkpt lat="43.2494070" lon="-3.7546730">
        <ele>663.019043</ele>
        <time>2015-04-26T11:56:35.000Z</time>
      </trkpt>
      <trkpt lat="43.2494530" lon="-3.7545080">
        <ele>662.091980</ele>
        <time>2015-04-26T11:56:37.000Z</time>
      </trkpt>
      <trkpt lat="43.2494930" lon="-3.7543310">
        <ele>660.052002</ele>
        <time>2015-04-26T11:56:39.000Z</time>
      </trkpt>
      <trkpt lat="43.2495070" lon="-3.7541660">
        <ele>660.085022</ele>
        <time>2015-04-26T11:56:41.000Z</time>
      </trkpt>
      <trkpt lat="43.2495140" lon="-3.7540120">
        <ele>660.088989</ele>
        <time>2015-04-26T11:56:43.000Z</time>
      </trkpt>
      <trkpt lat="43.2495300" lon="-3.7538570">
        <ele>658.016968</ele>
        <time>2015-04-26T11:56:45.000Z</time>
      </trkpt>
      <trkpt lat="43.2495220" lon="-3.7537200">
        <ele>658.007019</ele>
        <time>2015-04-26T11:56:46.000Z</time>
      </trkpt>
      <trkpt lat="43.2495110" lon="-3.7535900">
        <ele>657.037048</ele>
        <time>2015-04-26T11:56:47.000Z</time>
      </trkpt>
      <trkpt lat="43.2494930" lon="-3.7533890">
        <ele>656.023010</ele>
        <time>2015-04-26T11:56:49.000Z</time>
      </trkpt>
      <trkpt lat="43.2495590" lon="-3.7531670">
        <ele>655.052979</ele>
        <time>2015-04-26T11:56:50.000Z</time>
      </trkpt>
      <trkpt lat="43.2495450" lon="-3.7529920">
        <ele>646.071960</ele>
        <time>2015-04-26T11:56:51.000Z</time>
      </trkpt>
      <trkpt lat="43.2495510" lon="-3.7528270">
        <ele>636.083008</ele>
        <time>2015-04-26T11:56:52.000Z</time>
      </trkpt>
      <trkpt lat="43.2495700" lon="-3.7526840">
        <ele>637.085999</ele>
        <time>2015-04-26T11:56:53.000Z</time>
      </trkpt>
      <trkpt lat="43.2495880" lon="-3.7525500">
        <ele>636.096008</ele>
        <time>2015-04-26T11:56:54.000Z</time>
      </trkpt>
      <trkpt lat="43.2495880" lon="-3.7523490">
        <ele>633.075012</ele>
        <time>2015-04-26T11:56:56.000Z</time>
      </trkpt>
      <trkpt lat="43.2496440" lon="-3.7522000">
        <ele>633.028015</ele>
        <time>2015-04-26T11:56:59.000Z</time>
      </trkpt>
      <trkpt lat="43.2496470" lon="-3.7521350">
        <ele>628.020020</ele>
        <time>2015-04-26T11:57:27.000Z</time>
      </trkpt>
      <trkpt lat="43.2496110" lon="-3.7519650">
        <ele>628.006958</ele>
        <time>2015-04-26T11:57:30.000Z</time>
      </trkpt>
      <trkpt lat="43.2496100" lon="-3.7518110">
        <ele>629.015991</ele>
        <time>2015-04-26T11:57:32.000Z</time>
      </trkpt>
      <trkpt lat="43.2496340" lon="-3.7516210">
        <ele>629.072021</ele>
        <time>2015-04-26T11:57:34.000Z</time>
      </trkpt>
      <trkpt lat="43.2496370" lon="-3.7514260">
        <ele>628.031982</ele>
        <time>2015-04-26T11:57:36.000Z</time>
      </trkpt>
      <trkpt lat="43.2496510" lon="-3.7512780">
        <ele>628.091003</ele>
        <time>2015-04-26T11:57:37.000Z</time>
      </trkpt>
      <trkpt lat="43.2495840" lon="-3.7511240">
        <ele>629.012024</ele>
        <time>2015-04-26T11:57:38.000Z</time>
      </trkpt>
      <trkpt lat="43.2495550" lon="-3.7509430">
        <ele>627.014954</ele>
        <time>2015-04-26T11:57:39.000Z</time>
      </trkpt>
      <trkpt lat="43.2495230" lon="-3.7507930">
        <ele>626.074951</ele>
        <time>2015-04-26T11:57:40.000Z</time>
      </trkpt>
      <trkpt lat="43.2494810" lon="-3.7506370">
        <ele>626.026001</ele>
        <time>2015-04-26T11:57:41.000Z</time>
      </trkpt>
      <trkpt lat="43.2494510" lon="-3.7504660">
        <ele>624.046997</ele>
        <time>2015-04-26T11:57:42.000Z</time>
      </trkpt>
      <trkpt lat="43.2494320" lon="-3.7502830">
        <ele>625.010986</ele>
        <time>2015-04-26T11:57:43.000Z</time>
      </trkpt>
      <trkpt lat="43.2494070" lon="-3.7501570">
        <ele>627.007019</ele>
        <time>2015-04-26T11:57:44.000Z</time>
      </trkpt>
      <trkpt lat="43.2493940" lon="-3.7500240">
        <ele>627.070984</ele>
        <time>2015-04-26T11:57:45.000Z</time>
      </trkpt>
      <trkpt lat="43.2494030" lon="-3.7498860">
        <ele>627.096985</ele>
        <time>2015-04-26T11:57:46.000Z</time>
      </trkpt>
      <trkpt lat="43.2494080" lon="-3.7497570">
        <ele>626.017029</ele>
        <time>2015-04-26T11:57:47.000Z</time>
      </trkpt>
      <trkpt lat="43.2494490" lon="-3.7496450">
        <ele>625.075989</ele>
        <time>2015-04-26T11:57:48.000Z</time>
      </trkpt>
      <trkpt lat="43.2494560" lon="-3.7495050">
        <ele>625.097046</ele>
        <time>2015-04-26T11:57:49.000Z</time>
      </trkpt>
      <trkpt lat="43.2495140" lon="-3.7493310">
        <ele>624.070007</ele>
        <time>2015-04-26T11:57:52.000Z</time>
      </trkpt>
      <trkpt lat="43.2495570" lon="-3.7491000">
        <ele>625.059998</ele>
        <time>2015-04-26T11:57:53.000Z</time>
      </trkpt>
      <trkpt lat="43.2496470" lon="-3.7490480">
        <ele>624.023987</ele>
        <time>2015-04-26T11:57:54.000Z</time>
      </trkpt>
      <trkpt lat="43.2497420" lon="-3.7488820">
        <ele>625.004028</ele>
        <time>2015-04-26T11:57:56.000Z</time>
      </trkpt>
      <trkpt lat="43.2497990" lon="-3.7487740">
        <ele>628.013977</ele>
        <time>2015-04-26T11:57:57.000Z</time>
      </trkpt>
      <trkpt lat="43.2498540" lon="-3.7486650">
        <ele>625.006958</ele>
        <time>2015-04-26T11:57:58.000Z</time>
      </trkpt>
      <trkpt lat="43.2499480" lon="-3.7484810">
        <ele>626.091003</ele>
        <time>2015-04-26T11:58:00.000Z</time>
      </trkpt>
      <trkpt lat="43.2500530" lon="-3.7483180">
        <ele>628.036987</ele>
        <time>2015-04-26T11:58:02.000Z</time>
      </trkpt>
      <trkpt lat="43.2501300" lon="-3.7481210">
        <ele>624.017029</ele>
        <time>2015-04-26T11:58:04.000Z</time>
      </trkpt>
      <trkpt lat="43.2501750" lon="-3.7479090">
        <ele>625.036011</ele>
        <time>2015-04-26T11:58:06.000Z</time>
      </trkpt>
      <trkpt lat="43.2502230" lon="-3.7477030">
        <ele>623.076965</ele>
        <time>2015-04-26T11:58:08.000Z</time>
      </trkpt>
      <trkpt lat="43.2502640" lon="-3.7475070">
        <ele>621.090027</ele>
        <time>2015-04-26T11:58:10.000Z</time>
      </trkpt>
      <trkpt lat="43.2502920" lon="-3.7472980">
        <ele>620.090027</ele>
        <time>2015-04-26T11:58:12.000Z</time>
      </trkpt>
      <trkpt lat="43.2503540" lon="-3.7471480">
        <ele>622.078003</ele>
        <time>2015-04-26T11:58:14.000Z</time>
      </trkpt>
      <trkpt lat="43.2503650" lon="-3.7469860">
        <ele>625.033020</ele>
        <time>2015-04-26T11:58:16.000Z</time>
      </trkpt>
      <trkpt lat="43.2503550" lon="-3.7468620">
        <ele>625.026062</ele>
        <time>2015-04-26T11:58:17.000Z</time>
      </trkpt>
      <trkpt lat="43.2503810" lon="-3.7467200">
        <ele>625.006958</ele>
        <time>2015-04-26T11:58:19.000Z</time>
      </trkpt>
      <trkpt lat="43.2503730" lon="-3.7465440">
        <ele>624.036011</ele>
        <time>2015-04-26T11:58:21.000Z</time>
      </trkpt>
      <trkpt lat="43.2503630" lon="-3.7463640">
        <ele>622.091980</ele>
        <time>2015-04-26T11:58:23.000Z</time>
      </trkpt>
      <trkpt lat="43.2503840" lon="-3.7461940">
        <ele>621.062012</ele>
        <time>2015-04-26T11:58:25.000Z</time>
      </trkpt>
      <trkpt lat="43.2504270" lon="-3.7460020">
        <ele>621.060974</ele>
        <time>2015-04-26T11:58:27.000Z</time>
      </trkpt>
      <trkpt lat="43.2504200" lon="-3.7458710">
        <ele>619.062012</ele>
        <time>2015-04-26T11:58:29.000Z</time>
      </trkpt>
      <trkpt lat="43.2505450" lon="-3.7457910">
        <ele>618.084961</ele>
        <time>2015-04-26T11:58:31.000Z</time>
      </trkpt>
      <trkpt lat="43.2506030" lon="-3.7456720">
        <ele>614.044983</ele>
        <time>2015-04-26T11:58:33.000Z</time>
      </trkpt>
      <trkpt lat="43.2507240" lon="-3.7454700">
        <ele>610.075989</ele>
        <time>2015-04-26T11:58:35.000Z</time>
      </trkpt>
      <trkpt lat="43.2508120" lon="-3.7453180">
        <ele>612.090027</ele>
        <time>2015-04-26T11:58:36.000Z</time>
      </trkpt>
      <trkpt lat="43.2508900" lon="-3.7452090">
        <ele>610.018982</ele>
        <time>2015-04-26T11:58:37.000Z</time>
      </trkpt>
      <trkpt lat="43.2509390" lon="-3.7450960">
        <ele>606.007019</ele>
        <time>2015-04-26T11:58:38.000Z</time>
      </trkpt>
      <trkpt lat="43.2509500" lon="-3.7448770">
        <ele>605.065979</ele>
        <time>2015-04-26T11:58:40.000Z</time>
      </trkpt>
      <trkpt lat="43.2508890" lon="-3.7446730">
        <ele>604.021973</ele>
        <time>2015-04-26T11:58:42.000Z</time>
      </trkpt>
      <trkpt lat="43.2508820" lon="-3.7444910">
        <ele>603.012024</ele>
        <time>2015-04-26T11:58:44.000Z</time>
      </trkpt>
      <trkpt lat="43.2509060" lon="-3.7443200">
        <ele>604.091003</ele>
        <time>2015-04-26T11:58:46.000Z</time>
      </trkpt>
      <trkpt lat="43.2507540" lon="-3.7442870">
        <ele>605.081970</ele>
        <time>2015-04-26T11:58:48.000Z</time>
      </trkpt>
      <trkpt lat="43.2506340" lon="-3.7443570">
        <ele>606.045044</ele>
        <time>2015-04-26T11:58:50.000Z</time>
      </trkpt>
      <trkpt lat="43.2505970" lon="-3.7445000">
        <ele>603.054993</ele>
        <time>2015-04-26T11:58:51.000Z</time>
      </trkpt>
      <trkpt lat="43.2505450" lon="-3.7446020">
        <ele>601.059021</ele>
        <time>2015-04-26T11:58:52.000Z</time>
      </trkpt>
      <trkpt lat="43.2504830" lon="-3.7448280">
        <ele>600.002991</ele>
        <time>2015-04-26T11:58:54.000Z</time>
      </trkpt>
      <trkpt lat="43.2503250" lon="-3.7448790">
        <ele>599.023010</ele>
        <time>2015-04-26T11:58:56.000Z</time>
      </trkpt>
      <trkpt lat="43.2502200" lon="-3.7448600">
        <ele>599.007019</ele>
        <time>2015-04-26T11:58:57.000Z</time>
      </trkpt>
      <trkpt lat="43.2501250" lon="-3.7448570">
        <ele>598.023987</ele>
        <time>2015-04-26T11:58:58.000Z</time>
      </trkpt>
      <trkpt lat="43.2499660" lon="-3.7449050">
        <ele>598.080017</ele>
        <time>2015-04-26T11:59:00.000Z</time>
      </trkpt>
      <trkpt lat="43.2498730" lon="-3.7451220">
        <ele>597.070007</ele>
        <time>2015-04-26T11:59:02.000Z</time>
      </trkpt>
      <trkpt lat="43.2498410" lon="-3.7452380">
        <ele>597.098999</ele>
        <time>2015-04-26T11:59:03.000Z</time>
      </trkpt>
      <trkpt lat="43.2498020" lon="-3.7453520">
        <ele>594.059998</ele>
        <time>2015-04-26T11:59:04.000Z</time>
      </trkpt>
      <trkpt lat="43.2497700" lon="-3.7454670">
        <ele>593.083008</ele>
        <time>2015-04-26T11:59:05.000Z</time>
      </trkpt>
      <trkpt lat="43.2497160" lon="-3.7455740">
        <ele>592.093018</ele>
        <time>2015-04-26T11:59:06.000Z</time>
      </trkpt>
      <trkpt lat="43.2497120" lon="-3.7456990">
        <ele>592.049011</ele>
        <time>2015-04-26T11:59:07.000Z</time>
      </trkpt>
      <trkpt lat="43.2497300" lon="-3.7458210">
        <ele>592.002014</ele>
        <time>2015-04-26T11:59:08.000Z</time>
      </trkpt>
      <trkpt lat="43.2497330" lon="-3.7459530">
        <ele>592.021973</ele>
        <time>2015-04-26T11:59:09.000Z</time>
      </trkpt>
      <trkpt lat="43.2497480" lon="-3.7460890">
        <ele>591.007019</ele>
        <time>2015-04-26T11:59:10.000Z</time>
      </trkpt>
      <trkpt lat="43.2497630" lon="-3.7462110">
        <ele>591.042969</ele>
        <time>2015-04-26T11:59:11.000Z</time>
      </trkpt>
      <trkpt lat="43.2497420" lon="-3.7463390">
        <ele>591.049011</ele>
        <time>2015-04-26T11:59:12.000Z</time>
      </trkpt>
      <trkpt lat="43.2497130" lon="-3.7464550">
        <ele>591.028992</ele>
        <time>2015-04-26T11:59:13.000Z</time>
      </trkpt>
      <trkpt lat="43.2496930" lon="-3.7465800">
        <ele>588.048035</ele>
        <time>2015-04-26T11:59:14.000Z</time>
      </trkpt>
      <trkpt lat="43.2496740" lon="-3.7467150">
        <ele>589.069031</ele>
        <time>2015-04-26T11:59:15.000Z</time>
      </trkpt>
      <trkpt lat="43.2496810" lon="-3.7468390">
        <ele>586.091980</ele>
        <time>2015-04-26T11:59:16.000Z</time>
      </trkpt>
      <trkpt lat="43.2496750" lon="-3.7469750">
        <ele>583.081970</ele>
        <time>2015-04-26T11:59:17.000Z</time>
      </trkpt>
      <trkpt lat="43.2496400" lon="-3.7471030">
        <ele>581.025024</ele>
        <time>2015-04-26T11:59:18.000Z</time>
      </trkpt>
      <trkpt lat="43.2495750" lon="-3.7472110">
        <ele>579.026001</ele>
        <time>2015-04-26T11:59:19.000Z</time>
      </trkpt>
      <trkpt lat="43.2494920" lon="-3.7474100">
        <ele>579.007996</ele>
        <time>2015-04-26T11:59:21.000Z</time>
      </trkpt>
      <trkpt lat="43.2494010" lon="-3.7474720">
        <ele>578.007019</ele>
        <time>2015-04-26T11:59:22.000Z</time>
      </trkpt>
      <trkpt lat="43.2492470" lon="-3.7475250">
        <ele>576.091003</ele>
        <time>2015-04-26T11:59:24.000Z</time>
      </trkpt>
      <trkpt lat="43.2490810" lon="-3.7476490">
        <ele>576.027039</ele>
        <time>2015-04-26T11:59:26.000Z</time>
      </trkpt>
      <trkpt lat="43.2490050" lon="-3.7477330">
        <ele>578.036987</ele>
        <time>2015-04-26T11:59:27.000Z</time>
      </trkpt>
      <trkpt lat="43.2489210" lon="-3.7478050">
        <ele>577.046021</ele>
        <time>2015-04-26T11:59:28.000Z</time>
      </trkpt>
      <trkpt lat="43.2488430" lon="-3.7478880">
        <ele>577.097046</ele>
        <time>2015-04-26T11:59:29.000Z</time>
      </trkpt>
      <trkpt lat="43.2487520" lon="-3.7479460">
        <ele>576.010010</ele>
        <time>2015-04-26T11:59:30.000Z</time>
      </trkpt>
      <trkpt lat="43.2486480" lon="-3.7479700">
        <ele>573.039978</ele>
        <time>2015-04-26T11:59:31.000Z</time>
      </trkpt>
      <trkpt lat="43.2485610" lon="-3.7480130">
        <ele>573.013000</ele>
        <time>2015-04-26T11:59:32.000Z</time>
      </trkpt>
      <trkpt lat="43.2484500" lon="-3.7480070">
        <ele>570.043030</ele>
        <time>2015-04-26T11:59:33.000Z</time>
      </trkpt>
      <trkpt lat="43.2483390" lon="-3.7479890">
        <ele>567.007019</ele>
        <time>2015-04-26T11:59:34.000Z</time>
      </trkpt>
      <trkpt lat="43.2482270" lon="-3.7480040">
        <ele>565.007019</ele>
        <time>2015-04-26T11:59:35.000Z</time>
      </trkpt>
      <trkpt lat="43.2481150" lon="-3.7480420">
        <ele>565.090027</ele>
        <time>2015-04-26T11:59:36.000Z</time>
      </trkpt>
      <trkpt lat="43.2480080" lon="-3.7480810">
        <ele>564.075989</ele>
        <time>2015-04-26T11:59:37.000Z</time>
      </trkpt>
      <trkpt lat="43.2479150" lon="-3.7481170">
        <ele>566.075989</ele>
        <time>2015-04-26T11:59:38.000Z</time>
      </trkpt>
      <trkpt lat="43.2478270" lon="-3.7481570">
        <ele>565.065002</ele>
        <time>2015-04-26T11:59:39.000Z</time>
      </trkpt>
      <trkpt lat="43.2477360" lon="-3.7481700">
        <ele>563.096008</ele>
        <time>2015-04-26T11:59:40.000Z</time>
      </trkpt>
      <trkpt lat="43.2475680" lon="-3.7481100">
        <ele>563.049011</ele>
        <time>2015-04-26T11:59:42.000Z</time>
      </trkpt>
      <trkpt lat="43.2474210" lon="-3.7479960">
        <ele>564.078979</ele>
        <time>2015-04-26T11:59:44.000Z</time>
      </trkpt>
      <trkpt lat="43.2473330" lon="-3.7479270">
        <ele>562.067993</ele>
        <time>2015-04-26T11:59:45.000Z</time>
      </trkpt>
      <trkpt lat="43.2472560" lon="-3.7478390">
        <ele>561.041992</ele>
        <time>2015-04-26T11:59:46.000Z</time>
      </trkpt>
      <trkpt lat="43.2471810" lon="-3.7477200">
        <ele>559.026001</ele>
        <time>2015-04-26T11:59:47.000Z</time>
      </trkpt>
      <trkpt lat="43.2471010" lon="-3.7476450">
        <ele>557.007019</ele>
        <time>2015-04-26T11:59:48.000Z</time>
      </trkpt>
      <trkpt lat="43.2470580" lon="-3.7475230">
        <ele>555.015015</ele>
        <time>2015-04-26T11:59:49.000Z</time>
      </trkpt>
      <trkpt lat="43.2470470" lon="-3.7473310">
        <ele>551.080994</ele>
        <time>2015-04-26T11:59:50.000Z</time>
      </trkpt>
      <trkpt lat="43.2470300" lon="-3.7472060">
        <ele>549.080994</ele>
        <time>2015-04-26T11:59:51.000Z</time>
      </trkpt>
      <trkpt lat="43.2470160" lon="-3.7470460">
        <ele>553.080017</ele>
        <time>2015-04-26T11:59:52.000Z</time>
      </trkpt>
      <trkpt lat="43.2469960" lon="-3.7469110">
        <ele>553.031006</ele>
        <time>2015-04-26T11:59:53.000Z</time>
      </trkpt>
      <trkpt lat="43.2470000" lon="-3.7467410">
        <ele>552.064026</ele>
        <time>2015-04-26T11:59:54.000Z</time>
      </trkpt>
      <trkpt lat="43.2469740" lon="-3.7465730">
        <ele>550.023987</ele>
        <time>2015-04-26T11:59:55.000Z</time>
      </trkpt>
      <trkpt lat="43.2469500" lon="-3.7464390">
        <ele>548.047974</ele>
        <time>2015-04-26T11:59:56.000Z</time>
      </trkpt>
      <trkpt lat="43.2469470" lon="-3.7463030">
        <ele>548.060974</ele>
        <time>2015-04-26T11:59:57.000Z</time>
      </trkpt>
      <trkpt lat="43.2469590" lon="-3.7460540">
        <ele>548.017029</ele>
        <time>2015-04-26T11:59:59.000Z</time>
      </trkpt>
      <trkpt lat="43.2470130" lon="-3.7459060">
        <ele>548.007019</ele>
        <time>2015-04-26T12:00:01.000Z</time>
      </trkpt>
      <trkpt lat="43.2471020" lon="-3.7458520">
        <ele>547.052979</ele>
        <time>2015-04-26T12:00:02.000Z</time>
      </trkpt>
      <trkpt lat="43.2471920" lon="-3.7458110">
        <ele>543.028992</ele>
        <time>2015-04-26T12:00:03.000Z</time>
      </trkpt>
      <trkpt lat="43.2473750" lon="-3.7459070">
        <ele>540.098999</ele>
        <time>2015-04-26T12:00:05.000Z</time>
      </trkpt>
      <trkpt lat="43.2474650" lon="-3.7459620">
        <ele>538.018005</ele>
        <time>2015-04-26T12:00:06.000Z</time>
      </trkpt>
      <trkpt lat="43.2475650" lon="-3.7460140">
        <ele>537.059021</ele>
        <time>2015-04-26T12:00:07.000Z</time>
      </trkpt>
      <trkpt lat="43.2476760" lon="-3.7460430">
        <ele>535.052002</ele>
        <time>2015-04-26T12:00:08.000Z</time>
      </trkpt>
      <trkpt lat="43.2477880" lon="-3.7461140">
        <ele>533.062012</ele>
        <time>2015-04-26T12:00:10.000Z</time>
      </trkpt>
      <trkpt lat="43.2479030" lon="-3.7459920">
        <ele>534.025024</ele>
        <time>2015-04-26T12:00:12.000Z</time>
      </trkpt>
      <trkpt lat="43.2479500" lon="-3.7458660">
        <ele>531.026001</ele>
        <time>2015-04-26T12:00:13.000Z</time>
      </trkpt>
      <trkpt lat="43.2480600" lon="-3.7457240">
        <ele>531.007996</ele>
        <time>2015-04-26T12:00:15.000Z</time>
      </trkpt>
      <trkpt lat="43.2481810" lon="-3.7455410">
        <ele>530.007019</ele>
        <time>2015-04-26T12:00:17.000Z</time>
      </trkpt>
      <trkpt lat="43.2482210" lon="-3.7454190">
        <ele>531.070984</ele>
        <time>2015-04-26T12:00:18.000Z</time>
      </trkpt>
      <trkpt lat="43.2481470" lon="-3.7453210">
        <ele>528.026978</ele>
        <time>2015-04-26T12:00:19.000Z</time>
      </trkpt>
      <trkpt lat="43.2481250" lon="-3.7451160">
        <ele>526.067017</ele>
        <time>2015-04-26T12:00:21.000Z</time>
      </trkpt>
      <trkpt lat="43.2481720" lon="-3.7448760">
        <ele>524.056030</ele>
        <time>2015-04-26T12:00:23.000Z</time>
      </trkpt>
      <trkpt lat="43.2482270" lon="-3.7446480">
        <ele>526.086975</ele>
        <time>2015-04-26T12:00:25.000Z</time>
      </trkpt>
      <trkpt lat="43.2482580" lon="-3.7445260">
        <ele>525.089966</ele>
        <time>2015-04-26T12:00:26.000Z</time>
      </trkpt>
      <trkpt lat="43.2483630" lon="-3.7443290">
        <ele>525.039978</ele>
        <time>2015-04-26T12:00:28.000Z</time>
      </trkpt>
      <trkpt lat="43.2484620" lon="-3.7441400">
        <ele>524.062988</ele>
        <time>2015-04-26T12:00:30.000Z</time>
      </trkpt>
      <trkpt lat="43.2485600" lon="-3.7439220">
        <ele>523.044006</ele>
        <time>2015-04-26T12:00:32.000Z</time>
      </trkpt>
      <trkpt lat="43.2486330" lon="-3.7438310">
        <ele>523.018005</ele>
        <time>2015-04-26T12:00:33.000Z</time>
      </trkpt>
      <trkpt lat="43.2487250" lon="-3.7438020">
        <ele>520.007019</ele>
        <time>2015-04-26T12:00:34.000Z</time>
      </trkpt>
      <trkpt lat="43.2488280" lon="-3.7437270">
        <ele>519.075012</ele>
        <time>2015-04-26T12:00:35.000Z</time>
      </trkpt>
      <trkpt lat="43.2489260" lon="-3.7436530">
        <ele>519.080994</ele>
        <time>2015-04-26T12:00:36.000Z</time>
      </trkpt>
      <trkpt lat="43.2491560" lon="-3.7435430">
        <ele>520.031006</ele>
        <time>2015-04-26T12:00:37.000Z</time>
      </trkpt>
      <trkpt lat="43.2492580" lon="-3.7434270">
        <ele>520.020020</ele>
        <time>2015-04-26T12:00:38.000Z</time>
      </trkpt>
      <trkpt lat="43.2493160" lon="-3.7433090">
        <ele>520.051025</ele>
        <time>2015-04-26T12:00:39.000Z</time>
      </trkpt>
      <trkpt lat="43.2493720" lon="-3.7431100">
        <ele>516.014038</ele>
        <time>2015-04-26T12:00:41.000Z</time>
      </trkpt>
      <trkpt lat="43.2493220" lon="-3.7428820">
        <ele>518.083984</ele>
        <time>2015-04-26T12:00:43.000Z</time>
      </trkpt>
      <trkpt lat="43.2492940" lon="-3.7426620">
        <ele>512.096985</ele>
        <time>2015-04-26T12:00:45.000Z</time>
      </trkpt>
      <trkpt lat="43.2492880" lon="-3.7425380">
        <ele>510.023010</ele>
        <time>2015-04-26T12:00:46.000Z</time>
      </trkpt>
      <trkpt lat="43.2492620" lon="-3.7423870">
        <ele>510.025024</ele>
        <time>2015-04-26T12:00:48.000Z</time>
      </trkpt>
      <trkpt lat="43.2492750" lon="-3.7421450">
        <ele>509.006989</ele>
        <time>2015-04-26T12:00:49.000Z</time>
      </trkpt>
      <trkpt lat="43.2493810" lon="-3.7419230">
        <ele>506.087982</ele>
        <time>2015-04-26T12:00:51.000Z</time>
      </trkpt>
      <trkpt lat="43.2494630" lon="-3.7418260">
        <ele>506.084015</ele>
        <time>2015-04-26T12:00:52.000Z</time>
      </trkpt>
      <trkpt lat="43.2495720" lon="-3.7416150">
        <ele>507.074005</ele>
        <time>2015-04-26T12:00:54.000Z</time>
      </trkpt>
      <trkpt lat="43.2496320" lon="-3.7415090">
        <ele>505.072998</ele>
        <time>2015-04-26T12:00:55.000Z</time>
      </trkpt>
      <trkpt lat="43.2496980" lon="-3.7414030">
        <ele>503.013977</ele>
        <time>2015-04-26T12:00:57.000Z</time>
      </trkpt>
      <trkpt lat="43.2497610" lon="-3.7412850">
        <ele>503.057007</ele>
        <time>2015-04-26T12:00:57.000Z</time>
      </trkpt>
      <trkpt lat="43.2498190" lon="-3.7411570">
        <ele>502.016998</ele>
        <time>2015-04-26T12:00:59.000Z</time>
      </trkpt>
      <trkpt lat="43.2498770" lon="-3.7410270">
        <ele>501.042023</ele>
        <time>2015-04-26T12:01:00.000Z</time>
      </trkpt>
      <trkpt lat="43.2499280" lon="-3.7408910">
        <ele>498.022003</ele>
        <time>2015-04-26T12:01:01.000Z</time>
      </trkpt>
      <trkpt lat="43.2499600" lon="-3.7407650">
        <ele>497.014008</ele>
        <time>2015-04-26T12:01:02.000Z</time>
      </trkpt>
      <trkpt lat="43.2500120" lon="-3.7406510">
        <ele>492.006989</ele>
        <time>2015-04-26T12:01:03.000Z</time>
      </trkpt>
      <trkpt lat="43.2500310" lon="-3.7405160">
        <ele>489.042999</ele>
        <time>2015-04-26T12:01:04.000Z</time>
      </trkpt>
      <trkpt lat="43.2500720" lon="-3.7403860">
        <ele>489.048981</ele>
        <time>2015-04-26T12:01:05.000Z</time>
      </trkpt>
      <trkpt lat="43.2500990" lon="-3.7402660">
        <ele>489.069000</ele>
        <time>2015-04-26T12:01:06.000Z</time>
      </trkpt>
      <trkpt lat="43.2501290" lon="-3.7401200">
        <ele>487.058014</ele>
        <time>2015-04-26T12:01:08.000Z</time>
      </trkpt>
      <trkpt lat="43.2501760" lon="-3.7399750">
        <ele>487.039001</ele>
        <time>2015-04-26T12:01:10.000Z</time>
      </trkpt>
      <trkpt lat="43.2502310" lon="-3.7398050">
        <ele>485.081970</ele>
        <time>2015-04-26T12:01:12.000Z</time>
      </trkpt>
      <trkpt lat="43.2502440" lon="-3.7395870">
        <ele>485.011993</ele>
        <time>2015-04-26T12:01:14.000Z</time>
      </trkpt>
      <trkpt lat="43.2502130" lon="-3.7394430">
        <ele>484.013000</ele>
        <time>2015-04-26T12:01:15.000Z</time>
      </trkpt>
      <trkpt lat="43.2501100" lon="-3.7392360">
        <ele>482.042999</ele>
        <time>2015-04-26T12:01:17.000Z</time>
      </trkpt>
      <trkpt lat="43.2500060" lon="-3.7391660">
        <ele>479.007019</ele>
        <time>2015-04-26T12:01:18.000Z</time>
      </trkpt>
      <trkpt lat="43.2499250" lon="-3.7390540">
        <ele>478.006989</ele>
        <time>2015-04-26T12:01:19.000Z</time>
      </trkpt>
      <trkpt lat="43.2497900" lon="-3.7390780">
        <ele>477.019989</ele>
        <time>2015-04-26T12:01:22.000Z</time>
      </trkpt>
      <trkpt lat="43.2497650" lon="-3.7392440">
        <ele>478.056000</ele>
        <time>2015-04-26T12:01:24.000Z</time>
      </trkpt>
      <trkpt lat="43.2496960" lon="-3.7394140">
        <ele>477.026001</ele>
        <time>2015-04-26T12:01:27.000Z</time>
      </trkpt>
      <trkpt lat="43.2496980" lon="-3.7396640">
        <ele>474.065002</ele>
        <time>2015-04-26T12:01:29.000Z</time>
      </trkpt>
      <trkpt lat="43.2496660" lon="-3.7398140">
        <ele>473.085999</ele>
        <time>2015-04-26T12:01:31.000Z</time>
      </trkpt>
      <trkpt lat="43.2496000" lon="-3.7400010">
        <ele>471.028992</ele>
        <time>2015-04-26T12:01:33.000Z</time>
      </trkpt>
      <trkpt lat="43.2494880" lon="-3.7401230">
        <ele>472.088989</ele>
        <time>2015-04-26T12:01:35.000Z</time>
      </trkpt>
      <trkpt lat="43.2493500" lon="-3.7402610">
        <ele>472.038025</ele>
        <time>2015-04-26T12:01:37.000Z</time>
      </trkpt>
      <trkpt lat="43.2492200" lon="-3.7404290">
        <ele>471.070007</ele>
        <time>2015-04-26T12:01:39.000Z</time>
      </trkpt>
      <trkpt lat="43.2491380" lon="-3.7405200">
        <ele>471.017029</ele>
        <time>2015-04-26T12:01:40.000Z</time>
      </trkpt>
      <trkpt lat="43.2490780" lon="-3.7406160">
        <ele>471.007019</ele>
        <time>2015-04-26T12:01:41.000Z</time>
      </trkpt>
      <trkpt lat="43.2490560" lon="-3.7407420">
        <ele>469.041992</ele>
        <time>2015-04-26T12:01:42.000Z</time>
      </trkpt>
      <trkpt lat="43.2489880" lon="-3.7408440">
        <ele>469.067993</ele>
        <time>2015-04-26T12:01:43.000Z</time>
      </trkpt>
      <trkpt lat="43.2489270" lon="-3.7409670">
        <ele>468.017975</ele>
        <time>2015-04-26T12:01:44.000Z</time>
      </trkpt>
      <trkpt lat="43.2488590" lon="-3.7410740">
        <ele>467.027008</ele>
        <time>2015-04-26T12:01:45.000Z</time>
      </trkpt>
      <trkpt lat="43.2487770" lon="-3.7411680">
        <ele>467.068024</ele>
        <time>2015-04-26T12:01:46.000Z</time>
      </trkpt>
      <trkpt lat="43.2486970" lon="-3.7412390">
        <ele>466.020996</ele>
        <time>2015-04-26T12:01:47.000Z</time>
      </trkpt>
      <trkpt lat="43.2486090" lon="-3.7413000">
        <ele>463.061005</ele>
        <time>2015-04-26T12:01:48.000Z</time>
      </trkpt>
      <trkpt lat="43.2484410" lon="-3.7414190">
        <ele>462.078003</ele>
        <time>2015-04-26T12:01:50.000Z</time>
      </trkpt>
      <trkpt lat="43.2483460" lon="-3.7414710">
        <ele>461.032990</ele>
        <time>2015-04-26T12:01:51.000Z</time>
      </trkpt>
      <trkpt lat="43.2482440" lon="-3.7415130">
        <ele>460.025970</ele>
        <time>2015-04-26T12:01:52.000Z</time>
      </trkpt>
      <trkpt lat="43.2481430" lon="-3.7415340">
        <ele>456.006989</ele>
        <time>2015-04-26T12:01:53.000Z</time>
      </trkpt>
      <trkpt lat="43.2480490" lon="-3.7415720">
        <ele>456.076019</ele>
        <time>2015-04-26T12:01:54.000Z</time>
      </trkpt>
      <trkpt lat="43.2478490" lon="-3.7416490">
        <ele>691.012024</ele>
        <time>2015-04-26T12:01:56.000Z</time>
      </trkpt>
      <trkpt lat="43.2476990" lon="-3.7417150">
        <ele>645.032043</ele>
        <time>2015-04-26T12:01:58.000Z</time>
      </trkpt>
      <trkpt lat="43.2475810" lon="-3.7417680">
        <ele>594.041016</ele>
        <time>2015-04-26T12:02:00.000Z</time>
      </trkpt>
      <trkpt lat="43.2474820" lon="-3.7417690">
        <ele>561.081970</ele>
        <time>2015-04-26T12:02:02.000Z</time>
      </trkpt>
      <trkpt lat="43.2474620" lon="-3.7416180">
        <ele>533.095032</ele>
        <time>2015-04-26T12:02:05.000Z</time>
      </trkpt>
      <trkpt lat="43.2475880" lon="-3.7415090">
        <ele>519.095032</ele>
        <time>2015-04-26T12:02:07.000Z</time>
      </trkpt>
      <trkpt lat="43.2477430" lon="-3.7413760">
        <ele>506.070984</ele>
        <time>2015-04-26T12:02:09.000Z</time>
      </trkpt>
      <trkpt lat="43.2478580" lon="-3.7413210">
        <ele>502.040985</ele>
        <time>2015-04-26T12:02:10.000Z</time>
      </trkpt>
      <trkpt lat="43.2479500" lon="-3.7412390">
        <ele>484.014984</ele>
        <time>2015-04-26T12:02:11.000Z</time>
      </trkpt>
      <trkpt lat="43.2480340" lon="-3.7411060">
        <ele>476.006989</ele>
        <time>2015-04-26T12:02:12.000Z</time>
      </trkpt>
      <trkpt lat="43.2480850" lon="-3.7409810">
        <ele>401.056000</ele>
        <time>2015-04-26T12:02:13.000Z</time>
      </trkpt>
      <trkpt lat="43.2481190" lon="-3.7408320">
        <ele>429.011993</ele>
        <time>2015-04-26T12:02:14.000Z</time>
      </trkpt>
      <trkpt lat="43.2481280" lon="-3.7406850">
        <ele>428.012024</ele>
        <time>2015-04-26T12:02:15.000Z</time>
      </trkpt>
      <trkpt lat="43.2482210" lon="-3.7405940">
        <ele>428.040985</ele>
        <time>2015-04-26T12:02:16.000Z</time>
      </trkpt>
      <trkpt lat="43.2482830" lon="-3.7404340">
        <ele>428.012024</ele>
        <time>2015-04-26T12:02:18.000Z</time>
      </trkpt>
      <trkpt lat="43.2484170" lon="-3.7401760">
        <ele>429.034973</ele>
        <time>2015-04-26T12:02:21.000Z</time>
      </trkpt>
      <trkpt lat="43.2486461" lon="-3.7395830">
        <ele>431.065002</ele>
        <time>2021-03-20T17:56:50.687Z</time>
      </trkpt>
      <trkpt lat="43.2487165" lon="-3.7393792">
        <ele>433.092010</ele>
        <time>2021-03-20T17:56:52.495Z</time>
      </trkpt>
      <trkpt lat="43.2487712" lon="-3.7392182">
        <ele>434.072998</ele>
        <time>2021-03-20T17:56:53.079Z</time>
      </trkpt>
      <trkpt lat="43.2488415" lon="-3.7390251">
        <ele>437.019989</ele>
        <time>2021-03-20T17:56:53.647Z</time>
      </trkpt>
      <trkpt lat="43.2489353" lon="-3.7388535">
        <ele>435.007019</ele>
        <time>2021-03-20T17:56:54.111Z</time>
      </trkpt>
      <trkpt lat="43.2490134" lon="-3.7387247">
        <ele>434.087982</ele>
        <time>2021-03-20T17:56:54.592Z</time>
      </trkpt>
      <trkpt lat="43.2490681" lon="-3.7386067">
        <ele>433.074005</ele>
        <time>2021-03-20T17:56:55.127Z</time>
      </trkpt>
      <trkpt lat="43.2491228" lon="-3.7384672">
        <ele>438.083984</ele>
        <time>2021-03-20T17:56:55.623Z</time>
      </trkpt>
      <trkpt lat="43.2491306" lon="-3.7383492">
        <ele>438.092987</ele>
        <time>2021-03-20T17:56:56.127Z</time>
      </trkpt>
      <trkpt lat="43.2491228" lon="-3.7381990">
        <ele>435.064026</ele>
        <time>2021-03-20T17:56:56.559Z</time>
      </trkpt>
      <trkpt lat="43.2491150" lon="-3.7380595">
        <ele>433.037018</ele>
        <time>2021-03-20T17:56:57.015Z</time>
      </trkpt>
      <trkpt lat="43.2491072" lon="-3.7379415">
        <ele>435.057007</ele>
        <time>2021-03-20T17:56:57.576Z</time>
      </trkpt>
      <trkpt lat="43.2491463" lon="-3.7377591">
        <ele>438.098999</ele>
        <time>2021-03-20T17:56:58.023Z</time>
      </trkpt>
      <trkpt lat="43.2491775" lon="-3.7376304">
        <ele>437.006989</ele>
        <time>2021-03-20T17:56:58.543Z</time>
      </trkpt>
      <trkpt lat="43.2492166" lon="-3.7375124">
        <ele>435.026978</ele>
        <time>2021-03-20T17:56:59.008Z</time>
      </trkpt>
      <trkpt lat="43.2492948" lon="-3.7374051">
        <ele>433.006989</ele>
        <time>2021-03-20T17:56:59.479Z</time>
      </trkpt>
      <trkpt lat="43.2493573" lon="-3.7372656">
        <ele>428.037994</ele>
        <time>2021-03-20T17:57:00.009Z</time>
      </trkpt>
      <trkpt lat="43.2494276" lon="-3.7371368">
        <ele>430.023987</ele>
        <time>2021-03-20T17:57:00.479Z</time>
      </trkpt>
      <trkpt lat="43.2495214" lon="-3.7369759">
        <ele>431.023987</ele>
        <time>2021-03-20T17:57:00.968Z</time>
      </trkpt>
      <trkpt lat="43.2496073" lon="-3.7368579">
        <ele>427.072998</ele>
        <time>2021-03-20T17:57:01.439Z</time>
      </trkpt>
      <trkpt lat="43.2496855" lon="-3.7367184">
        <ele>430.083984</ele>
        <time>2021-03-20T17:57:01.903Z</time>
      </trkpt>
      <trkpt lat="43.2497793" lon="-3.7366326">
        <ele>432.036987</ele>
        <time>2021-03-20T17:57:02.327Z</time>
      </trkpt>
      <trkpt lat="43.2498652" lon="-3.7363966">
        <ele>436.046997</ele>
        <time>2021-03-20T17:57:03.391Z</time>
      </trkpt>
      <trkpt lat="43.2499668" lon="-3.7362034">
        <ele>437.049011</ele>
        <time>2021-03-20T17:57:04.023Z</time>
      </trkpt>
      <trkpt lat="43.2500528" lon="-3.7360103">
        <ele>438.001984</ele>
        <time>2021-03-20T17:57:04.496Z</time>
      </trkpt>
      <trkpt lat="43.2501153" lon="-3.7358816">
        <ele>435.022003</ele>
        <time>2021-03-20T17:57:04.959Z</time>
      </trkpt>
      <trkpt lat="43.2501700" lon="-3.7357206">
        <ele>430.007019</ele>
        <time>2021-03-20T17:57:05.481Z</time>
      </trkpt>
      <trkpt lat="43.2502559" lon="-3.7355919">
        <ele>430.042999</ele>
        <time>2021-03-20T17:57:05.968Z</time>
      </trkpt>
      <trkpt lat="43.2503497" lon="-3.7354202">
        <ele>429.069000</ele>
        <time>2021-03-20T17:57:06.456Z</time>
      </trkpt>
      <trkpt lat="43.2504669" lon="-3.7352915">
        <ele>426.049011</ele>
        <time>2021-03-20T17:57:07.008Z</time>
      </trkpt>
      <trkpt lat="43.2505920" lon="-3.7350769">
        <ele>426.088013</ele>
        <time>2021-03-20T17:57:07.488Z</time>
      </trkpt>
      <trkpt lat="43.2506779" lon="-3.7349696">
        <ele>431.069031</ele>
        <time>2021-03-20T17:57:08.047Z</time>
      </trkpt>
      <trkpt lat="43.2508863" lon="-3.7347550">
        <ele>430.052002</ele>
        <time>2021-03-20T17:57:16.239Z</time>
      </trkpt>
      <trkpt lat="43.2510895" lon="-3.7344975">
        <ele>432.082031</ele>
        <time>2021-03-20T17:57:17.216Z</time>
      </trkpt>
      <trkpt lat="43.2512223" lon="-3.7342830">
        <ele>432.036987</ele>
        <time>2021-03-20T17:57:17.791Z</time>
      </trkpt>
      <trkpt lat="43.2512927" lon="-3.7340684">
        <ele>434.049011</ele>
        <time>2021-03-20T17:57:18.303Z</time>
      </trkpt>
      <trkpt lat="43.2513395" lon="-3.7338538">
        <ele>435.013000</ele>
        <time>2021-03-20T17:57:18.920Z</time>
      </trkpt>
      <trkpt lat="43.2513552" lon="-3.7336392">
        <ele>432.007019</ele>
        <time>2021-03-20T17:57:19.424Z</time>
      </trkpt>
      <trkpt lat="43.2513474" lon="-3.7334569">
        <ele>433.082001</ele>
        <time>2021-03-20T17:57:19.912Z</time>
      </trkpt>
      <trkpt lat="43.2513630" lon="-3.7332852">
        <ele>435.088013</ele>
        <time>2021-03-20T17:57:20.527Z</time>
      </trkpt>
      <trkpt lat="43.2514099" lon="-3.7330813">
        <ele>432.067993</ele>
        <time>2021-03-20T17:57:21.071Z</time>
      </trkpt>
      <trkpt lat="43.2514646" lon="-3.7329741">
        <ele>433.016998</ele>
        <time>2021-03-20T17:57:21.719Z</time>
      </trkpt>
      <trkpt lat="43.2515193" lon="-3.7328346">
        <ele>428.028015</ele>
        <time>2021-03-20T17:57:22.223Z</time>
      </trkpt>
      <trkpt lat="43.2515974" lon="-3.7326951">
        <ele>424.050995</ele>
        <time>2021-03-20T17:57:22.775Z</time>
      </trkpt>
      <trkpt lat="43.2516834" lon="-3.7326307">
        <ele>429.050995</ele>
        <time>2021-03-20T17:57:23.247Z</time>
      </trkpt>
      <trkpt lat="43.2518240" lon="-3.7324805">
        <ele>429.066010</ele>
        <time>2021-03-20T17:57:23.753Z</time>
      </trkpt>
      <trkpt lat="43.2519022" lon="-3.7323411">
        <ele>431.028992</ele>
        <time>2021-03-20T17:57:24.839Z</time>
      </trkpt>
      <trkpt lat="43.2519881" lon="-3.7322016">
        <ele>431.020996</ele>
        <time>2021-03-20T17:57:25.463Z</time>
      </trkpt>
      <trkpt lat="43.2520585" lon="-3.7319977">
        <ele>430.007019</ele>
        <time>2021-03-20T17:57:26.103Z</time>
      </trkpt>
      <trkpt lat="43.2521679" lon="-3.7318475">
        <ele>429.034973</ele>
        <time>2021-03-20T17:57:26.600Z</time>
      </trkpt>
      <trkpt lat="43.2522304" lon="-3.7317188">
        <ele>432.061005</ele>
        <time>2021-03-20T17:57:27.087Z</time>
      </trkpt>
      <trkpt lat="43.2523007" lon="-3.7315471">
        <ele>433.030975</ele>
        <time>2021-03-20T17:57:27.591Z</time>
      </trkpt>
      <trkpt lat="43.2523945" lon="-3.7313433">
        <ele>434.069977</ele>
        <time>2021-03-20T17:57:28.151Z</time>
      </trkpt>
      <trkpt lat="43.2524883" lon="-3.7311394">
        <ele>432.071014</ele>
        <time>2021-03-20T17:57:28.703Z</time>
      </trkpt>
      <trkpt lat="43.2525664" lon="-3.7309892">
        <ele>432.044006</ele>
        <time>2021-03-20T17:57:29.287Z</time>
      </trkpt>
      <trkpt lat="43.2526524" lon="-3.7307961">
        <ele>435.044006</ele>
        <time>2021-03-20T17:57:29.887Z</time>
      </trkpt>
      <trkpt lat="43.2527305" lon="-3.7306459">
        <ele>433.029022</ele>
        <time>2021-03-20T17:57:30.439Z</time>
      </trkpt>
      <trkpt lat="43.2528477" lon="-3.7304206">
        <ele>435.000031</ele>
        <time>2021-03-20T17:57:31.143Z</time>
      </trkpt>
      <trkpt lat="43.2529415" lon="-3.7302382">
        <ele>439.020020</ele>
        <time>2021-03-20T17:57:31.847Z</time>
      </trkpt>
      <trkpt lat="43.2530353" lon="-3.7300880">
        <ele>441.007019</ele>
        <time>2021-03-20T17:57:32.655Z</time>
      </trkpt>
      <trkpt lat="43.2531212" lon="-3.7299163">
        <ele>439.050995</ele>
        <time>2021-03-20T17:57:34.583Z</time>
      </trkpt>
      <trkpt lat="43.2531993" lon="-3.7297339">
        <ele>443.026978</ele>
        <time>2021-03-20T17:57:35.160Z</time>
      </trkpt>
      <trkpt lat="43.2532619" lon="-3.7295516">
        <ele>450.096985</ele>
        <time>2021-03-20T17:57:35.744Z</time>
      </trkpt>
      <trkpt lat="43.2533322" lon="-3.7293799">
        <ele>451.075989</ele>
        <time>2021-03-20T17:57:36.263Z</time>
      </trkpt>
      <trkpt lat="43.2534416" lon="-3.7292082">
        <ele>445.016998</ele>
        <time>2021-03-20T17:57:37.015Z</time>
      </trkpt>
      <trkpt lat="43.2535275" lon="-3.7290795">
        <ele>442.040009</ele>
        <time>2021-03-20T17:57:37.575Z</time>
      </trkpt>
      <trkpt lat="43.2536135" lon="-3.7289829">
        <ele>441.089996</ele>
        <time>2021-03-20T17:57:38.183Z</time>
      </trkpt>
      <trkpt lat="43.2536995" lon="-3.7288327">
        <ele>438.027008</ele>
        <time>2021-03-20T17:57:38.943Z</time>
      </trkpt>
      <trkpt lat="43.2537854" lon="-3.7287254">
        <ele>443.067993</ele>
        <time>2021-03-20T17:57:39.672Z</time>
      </trkpt>
      <trkpt lat="43.2539261" lon="-3.7287523">
        <ele>447.014008</ele>
        <time>2021-03-20T17:57:51.912Z</time>
      </trkpt>
      <trkpt lat="43.2540472" lon="-3.7287469">
        <ele>448.006989</ele>
        <time>2021-03-20T17:57:52.584Z</time>
      </trkpt>
      <trkpt lat="43.2541332" lon="-3.7287254">
        <ele>448.091003</ele>
        <time>2021-03-20T17:57:53.088Z</time>
      </trkpt>
      <trkpt lat="43.2542191" lon="-3.7287201">
        <ele>447.046997</ele>
        <time>2021-03-20T17:57:53.536Z</time>
      </trkpt>
      <trkpt lat="43.2542777" lon="-3.7287576">
        <ele>445.036987</ele>
        <time>2021-03-20T17:57:53.960Z</time>
      </trkpt>
      <trkpt lat="43.2543715" lon="-3.7288220">
        <ele>448.076019</ele>
        <time>2021-03-20T17:57:54.488Z</time>
      </trkpt>
      <trkpt lat="43.2544418" lon="-3.7288756">
        <ele>449.066986</ele>
        <time>2021-03-20T17:57:54.999Z</time>
      </trkpt>
      <trkpt lat="43.2545082" lon="-3.7288971">
        <ele>446.040009</ele>
        <time>2021-03-20T17:57:55.504Z</time>
      </trkpt>
      <trkpt lat="43.2546176" lon="-3.7289239">
        <ele>442.079987</ele>
        <time>2021-03-20T17:57:56.031Z</time>
      </trkpt>
      <trkpt lat="43.2547075" lon="-3.7289400">
        <ele>442.057007</ele>
        <time>2021-03-20T17:57:56.631Z</time>
      </trkpt>
      <trkpt lat="43.2548403" lon="-3.7289883">
        <ele>444.000000</ele>
        <time>2021-03-20T17:57:57.608Z</time>
      </trkpt>
      <trkpt lat="43.2549771" lon="-3.7289668">
        <ele>442.020020</ele>
        <time>2021-03-20T17:57:58.568Z</time>
      </trkpt>
      <trkpt lat="43.2550474" lon="-3.7289561">
        <ele>442.006989</ele>
        <time>2021-03-20T17:57:59.080Z</time>
      </trkpt>
      <trkpt lat="43.2551216" lon="-3.7289454">
        <ele>442.093994</ele>
        <time>2021-03-20T17:57:59.608Z</time>
      </trkpt>
      <trkpt lat="43.2551881" lon="-3.7289239">
        <ele>441.029999</ele>
        <time>2021-03-20T17:58:00.072Z</time>
      </trkpt>
      <trkpt lat="43.2552818" lon="-3.7288971">
        <ele>443.040009</ele>
        <time>2021-03-20T17:58:00.584Z</time>
      </trkpt>
      <trkpt lat="43.2553522" lon="-3.7288756">
        <ele>446.028992</ele>
        <time>2021-03-20T17:58:01.087Z</time>
      </trkpt>
      <trkpt lat="43.2554303" lon="-3.7288756">
        <ele>446.029999</ele>
        <time>2021-03-20T17:58:01.647Z</time>
      </trkpt>
      <trkpt lat="43.2555202" lon="-3.7288542">
        <ele>449.042999</ele>
        <time>2021-03-20T17:58:02.143Z</time>
      </trkpt>
      <trkpt lat="43.2556217" lon="-3.7288810">
        <ele>449.082977</ele>
        <time>2021-03-20T17:58:02.903Z</time>
      </trkpt>
      <trkpt lat="43.2557328" lon="-3.7289239">
        <ele>448.014008</ele>
        <time>2021-03-20T17:58:05.287Z</time>
      </trkpt>
      <trkpt lat="43.2558695" lon="-3.7290044">
        <ele>447.054016</ele>
        <time>2021-03-20T17:58:05.848Z</time>
      </trkpt>
      <trkpt lat="43.2559594" lon="-3.7290634">
        <ele>441.009003</ele>
        <time>2021-03-20T17:58:06.320Z</time>
      </trkpt>
      <trkpt lat="43.2560336" lon="-3.7291117">
        <ele>437.006989</ele>
        <time>2021-03-20T17:58:06.808Z</time>
      </trkpt>
      <trkpt lat="43.2561157" lon="-3.7291600">
        <ele>437.079987</ele>
        <time>2021-03-20T17:58:07.367Z</time>
      </trkpt>
      <trkpt lat="43.2561977" lon="-3.7291868">
        <ele>440.085999</ele>
        <time>2021-03-20T17:58:07.816Z</time>
      </trkpt>
      <trkpt lat="43.2562602" lon="-3.7291868">
        <ele>440.056000</ele>
        <time>2021-03-20T17:58:08.287Z</time>
      </trkpt>
      <trkpt lat="43.2563579" lon="-3.7292029">
        <ele>440.075012</ele>
        <time>2021-03-20T17:58:10.912Z</time>
      </trkpt>
      <trkpt lat="43.2564204" lon="-3.7292404">
        <ele>438.085999</ele>
        <time>2021-03-20T17:58:11.424Z</time>
      </trkpt>
      <trkpt lat="43.2564829" lon="-3.7292619">
        <ele>437.019012</ele>
        <time>2021-03-20T17:58:11.959Z</time>
      </trkpt>
      <trkpt lat="43.2565454" lon="-3.7292780">
        <ele>436.058990</ele>
        <time>2021-03-20T17:58:12.520Z</time>
      </trkpt>
      <trkpt lat="43.2565923" lon="-3.7292672">
        <ele>436.056000</ele>
        <time>2021-03-20T17:58:13.015Z</time>
      </trkpt>
      <trkpt lat="43.2566197" lon="-3.7291868">
        <ele>438.058990</ele>
        <time>2021-03-20T17:58:13.679Z</time>
      </trkpt>
      <trkpt lat="43.2566470" lon="-3.7290741">
        <ele>437.014008</ele>
        <time>2021-03-20T17:58:14.360Z</time>
      </trkpt>
      <trkpt lat="43.2566587" lon="-3.7290205">
        <ele>436.006989</ele>
        <time>2021-03-20T17:58:14.872Z</time>
      </trkpt>
      <trkpt lat="43.2566830" lon="-3.7289270">
        <ele>435.073975</ele>
        <time>2015-04-26T12:06:36.000Z</time>
      </trkpt>
      <trkpt lat="43.2567086" lon="-3.7287885">
        <ele>431.089996</ele>
        <time>2021-03-20T18:00:58.685Z</time>
      </trkpt>
      <trkpt lat="43.2567834" lon="-3.7287523">
        <ele>431.010010</ele>
        <time>2021-03-20T17:59:05.583Z</time>
      </trkpt>
      <trkpt lat="43.2568141" lon="-3.7287134">
        <ele>430.069000</ele>
        <time>2021-03-20T17:59:06.022Z</time>
      </trkpt>
      <trkpt lat="43.2568336" lon="-3.7285364">
        <ele>427.049988</ele>
        <time>2021-03-20T17:59:12.207Z</time>
      </trkpt>
      <trkpt lat="43.2568336" lon="-3.7283540">
        <ele>426.013000</ele>
        <time>2021-03-20T17:59:12.790Z</time>
      </trkpt>
      <trkpt lat="43.2567633" lon="-3.7282789">
        <ele>430.083008</ele>
        <time>2021-03-20T17:59:13.310Z</time>
      </trkpt>
      <trkpt lat="43.2567131" lon="-3.7282104">
        <ele>431.044006</ele>
        <time>2021-03-20T17:59:13.952Z</time>
      </trkpt>
      <trkpt lat="43.2566115" lon="-3.7281246">
        <ele>428.004974</ele>
        <time>2021-03-20T17:59:15.391Z</time>
      </trkpt>
      <trkpt lat="43.2565177" lon="-3.7280549">
        <ele>428.014984</ele>
        <time>2021-03-20T17:59:15.870Z</time>
      </trkpt>
      <trkpt lat="43.2564083" lon="-3.7279744">
        <ele>428.006989</ele>
        <time>2021-03-20T17:59:16.374Z</time>
      </trkpt>
      <trkpt lat="43.2562872" lon="-3.7278886">
        <ele>425.072998</ele>
        <time>2021-03-20T17:59:16.910Z</time>
      </trkpt>
      <trkpt lat="43.2561817" lon="-3.7278188">
        <ele>423.049011</ele>
        <time>2021-03-20T17:59:17.375Z</time>
      </trkpt>
      <trkpt lat="43.2560958" lon="-3.7277384">
        <ele>424.018982</ele>
        <time>2021-03-20T17:59:17.831Z</time>
      </trkpt>
      <trkpt lat="43.2560098" lon="-3.7276257">
        <ele>423.018005</ele>
        <time>2021-03-20T17:59:18.319Z</time>
      </trkpt>
      <trkpt lat="43.2559473" lon="-3.7275345">
        <ele>421.079010</ele>
        <time>2021-03-20T17:59:18.734Z</time>
      </trkpt>
      <trkpt lat="43.2556540" lon="-3.7270730">
        <ele>418.062012</ele>
        <time>2015-04-26T12:10:51.000Z</time>
      </trkpt>
      <trkpt lat="43.2556620" lon="-3.7270720">
        <ele>416.092010</ele>
        <time>2015-04-26T12:22:12.000Z</time>
      </trkpt>
      <trkpt lat="43.2556630" lon="-3.7270710">
        <ele>410.071014</ele>
        <time>2015-04-26T12:22:52.000Z</time>
      </trkpt>
      <trkpt lat="43.2556510" lon="-3.7270040">
        <ele>408.040985</ele>
        <time>2015-04-26T12:23:19.000Z</time>
      </trkpt>
      <trkpt lat="43.2556050" lon="-3.7268660">
        <ele>408.014984</ele>
        <time>2015-04-26T12:23:24.000Z</time>
      </trkpt>
      <trkpt lat="43.2555680" lon="-3.7267340">
        <ele>407.007019</ele>
        <time>2015-04-26T12:23:30.000Z</time>
      </trkpt>
      <trkpt lat="43.2555300" lon="-3.7266160">
        <ele>407.035980</ele>
        <time>2015-04-26T12:23:35.000Z</time>
      </trkpt>
      <trkpt lat="43.2555040" lon="-3.7264820">
        <ele>406.031982</ele>
        <time>2015-04-26T12:23:42.000Z</time>
      </trkpt>
      <trkpt lat="43.2554600" lon="-3.7263640">
        <ele>403.092010</ele>
        <time>2015-04-26T12:23:48.000Z</time>
      </trkpt>
      <trkpt lat="43.2554280" lon="-3.7262320">
        <ele>402.010986</ele>
        <time>2015-04-26T12:23:53.000Z</time>
      </trkpt>
      <trkpt lat="43.2554000" lon="-3.7261120">
        <ele>402.062012</ele>
        <time>2015-04-26T12:23:58.000Z</time>
      </trkpt>
      <trkpt lat="43.2553990" lon="-3.7260130">
        <ele>403.085022</ele>
        <time>2015-04-26T12:24:08.000Z</time>
      </trkpt>
      <trkpt lat="43.2553930" lon="-3.7258830">
        <ele>401.084991</ele>
        <time>2015-04-26T12:24:15.000Z</time>
      </trkpt>
      <trkpt lat="43.2553790" lon="-3.7257600">
        <ele>397.087982</ele>
        <time>2015-04-26T12:24:21.000Z</time>
      </trkpt>
      <trkpt lat="43.2553600" lon="-3.7256370">
        <ele>391.023987</ele>
        <time>2015-04-26T12:24:26.000Z</time>
      </trkpt>
      <trkpt lat="43.2553420" lon="-3.7255010">
        <ele>391.026001</ele>
        <time>2015-04-26T12:24:30.000Z</time>
      </trkpt>
      <trkpt lat="43.2553150" lon="-3.7253630">
        <ele>389.006989</ele>
        <time>2015-04-26T12:24:35.000Z</time>
      </trkpt>
      <trkpt lat="43.2553030" lon="-3.7252460">
        <ele>387.097015</ele>
        <time>2015-04-26T12:24:45.000Z</time>
      </trkpt>
      <trkpt lat="43.2553010" lon="-3.7251670">
        <ele>385.082977</ele>
        <time>2015-04-26T12:24:55.000Z</time>
      </trkpt>
      <trkpt lat="43.2553150" lon="-3.7250440">
        <ele>387.072998</ele>
        <time>2015-04-26T12:25:05.000Z</time>
      </trkpt>
      <trkpt lat="43.2553200" lon="-3.7249180">
        <ele>384.022003</ele>
        <time>2015-04-26T12:25:08.000Z</time>
      </trkpt>
      <trkpt lat="43.2553160" lon="-3.7247860">
        <ele>383.093018</ele>
        <time>2015-04-26T12:25:12.000Z</time>
      </trkpt>
      <trkpt lat="43.2553330" lon="-3.7247230">
        <ele>386.095978</ele>
        <time>2015-04-26T12:25:22.000Z</time>
      </trkpt>
      <trkpt lat="43.2553310" lon="-3.7246010">
        <ele>386.095978</ele>
        <time>2015-04-26T12:25:32.000Z</time>
      </trkpt>
      <trkpt lat="43.2553200" lon="-3.7244760">
        <ele>383.080994</ele>
        <time>2015-04-26T12:25:41.000Z</time>
      </trkpt>
      <trkpt lat="43.2553230" lon="-3.7243480">
        <ele>382.061005</ele>
        <time>2015-04-26T12:25:49.000Z</time>
      </trkpt>
      <trkpt lat="43.2553250" lon="-3.7242110">
        <ele>377.016998</ele>
        <time>2015-04-26T12:25:59.000Z</time>
      </trkpt>
      <trkpt lat="43.2553000" lon="-3.7240730">
        <ele>376.006989</ele>
        <time>2015-04-26T12:26:06.000Z</time>
      </trkpt>
      <trkpt lat="43.2552880" lon="-3.7239510">
        <ele>373.067017</ele>
        <time>2015-04-26T12:26:16.000Z</time>
      </trkpt>
      <trkpt lat="43.2553070" lon="-3.7238160">
        <ele>371.063019</ele>
        <time>2015-04-26T12:26:25.000Z</time>
      </trkpt>
      <trkpt lat="43.2553170" lon="-3.7236910">
        <ele>373.083008</ele>
        <time>2015-04-26T12:26:32.000Z</time>
      </trkpt>
      <trkpt lat="43.2553260" lon="-3.7235560">
        <ele>373.061981</ele>
        <time>2015-04-26T12:26:41.000Z</time>
      </trkpt>
      <trkpt lat="43.2553340" lon="-3.7234290">
        <ele>372.053009</ele>
        <time>2015-04-26T12:26:49.000Z</time>
      </trkpt>
      <trkpt lat="43.2553320" lon="-3.7232980">
        <ele>372.066010</ele>
        <time>2015-04-26T12:26:58.000Z</time>
      </trkpt>
      <trkpt lat="43.2553290" lon="-3.7231730">
        <ele>370.076019</ele>
        <time>2015-04-26T12:27:06.000Z</time>
      </trkpt>
      <trkpt lat="43.2553280" lon="-3.7230460">
        <ele>369.029022</ele>
        <time>2015-04-26T12:27:14.000Z</time>
      </trkpt>
      <trkpt lat="43.2553370" lon="-3.7229170">
        <ele>366.000000</ele>
        <time>2015-04-26T12:27:23.000Z</time>
      </trkpt>
      <trkpt lat="43.2553590" lon="-3.7227860">
        <ele>367.020020</ele>
        <time>2015-04-26T12:27:32.000Z</time>
      </trkpt>
      <trkpt lat="43.2553500" lon="-3.7226620">
        <ele>367.006989</ele>
        <time>2015-04-26T12:27:38.000Z</time>
      </trkpt>
      <trkpt lat="43.2553830" lon="-3.7225460">
        <ele>367.070984</ele>
        <time>2015-04-26T12:27:46.000Z</time>
      </trkpt>
      <trkpt lat="43.2554040" lon="-3.7224210">
        <ele>365.087006</ele>
        <time>2015-04-26T12:27:55.000Z</time>
      </trkpt>
      <trkpt lat="43.2554480" lon="-3.7222980">
        <ele>360.026978</ele>
        <time>2015-04-26T12:28:05.000Z</time>
      </trkpt>
      <trkpt lat="43.2554900" lon="-3.7221870">
        <ele>358.085999</ele>
        <time>2015-04-26T12:28:14.000Z</time>
      </trkpt>
      <trkpt lat="43.2555260" lon="-3.7220730">
        <ele>360.046997</ele>
        <time>2015-04-26T12:28:22.000Z</time>
      </trkpt>
      <trkpt lat="43.2555750" lon="-3.7219570">
        <ele>359.050018</ele>
        <time>2015-04-26T12:28:31.000Z</time>
      </trkpt>
      <trkpt lat="43.2556670" lon="-3.7219150">
        <ele>360.040009</ele>
        <time>2015-04-26T12:28:38.000Z</time>
      </trkpt>
      <trkpt lat="43.2557540" lon="-3.7219620">
        <ele>361.054993</ele>
        <time>2015-04-26T12:28:47.000Z</time>
      </trkpt>
      <trkpt lat="43.2558000" lon="-3.7218830">
        <ele>360.007019</ele>
        <time>2015-04-26T12:28:57.000Z</time>
      </trkpt>
      <trkpt lat="43.2557980" lon="-3.7218180">
        <ele>363.016998</ele>
        <time>2015-04-26T12:29:11.000Z</time>
      </trkpt>
      <trkpt lat="43.2558200" lon="-3.7216830">
        <ele>363.007019</ele>
        <time>2015-04-26T12:29:21.000Z</time>
      </trkpt>
      <trkpt lat="43.2558710" lon="-3.7215740">
        <ele>366.093994</ele>
        <time>2015-04-26T12:29:26.000Z</time>
      </trkpt>
      <trkpt lat="43.2559240" lon="-3.7214690">
        <ele>366.049988</ele>
        <time>2015-04-26T12:29:32.000Z</time>
      </trkpt>
      <trkpt lat="43.2559690" lon="-3.7213390">
        <ele>366.039978</ele>
        <time>2015-04-26T12:29:40.000Z</time>
      </trkpt>
      <trkpt lat="43.2560130" lon="-3.7212110">
        <ele>370.068970</ele>
        <time>2015-04-26T12:29:48.000Z</time>
      </trkpt>
      <trkpt lat="43.2560350" lon="-3.7210840">
        <ele>369.059998</ele>
        <time>2015-04-26T12:29:55.000Z</time>
      </trkpt>
      <trkpt lat="43.2560540" lon="-3.7209570">
        <ele>370.032990</ele>
        <time>2015-04-26T12:30:02.000Z</time>
      </trkpt>
      <trkpt lat="43.2560820" lon="-3.7208320">
        <ele>367.083008</ele>
        <time>2015-04-26T12:30:11.000Z</time>
      </trkpt>
      <trkpt lat="43.2560960" lon="-3.7207010">
        <ele>364.019012</ele>
        <time>2015-04-26T12:30:20.000Z</time>
      </trkpt>
      <trkpt lat="43.2561190" lon="-3.7205810">
        <ele>360.008972</ele>
        <time>2015-04-26T12:30:27.000Z</time>
      </trkpt>
      <trkpt lat="43.2561800" lon="-3.7204770">
        <ele>356.019012</ele>
        <time>2015-04-26T12:30:35.000Z</time>
      </trkpt>
      <trkpt lat="43.2562380" lon="-3.7203820">
        <ele>357.007019</ele>
        <time>2015-04-26T12:30:44.000Z</time>
      </trkpt>
      <trkpt lat="43.2562750" lon="-3.7202640">
        <ele>364.029999</ele>
        <time>2015-04-26T12:30:54.000Z</time>
      </trkpt>
      <trkpt lat="43.2563230" lon="-3.7201550">
        <ele>368.045990</ele>
        <time>2015-04-26T12:31:03.000Z</time>
      </trkpt>
      <trkpt lat="43.2563930" lon="-3.7200390">
        <ele>368.066010</ele>
        <time>2015-04-26T12:31:13.000Z</time>
      </trkpt>
      <trkpt lat="43.2564450" lon="-3.7199380">
        <ele>368.034973</ele>
        <time>2015-04-26T12:31:18.000Z</time>
      </trkpt>
      <trkpt lat="43.2565060" lon="-3.7198370">
        <ele>370.076019</ele>
        <time>2015-04-26T12:31:23.000Z</time>
      </trkpt>
      <trkpt lat="43.2565710" lon="-3.7197470">
        <ele>372.038971</ele>
        <time>2015-04-26T12:31:28.000Z</time>
      </trkpt>
      <trkpt lat="43.2566360" lon="-3.7196510">
        <ele>368.018982</ele>
        <time>2015-04-26T12:31:33.000Z</time>
      </trkpt>
      <trkpt lat="43.2567090" lon="-3.7195680">
        <ele>364.011017</ele>
        <time>2015-04-26T12:31:39.000Z</time>
      </trkpt>
      <trkpt lat="43.2567500" lon="-3.7194780">
        <ele>361.021027</ele>
        <time>2015-04-26T12:31:49.000Z</time>
      </trkpt>
      <trkpt lat="43.2567930" lon="-3.7193680">
        <ele>362.002991</ele>
        <time>2015-04-26T12:31:57.000Z</time>
      </trkpt>
      <trkpt lat="43.2568720" lon="-3.7193080">
        <ele>358.006989</ele>
        <time>2015-04-26T12:32:07.000Z</time>
      </trkpt>
      <trkpt lat="43.2569210" lon="-3.7192160">
        <ele>359.019989</ele>
        <time>2015-04-26T12:32:17.000Z</time>
      </trkpt>
      <trkpt lat="43.2569630" lon="-3.7191880">
        <ele>359.096008</ele>
        <time>2015-04-26T12:32:41.000Z</time>
      </trkpt>
      <trkpt lat="43.2570230" lon="-3.7190850">
        <ele>359.085999</ele>
        <time>2015-04-26T12:32:48.000Z</time>
      </trkpt>
      <trkpt lat="43.2571030" lon="-3.7189980">
        <ele>360.055023</ele>
        <time>2015-04-26T12:32:55.000Z</time>
      </trkpt>
      <trkpt lat="43.2571780" lon="-3.7189070">
        <ele>357.045990</ele>
        <time>2015-04-26T12:33:02.000Z</time>
      </trkpt>
      <trkpt lat="43.2572630" lon="-3.7188600">
        <ele>356.019012</ele>
        <time>2015-04-26T12:33:09.000Z</time>
      </trkpt>
      <trkpt lat="43.2573450" lon="-3.7188000">
        <ele>357.028992</ele>
        <time>2015-04-26T12:33:18.000Z</time>
      </trkpt>
      <trkpt lat="43.2574300" lon="-3.7187390">
        <ele>356.097992</ele>
        <time>2015-04-26T12:33:27.000Z</time>
      </trkpt>
      <trkpt lat="43.2575050" lon="-3.7186650">
        <ele>354.015015</ele>
        <time>2015-04-26T12:33:37.000Z</time>
      </trkpt>
      <trkpt lat="43.2575950" lon="-3.7186230">
        <ele>355.026001</ele>
        <time>2015-04-26T12:33:46.000Z</time>
      </trkpt>
      <trkpt lat="43.2576820" lon="-3.7185930">
        <ele>357.007019</ele>
        <time>2015-04-26T12:33:56.000Z</time>
      </trkpt>
      <trkpt lat="43.2577750" lon="-3.7185720">
        <ele>357.057983</ele>
        <time>2015-04-26T12:34:06.000Z</time>
      </trkpt>
      <trkpt lat="43.2578300" lon="-3.7185650">
        <ele>360.024017</ele>
        <time>2015-04-26T12:34:40.000Z</time>
      </trkpt>
      <trkpt lat="43.2579130" lon="-3.7185140">
        <ele>359.014008</ele>
        <time>2015-04-26T12:34:43.000Z</time>
      </trkpt>
      <trkpt lat="43.2580540" lon="-3.7184920">
        <ele>358.013000</ele>
        <time>2015-04-26T12:34:45.000Z</time>
      </trkpt>
      <trkpt lat="43.2581940" lon="-3.7184620">
        <ele>359.033997</ele>
        <time>2015-04-26T12:34:47.000Z</time>
      </trkpt>
      <trkpt lat="43.2582860" lon="-3.7184550">
        <ele>362.046997</ele>
        <time>2015-04-26T12:34:48.000Z</time>
      </trkpt>
      <trkpt lat="43.2584590" lon="-3.7185020">
        <ele>364.016998</ele>
        <time>2015-04-26T12:34:50.000Z</time>
      </trkpt>
      <trkpt lat="43.2585570" lon="-3.7185340">
        <ele>364.024994</ele>
        <time>2015-04-26T12:34:51.000Z</time>
      </trkpt>
      <trkpt lat="43.2586550" lon="-3.7185800">
        <ele>365.026031</ele>
        <time>2015-04-26T12:34:52.000Z</time>
      </trkpt>
      <trkpt lat="43.2588150" lon="-3.7186420">
        <ele>363.007996</ele>
        <time>2015-04-26T12:34:54.000Z</time>
      </trkpt>
      <trkpt lat="43.2589960" lon="-3.7186530">
        <ele>362.006989</ele>
        <time>2015-04-26T12:34:55.000Z</time>
      </trkpt>
      <trkpt lat="43.2591610" lon="-3.7187190">
        <ele>364.011017</ele>
        <time>2015-04-26T12:34:56.000Z</time>
      </trkpt>
      <trkpt lat="43.2592770" lon="-3.7187160">
        <ele>364.057007</ele>
        <time>2015-04-26T12:34:57.000Z</time>
      </trkpt>
      <trkpt lat="43.2594930" lon="-3.7185550">
        <ele>366.066986</ele>
        <time>2015-04-26T12:35:00.000Z</time>
      </trkpt>
      <trkpt lat="43.2595770" lon="-3.7183640">
        <ele>365.045990</ele>
        <time>2015-04-26T12:35:02.000Z</time>
      </trkpt>
      <trkpt lat="43.2596530" lon="-3.7182760">
        <ele>365.046997</ele>
        <time>2015-04-26T12:35:03.000Z</time>
      </trkpt>
      <trkpt lat="43.2597120" lon="-3.7181130">
        <ele>364.059998</ele>
        <time>2015-04-26T12:35:05.000Z</time>
      </trkpt>
      <trkpt lat="43.2597480" lon="-3.7179870">
        <ele>362.070007</ele>
        <time>2015-04-26T12:35:06.000Z</time>
      </trkpt>
      <trkpt lat="43.2596860" lon="-3.7178200">
        <ele>362.095001</ele>
        <time>2015-04-26T12:35:07.000Z</time>
      </trkpt>
      <trkpt lat="43.2597940" lon="-3.7177450">
        <ele>358.048981</ele>
        <time>2015-04-26T12:35:09.000Z</time>
      </trkpt>
      <trkpt lat="43.2598780" lon="-3.7176250">
        <ele>355.023010</ele>
        <time>2015-04-26T12:35:11.000Z</time>
      </trkpt>
      <trkpt lat="43.2599530" lon="-3.7175320">
        <ele>357.007019</ele>
        <time>2015-04-26T12:35:12.000Z</time>
      </trkpt>
      <trkpt lat="43.2600180" lon="-3.7174290">
        <ele>354.067993</ele>
        <time>2015-04-26T12:35:13.000Z</time>
      </trkpt>
      <trkpt lat="43.2600930" lon="-3.7173360">
        <ele>354.093994</ele>
        <time>2015-04-26T12:35:14.000Z</time>
      </trkpt>
      <trkpt lat="43.2601980" lon="-3.7172630">
        <ele>358.014008</ele>
        <time>2015-04-26T12:35:15.000Z</time>
      </trkpt>
      <trkpt lat="43.2602880" lon="-3.7171750">
        <ele>359.023010</ele>
        <time>2015-04-26T12:35:16.000Z</time>
      </trkpt>
      <trkpt lat="43.2604060" lon="-3.7171050">
        <ele>362.093994</ele>
        <time>2015-04-26T12:35:17.000Z</time>
      </trkpt>
      <trkpt lat="43.2605390" lon="-3.7171100">
        <ele>360.097015</ele>
        <time>2015-04-26T12:35:19.000Z</time>
      </trkpt>
      <trkpt lat="43.2606710" lon="-3.7170960">
        <ele>365.087006</ele>
        <time>2015-04-26T12:35:20.000Z</time>
      </trkpt>
      <trkpt lat="43.2608110" lon="-3.7170920">
        <ele>367.061981</ele>
        <time>2015-04-26T12:35:21.000Z</time>
      </trkpt>
      <trkpt lat="43.2609250" lon="-3.7170590">
        <ele>363.082977</ele>
        <time>2015-04-26T12:35:22.000Z</time>
      </trkpt>
      <trkpt lat="43.2610730" lon="-3.7170350">
        <ele>363.010986</ele>
        <time>2015-04-26T12:35:23.000Z</time>
      </trkpt>
      <trkpt lat="43.2611610" lon="-3.7168990">
        <ele>365.007019</ele>
        <time>2015-04-26T12:35:25.000Z</time>
      </trkpt>
      <trkpt lat="43.2613210" lon="-3.7168980">
        <ele>361.085022</ele>
        <time>2015-04-26T12:35:27.000Z</time>
      </trkpt>
      <trkpt lat="43.2614830" lon="-3.7170100">
        <ele>360.050995</ele>
        <time>2015-04-26T12:35:29.000Z</time>
      </trkpt>
      <trkpt lat="43.2615880" lon="-3.7170890">
        <ele>360.010986</ele>
        <time>2015-04-26T12:35:30.000Z</time>
      </trkpt>
      <trkpt lat="43.2616810" lon="-3.7171730">
        <ele>368.050018</ele>
        <time>2015-04-26T12:35:31.000Z</time>
      </trkpt>
      <trkpt lat="43.2617670" lon="-3.7172300">
        <ele>372.080994</ele>
        <time>2015-04-26T12:35:32.000Z</time>
      </trkpt>
      <trkpt lat="43.2618720" lon="-3.7172380">
        <ele>374.044006</ele>
        <time>2015-04-26T12:35:33.000Z</time>
      </trkpt>
      <trkpt lat="43.2620160" lon="-3.7172760">
        <ele>373.014008</ele>
        <time>2015-04-26T12:35:35.000Z</time>
      </trkpt>
      <trkpt lat="43.2621050" lon="-3.7172040">
        <ele>380.040985</ele>
        <time>2015-04-26T12:35:36.000Z</time>
      </trkpt>
      <trkpt lat="43.2621960" lon="-3.7171970">
        <ele>385.081024</ele>
        <time>2015-04-26T12:35:37.000Z</time>
      </trkpt>
      <trkpt lat="43.2623420" lon="-3.7172420">
        <ele>393.009003</ele>
        <time>2015-04-26T12:35:39.000Z</time>
      </trkpt>
      <trkpt lat="43.2624350" lon="-3.7172580">
        <ele>392.006989</ele>
        <time>2015-04-26T12:35:40.000Z</time>
      </trkpt>
      <trkpt lat="43.2625390" lon="-3.7171990">
        <ele>389.072998</ele>
        <time>2015-04-26T12:35:41.000Z</time>
      </trkpt>
      <trkpt lat="43.2626680" lon="-3.7171770">
        <ele>385.089020</ele>
        <time>2015-04-26T12:35:42.000Z</time>
      </trkpt>
      <trkpt lat="43.2627930" lon="-3.7171600">
        <ele>385.069000</ele>
        <time>2015-04-26T12:35:43.000Z</time>
      </trkpt>
      <trkpt lat="43.2629350" lon="-3.7171740">
        <ele>381.087982</ele>
        <time>2015-04-26T12:35:44.000Z</time>
      </trkpt>
      <trkpt lat="43.2630700" lon="-3.7171520">
        <ele>384.098999</ele>
        <time>2015-04-26T12:35:45.000Z</time>
      </trkpt>
      <trkpt lat="43.2632140" lon="-3.7171600">
        <ele>392.092010</ele>
        <time>2015-04-26T12:35:46.000Z</time>
      </trkpt>
      <trkpt lat="43.2633140" lon="-3.7172560">
        <ele>398.042023</ele>
        <time>2015-04-26T12:35:48.000Z</time>
      </trkpt>
      <trkpt lat="43.2633770" lon="-3.7173490">
        <ele>405.031006</ele>
        <time>2015-04-26T12:35:49.000Z</time>
      </trkpt>
      <trkpt lat="43.2634990" lon="-3.7173390">
        <ele>406.060974</ele>
        <time>2015-04-26T12:35:51.000Z</time>
      </trkpt>
      <trkpt lat="43.2635900" lon="-3.7173070">
        <ele>402.007019</ele>
        <time>2015-04-26T12:35:53.000Z</time>
      </trkpt>
      <trkpt lat="43.2636670" lon="-3.7172280">
        <ele>405.007019</ele>
        <time>2015-04-26T12:35:57.000Z</time>
      </trkpt>
      <trkpt lat="43.2637030" lon="-3.7170800">
        <ele>406.022003</ele>
        <time>2015-04-26T12:36:00.000Z</time>
      </trkpt>
      <trkpt lat="43.2637680" lon="-3.7169930">
        <ele>407.078003</ele>
        <time>2015-04-26T12:36:03.000Z</time>
      </trkpt>
      <trkpt lat="43.2638810" lon="-3.7170150">
        <ele>402.018005</ele>
        <time>2015-04-26T12:36:07.000Z</time>
      </trkpt>
      <trkpt lat="43.2639780" lon="-3.7169790">
        <ele>399.046997</ele>
        <time>2015-04-26T12:36:09.000Z</time>
      </trkpt>
      <trkpt lat="43.2640700" lon="-3.7169410">
        <ele>399.037994</ele>
        <time>2015-04-26T12:36:14.000Z</time>
      </trkpt>
      <trkpt lat="43.2641790" lon="-3.7169210">
        <ele>400.030975</ele>
        <time>2015-04-26T12:36:19.000Z</time>
      </trkpt>
      <trkpt lat="43.2642780" lon="-3.7168660">
        <ele>400.091003</ele>
        <time>2015-04-26T12:36:24.000Z</time>
      </trkpt>
      <trkpt lat="43.2643800" lon="-3.7168580">
        <ele>400.058014</ele>
        <time>2015-04-26T12:36:31.000Z</time>
      </trkpt>
      <trkpt lat="43.2644680" lon="-3.7168930">
        <ele>399.052002</ele>
        <time>2015-04-26T12:36:36.000Z</time>
      </trkpt>
      <trkpt lat="43.2645630" lon="-3.7168810">
        <ele>399.016998</ele>
        <time>2015-04-26T12:36:43.000Z</time>
      </trkpt>
      <trkpt lat="43.2646600" lon="-3.7168610">
        <ele>398.006989</ele>
        <time>2015-04-26T12:36:51.000Z</time>
      </trkpt>
      <trkpt lat="43.2647520" lon="-3.7167980">
        <ele>401.034027</ele>
        <time>2015-04-26T12:36:58.000Z</time>
      </trkpt>
      <trkpt lat="43.2648420" lon="-3.7167220">
        <ele>405.089996</ele>
        <time>2015-04-26T12:37:01.000Z</time>
      </trkpt>
      <trkpt lat="43.2649340" lon="-3.7165890">
        <ele>403.069977</ele>
        <time>2015-04-26T12:37:03.000Z</time>
      </trkpt>
      <trkpt lat="43.2650410" lon="-3.7164100">
        <ele>406.088989</ele>
        <time>2015-04-26T12:37:04.000Z</time>
      </trkpt>
      <trkpt lat="43.2651040" lon="-3.7162990">
        <ele>410.019989</ele>
        <time>2015-04-26T12:37:05.000Z</time>
      </trkpt>
      <trkpt lat="43.2652490" lon="-3.7161030">
        <ele>407.042999</ele>
        <time>2015-04-26T12:37:07.000Z</time>
      </trkpt>
      <trkpt lat="43.2653270" lon="-3.7160330">
        <ele>407.042999</ele>
        <time>2015-04-26T12:37:08.000Z</time>
      </trkpt>
      <trkpt lat="43.2653880" lon="-3.7158950">
        <ele>412.052979</ele>
        <time>2015-04-26T12:37:09.000Z</time>
      </trkpt>
      <trkpt lat="43.2654650" lon="-3.7157670">
        <ele>407.003998</ele>
        <time>2015-04-26T12:37:10.000Z</time>
      </trkpt>
      <trkpt lat="43.2655430" lon="-3.7156820">
        <ele>405.014008</ele>
        <time>2015-04-26T12:37:11.000Z</time>
      </trkpt>
      <trkpt lat="43.2656360" lon="-3.7155180">
        <ele>407.007019</ele>
        <time>2015-04-26T12:37:12.000Z</time>
      </trkpt>
      <trkpt lat="43.2657230" lon="-3.7154010">
        <ele>406.074005</ele>
        <time>2015-04-26T12:37:13.000Z</time>
      </trkpt>
      <trkpt lat="43.2658710" lon="-3.7153040">
        <ele>411.049988</ele>
        <time>2015-04-26T12:37:15.000Z</time>
      </trkpt>
      <trkpt lat="43.2659610" lon="-3.7152620">
        <ele>412.019989</ele>
        <time>2015-04-26T12:37:16.000Z</time>
      </trkpt>
      <trkpt lat="43.2660560" lon="-3.7152750">
        <ele>415.049011</ele>
        <time>2015-04-26T12:37:17.000Z</time>
      </trkpt>
      <trkpt lat="43.2661830" lon="-3.7152410">
        <ele>420.010010</ele>
        <time>2015-04-26T12:37:20.000Z</time>
      </trkpt>
      <trkpt lat="43.2662710" lon="-3.7152040">
        <ele>422.042999</ele>
        <time>2015-04-26T12:37:24.000Z</time>
      </trkpt>
      <trkpt lat="43.2663660" lon="-3.7152560">
        <ele>426.013000</ele>
        <time>2015-04-26T12:37:28.000Z</time>
      </trkpt>
      <trkpt lat="43.2664800" lon="-3.7153070">
        <ele>424.024017</ele>
        <time>2015-04-26T12:37:32.000Z</time>
      </trkpt>
      <trkpt lat="43.2665780" lon="-3.7153550">
        <ele>426.003998</ele>
        <time>2015-04-26T12:37:35.000Z</time>
      </trkpt>
      <trkpt lat="43.2667580" lon="-3.7153430">
        <ele>426.014008</ele>
        <time>2015-04-26T12:37:38.000Z</time>
      </trkpt>
      <trkpt lat="43.2668910" lon="-3.7153130">
        <ele>431.006989</ele>
        <time>2015-04-26T12:37:40.000Z</time>
      </trkpt>
      <trkpt lat="43.2670290" lon="-3.7153520">
        <ele>430.040985</ele>
        <time>2015-04-26T12:37:42.000Z</time>
      </trkpt>
      <trkpt lat="43.2671850" lon="-3.7152460">
        <ele>432.026978</ele>
        <time>2015-04-26T12:37:44.000Z</time>
      </trkpt>
      <trkpt lat="43.2673170" lon="-3.7151620">
        <ele>433.037018</ele>
        <time>2015-04-26T12:37:46.000Z</time>
      </trkpt>
      <trkpt lat="43.2674470" lon="-3.7151440">
        <ele>439.056000</ele>
        <time>2015-04-26T12:37:48.000Z</time>
      </trkpt>
      <trkpt lat="43.2675680" lon="-3.7151250">
        <ele>437.036987</ele>
        <time>2015-04-26T12:37:50.000Z</time>
      </trkpt>
      <trkpt lat="43.2676650" lon="-3.7151290">
        <ele>437.050018</ele>
        <time>2015-04-26T12:37:52.000Z</time>
      </trkpt>
      <trkpt lat="43.2677680" lon="-3.7151260">
        <ele>438.059998</ele>
        <time>2015-04-26T12:37:54.000Z</time>
      </trkpt>
      <trkpt lat="43.2678760" lon="-3.7150990">
        <ele>438.087006</ele>
        <time>2015-04-26T12:37:58.000Z</time>
      </trkpt>
      <trkpt lat="43.2679870" lon="-3.7151400">
        <ele>434.042023</ele>
        <time>2015-04-26T12:38:01.000Z</time>
      </trkpt>
      <trkpt lat="43.2680910" lon="-3.7151540">
        <ele>438.026001</ele>
        <time>2015-04-26T12:38:04.000Z</time>
      </trkpt>
      <trkpt lat="43.2682100" lon="-3.7151290">
        <ele>438.007019</ele>
        <time>2015-04-26T12:38:08.000Z</time>
      </trkpt>
      <trkpt lat="43.2683240" lon="-3.7150810">
        <ele>438.036987</ele>
        <time>2015-04-26T12:38:11.000Z</time>
      </trkpt>
      <trkpt lat="43.2684190" lon="-3.7150780">
        <ele>443.023010</ele>
        <time>2015-04-26T12:38:14.000Z</time>
      </trkpt>
      <trkpt lat="43.2684930" lon="-3.7151590">
        <ele>444.013000</ele>
        <time>2015-04-26T12:38:17.000Z</time>
      </trkpt>
      <trkpt lat="43.2686010" lon="-3.7152420">
        <ele>442.021973</ele>
        <time>2015-04-26T12:38:21.000Z</time>
      </trkpt>
      <trkpt lat="43.2687220" lon="-3.7152540">
        <ele>446.033020</ele>
        <time>2015-04-26T12:38:24.000Z</time>
      </trkpt>
      <trkpt lat="43.2688170" lon="-3.7152090">
        <ele>442.085968</ele>
        <time>2015-04-26T12:38:27.000Z</time>
      </trkpt>
      <trkpt lat="43.2689060" lon="-3.7151630">
        <ele>441.046021</ele>
        <time>2015-04-26T12:38:33.000Z</time>
      </trkpt>
      <trkpt lat="43.2690170" lon="-3.7151870">
        <ele>444.027008</ele>
        <time>2015-04-26T12:38:38.000Z</time>
      </trkpt>
      <trkpt lat="43.2691130" lon="-3.7152260">
        <ele>446.067993</ele>
        <time>2015-04-26T12:38:41.000Z</time>
      </trkpt>
      <trkpt lat="43.2692250" lon="-3.7152730">
        <ele>448.014008</ele>
        <time>2015-04-26T12:38:45.000Z</time>
      </trkpt>
      <trkpt lat="43.2693270" lon="-3.7153080">
        <ele>449.007019</ele>
        <time>2015-04-26T12:38:48.000Z</time>
      </trkpt>
      <trkpt lat="43.2694390" lon="-3.7153070">
        <ele>446.010986</ele>
        <time>2015-04-26T12:38:51.000Z</time>
      </trkpt>
      <trkpt lat="43.2695350" lon="-3.7152710">
        <ele>445.087006</ele>
        <time>2015-04-26T12:38:54.000Z</time>
      </trkpt>
      <trkpt lat="43.2696530" lon="-3.7152420">
        <ele>446.017029</ele>
        <time>2015-04-26T12:38:57.000Z</time>
      </trkpt>
      <trkpt lat="43.2697500" lon="-3.7152760">
        <ele>446.045990</ele>
        <time>2015-04-26T12:38:59.000Z</time>
      </trkpt>
      <trkpt lat="43.2698490" lon="-3.7153250">
        <ele>447.037018</ele>
        <time>2015-04-26T12:39:01.000Z</time>
      </trkpt>
      <trkpt lat="43.2699480" lon="-3.7154040">
        <ele>448.069977</ele>
        <time>2015-04-26T12:39:02.000Z</time>
      </trkpt>
      <trkpt lat="43.2700640" lon="-3.7154310">
        <ele>444.029999</ele>
        <time>2015-04-26T12:39:04.000Z</time>
      </trkpt>
      <trkpt lat="43.2701800" lon="-3.7153680">
        <ele>444.093018</ele>
        <time>2015-04-26T12:39:07.000Z</time>
      </trkpt>
      <trkpt lat="43.2702810" lon="-3.7153210">
        <ele>443.065002</ele>
        <time>2015-04-26T12:39:10.000Z</time>
      </trkpt>
      <trkpt lat="43.2703680" lon="-3.7152570">
        <ele>444.020996</ele>
        <time>2015-04-26T12:39:12.000Z</time>
      </trkpt>
      <trkpt lat="43.2705840" lon="-3.7151680">
        <ele>443.007019</ele>
        <time>2015-04-26T12:39:14.000Z</time>
      </trkpt>
      <trkpt lat="43.2706890" lon="-3.7151560">
        <ele>444.018005</ele>
        <time>2015-04-26T12:39:15.000Z</time>
      </trkpt>
      <trkpt lat="43.2707970" lon="-3.7151230">
        <ele>446.024017</ele>
        <time>2015-04-26T12:39:16.000Z</time>
      </trkpt>
      <trkpt lat="43.2709070" lon="-3.7151250">
        <ele>446.063995</ele>
        <time>2015-04-26T12:39:17.000Z</time>
      </trkpt>
      <trkpt lat="43.2710620" lon="-3.7151260">
        <ele>445.083008</ele>
        <time>2015-04-26T12:39:19.000Z</time>
      </trkpt>
      <trkpt lat="43.2711310" lon="-3.7149930">
        <ele>446.073975</ele>
        <time>2015-04-26T12:39:21.000Z</time>
      </trkpt>
      <trkpt lat="43.2712050" lon="-3.7148700">
        <ele>445.076996</ele>
        <time>2015-04-26T12:39:26.000Z</time>
      </trkpt>
      <trkpt lat="43.2712550" lon="-3.7147490">
        <ele>445.016998</ele>
        <time>2015-04-26T12:39:29.000Z</time>
      </trkpt>
      <trkpt lat="43.2712860" lon="-3.7146090">
        <ele>444.091003</ele>
        <time>2015-04-26T12:39:33.000Z</time>
      </trkpt>
      <trkpt lat="43.2713170" lon="-3.7144700">
        <ele>443.081024</ele>
        <time>2015-04-26T12:39:37.000Z</time>
      </trkpt>
      <trkpt lat="43.2713760" lon="-3.7143380">
        <ele>445.019012</ele>
        <time>2015-04-26T12:39:41.000Z</time>
      </trkpt>
      <trkpt lat="43.2715730" lon="-3.7141820">
        <ele>445.006989</ele>
        <time>2015-04-26T12:39:45.000Z</time>
      </trkpt>
      <trkpt lat="43.2717240" lon="-3.7141650">
        <ele>447.097992</ele>
        <time>2015-04-26T12:39:47.000Z</time>
      </trkpt>
      <trkpt lat="43.2718150" lon="-3.7141330">
        <ele>442.063995</ele>
        <time>2015-04-26T12:39:48.000Z</time>
      </trkpt>
      <trkpt lat="43.2719130" lon="-3.7140610">
        <ele>440.093994</ele>
        <time>2015-04-26T12:39:49.000Z</time>
      </trkpt>
      <trkpt lat="43.2720110" lon="-3.7139870">
        <ele>437.052979</ele>
        <time>2015-04-26T12:39:50.000Z</time>
      </trkpt>
      <trkpt lat="43.2721060" lon="-3.7138970">
        <ele>443.014008</ele>
        <time>2015-04-26T12:39:51.000Z</time>
      </trkpt>
      <trkpt lat="43.2721620" lon="-3.7137990">
        <ele>441.087006</ele>
        <time>2015-04-26T12:39:52.000Z</time>
      </trkpt>
      <trkpt lat="43.2722940" lon="-3.7137030">
        <ele>440.046997</ele>
        <time>2015-04-26T12:39:54.000Z</time>
      </trkpt>
      <trkpt lat="43.2724370" lon="-3.7136630">
        <ele>441.016998</ele>
        <time>2015-04-26T12:39:56.000Z</time>
      </trkpt>
      <trkpt lat="43.2725510" lon="-3.7136730">
        <ele>440.087006</ele>
        <time>2015-04-26T12:39:58.000Z</time>
      </trkpt>
      <trkpt lat="43.2726260" lon="-3.7135710">
        <ele>442.014984</ele>
        <time>2015-04-26T12:40:00.000Z</time>
      </trkpt>
      <trkpt lat="43.2726580" lon="-3.7134350">
        <ele>444.006989</ele>
        <time>2015-04-26T12:40:04.000Z</time>
      </trkpt>
      <trkpt lat="43.2727120" lon="-3.7132990">
        <ele>444.089996</ele>
        <time>2015-04-26T12:40:09.000Z</time>
      </trkpt>
      <trkpt lat="43.2727750" lon="-3.7132020">
        <ele>448.056000</ele>
        <time>2015-04-26T12:40:13.000Z</time>
      </trkpt>
      <trkpt lat="43.2728590" lon="-3.7131040">
        <ele>450.015991</ele>
        <time>2015-04-26T12:40:18.000Z</time>
      </trkpt>
      <trkpt lat="43.2729310" lon="-3.7130070">
        <ele>449.084991</ele>
        <time>2015-04-26T12:40:23.000Z</time>
      </trkpt>
      <trkpt lat="43.2730210" lon="-3.7129670">
        <ele>446.085999</ele>
        <time>2015-04-26T12:40:30.000Z</time>
      </trkpt>
      <trkpt lat="43.2731150" lon="-3.7129560">
        <ele>448.049011</ele>
        <time>2015-04-26T12:40:36.000Z</time>
      </trkpt>
      <trkpt lat="43.2731940" lon="-3.7128920">
        <ele>449.028992</ele>
        <time>2015-04-26T12:40:44.000Z</time>
      </trkpt>
      <trkpt lat="43.2732390" lon="-3.7127830">
        <ele>450.013977</ele>
        <time>2015-04-26T12:40:50.000Z</time>
      </trkpt>
      <trkpt lat="43.2733150" lon="-3.7126960">
        <ele>447.054016</ele>
        <time>2015-04-26T12:40:58.000Z</time>
      </trkpt>
      <trkpt lat="43.2733790" lon="-3.7126080">
        <ele>448.009003</ele>
        <time>2015-04-26T12:41:04.000Z</time>
      </trkpt>
      <trkpt lat="43.2734060" lon="-3.7124850">
        <ele>446.007019</ele>
        <time>2015-04-26T12:41:11.000Z</time>
      </trkpt>
      <trkpt lat="43.2734600" lon="-3.7123780">
        <ele>449.080017</ele>
        <time>2015-04-26T12:41:19.000Z</time>
      </trkpt>
      <trkpt lat="43.2735420" lon="-3.7122960">
        <ele>451.056000</ele>
        <time>2015-04-26T12:41:25.000Z</time>
      </trkpt>
      <trkpt lat="43.2736440" lon="-3.7122720">
        <ele>449.065979</ele>
        <time>2015-04-26T12:41:31.000Z</time>
      </trkpt>
      <trkpt lat="43.2737400" lon="-3.7122950">
        <ele>448.054993</ele>
        <time>2015-04-26T12:41:37.000Z</time>
      </trkpt>
      <trkpt lat="43.2738270" lon="-3.7123310">
        <ele>449.065979</ele>
        <time>2015-04-26T12:41:45.000Z</time>
      </trkpt>
      <trkpt lat="43.2739210" lon="-3.7123110">
        <ele>452.098999</ele>
        <time>2015-04-26T12:41:51.000Z</time>
      </trkpt>
      <trkpt lat="43.2740060" lon="-3.7122440">
        <ele>455.088989</ele>
        <time>2015-04-26T12:41:57.000Z</time>
      </trkpt>
      <trkpt lat="43.2741090" lon="-3.7122560">
        <ele>458.065979</ele>
        <time>2015-04-26T12:42:04.000Z</time>
      </trkpt>
      <trkpt lat="43.2741960" lon="-3.7123020">
        <ele>462.028992</ele>
        <time>2015-04-26T12:42:09.000Z</time>
      </trkpt>
      <trkpt lat="43.2742880" lon="-3.7123550">
        <ele>465.020996</ele>
        <time>2015-04-26T12:42:16.000Z</time>
      </trkpt>
      <trkpt lat="43.2743750" lon="-3.7124260">
        <ele>470.006989</ele>
        <time>2015-04-26T12:42:22.000Z</time>
      </trkpt>
      <trkpt lat="43.2744410" lon="-3.7125290">
        <ele>472.075012</ele>
        <time>2015-04-26T12:42:31.000Z</time>
      </trkpt>
      <trkpt lat="43.2745040" lon="-3.7126250">
        <ele>472.021027</ele>
        <time>2015-04-26T12:42:39.000Z</time>
      </trkpt>
      <trkpt lat="43.2744400" lon="-3.7127170">
        <ele>473.011017</ele>
        <time>2015-04-26T12:42:49.000Z</time>
      </trkpt>
      <trkpt lat="43.2743780" lon="-3.7128140">
        <ele>472.030029</ele>
        <time>2015-04-26T12:42:57.000Z</time>
      </trkpt>
      <trkpt lat="43.2743470" lon="-3.7129380">
        <ele>472.040985</ele>
        <time>2015-04-26T12:43:04.000Z</time>
      </trkpt>
      <trkpt lat="43.2743240" lon="-3.7130690">
        <ele>470.074005</ele>
        <time>2015-04-26T12:43:09.000Z</time>
      </trkpt>
      <trkpt lat="43.2743570" lon="-3.7131870">
        <ele>470.093994</ele>
        <time>2015-04-26T12:43:15.000Z</time>
      </trkpt>
      <trkpt lat="43.2743440" lon="-3.7133130">
        <ele>470.033997</ele>
        <time>2015-04-26T12:43:22.000Z</time>
      </trkpt>
      <trkpt lat="43.2744120" lon="-3.7134020">
        <ele>470.054993</ele>
        <time>2015-04-26T12:43:30.000Z</time>
      </trkpt>
      <trkpt lat="43.2744570" lon="-3.7135230">
        <ele>474.009979</ele>
        <time>2015-04-26T12:43:38.000Z</time>
      </trkpt>
      <trkpt lat="43.2744990" lon="-3.7136360">
        <ele>473.006989</ele>
        <time>2015-04-26T12:43:48.000Z</time>
      </trkpt>
      <trkpt lat="43.2745790" lon="-3.7137060">
        <ele>474.011993</ele>
        <time>2015-04-26T12:43:56.000Z</time>
      </trkpt>
      <trkpt lat="43.2746750" lon="-3.7136840">
        <ele>476.048004</ele>
        <time>2015-04-26T12:44:05.000Z</time>
      </trkpt>
      <trkpt lat="43.2747440" lon="-3.7135810">
        <ele>475.038025</ele>
        <time>2015-04-26T12:44:13.000Z</time>
      </trkpt>
      <trkpt lat="43.2748060" lon="-3.7134640">
        <ele>475.057007</ele>
        <time>2015-04-26T12:44:18.000Z</time>
      </trkpt>
      <trkpt lat="43.2748700" lon="-3.7133750">
        <ele>474.027985</ele>
        <time>2015-04-26T12:44:23.000Z</time>
      </trkpt>
      <trkpt lat="43.2749140" lon="-3.7132370">
        <ele>476.031006</ele>
        <time>2015-04-26T12:44:27.000Z</time>
      </trkpt>
      <trkpt lat="43.2749670" lon="-3.7131190">
        <ele>476.041016</ele>
        <time>2015-04-26T12:44:31.000Z</time>
      </trkpt>
      <trkpt lat="43.2750440" lon="-3.7130320">
        <ele>476.080994</ele>
        <time>2015-04-26T12:44:38.000Z</time>
      </trkpt>
      <trkpt lat="43.2751250" lon="-3.7129640">
        <ele>475.061005</ele>
        <time>2015-04-26T12:44:45.000Z</time>
      </trkpt>
      <trkpt lat="43.2752000" lon="-3.7128870">
        <ele>474.016968</ele>
        <time>2015-04-26T12:44:51.000Z</time>
      </trkpt>
      <trkpt lat="43.2752890" lon="-3.7129050">
        <ele>473.006989</ele>
        <time>2015-04-26T12:44:57.000Z</time>
      </trkpt>
      <trkpt lat="43.2753800" lon="-3.7129340">
        <ele>472.027008</ele>
        <time>2015-04-26T12:45:05.000Z</time>
      </trkpt>
      <trkpt lat="43.2754640" lon="-3.7129790">
        <ele>472.063019</ele>
        <time>2015-04-26T12:45:11.000Z</time>
      </trkpt>
      <trkpt lat="43.2755620" lon="-3.7130170">
        <ele>470.022980</ele>
        <time>2015-04-26T12:45:18.000Z</time>
      </trkpt>
      <trkpt lat="43.2756610" lon="-3.7129870">
        <ele>472.011993</ele>
        <time>2015-04-26T12:45:26.000Z</time>
      </trkpt>
      <trkpt lat="43.2757480" lon="-3.7129340">
        <ele>473.023010</ele>
        <time>2015-04-26T12:45:33.000Z</time>
      </trkpt>
      <trkpt lat="43.2758440" lon="-3.7129500">
        <ele>473.056000</ele>
        <time>2015-04-26T12:45:41.000Z</time>
      </trkpt>
      <trkpt lat="43.2759390" lon="-3.7129680">
        <ele>475.066010</ele>
        <time>2015-04-26T12:45:48.000Z</time>
      </trkpt>
      <trkpt lat="43.2760370" lon="-3.7129360">
        <ele>475.074005</ele>
        <time>2015-04-26T12:45:55.000Z</time>
      </trkpt>
      <trkpt lat="43.2761280" lon="-3.7129150">
        <ele>473.056000</ele>
        <time>2015-04-26T12:46:03.000Z</time>
      </trkpt>
      <trkpt lat="43.2762230" lon="-3.7129140">
        <ele>471.020996</ele>
        <time>2015-04-26T12:46:12.000Z</time>
      </trkpt>
      <trkpt lat="43.2763190" lon="-3.7129420">
        <ele>470.006989</ele>
        <time>2015-04-26T12:46:20.000Z</time>
      </trkpt>
      <trkpt lat="43.2764100" lon="-3.7129430">
        <ele>468.096008</ele>
        <time>2015-04-26T12:46:29.000Z</time>
      </trkpt>
      <trkpt lat="43.2765110" lon="-3.7129330">
        <ele>468.071991</ele>
        <time>2015-04-26T12:46:38.000Z</time>
      </trkpt>
      <trkpt lat="43.2766020" lon="-3.7129240">
        <ele>466.041992</ele>
        <time>2015-04-26T12:46:47.000Z</time>
      </trkpt>
      <trkpt lat="43.2766900" lon="-3.7128650">
        <ele>464.061005</ele>
        <time>2015-04-26T12:46:56.000Z</time>
      </trkpt>
      <trkpt lat="43.2767720" lon="-3.7128390">
        <ele>463.072021</ele>
        <time>2015-04-26T12:47:06.000Z</time>
      </trkpt>
      <trkpt lat="43.2768540" lon="-3.7127880">
        <ele>462.054993</ele>
        <time>2015-04-26T12:47:16.000Z</time>
      </trkpt>
      <trkpt lat="43.2769230" lon="-3.7126850">
        <ele>458.035004</ele>
        <time>2015-04-26T12:47:23.000Z</time>
      </trkpt>
      <trkpt lat="43.2769740" lon="-3.7125750">
        <ele>459.028992</ele>
        <time>2015-04-26T12:47:29.000Z</time>
      </trkpt>
      <trkpt lat="43.2770550" lon="-3.7125190">
        <ele>457.000000</ele>
        <time>2015-04-26T12:47:39.000Z</time>
      </trkpt>
      <trkpt lat="43.2771100" lon="-3.7124360">
        <ele>456.020020</ele>
        <time>2015-04-26T12:47:49.000Z</time>
      </trkpt>
      <trkpt lat="43.2771650" lon="-3.7123350">
        <ele>458.006989</ele>
        <time>2015-04-26T12:47:59.000Z</time>
      </trkpt>
      <trkpt lat="43.2772470" lon="-3.7122820">
        <ele>460.031006</ele>
        <time>2015-04-26T12:48:06.000Z</time>
      </trkpt>
      <trkpt lat="43.2773210" lon="-3.7121920">
        <ele>461.066986</ele>
        <time>2015-04-26T12:48:13.000Z</time>
      </trkpt>
      <trkpt lat="43.2774150" lon="-3.7121390">
        <ele>459.076996</ele>
        <time>2015-04-26T12:48:20.000Z</time>
      </trkpt>
      <trkpt lat="43.2774470" lon="-3.7120110">
        <ele>458.065979</ele>
        <time>2015-04-26T12:48:27.000Z</time>
      </trkpt>
      <trkpt lat="43.2774990" lon="-3.7118910">
        <ele>456.086975</ele>
        <time>2015-04-26T12:48:36.000Z</time>
      </trkpt>
      <trkpt lat="43.2774100" lon="-3.7118540">
        <ele>456.020020</ele>
        <time>2015-04-26T12:48:43.000Z</time>
      </trkpt>
      <trkpt lat="43.2774890" lon="-3.7118400">
        <ele>456.040009</ele>
        <time>2015-04-26T12:48:53.000Z</time>
      </trkpt>
      <trkpt lat="43.2775110" lon="-3.7117730">
        <ele>457.043976</ele>
        <time>2015-04-26T12:49:28.000Z</time>
      </trkpt>
      <trkpt lat="43.2775770" lon="-3.7116200">
        <ele>456.004974</ele>
        <time>2015-04-26T12:49:32.000Z</time>
      </trkpt>
      <trkpt lat="43.2776290" lon="-3.7115090">
        <ele>458.014984</ele>
        <time>2015-04-26T12:49:35.000Z</time>
      </trkpt>
      <trkpt lat="43.2776710" lon="-3.7113820">
        <ele>457.007019</ele>
        <time>2015-04-26T12:49:40.000Z</time>
      </trkpt>
      <trkpt lat="43.2777180" lon="-3.7112720">
        <ele>457.023010</ele>
        <time>2015-04-26T12:49:45.000Z</time>
      </trkpt>
      <trkpt lat="43.2777820" lon="-3.7111700">
        <ele>457.049011</ele>
        <time>2015-04-26T12:49:51.000Z</time>
      </trkpt>
      <trkpt lat="43.2778460" lon="-3.7110600">
        <ele>457.028992</ele>
        <time>2015-04-26T12:49:57.000Z</time>
      </trkpt>
      <trkpt lat="43.2779070" lon="-3.7109700">
        <ele>457.078003</ele>
        <time>2015-04-26T12:50:03.000Z</time>
      </trkpt>
      <trkpt lat="43.2779570" lon="-3.7108510">
        <ele>457.049011</ele>
        <time>2015-04-26T12:50:09.000Z</time>
      </trkpt>
      <trkpt lat="43.2780170" lon="-3.7107310">
        <ele>453.012024</ele>
        <time>2015-04-26T12:50:15.000Z</time>
      </trkpt>
      <trkpt lat="43.2781010" lon="-3.7106400">
        <ele>451.061981</ele>
        <time>2015-04-26T12:50:20.000Z</time>
      </trkpt>
      <trkpt lat="43.2781930" lon="-3.7105830">
        <ele>450.018005</ele>
        <time>2015-04-26T12:50:25.000Z</time>
      </trkpt>
      <trkpt lat="43.2783040" lon="-3.7105310">
        <ele>449.097992</ele>
        <time>2015-04-26T12:50:30.000Z</time>
      </trkpt>
      <trkpt lat="43.2784040" lon="-3.7105030">
        <ele>450.016998</ele>
        <time>2015-04-26T12:50:33.000Z</time>
      </trkpt>
      <trkpt lat="43.2785210" lon="-3.7104820">
        <ele>449.007019</ele>
        <time>2015-04-26T12:50:36.000Z</time>
      </trkpt>
      <trkpt lat="43.2786310" lon="-3.7104330">
        <ele>447.079987</ele>
        <time>2015-04-26T12:50:38.000Z</time>
      </trkpt>
      <trkpt lat="43.2787450" lon="-3.7103930">
        <ele>446.025970</ele>
        <time>2015-04-26T12:50:40.000Z</time>
      </trkpt>
      <trkpt lat="43.2788640" lon="-3.7103520">
        <ele>444.055969</ele>
        <time>2015-04-26T12:50:44.000Z</time>
      </trkpt>
      <trkpt lat="43.2789810" lon="-3.7103530">
        <ele>442.045013</ele>
        <time>2015-04-26T12:50:46.000Z</time>
      </trkpt>
      <trkpt lat="43.2790850" lon="-3.7103240">
        <ele>440.035980</ele>
        <time>2015-04-26T12:50:50.000Z</time>
      </trkpt>
      <trkpt lat="43.2791560" lon="-3.7101980">
        <ele>440.039001</ele>
        <time>2015-04-26T12:50:53.000Z</time>
      </trkpt>
      <trkpt lat="43.2792410" lon="-3.7100860">
        <ele>439.088989</ele>
        <time>2015-04-26T12:50:56.000Z</time>
      </trkpt>
      <trkpt lat="43.2793300" lon="-3.7099880">
        <ele>440.072998</ele>
        <time>2015-04-26T12:50:59.000Z</time>
      </trkpt>
      <trkpt lat="43.2794040" lon="-3.7098890">
        <ele>439.085022</ele>
        <time>2015-04-26T12:51:02.000Z</time>
      </trkpt>
      <trkpt lat="43.2794900" lon="-3.7098060">
        <ele>438.013000</ele>
        <time>2015-04-26T12:51:05.000Z</time>
      </trkpt>
      <trkpt lat="43.2795670" lon="-3.7097160">
        <ele>434.006989</ele>
        <time>2015-04-26T12:51:08.000Z</time>
      </trkpt>
      <trkpt lat="43.2796450" lon="-3.7096160">
        <ele>436.026001</ele>
        <time>2015-04-26T12:51:11.000Z</time>
      </trkpt>
      <trkpt lat="43.2797160" lon="-3.7095250">
        <ele>434.071991</ele>
        <time>2015-04-26T12:51:14.000Z</time>
      </trkpt>
      <trkpt lat="43.2798100" lon="-3.7094220">
        <ele>434.022003</ele>
        <time>2015-04-26T12:51:18.000Z</time>
      </trkpt>
      <trkpt lat="43.2798810" lon="-3.7093000">
        <ele>434.070984</ele>
        <time>2015-04-26T12:51:22.000Z</time>
      </trkpt>
      <trkpt lat="43.2799460" lon="-3.7092140">
        <ele>432.032013</ele>
        <time>2015-04-26T12:51:26.000Z</time>
      </trkpt>
      <trkpt lat="43.2800260" lon="-3.7091170">
        <ele>432.015015</ele>
        <time>2015-04-26T12:51:30.000Z</time>
      </trkpt>
      <trkpt lat="43.2801250" lon="-3.7090390">
        <ele>432.015015</ele>
        <time>2015-04-26T12:51:34.000Z</time>
      </trkpt>
      <trkpt lat="43.2802210" lon="-3.7089860">
        <ele>431.088989</ele>
        <time>2015-04-26T12:51:37.000Z</time>
      </trkpt>
      <trkpt lat="43.2803190" lon="-3.7089080">
        <ele>425.005981</ele>
        <time>2015-04-26T12:51:40.000Z</time>
      </trkpt>
      <trkpt lat="43.2804300" lon="-3.7087900">
        <ele>426.026001</ele>
        <time>2015-04-26T12:51:43.000Z</time>
      </trkpt>
      <trkpt lat="43.2805140" lon="-3.7087230">
        <ele>428.006989</ele>
        <time>2015-04-26T12:51:44.000Z</time>
      </trkpt>
      <trkpt lat="43.2806090" lon="-3.7086360">
        <ele>427.076996</ele>
        <time>2015-04-26T12:51:46.000Z</time>
      </trkpt>
      <trkpt lat="43.2807260" lon="-3.7085080">
        <ele>426.013000</ele>
        <time>2015-04-26T12:51:49.000Z</time>
      </trkpt>
      <trkpt lat="43.2807830" lon="-3.7083890">
        <ele>427.082977</ele>
        <time>2015-04-26T12:51:51.000Z</time>
      </trkpt>
      <trkpt lat="43.2808610" lon="-3.7082560">
        <ele>425.052002</ele>
        <time>2015-04-26T12:51:54.000Z</time>
      </trkpt>
      <trkpt lat="43.2809370" lon="-3.7081620">
        <ele>426.043030</ele>
        <time>2015-04-26T12:51:57.000Z</time>
      </trkpt>
      <trkpt lat="43.2810250" lon="-3.7080630">
        <ele>422.026001</ele>
        <time>2015-04-26T12:52:00.000Z</time>
      </trkpt>
      <trkpt lat="43.2811140" lon="-3.7079250">
        <ele>419.085999</ele>
        <time>2015-04-26T12:52:03.000Z</time>
      </trkpt>
      <trkpt lat="43.2811900" lon="-3.7078020">
        <ele>418.044983</ele>
        <time>2015-04-26T12:52:05.000Z</time>
      </trkpt>
      <trkpt lat="43.2812340" lon="-3.7076750">
        <ele>418.046997</ele>
        <time>2015-04-26T12:52:08.000Z</time>
      </trkpt>
      <trkpt lat="43.2812920" lon="-3.7075680">
        <ele>418.010986</ele>
        <time>2015-04-26T12:52:11.000Z</time>
      </trkpt>
      <trkpt lat="43.2813800" lon="-3.7074910">
        <ele>419.006989</ele>
        <time>2015-04-26T12:52:13.000Z</time>
      </trkpt>
      <trkpt lat="43.2814620" lon="-3.7073810">
        <ele>416.083008</ele>
        <time>2015-04-26T12:52:16.000Z</time>
      </trkpt>
      <trkpt lat="43.2815460" lon="-3.7072920">
        <ele>414.049011</ele>
        <time>2015-04-26T12:52:19.000Z</time>
      </trkpt>
      <trkpt lat="43.2816210" lon="-3.7071950">
        <ele>411.088989</ele>
        <time>2015-04-26T12:52:22.000Z</time>
      </trkpt>
      <trkpt lat="43.2817070" lon="-3.7070860">
        <ele>411.048004</ele>
        <time>2015-04-26T12:52:26.000Z</time>
      </trkpt>
      <trkpt lat="43.2817770" lon="-3.7069780">
        <ele>411.058990</ele>
        <time>2015-04-26T12:52:29.000Z</time>
      </trkpt>
      <trkpt lat="43.2818570" lon="-3.7068830">
        <ele>412.032013</ele>
        <time>2015-04-26T12:52:33.000Z</time>
      </trkpt>
      <trkpt lat="43.2819390" lon="-3.7068090">
        <ele>410.011993</ele>
        <time>2015-04-26T12:52:37.000Z</time>
      </trkpt>
      <trkpt lat="43.2820250" lon="-3.7067260">
        <ele>409.092987</ele>
        <time>2015-04-26T12:52:41.000Z</time>
      </trkpt>
      <trkpt lat="43.2820160" lon="-3.7067320">
        <ele>408.065002</ele>
        <time>2015-04-26T12:53:21.000Z</time>
      </trkpt>
      <trkpt lat="43.2820480" lon="-3.7066790">
        <ele>407.020996</ele>
        <time>2015-04-26T12:53:42.000Z</time>
      </trkpt>
      <trkpt lat="43.2821050" lon="-3.7065660">
        <ele>407.007019</ele>
        <time>2015-04-26T12:53:45.000Z</time>
      </trkpt>
      <trkpt lat="43.2821580" lon="-3.7064560">
        <ele>404.027985</ele>
        <time>2015-04-26T12:53:48.000Z</time>
      </trkpt>
      <trkpt lat="43.2822160" lon="-3.7063340">
        <ele>404.043976</ele>
        <time>2015-04-26T12:53:52.000Z</time>
      </trkpt>
      <trkpt lat="43.2822530" lon="-3.7061990">
        <ele>401.043976</ele>
        <time>2015-04-26T12:53:58.000Z</time>
      </trkpt>
      <trkpt lat="43.2822880" lon="-3.7060810">
        <ele>398.013000</ele>
        <time>2015-04-26T12:54:03.000Z</time>
      </trkpt>
      <trkpt lat="43.2823140" lon="-3.7059540">
        <ele>396.054016</ele>
        <time>2015-04-26T12:54:10.000Z</time>
      </trkpt>
      <trkpt lat="43.2823770" lon="-3.7058530">
        <ele>394.027008</ele>
        <time>2015-04-26T12:54:16.000Z</time>
      </trkpt>
      <trkpt lat="43.2823970" lon="-3.7057300">
        <ele>392.096985</ele>
        <time>2015-04-26T12:54:22.000Z</time>
      </trkpt>
      <trkpt lat="43.2824080" lon="-3.7056000">
        <ele>389.061981</ele>
        <time>2015-04-26T12:54:30.000Z</time>
      </trkpt>
      <trkpt lat="43.2824170" lon="-3.7054770">
        <ele>387.083008</ele>
        <time>2015-04-26T12:54:37.000Z</time>
      </trkpt>
      <trkpt lat="43.2824150" lon="-3.7053220">
        <ele>385.010986</ele>
        <time>2015-04-26T12:54:43.000Z</time>
      </trkpt>
      <trkpt lat="43.2824150" lon="-3.7051910">
        <ele>372.006989</ele>
        <time>2015-04-26T12:54:50.000Z</time>
      </trkpt>
      <trkpt lat="43.2824530" lon="-3.7050720">
        <ele>369.024994</ele>
        <time>2015-04-26T12:54:59.000Z</time>
      </trkpt>
      <trkpt lat="43.2825000" lon="-3.7049620">
        <ele>367.091003</ele>
        <time>2015-04-26T12:55:06.000Z</time>
      </trkpt>
      <trkpt lat="43.2825650" lon="-3.7048720">
        <ele>363.031006</ele>
        <time>2015-04-26T12:55:15.000Z</time>
      </trkpt>
      <trkpt lat="43.2826020" lon="-3.7047520">
        <ele>361.039978</ele>
        <time>2015-04-26T12:55:24.000Z</time>
      </trkpt>
      <trkpt lat="43.2826180" lon="-3.7046160">
        <ele>361.061005</ele>
        <time>2015-04-26T12:55:33.000Z</time>
      </trkpt>
      <trkpt lat="43.2826670" lon="-3.7045070">
        <ele>362.063995</ele>
        <time>2015-04-26T12:55:41.000Z</time>
      </trkpt>
      <trkpt lat="43.2827230" lon="-3.7043980">
        <ele>359.063995</ele>
        <time>2015-04-26T12:55:50.000Z</time>
      </trkpt>
      <trkpt lat="43.2827910" lon="-3.7043010">
        <ele>360.065002</ele>
        <time>2015-04-26T12:56:00.000Z</time>
      </trkpt>
      <trkpt lat="43.2828530" lon="-3.7042100">
        <ele>359.068024</ele>
        <time>2015-04-26T12:56:08.000Z</time>
      </trkpt>
      <trkpt lat="43.2829160" lon="-3.7041040">
        <ele>355.014008</ele>
        <time>2015-04-26T12:56:16.000Z</time>
      </trkpt>
      <trkpt lat="43.2829630" lon="-3.7039970">
        <ele>354.007019</ele>
        <time>2015-04-26T12:56:23.000Z</time>
      </trkpt>
      <trkpt lat="43.2830050" lon="-3.7038820">
        <ele>354.095001</ele>
        <time>2015-04-26T12:56:30.000Z</time>
      </trkpt>
      <trkpt lat="43.2830510" lon="-3.7037610">
        <ele>351.080994</ele>
        <time>2015-04-26T12:56:38.000Z</time>
      </trkpt>
      <trkpt lat="43.2830970" lon="-3.7036370">
        <ele>352.080994</ele>
        <time>2015-04-26T12:56:45.000Z</time>
      </trkpt>
      <trkpt lat="43.2831440" lon="-3.7035300">
        <ele>351.080017</ele>
        <time>2015-04-26T12:56:52.000Z</time>
      </trkpt>
      <trkpt lat="43.2831680" lon="-3.7033850">
        <ele>346.081024</ele>
        <time>2015-04-26T12:56:58.000Z</time>
      </trkpt>
      <trkpt lat="43.2832070" lon="-3.7032520">
        <ele>343.074005</ele>
        <time>2015-04-26T12:57:03.000Z</time>
      </trkpt>
      <trkpt lat="43.2833040" lon="-3.7031550">
        <ele>345.093994</ele>
        <time>2015-04-26T12:57:07.000Z</time>
      </trkpt>
      <trkpt lat="43.2833880" lon="-3.7031040">
        <ele>343.048004</ele>
        <time>2015-04-26T12:57:09.000Z</time>
      </trkpt>
      <trkpt lat="43.2835040" lon="-3.7030490">
        <ele>344.061005</ele>
        <time>2015-04-26T12:57:12.000Z</time>
      </trkpt>
      <trkpt lat="43.2836160" lon="-3.7030070">
        <ele>343.017029</ele>
        <time>2015-04-26T12:57:16.000Z</time>
      </trkpt>
      <trkpt lat="43.2837120" lon="-3.7029680">
        <ele>341.007019</ele>
        <time>2015-04-26T12:57:21.000Z</time>
      </trkpt>
      <trkpt lat="43.2838140" lon="-3.7029340">
        <ele>341.013000</ele>
        <time>2015-04-26T12:57:24.000Z</time>
      </trkpt>
      <trkpt lat="43.2839340" lon="-3.7029080">
        <ele>340.058990</ele>
        <time>2015-04-26T12:57:27.000Z</time>
      </trkpt>
      <trkpt lat="43.2840510" lon="-3.7029180">
        <ele>337.039001</ele>
        <time>2015-04-26T12:57:30.000Z</time>
      </trkpt>
      <trkpt lat="43.2841690" lon="-3.7029480">
        <ele>331.077972</ele>
        <time>2015-04-26T12:57:33.000Z</time>
      </trkpt>
      <trkpt lat="43.2842820" lon="-3.7029940">
        <ele>329.058990</ele>
        <time>2015-04-26T12:57:36.000Z</time>
      </trkpt>
      <trkpt lat="43.2844000" lon="-3.7030000">
        <ele>329.032013</ele>
        <time>2015-04-26T12:57:39.000Z</time>
      </trkpt>
      <trkpt lat="43.2844890" lon="-3.7029840">
        <ele>330.041992</ele>
        <time>2015-04-26T12:57:41.000Z</time>
      </trkpt>
      <trkpt lat="43.2845820" lon="-3.7029630">
        <ele>329.049011</ele>
        <time>2015-04-26T12:57:43.000Z</time>
      </trkpt>
      <trkpt lat="43.2846960" lon="-3.7029250">
        <ele>326.002014</ele>
        <time>2015-04-26T12:57:46.000Z</time>
      </trkpt>
      <trkpt lat="43.2847920" lon="-3.7028630">
        <ele>325.021973</ele>
        <time>2015-04-26T12:57:49.000Z</time>
      </trkpt>
      <trkpt lat="43.2848800" lon="-3.7027620">
        <ele>324.007019</ele>
        <time>2015-04-26T12:57:52.000Z</time>
      </trkpt>
      <trkpt lat="43.2849500" lon="-3.7026500">
        <ele>323.033020</ele>
        <time>2015-04-26T12:57:55.000Z</time>
      </trkpt>
      <trkpt lat="43.2850160" lon="-3.7025180">
        <ele>323.039001</ele>
        <time>2015-04-26T12:57:58.000Z</time>
      </trkpt>
      <trkpt lat="43.2850800" lon="-3.7024170">
        <ele>322.069000</ele>
        <time>2015-04-26T12:58:00.000Z</time>
      </trkpt>
      <trkpt lat="43.2851800" lon="-3.7023360">
        <ele>322.038025</ele>
        <time>2015-04-26T12:58:03.000Z</time>
      </trkpt>
      <trkpt lat="43.2852860" lon="-3.7023160">
        <ele>323.079010</ele>
        <time>2015-04-26T12:58:06.000Z</time>
      </trkpt>
      <trkpt lat="43.2853730" lon="-3.7023550">
        <ele>323.092010</ele>
        <time>2015-04-26T12:58:08.000Z</time>
      </trkpt>
      <trkpt lat="43.2854710" lon="-3.7024450">
        <ele>322.022034</ele>
        <time>2015-04-26T12:58:10.000Z</time>
      </trkpt>
      <trkpt lat="43.2856100" lon="-3.7025710">
        <ele>323.052979</ele>
        <time>2015-04-26T12:58:12.000Z</time>
      </trkpt>
      <trkpt lat="43.2857470" lon="-3.7026440">
        <ele>322.003998</ele>
        <time>2015-04-26T12:58:14.000Z</time>
      </trkpt>
      <trkpt lat="43.2858660" lon="-3.7026970">
        <ele>322.013977</ele>
        <time>2015-04-26T12:58:16.000Z</time>
      </trkpt>
      <trkpt lat="43.2859640" lon="-3.7026810">
        <ele>321.007019</ele>
        <time>2015-04-26T12:58:18.000Z</time>
      </trkpt>
      <trkpt lat="43.2860710" lon="-3.7027840">
        <ele>320.053986</ele>
        <time>2015-04-26T12:58:20.000Z</time>
      </trkpt>
      <trkpt lat="43.2861710" lon="-3.7028830">
        <ele>319.020020</ele>
        <time>2015-04-26T12:58:22.000Z</time>
      </trkpt>
      <trkpt lat="43.2862880" lon="-3.7029680">
        <ele>316.049988</ele>
        <time>2015-04-26T12:58:24.000Z</time>
      </trkpt>
      <trkpt lat="43.2863700" lon="-3.7030840">
        <ele>317.069031</ele>
        <time>2015-04-26T12:58:26.000Z</time>
      </trkpt>
      <trkpt lat="43.2864660" lon="-3.7031970">
        <ele>309.009979</ele>
        <time>2015-04-26T12:58:29.000Z</time>
      </trkpt>
      <trkpt lat="43.2865660" lon="-3.7032740">
        <ele>303.042999</ele>
        <time>2015-04-26T12:58:32.000Z</time>
      </trkpt>
      <trkpt lat="43.2866820" lon="-3.7033230">
        <ele>301.072998</ele>
        <time>2015-04-26T12:58:35.000Z</time>
      </trkpt>
      <trkpt lat="43.2867780" lon="-3.7033330">
        <ele>299.026001</ele>
        <time>2015-04-26T12:58:37.000Z</time>
      </trkpt>
      <trkpt lat="43.2868900" lon="-3.7033830">
        <ele>297.046997</ele>
        <time>2015-04-26T12:58:39.000Z</time>
      </trkpt>
      <trkpt lat="43.2870090" lon="-3.7034150">
        <ele>294.011017</ele>
        <time>2015-04-26T12:58:41.000Z</time>
      </trkpt>
      <trkpt lat="43.2871270" lon="-3.7034370">
        <ele>293.007019</ele>
        <time>2015-04-26T12:58:43.000Z</time>
      </trkpt>
      <trkpt lat="43.2872500" lon="-3.7034440">
        <ele>291.091003</ele>
        <time>2015-04-26T12:58:45.000Z</time>
      </trkpt>
      <trkpt lat="43.2873480" lon="-3.7034490">
        <ele>289.036987</ele>
        <time>2015-04-26T12:58:47.000Z</time>
      </trkpt>
      <trkpt lat="43.2874770" lon="-3.7034910">
        <ele>282.036987</ele>
        <time>2015-04-26T12:58:50.000Z</time>
      </trkpt>
      <trkpt lat="43.2875660" lon="-3.7035910">
        <ele>282.066010</ele>
        <time>2015-04-26T12:58:52.000Z</time>
      </trkpt>
      <trkpt lat="43.2876710" lon="-3.7036560">
        <ele>282.016998</ele>
        <time>2015-04-26T12:58:54.000Z</time>
      </trkpt>
      <trkpt lat="43.2878100" lon="-3.7036810">
        <ele>279.070007</ele>
        <time>2015-04-26T12:58:57.000Z</time>
      </trkpt>
      <trkpt lat="43.2878640" lon="-3.7038240">
        <ele>277.049988</ele>
        <time>2015-04-26T12:58:59.000Z</time>
      </trkpt>
      <trkpt lat="43.2879250" lon="-3.7039690">
        <ele>277.075989</ele>
        <time>2015-04-26T12:59:01.000Z</time>
      </trkpt>
      <trkpt lat="43.2880280" lon="-3.7040900">
        <ele>277.089996</ele>
        <time>2015-04-26T12:59:03.000Z</time>
      </trkpt>
      <trkpt lat="43.2880650" lon="-3.7042280">
        <ele>274.018982</ele>
        <time>2015-04-26T12:59:05.000Z</time>
      </trkpt>
      <trkpt lat="43.2880860" lon="-3.7044010">
        <ele>274.006989</ele>
        <time>2015-04-26T12:59:07.000Z</time>
      </trkpt>
      <trkpt lat="43.2881290" lon="-3.7046050">
        <ele>267.026001</ele>
        <time>2015-04-26T12:59:09.000Z</time>
      </trkpt>
      <trkpt lat="43.2881210" lon="-3.7047400">
        <ele>265.092010</ele>
        <time>2015-04-26T12:59:10.000Z</time>
      </trkpt>
      <trkpt lat="43.2880970" lon="-3.7049540">
        <ele>261.092010</ele>
        <time>2015-04-26T12:59:12.000Z</time>
      </trkpt>
      <trkpt lat="43.2880910" lon="-3.7051170">
        <ele>261.031006</ele>
        <time>2015-04-26T12:59:14.000Z</time>
      </trkpt>
      <trkpt lat="43.2881110" lon="-3.7052730">
        <ele>257.082001</ele>
        <time>2015-04-26T12:59:16.000Z</time>
      </trkpt>
      <trkpt lat="43.2881880" lon="-3.7053970">
        <ele>258.044983</ele>
        <time>2015-04-26T12:59:18.000Z</time>
      </trkpt>
      <trkpt lat="43.2882870" lon="-3.7054990">
        <ele>252.065002</ele>
        <time>2015-04-26T12:59:20.000Z</time>
      </trkpt>
      <trkpt lat="43.2884110" lon="-3.7055170">
        <ele>254.076004</ele>
        <time>2015-04-26T12:59:22.000Z</time>
      </trkpt>
      <trkpt lat="43.2885380" lon="-3.7055030">
        <ele>252.090012</ele>
        <time>2015-04-26T12:59:24.000Z</time>
      </trkpt>
      <trkpt lat="43.2886200" lon="-3.7056560">
        <ele>253.018997</ele>
        <time>2015-04-26T12:59:26.000Z</time>
      </trkpt>
      <trkpt lat="43.2887400" lon="-3.7057980">
        <ele>252.007004</ele>
        <time>2015-04-26T12:59:28.000Z</time>
      </trkpt>
      <trkpt lat="43.2888780" lon="-3.7057570">
        <ele>253.015991</ele>
        <time>2015-04-26T12:59:30.000Z</time>
      </trkpt>
      <trkpt lat="43.2890100" lon="-3.7057960">
        <ele>253.052002</ele>
        <time>2015-04-26T12:59:32.000Z</time>
      </trkpt>
      <trkpt lat="43.2890990" lon="-3.7059000">
        <ele>253.011993</ele>
        <time>2015-04-26T12:59:34.000Z</time>
      </trkpt>
      <trkpt lat="43.2891780" lon="-3.7060530">
        <ele>253.061005</ele>
        <time>2015-04-26T12:59:36.000Z</time>
      </trkpt>
      <trkpt lat="43.2893060" lon="-3.7061400">
        <ele>253.031998</ele>
        <time>2015-04-26T12:59:38.000Z</time>
      </trkpt>
      <trkpt lat="43.2894230" lon="-3.7061880">
        <ele>253.095001</ele>
        <time>2015-04-26T12:59:40.000Z</time>
      </trkpt>
      <trkpt lat="43.2895590" lon="-3.7062250">
        <ele>253.025009</ele>
        <time>2015-04-26T12:59:42.000Z</time>
      </trkpt>
      <trkpt lat="43.2896540" lon="-3.7062260">
        <ele>254.035995</ele>
        <time>2015-04-26T12:59:44.000Z</time>
      </trkpt>
      <trkpt lat="43.2897610" lon="-3.7062440">
        <ele>254.016998</ele>
        <time>2015-04-26T12:59:46.000Z</time>
      </trkpt>
      <trkpt lat="43.2898540" lon="-3.7062320">
        <ele>254.018005</ele>
        <time>2015-04-26T12:59:48.000Z</time>
      </trkpt>
      <trkpt lat="43.2899550" lon="-3.7061760">
        <ele>251.007004</ele>
        <time>2015-04-26T12:59:50.000Z</time>
      </trkpt>
      <trkpt lat="43.2900530" lon="-3.7062000">
        <ele>250.092010</ele>
        <time>2015-04-26T12:59:52.000Z</time>
      </trkpt>
      <trkpt lat="43.2901750" lon="-3.7062220">
        <ele>251.037994</ele>
        <time>2015-04-26T12:59:54.000Z</time>
      </trkpt>
      <trkpt lat="43.2902390" lon="-3.7063300">
        <ele>251.057999</ele>
        <time>2015-04-26T12:59:56.000Z</time>
      </trkpt>
      <trkpt lat="43.2903360" lon="-3.7064250">
        <ele>251.067001</ele>
        <time>2015-04-26T12:59:58.000Z</time>
      </trkpt>
      <trkpt lat="43.2904600" lon="-3.7065010">
        <ele>250.057999</ele>
        <time>2015-04-26T13:00:01.000Z</time>
      </trkpt>
      <trkpt lat="43.2905440" lon="-3.7065640">
        <ele>250.020996</ele>
        <time>2015-04-26T13:00:03.000Z</time>
      </trkpt>
      <trkpt lat="43.2906450" lon="-3.7066950">
        <ele>247.011002</ele>
        <time>2015-04-26T13:00:06.000Z</time>
      </trkpt>
      <trkpt lat="43.2907240" lon="-3.7067970">
        <ele>245.085007</ele>
        <time>2015-04-26T13:00:08.000Z</time>
      </trkpt>
      <trkpt lat="43.2908110" lon="-3.7069450">
        <ele>230.007004</ele>
        <time>2015-04-26T13:00:11.000Z</time>
      </trkpt>
      <trkpt lat="43.2908980" lon="-3.7070530">
        <ele>231.050003</ele>
        <time>2015-04-26T13:00:14.000Z</time>
      </trkpt>
      <trkpt lat="43.2909420" lon="-3.7071660">
        <ele>233.065994</ele>
        <time>2015-04-26T13:00:16.000Z</time>
      </trkpt>
      <trkpt lat="43.2909970" lon="-3.7072750">
        <ele>235.066010</ele>
        <time>2015-04-26T13:00:18.000Z</time>
      </trkpt>
      <trkpt lat="43.2910570" lon="-3.7074010">
        <ele>237.085007</ele>
        <time>2015-04-26T13:00:21.000Z</time>
      </trkpt>
      <trkpt lat="43.2911490" lon="-3.7074920">
        <ele>235.066010</ele>
        <time>2015-04-26T13:00:24.000Z</time>
      </trkpt>
      <trkpt lat="43.2912150" lon="-3.7075920">
        <ele>235.099014</ele>
        <time>2015-04-26T13:00:27.000Z</time>
      </trkpt>
      <trkpt lat="43.2913330" lon="-3.7077080">
        <time>2015-04-26T13:00:30.000Z</time>
      </trkpt>
      <trkpt lat="43.2914080" lon="-3.7077950">
        <time>2015-04-26T13:00:32.000Z</time>
      </trkpt>
      <trkpt lat="43.2914630" lon="-3.7078950">
        <time>2015-04-26T13:00:34.000Z</time>
      </trkpt>
      <trkpt lat="43.2915140" lon="-3.7080770">
        <time>2015-04-26T13:00:36.000Z</time>
      </trkpt>
      <trkpt lat="43.2916340" lon="-3.7081340">
        <time>2015-04-26T13:00:38.000Z</time>
      </trkpt>
      <trkpt lat="43.2917710" lon="-3.7081470">
        <time>2015-04-26T13:00:40.000Z</time>
      </trkpt>
      <trkpt lat="43.2919500" lon="-3.7081980">
        <time>2015-04-26T13:00:42.000Z</time>
      </trkpt>
      <trkpt lat="43.2920790" lon="-3.7082180">
        <time>2015-04-26T13:00:44.000Z</time>
      </trkpt>
      <trkpt lat="43.2921520" lon="-3.7083450">
        <time>2015-04-26T13:00:46.000Z</time>
      </trkpt>
      <trkpt lat="43.2922730" lon="-3.7084220">
        <time>2015-04-26T13:00:48.000Z</time>
      </trkpt>
      <trkpt lat="43.2923660" lon="-3.7084370">
        <time>2015-04-26T13:00:49.000Z</time>
      </trkpt>
      <trkpt lat="43.2924010" lon="-3.7083230">
        <time>2015-04-26T13:00:52.000Z</time>
      </trkpt>
      <trkpt lat="43.2924320" lon="-3.7082060">
        <time>2015-04-26T13:00:55.000Z</time>
      </trkpt>
      <trkpt lat="43.2924730" lon="-3.7080450">
        <time>2015-04-26T13:00:58.000Z</time>
      </trkpt>
      <trkpt lat="43.2925940" lon="-3.7079750">
        <time>2015-04-26T13:01:00.000Z</time>
      </trkpt>
      <trkpt lat="43.2926930" lon="-3.7078700">
        <time>2015-04-26T13:01:02.000Z</time>
      </trkpt>
      <trkpt lat="43.2928280" lon="-3.7077350">
        <time>2015-04-26T13:01:04.000Z</time>
      </trkpt>
      <trkpt lat="43.2929440" lon="-3.7077130">
        <time>2015-04-26T13:01:06.000Z</time>
      </trkpt>
      <trkpt lat="43.2930690" lon="-3.7077550">
        <time>2015-04-26T13:01:09.000Z</time>
      </trkpt>
      <trkpt lat="43.2931750" lon="-3.7077310">
        <time>2015-04-26T13:01:12.000Z</time>
      </trkpt>
      <trkpt lat="43.2932840" lon="-3.7077210">
        <time>2015-04-26T13:01:16.000Z</time>
      </trkpt>
      <trkpt lat="43.2932920" lon="-3.7076110">
        <time>2015-04-26T13:01:41.000Z</time>
      </trkpt>
      <trkpt lat="43.2933210" lon="-3.7074570">
        <time>2015-04-26T13:01:42.000Z</time>
      </trkpt>
      <trkpt lat="43.2932580" lon="-3.7073220">
        <time>2015-04-26T13:01:43.000Z</time>
      </trkpt>
      <trkpt lat="43.2932390" lon="-3.7071160">
        <time>2015-04-26T13:01:44.000Z</time>
      </trkpt>
      <trkpt lat="43.2932540" lon="-3.7069180">
        <time>2015-04-26T13:01:46.000Z</time>
      </trkpt>
      <trkpt lat="43.2932980" lon="-3.7067380">
        <time>2015-04-26T13:01:48.000Z</time>
      </trkpt>
      <trkpt lat="43.2933960" lon="-3.7067010">
        <time>2015-04-26T13:01:50.000Z</time>
      </trkpt>
      <trkpt lat="43.2934820" lon="-3.7067410">
        <time>2015-04-26T13:01:51.000Z</time>
      </trkpt>
      <trkpt lat="43.2936440" lon="-3.7067740">
        <time>2015-04-26T13:01:53.000Z</time>
      </trkpt>
      <trkpt lat="43.2937580" lon="-3.7069310">
        <time>2015-04-26T13:01:55.000Z</time>
      </trkpt>
      <trkpt lat="43.2938310" lon="-3.7071110">
        <time>2015-04-26T13:01:57.000Z</time>
      </trkpt>
      <trkpt lat="43.2939190" lon="-3.7073270">
        <time>2015-04-26T13:01:59.000Z</time>
      </trkpt>
      <trkpt lat="43.2939670" lon="-3.7075320">
        <time>2015-04-26T13:02:01.000Z</time>
      </trkpt>
      <trkpt lat="43.2940340" lon="-3.7076740">
        <time>2015-04-26T13:02:03.000Z</time>
      </trkpt>
      <trkpt lat="43.2941300" lon="-3.7078210">
        <time>2015-04-26T13:02:05.000Z</time>
      </trkpt>
      <trkpt lat="43.2942030" lon="-3.7079200">
        <time>2015-04-26T13:02:08.000Z</time>
      </trkpt>
      <trkpt lat="43.2943300" lon="-3.7079560">
        <time>2015-04-26T13:02:11.000Z</time>
      </trkpt>
      <trkpt lat="43.2944250" lon="-3.7080220">
        <time>2015-04-26T13:02:14.000Z</time>
      </trkpt>
      <trkpt lat="43.2945140" lon="-3.7080750">
        <time>2015-04-26T13:02:18.000Z</time>
      </trkpt>
      <trkpt lat="43.2946330" lon="-3.7080300">
        <time>2015-04-26T13:02:21.000Z</time>
      </trkpt>
      <trkpt lat="43.2947320" lon="-3.7080320">
        <time>2015-04-26T13:02:24.000Z</time>
      </trkpt>
      <trkpt lat="43.2948910" lon="-3.7080140">
        <time>2015-04-26T13:02:26.000Z</time>
      </trkpt>
      <trkpt lat="43.2950150" lon="-3.7079980">
        <time>2015-04-26T13:02:28.000Z</time>
      </trkpt>
      <trkpt lat="43.2951070" lon="-3.7078690">
        <time>2015-04-26T13:02:30.000Z</time>
      </trkpt>
      <trkpt lat="43.2952390" lon="-3.7077690">
        <time>2015-04-26T13:02:33.000Z</time>
      </trkpt>
      <trkpt lat="43.2953320" lon="-3.7077560">
        <time>2015-04-26T13:02:35.000Z</time>
      </trkpt>
      <trkpt lat="43.2954310" lon="-3.7076710">
        <time>2015-04-26T13:02:37.000Z</time>
      </trkpt>
      <trkpt lat="43.2955130" lon="-3.7075590">
        <time>2015-04-26T13:02:39.000Z</time>
      </trkpt>
      <trkpt lat="43.2956140" lon="-3.7075370">
        <time>2015-04-26T13:02:41.000Z</time>
      </trkpt>
      <trkpt lat="43.2957220" lon="-3.7074290">
        <time>2015-04-26T13:02:44.000Z</time>
      </trkpt>
      <trkpt lat="43.2958240" lon="-3.7073800">
        <time>2015-04-26T13:02:46.000Z</time>
      </trkpt>
      <trkpt lat="43.2959840" lon="-3.7073340">
        <time>2015-04-26T13:02:48.000Z</time>
      </trkpt>
      <trkpt lat="43.2961260" lon="-3.7071920">
        <time>2015-04-26T13:02:50.000Z</time>
      </trkpt>
      <trkpt lat="43.2961910" lon="-3.7070950">
        <time>2015-04-26T13:02:51.000Z</time>
      </trkpt>
      <trkpt lat="43.2962710" lon="-3.7069850">
        <time>2015-04-26T13:02:52.000Z</time>
      </trkpt>
      <trkpt lat="43.2963320" lon="-3.7068890">
        <time>2015-04-26T13:02:53.000Z</time>
      </trkpt>
      <trkpt lat="43.2963920" lon="-3.7067780">
        <time>2015-04-26T13:02:54.000Z</time>
      </trkpt>
      <trkpt lat="43.2965000" lon="-3.7066230">
        <time>2015-04-26T13:02:56.000Z</time>
      </trkpt>
      <trkpt lat="43.2965860" lon="-3.7064990">
        <time>2015-04-26T13:02:58.000Z</time>
      </trkpt>
      <trkpt lat="43.2967710" lon="-3.7064680">
        <time>2015-04-26T13:03:00.000Z</time>
      </trkpt>
      <trkpt lat="43.2968760" lon="-3.7064480">
        <time>2015-04-26T13:03:01.000Z</time>
      </trkpt>
      <trkpt lat="43.2969680" lon="-3.7064310">
        <time>2015-04-26T13:03:02.000Z</time>
      </trkpt>
      <trkpt lat="43.2970650" lon="-3.7064300">
        <time>2015-04-26T13:03:03.000Z</time>
      </trkpt>
      <trkpt lat="43.2971750" lon="-3.7064270">
        <time>2015-04-26T13:03:04.000Z</time>
      </trkpt>
      <trkpt lat="43.2972800" lon="-3.7064280">
        <time>2015-04-26T13:03:05.000Z</time>
      </trkpt>
      <trkpt lat="43.2974370" lon="-3.7063630">
        <time>2015-04-26T13:03:07.000Z</time>
      </trkpt>
      <trkpt lat="43.2975320" lon="-3.7063100">
        <time>2015-04-26T13:03:09.000Z</time>
      </trkpt>
      <trkpt lat="43.2976240" lon="-3.7062740">
        <time>2015-04-26T13:03:11.000Z</time>
      </trkpt>
      <trkpt lat="43.2977110" lon="-3.7062190">
        <time>2015-04-26T13:03:13.000Z</time>
      </trkpt>
      <trkpt lat="43.2975190" lon="-3.7063120">
        <time>2015-04-26T13:03:15.000Z</time>
      </trkpt>
      <trkpt lat="43.2973500" lon="-3.7062980">
        <time>2015-04-26T13:03:17.000Z</time>
      </trkpt>
      <trkpt lat="43.2972490" lon="-3.7062370">
        <time>2015-04-26T13:03:18.000Z</time>
      </trkpt>
      <trkpt lat="43.2971740" lon="-3.7061610">
        <time>2015-04-26T13:03:19.000Z</time>
      </trkpt>
      <trkpt lat="43.2970820" lon="-3.7061640">
        <time>2015-04-26T13:03:20.000Z</time>
      </trkpt>
      <trkpt lat="43.2969420" lon="-3.7061840">
        <time>2015-04-26T13:03:22.000Z</time>
      </trkpt>
      <trkpt lat="43.2968520" lon="-3.7060700">
        <time>2015-04-26T13:03:23.000Z</time>
      </trkpt>
      <trkpt lat="43.2968100" lon="-3.7059420">
        <time>2015-04-26T13:03:25.000Z</time>
      </trkpt>
      <trkpt lat="43.2967720" lon="-3.7058280">
        <time>2015-04-26T13:03:28.000Z</time>
      </trkpt>
      <trkpt lat="43.2968790" lon="-3.7057930">
        <time>2015-04-26T13:03:33.000Z</time>
      </trkpt>
      <trkpt lat="43.2969810" lon="-3.7058470">
        <time>2015-04-26T13:03:35.000Z</time>
      </trkpt>
      <trkpt lat="43.2970660" lon="-3.7059310">
        <time>2015-04-26T13:03:37.000Z</time>
      </trkpt>
      <trkpt lat="43.2971360" lon="-3.7058140">
        <time>2015-04-26T13:03:40.000Z</time>
      </trkpt>
      <trkpt lat="43.2971750" lon="-3.7056850">
        <time>2015-04-26T13:03:43.000Z</time>
      </trkpt>
      <trkpt lat="43.2971800" lon="-3.7054860">
        <time>2015-04-26T13:03:45.000Z</time>
      </trkpt>
      <trkpt lat="43.2971660" lon="-3.7053210">
        <time>2015-04-26T13:03:47.000Z</time>
      </trkpt>
      <trkpt lat="43.2971940" lon="-3.7051830">
        <time>2015-04-26T13:03:49.000Z</time>
      </trkpt>
      <trkpt lat="43.2971630" lon="-3.7049860">
        <time>2015-04-26T13:03:51.000Z</time>
      </trkpt>
      <trkpt lat="43.2971660" lon="-3.7048620">
        <time>2015-04-26T13:03:58.000Z</time>
      </trkpt>
      <trkpt lat="43.2970080" lon="-3.7048370">
        <time>2015-04-26T13:04:00.000Z</time>
      </trkpt>
      <trkpt lat="43.2969020" lon="-3.7048390">
        <time>2015-04-26T13:04:06.000Z</time>
      </trkpt>
      <trkpt lat="43.2969470" lon="-3.7047240">
        <time>2015-04-26T13:04:09.000Z</time>
      </trkpt>
      <trkpt lat="43.2969510" lon="-3.7045970">
        <time>2015-04-26T13:04:12.000Z</time>
      </trkpt>
      <trkpt lat="43.2968610" lon="-3.7044770">
        <time>2015-04-26T13:04:15.000Z</time>
      </trkpt>
      <trkpt lat="43.2967370" lon="-3.7044010">
        <time>2015-04-26T13:04:17.000Z</time>
      </trkpt>
      <trkpt lat="43.2966300" lon="-3.7044010">
        <time>2015-04-26T13:04:18.000Z</time>
      </trkpt>
      <trkpt lat="43.2964920" lon="-3.7043350">
        <time>2015-04-26T13:04:21.000Z</time>
      </trkpt>
      <trkpt lat="43.2963800" lon="-3.7042130">
        <time>2015-04-26T13:04:23.000Z</time>
      </trkpt>
      <trkpt lat="43.2962970" lon="-3.7041220">
        <time>2015-04-26T13:04:25.000Z</time>
      </trkpt>
      <trkpt lat="43.2961280" lon="-3.7040020">
        <time>2015-04-26T13:04:27.000Z</time>
      </trkpt>
      <trkpt lat="43.2960600" lon="-3.7038900">
        <time>2015-04-26T13:04:28.000Z</time>
      </trkpt>
      <trkpt lat="43.2959070" lon="-3.7038060">
        <time>2015-04-26T13:04:30.000Z</time>
      </trkpt>
      <trkpt lat="43.2958040" lon="-3.7037320">
        <time>2015-04-26T13:04:32.000Z</time>
      </trkpt>
      <trkpt lat="43.2957070" lon="-3.7036990">
        <time>2015-04-26T13:04:34.000Z</time>
      </trkpt>
      <trkpt lat="43.2955620" lon="-3.7036660">
        <time>2015-04-26T13:04:36.000Z</time>
      </trkpt>
      <trkpt lat="43.2954820" lon="-3.7036090">
        <time>2015-04-26T13:04:38.000Z</time>
      </trkpt>
      <trkpt lat="43.2952800" lon="-3.7035560">
        <time>2015-04-26T13:04:40.000Z</time>
      </trkpt>
      <trkpt lat="43.2951720" lon="-3.7035710">
        <time>2015-04-26T13:04:42.000Z</time>
      </trkpt>
      <trkpt lat="43.2950550" lon="-3.7035300">
        <time>2015-04-26T13:04:44.000Z</time>
      </trkpt>
      <trkpt lat="43.2950150" lon="-3.7033600">
        <time>2015-04-26T13:04:45.000Z</time>
      </trkpt>
      <trkpt lat="43.2949670" lon="-3.7032350">
        <time>2015-04-26T13:04:46.000Z</time>
      </trkpt>
      <trkpt lat="43.2949720" lon="-3.7031020">
        <time>2015-04-26T13:04:47.000Z</time>
      </trkpt>
      <trkpt lat="43.2948740" lon="-3.7029450">
        <time>2015-04-26T13:04:49.000Z</time>
      </trkpt>
      <trkpt lat="43.2948370" lon="-3.7027990">
        <time>2015-04-26T13:04:52.000Z</time>
      </trkpt>
      <trkpt lat="43.2948510" lon="-3.7025730">
        <time>2015-04-26T13:04:54.000Z</time>
      </trkpt>
      <trkpt lat="43.2946980" lon="-3.7025160">
        <time>2015-04-26T13:04:55.000Z</time>
      </trkpt>
      <trkpt lat="43.2946100" lon="-3.7024420">
        <time>2015-04-26T13:04:57.000Z</time>
      </trkpt>
      <trkpt lat="43.2945490" lon="-3.7023280">
        <time>2015-04-26T13:05:04.000Z</time>
      </trkpt>
      <trkpt lat="43.2945760" lon="-3.7023920">
        <time>2015-04-26T13:20:30.000Z</time>
      </trkpt>
      <trkpt lat="43.2945240" lon="-3.7022810">
        <time>2015-04-26T13:20:32.000Z</time>
      </trkpt>
      <trkpt lat="43.2944710" lon="-3.7021650">
        <time>2015-04-26T13:20:34.000Z</time>
      </trkpt>
      <trkpt lat="43.2944230" lon="-3.7020520">
        <time>2015-04-26T13:20:36.000Z</time>
      </trkpt>
      <trkpt lat="43.2943420" lon="-3.7019100">
        <time>2015-04-26T13:20:39.000Z</time>
      </trkpt>
      <trkpt lat="43.2942460" lon="-3.7018210">
        <time>2015-04-26T13:20:42.000Z</time>
      </trkpt>
      <trkpt lat="43.2941430" lon="-3.7017470">
        <time>2015-04-26T13:20:45.000Z</time>
      </trkpt>
      <trkpt lat="43.2941580" lon="-3.7015520">
        <ele>176.984009</ele>
        <time>2019-08-25T10:42:28.000Z</time>
      </trkpt>
      <trkpt lat="43.2942100" lon="-3.7014610">
        <ele>175.986008</ele>
        <time>2019-08-25T10:42:30.000Z</time>
      </trkpt>
      <trkpt lat="43.2943470" lon="-3.7013740">
        <ele>173.243011</ele>
        <time>2019-08-25T10:42:32.000Z</time>
      </trkpt>
      <trkpt lat="43.2945310" lon="-3.7012520">
        <ele>172.582001</ele>
        <time>2019-08-25T10:42:34.000Z</time>
      </trkpt>
      <trkpt lat="43.2947330" lon="-3.7011460">
        <ele>170.243011</ele>
        <time>2019-08-25T10:42:36.000Z</time>
      </trkpt>
      <trkpt lat="43.2949160" lon="-3.7010650">
        <ele>168.416992</ele>
        <time>2019-08-25T10:42:38.000Z</time>
      </trkpt>
      <trkpt lat="43.2950720" lon="-3.7009990">
        <ele>167.407990</ele>
        <time>2019-08-25T10:42:40.000Z</time>
      </trkpt>
      <trkpt lat="43.2951930" lon="-3.7009120">
        <ele>167.832001</ele>
        <time>2019-08-25T10:42:42.000Z</time>
      </trkpt>
      <trkpt lat="43.2951840" lon="-3.7009100">
        <ele>165.341003</ele>
        <time>2019-08-25T10:43:00.000Z</time>
      </trkpt>
      <trkpt lat="43.2951190" lon="-3.7008780">
        <ele>165.267990</ele>
        <time>2019-08-25T10:43:02.000Z</time>
      </trkpt>
      <trkpt lat="43.2950850" lon="-3.7007910">
        <ele>166.091995</ele>
        <time>2019-08-25T10:43:04.000Z</time>
      </trkpt>
      <trkpt lat="43.2950530" lon="-3.7006990">
        <ele>166.473007</ele>
        <time>2019-08-25T10:43:06.000Z</time>
      </trkpt>
      <trkpt lat="43.2950360" lon="-3.7005960">
        <ele>166.620010</ele>
        <time>2019-08-25T10:43:08.000Z</time>
      </trkpt>
      <trkpt lat="43.2950530" lon="-3.7004900">
        <ele>167.508011</ele>
        <time>2019-08-25T10:43:10.000Z</time>
      </trkpt>
      <trkpt lat="43.2950920" lon="-3.7004170">
        <ele>167.942993</ele>
        <time>2019-08-25T10:43:12.000Z</time>
      </trkpt>
      <trkpt lat="43.2951430" lon="-3.7003720">
        <ele>168.029007</ele>
        <time>2019-08-25T10:43:14.000Z</time>
      </trkpt>
      <trkpt lat="43.2952130" lon="-3.7003450">
        <ele>168.752991</ele>
        <time>2019-08-25T10:43:16.000Z</time>
      </trkpt>
      <trkpt lat="43.2952730" lon="-3.7003450">
        <ele>168.854996</ele>
        <time>2019-08-25T10:43:18.000Z</time>
      </trkpt>
      <trkpt lat="43.2953260" lon="-3.7003270">
        <ele>168.838989</ele>
        <time>2019-08-25T10:43:20.000Z</time>
      </trkpt>
      <trkpt lat="43.2953710" lon="-3.7002670">
        <ele>169.759995</ele>
        <time>2019-08-25T10:43:22.000Z</time>
      </trkpt>
      <trkpt lat="43.2954060" lon="-3.7002060">
        <ele>170.491989</ele>
        <time>2019-08-25T10:43:24.000Z</time>
      </trkpt>
      <trkpt lat="43.2954260" lon="-3.7001390">
        <ele>170.929016</ele>
        <time>2019-08-25T10:43:26.000Z</time>
      </trkpt>
      <trkpt lat="43.2954370" lon="-3.7000630">
        <ele>171.245987</ele>
        <time>2019-08-25T10:43:28.000Z</time>
      </trkpt>
      <trkpt lat="43.2954550" lon="-3.6999940">
        <ele>171.388000</ele>
        <time>2019-08-25T10:43:30.000Z</time>
      </trkpt>
      <trkpt lat="43.2954720" lon="-3.6999370">
        <ele>172.315994</ele>
        <time>2019-08-25T10:43:32.000Z</time>
      </trkpt>
      <trkpt lat="43.2955010" lon="-3.6998680">
        <ele>172.307999</ele>
        <time>2019-08-25T10:43:35.000Z</time>
      </trkpt>
      <trkpt lat="43.2955550" lon="-3.6998460">
        <ele>173.417984</ele>
        <time>2019-08-25T10:43:39.000Z</time>
      </trkpt>
      <trkpt lat="43.2956060" lon="-3.6998630">
        <ele>175.093994</ele>
        <time>2019-08-25T10:43:43.000Z</time>
      </trkpt>
      <trkpt lat="43.2956490" lon="-3.6999070">
        <ele>173.667999</ele>
        <time>2019-08-25T10:43:47.000Z</time>
      </trkpt>
      <trkpt lat="43.2956960" lon="-3.6999280">
        <ele>172.590012</ele>
        <time>2019-08-25T10:43:51.000Z</time>
      </trkpt>
      <trkpt lat="43.2957430" lon="-3.6999290">
        <ele>172.414001</ele>
        <time>2019-08-25T10:43:55.000Z</time>
      </trkpt>
      <trkpt lat="43.2957960" lon="-3.6999290">
        <ele>176.285004</ele>
        <time>2019-08-25T10:44:14.000Z</time>
      </trkpt>
      <trkpt lat="43.2958350" lon="-3.6998880">
        <ele>176.887009</ele>
        <time>2019-08-25T10:44:21.000Z</time>
      </trkpt>
      <trkpt lat="43.2958760" lon="-3.6998620">
        <ele>177.864014</ele>
        <time>2019-08-25T10:44:29.000Z</time>
      </trkpt>
      <trkpt lat="43.2959210" lon="-3.6998250">
        <ele>179.282990</ele>
        <time>2019-08-25T10:44:33.000Z</time>
      </trkpt>
      <trkpt lat="43.2959640" lon="-3.6997960">
        <ele>180.524994</ele>
        <time>2019-08-25T10:44:38.000Z</time>
      </trkpt>
      <trkpt lat="43.2960080" lon="-3.6997650">
        <ele>181.617004</ele>
        <time>2019-08-25T10:44:43.000Z</time>
      </trkpt>
      <trkpt lat="43.2960490" lon="-3.6997370">
        <ele>181.807983</ele>
        <time>2019-08-25T10:44:48.000Z</time>
      </trkpt>
      <trkpt lat="43.2961000" lon="-3.6997060">
        <ele>182.582016</ele>
        <time>2019-08-25T10:44:53.000Z</time>
      </trkpt>
      <trkpt lat="43.2961460" lon="-3.6996590">
        <ele>183.078003</ele>
        <time>2019-08-25T10:44:58.000Z</time>
      </trkpt>
      <trkpt lat="43.2961800" lon="-3.6996080">
        <ele>183.392014</ele>
        <time>2019-08-25T10:45:03.000Z</time>
      </trkpt>
      <trkpt lat="43.2962040" lon="-3.6995560">
        <ele>183.953995</ele>
        <time>2019-08-25T10:45:08.000Z</time>
      </trkpt>
      <trkpt lat="43.2962300" lon="-3.6995040">
        <ele>183.957993</ele>
        <time>2019-08-25T10:45:13.000Z</time>
      </trkpt>
      <trkpt lat="43.2962670" lon="-3.6994670">
        <ele>184.679001</ele>
        <time>2019-08-25T10:45:18.000Z</time>
      </trkpt>
      <trkpt lat="43.2962970" lon="-3.6994050">
        <ele>185.610992</ele>
        <time>2019-08-25T10:45:23.000Z</time>
      </trkpt>
      <trkpt lat="43.2963210" lon="-3.6993530">
        <ele>185.628006</ele>
        <time>2019-08-25T10:45:28.000Z</time>
      </trkpt>
      <trkpt lat="43.2963460" lon="-3.6992970">
        <ele>186.485001</ele>
        <time>2019-08-25T10:45:33.000Z</time>
      </trkpt>
      <trkpt lat="43.2963650" lon="-3.6992310">
        <ele>187.289001</ele>
        <time>2019-08-25T10:45:38.000Z</time>
      </trkpt>
      <trkpt lat="43.2963840" lon="-3.6991660">
        <ele>187.317001</ele>
        <time>2019-08-25T10:45:43.000Z</time>
      </trkpt>
      <trkpt lat="43.2964050" lon="-3.6991010">
        <ele>188.707993</ele>
        <time>2019-08-25T10:45:58.000Z</time>
      </trkpt>
      <trkpt lat="43.2964460" lon="-3.6990750">
        <ele>189.462006</ele>
        <time>2019-08-25T10:46:03.000Z</time>
      </trkpt>
      <trkpt lat="43.2964900" lon="-3.6991090">
        <ele>189.968002</ele>
        <time>2019-08-25T10:46:08.000Z</time>
      </trkpt>
      <trkpt lat="43.2965380" lon="-3.6991500">
        <ele>190.341995</ele>
        <time>2019-08-25T10:46:14.000Z</time>
      </trkpt>
      <trkpt lat="43.2965780" lon="-3.6991790">
        <ele>191.024002</ele>
        <time>2019-08-25T10:46:18.000Z</time>
      </trkpt>
      <trkpt lat="43.2966300" lon="-3.6992100">
        <ele>192.798004</ele>
        <time>2019-08-25T10:46:28.000Z</time>
      </trkpt>
      <trkpt lat="43.2966710" lon="-3.6992560">
        <ele>193.128998</ele>
        <time>2019-08-25T10:46:34.000Z</time>
      </trkpt>
      <trkpt lat="43.2967000" lon="-3.6991950">
        <ele>195.410995</ele>
        <time>2019-08-25T10:46:57.000Z</time>
      </trkpt>
      <trkpt lat="43.2966890" lon="-3.6991340">
        <ele>196.647995</ele>
        <time>2019-08-25T10:47:01.000Z</time>
      </trkpt>
      <trkpt lat="43.2966740" lon="-3.6990680">
        <ele>197.649002</ele>
        <time>2019-08-25T10:47:06.000Z</time>
      </trkpt>
      <trkpt lat="43.2966810" lon="-3.6990070">
        <ele>198.302002</ele>
        <time>2019-08-25T10:47:10.000Z</time>
      </trkpt>
      <trkpt lat="43.2966850" lon="-3.6989370">
        <ele>200.121994</ele>
        <time>2019-08-25T10:47:15.000Z</time>
      </trkpt>
      <trkpt lat="43.2967030" lon="-3.6988720">
        <ele>201.207993</ele>
        <time>2019-08-25T10:47:20.000Z</time>
      </trkpt>
      <trkpt lat="43.2967270" lon="-3.6988180">
        <ele>201.828003</ele>
        <time>2019-08-25T10:47:24.000Z</time>
      </trkpt>
      <trkpt lat="43.2967540" lon="-3.6987650">
        <ele>202.473999</ele>
        <time>2019-08-25T10:47:28.000Z</time>
      </trkpt>
      <trkpt lat="43.2967790" lon="-3.6987080">
        <ele>203.347992</ele>
        <time>2019-08-25T10:47:32.000Z</time>
      </trkpt>
      <trkpt lat="43.2968020" lon="-3.6986520">
        <ele>204.050003</ele>
        <time>2019-08-25T10:47:36.000Z</time>
      </trkpt>
      <trkpt lat="43.2968170" lon="-3.6985800">
        <ele>204.854004</ele>
        <time>2019-08-25T10:47:41.000Z</time>
      </trkpt>
      <trkpt lat="43.2968350" lon="-3.6985120">
        <ele>205.924988</ele>
        <time>2019-08-25T10:47:46.000Z</time>
      </trkpt>
      <trkpt lat="43.2968530" lon="-3.6984460">
        <ele>208.257004</ele>
        <time>2019-08-25T10:47:58.000Z</time>
      </trkpt>
      <trkpt lat="43.2968720" lon="-3.6983870">
        <ele>209.864014</ele>
        <time>2019-08-25T10:48:03.000Z</time>
      </trkpt>
      <trkpt lat="43.2968940" lon="-3.6983260">
        <ele>210.812988</ele>
        <time>2019-08-25T10:48:08.000Z</time>
      </trkpt>
      <trkpt lat="43.2969260" lon="-3.6982720">
        <ele>214.042984</ele>
        <time>2019-08-25T10:48:13.000Z</time>
      </trkpt>
      <trkpt lat="43.2969660" lon="-3.6982220">
        <ele>216.406998</ele>
        <time>2019-08-25T10:48:19.000Z</time>
      </trkpt>
      <trkpt lat="43.2970010" lon="-3.6981750">
        <ele>216.708008</ele>
        <time>2019-08-25T10:48:24.000Z</time>
      </trkpt>
      <trkpt lat="43.2970220" lon="-3.6981160">
        <ele>219.725006</ele>
        <time>2019-08-25T10:48:29.000Z</time>
      </trkpt>
      <trkpt lat="43.2970260" lon="-3.6980520">
        <ele>221.691010</ele>
        <time>2019-08-25T10:48:35.000Z</time>
      </trkpt>
      <trkpt lat="43.2970330" lon="-3.6979880">
        <ele>221.554993</ele>
        <time>2019-08-25T10:48:40.000Z</time>
      </trkpt>
      <trkpt lat="43.2970410" lon="-3.6979270">
        <ele>221.617004</ele>
        <time>2019-08-25T10:48:45.000Z</time>
      </trkpt>
      <trkpt lat="43.2970630" lon="-3.6978650">
        <ele>222.911011</ele>
        <time>2019-08-25T10:48:52.000Z</time>
      </trkpt>
      <trkpt lat="43.2970860" lon="-3.6978080">
        <ele>225.132004</ele>
        <time>2019-08-25T10:49:00.000Z</time>
      </trkpt>
      <trkpt lat="43.2971300" lon="-3.6977730">
        <ele>227.664001</ele>
        <time>2019-08-25T10:49:08.000Z</time>
      </trkpt>
      <trkpt lat="43.2971600" lon="-3.6977130">
        <ele>230.211014</ele>
        <time>2019-08-25T10:49:16.000Z</time>
      </trkpt>
      <trkpt lat="43.2971860" lon="-3.6976590">
        <ele>230.717010</ele>
        <time>2019-08-25T10:49:21.000Z</time>
      </trkpt>
      <trkpt lat="43.2972320" lon="-3.6976350">
        <ele>232.487000</ele>
        <time>2019-08-25T10:49:38.000Z</time>
      </trkpt>
      <trkpt lat="43.2972470" lon="-3.6976940">
        <ele>234.215012</ele>
        <time>2019-08-25T10:49:43.000Z</time>
      </trkpt>
      <trkpt lat="43.2972610" lon="-3.6977630">
        <ele>237.008011</ele>
        <time>2019-08-25T10:49:48.000Z</time>
      </trkpt>
      <trkpt lat="43.2972730" lon="-3.6978260">
        <ele>237.595001</ele>
        <time>2019-08-25T10:49:53.000Z</time>
      </trkpt>
      <trkpt lat="43.2973080" lon="-3.6978750">
        <ele>239.180984</ele>
        <time>2019-08-25T10:49:59.000Z</time>
      </trkpt>
      <trkpt lat="43.2973380" lon="-3.6978290">
        <ele>240.845001</ele>
        <time>2019-08-25T10:50:07.000Z</time>
      </trkpt>
      <trkpt lat="43.2973650" lon="-3.6977750">
        <ele>242.097000</ele>
        <time>2019-08-25T10:50:13.000Z</time>
      </trkpt>
      <trkpt lat="43.2973990" lon="-3.6977310">
        <ele>242.350998</ele>
        <time>2019-08-25T10:50:19.000Z</time>
      </trkpt>
      <trkpt lat="43.2974220" lon="-3.6976760">
        <ele>242.522003</ele>
        <time>2019-08-25T10:50:24.000Z</time>
      </trkpt>
      <trkpt lat="43.2974620" lon="-3.6976420">
        <ele>243.634003</ele>
        <time>2019-08-25T10:50:31.000Z</time>
      </trkpt>
      <trkpt lat="43.2974970" lon="-3.6976010">
        <ele>242.440994</ele>
        <time>2019-08-25T10:50:39.000Z</time>
      </trkpt>
      <trkpt lat="43.2975190" lon="-3.6975460">
        <ele>243.619003</ele>
        <time>2019-08-25T10:50:46.000Z</time>
      </trkpt>
      <trkpt lat="43.2975560" lon="-3.6974960">
        <ele>244.608994</ele>
        <time>2019-08-25T10:51:02.000Z</time>
      </trkpt>
      <trkpt lat="43.2975860" lon="-3.6974480">
        <ele>245.118988</ele>
        <time>2019-08-25T10:51:08.000Z</time>
      </trkpt>
      <trkpt lat="43.2976230" lon="-3.6973980">
        <ele>248.507996</ele>
        <time>2019-08-25T10:51:15.000Z</time>
      </trkpt>
      <trkpt lat="43.2976550" lon="-3.6973500">
        <ele>249.755005</ele>
        <time>2019-08-25T10:51:20.000Z</time>
      </trkpt>
      <trkpt lat="43.2976780" lon="-3.6972950">
        <ele>250.590988</ele>
        <time>2019-08-25T10:51:27.000Z</time>
      </trkpt>
      <trkpt lat="43.2976990" lon="-3.6972380">
        <ele>251.465012</ele>
        <time>2019-08-25T10:51:33.000Z</time>
      </trkpt>
      <trkpt lat="43.2977270" lon="-3.6971860">
        <ele>252.317001</ele>
        <time>2019-08-25T10:51:38.000Z</time>
      </trkpt>
      <trkpt lat="43.2977540" lon="-3.6971300">
        <ele>253.160995</ele>
        <time>2019-08-25T10:51:43.000Z</time>
      </trkpt>
      <trkpt lat="43.2977770" lon="-3.6970640">
        <ele>259.821991</ele>
        <time>2019-08-25T10:52:08.000Z</time>
      </trkpt>
      <trkpt lat="43.2978100" lon="-3.6970080">
        <ele>260.454010</ele>
        <time>2019-08-25T10:52:12.000Z</time>
      </trkpt>
      <trkpt lat="43.2978280" lon="-3.6969500">
        <ele>260.411011</ele>
        <time>2019-08-25T10:52:16.000Z</time>
      </trkpt>
      <trkpt lat="43.2978520" lon="-3.6968970">
        <ele>260.312012</ele>
        <time>2019-08-25T10:52:20.000Z</time>
      </trkpt>
      <trkpt lat="43.2978630" lon="-3.6968310">
        <ele>261.631989</ele>
        <time>2019-08-25T10:52:24.000Z</time>
      </trkpt>
      <trkpt lat="43.2978860" lon="-3.6967700">
        <ele>263.704987</ele>
        <time>2019-08-25T10:52:28.000Z</time>
      </trkpt>
      <trkpt lat="43.2979140" lon="-3.6967200">
        <ele>264.407990</ele>
        <time>2019-08-25T10:52:32.000Z</time>
      </trkpt>
      <trkpt lat="43.2979490" lon="-3.6966560">
        <ele>265.084991</ele>
        <time>2019-08-25T10:52:37.000Z</time>
      </trkpt>
      <trkpt lat="43.2979750" lon="-3.6966040">
        <ele>265.811005</ele>
        <time>2019-08-25T10:52:40.000Z</time>
      </trkpt>
      <trkpt lat="43.2980180" lon="-3.6965580">
        <ele>267.964996</ele>
        <time>2019-08-25T10:52:45.000Z</time>
      </trkpt>
      <trkpt lat="43.2980430" lon="-3.6964950">
        <ele>268.497009</ele>
        <time>2019-08-25T10:52:49.000Z</time>
      </trkpt>
      <trkpt lat="43.2980580" lon="-3.6964280">
        <ele>268.920990</ele>
        <time>2019-08-25T10:52:53.000Z</time>
      </trkpt>
      <trkpt lat="43.2980990" lon="-3.6963880">
        <ele>271.851990</ele>
        <time>2019-08-25T10:53:23.000Z</time>
      </trkpt>
      <trkpt lat="43.2981380" lon="-3.6963340">
        <ele>272.863983</ele>
        <time>2019-08-25T10:53:29.000Z</time>
      </trkpt>
      <trkpt lat="43.2981630" lon="-3.6962800">
        <ele>272.481018</ele>
        <time>2019-08-25T10:53:34.000Z</time>
      </trkpt>
      <trkpt lat="43.2982020" lon="-3.6962290">
        <ele>272.634003</ele>
        <time>2019-08-25T10:53:39.000Z</time>
      </trkpt>
      <trkpt lat="43.2982370" lon="-3.6961850">
        <ele>272.255005</ele>
        <time>2019-08-25T10:53:44.000Z</time>
      </trkpt>
      <trkpt lat="43.2982770" lon="-3.6961410">
        <ele>272.809998</ele>
        <time>2019-08-25T10:53:50.000Z</time>
      </trkpt>
      <trkpt lat="43.2983090" lon="-3.6960960">
        <ele>273.708008</ele>
        <time>2019-08-25T10:53:54.000Z</time>
      </trkpt>
      <trkpt lat="43.2983530" lon="-3.6960700">
        <ele>274.467010</ele>
        <time>2019-08-25T10:54:01.000Z</time>
      </trkpt>
      <trkpt lat="43.2983890" lon="-3.6960310">
        <ele>274.013000</ele>
        <time>2019-08-25T10:54:07.000Z</time>
      </trkpt>
      <trkpt lat="43.2984270" lon="-3.6959850">
        <ele>273.927002</ele>
        <time>2019-08-25T10:54:13.000Z</time>
      </trkpt>
      <trkpt lat="43.2984660" lon="-3.6959470">
        <ele>274.269012</ele>
        <time>2019-08-25T10:54:19.000Z</time>
      </trkpt>
      <trkpt lat="43.2984870" lon="-3.6958810">
        <ele>276.942993</ele>
        <time>2019-08-25T10:54:25.000Z</time>
      </trkpt>
      <trkpt lat="43.2985150" lon="-3.6958240">
        <ele>276.964020</ele>
        <time>2019-08-25T10:54:33.000Z</time>
      </trkpt>
      <trkpt lat="43.2985540" lon="-3.6957860">
        <ele>276.455994</ele>
        <time>2019-08-25T10:54:38.000Z</time>
      </trkpt>
      <trkpt lat="43.2985870" lon="-3.6957360">
        <ele>277.023010</ele>
        <time>2019-08-25T10:54:44.000Z</time>
      </trkpt>
      <trkpt lat="43.2986110" lon="-3.6956810">
        <ele>276.815002</ele>
        <time>2019-08-25T10:54:49.000Z</time>
      </trkpt>
      <trkpt lat="43.2986490" lon="-3.6956320">
        <ele>280.464996</ele>
        <time>2019-08-25T10:54:55.000Z</time>
      </trkpt>
      <trkpt lat="43.2986620" lon="-3.6955640">
        <ele>282.710999</ele>
        <time>2019-08-25T10:55:00.000Z</time>
      </trkpt>
      <trkpt lat="43.2986740" lon="-3.6955020">
        <ele>281.708008</ele>
        <time>2019-08-25T10:55:05.000Z</time>
      </trkpt>
      <trkpt lat="43.2986740" lon="-3.6954190">
        <ele>279.255005</ele>
        <time>2019-08-25T10:55:42.000Z</time>
      </trkpt>
      <trkpt lat="43.2986780" lon="-3.6953440">
        <ele>281.411011</ele>
        <time>2019-08-25T10:55:45.000Z</time>
      </trkpt>
      <trkpt lat="43.2986770" lon="-3.6952740">
        <ele>281.424988</ele>
        <time>2019-08-25T10:55:48.000Z</time>
      </trkpt>
      <trkpt lat="43.2986810" lon="-3.6952120">
        <ele>281.286987</ele>
        <time>2019-08-25T10:55:51.000Z</time>
      </trkpt>
      <trkpt lat="43.2986860" lon="-3.6951340">
        <ele>282.210999</ele>
        <time>2019-08-25T10:55:55.000Z</time>
      </trkpt>
      <trkpt lat="43.2986870" lon="-3.6950680">
        <ele>282.511993</ele>
        <time>2019-08-25T10:55:58.000Z</time>
      </trkpt>
      <trkpt lat="43.2986850" lon="-3.6949910">
        <ele>285.033997</ele>
        <time>2019-08-25T10:56:02.000Z</time>
      </trkpt>
      <trkpt lat="43.2987020" lon="-3.6949200">
        <ele>285.980988</ele>
        <time>2019-08-25T10:56:06.000Z</time>
      </trkpt>
      <trkpt lat="43.2987230" lon="-3.6948510">
        <ele>286.338013</ele>
        <time>2019-08-25T10:56:10.000Z</time>
      </trkpt>
      <trkpt lat="43.2987320" lon="-3.6947770">
        <ele>285.769989</ele>
        <time>2019-08-25T10:56:14.000Z</time>
      </trkpt>
      <trkpt lat="43.2987450" lon="-3.6947070">
        <ele>286.416992</ele>
        <time>2019-08-25T10:56:18.000Z</time>
      </trkpt>
      <trkpt lat="43.2987490" lon="-3.6946360">
        <ele>286.507996</ele>
        <time>2019-08-25T10:56:22.000Z</time>
      </trkpt>
      <trkpt lat="43.2987550" lon="-3.6945720">
        <ele>287.247009</ele>
        <time>2019-08-25T10:56:26.000Z</time>
      </trkpt>
      <trkpt lat="43.2987630" lon="-3.6945050">
        <ele>289.152985</ele>
        <time>2019-08-25T10:56:30.000Z</time>
      </trkpt>
      <trkpt lat="43.2987720" lon="-3.6944310">
        <ele>289.817017</ele>
        <time>2019-08-25T10:56:34.000Z</time>
      </trkpt>
      <trkpt lat="43.2987780" lon="-3.6943530">
        <ele>290.648987</ele>
        <time>2019-08-25T10:56:38.000Z</time>
      </trkpt>
      <trkpt lat="43.2987840" lon="-3.6942810">
        <ele>292.492981</ele>
        <time>2019-08-25T10:56:42.000Z</time>
      </trkpt>
      <trkpt lat="43.2987980" lon="-3.6942110">
        <ele>294.644012</ele>
        <time>2019-08-25T10:56:46.000Z</time>
      </trkpt>
      <trkpt lat="43.2988050" lon="-3.6941390">
        <ele>296.545990</ele>
        <time>2019-08-25T10:56:50.000Z</time>
      </trkpt>
      <trkpt lat="43.2988130" lon="-3.6940630">
        <ele>299.313019</ele>
        <time>2019-08-25T10:56:54.000Z</time>
      </trkpt>
      <trkpt lat="43.2988240" lon="-3.6939870">
        <ele>300.273010</ele>
        <time>2019-08-25T10:56:58.000Z</time>
      </trkpt>
      <trkpt lat="43.2988280" lon="-3.6939120">
        <ele>300.485016</ele>
        <time>2019-08-25T10:57:03.000Z</time>
      </trkpt>
      <trkpt lat="43.2988390" lon="-3.6938420">
        <ele>301.912994</ele>
        <time>2019-08-25T10:57:21.000Z</time>
      </trkpt>
      <trkpt lat="43.2988470" lon="-3.6937750">
        <ele>303.507996</ele>
        <time>2019-08-25T10:57:26.000Z</time>
      </trkpt>
      <trkpt lat="43.2988540" lon="-3.6937070">
        <ele>304.660980</ele>
        <time>2019-08-25T10:57:32.000Z</time>
      </trkpt>
      <trkpt lat="43.2988610" lon="-3.6936360">
        <ele>306.147003</ele>
        <time>2019-08-25T10:57:38.000Z</time>
      </trkpt>
      <trkpt lat="43.2988580" lon="-3.6935680">
        <ele>308.190979</ele>
        <time>2019-08-25T10:57:44.000Z</time>
      </trkpt>
      <trkpt lat="43.2988570" lon="-3.6935060">
        <ele>309.933014</ele>
        <time>2019-08-25T10:57:50.000Z</time>
      </trkpt>
      <trkpt lat="43.2988580" lon="-3.6934390">
        <ele>309.416992</ele>
        <time>2019-08-25T10:57:55.000Z</time>
      </trkpt>
      <trkpt lat="43.2988580" lon="-3.6933770">
        <ele>310.877991</ele>
        <time>2019-08-25T10:58:00.000Z</time>
      </trkpt>
      <trkpt lat="43.2988650" lon="-3.6933120">
        <ele>311.049988</ele>
        <time>2019-08-25T10:58:06.000Z</time>
      </trkpt>
      <trkpt lat="43.2988840" lon="-3.6932500">
        <ele>311.376984</ele>
        <time>2019-08-25T10:58:12.000Z</time>
      </trkpt>
      <trkpt lat="43.2989110" lon="-3.6931950">
        <ele>310.791992</ele>
        <time>2019-08-25T10:58:19.000Z</time>
      </trkpt>
      <trkpt lat="43.2989410" lon="-3.6931360">
        <ele>312.772980</ele>
        <time>2019-08-25T10:58:26.000Z</time>
      </trkpt>
      <trkpt lat="43.2989650" lon="-3.6930820">
        <ele>315.319977</ele>
        <time>2019-08-25T10:58:32.000Z</time>
      </trkpt>
      <trkpt lat="43.2989870" lon="-3.6930180">
        <ele>315.608002</ele>
        <time>2019-08-25T10:58:39.000Z</time>
      </trkpt>
      <trkpt lat="43.2990140" lon="-3.6929630">
        <ele>316.282990</ele>
        <time>2019-08-25T10:58:46.000Z</time>
      </trkpt>
      <trkpt lat="43.2990450" lon="-3.6929100">
        <ele>317.458984</ele>
        <time>2019-08-25T10:58:52.000Z</time>
      </trkpt>
      <trkpt lat="43.2990770" lon="-3.6928520">
        <ele>318.772980</ele>
        <time>2019-08-25T10:58:58.000Z</time>
      </trkpt>
      <trkpt lat="43.2991010" lon="-3.6927980">
        <ele>320.354980</ele>
        <time>2019-08-25T10:59:03.000Z</time>
      </trkpt>
      <trkpt lat="43.2991310" lon="-3.6927370">
        <ele>320.659027</ele>
        <time>2019-08-25T10:59:09.000Z</time>
      </trkpt>
      <trkpt lat="43.2991420" lon="-3.6926770">
        <ele>320.230011</ele>
        <time>2019-08-25T10:59:14.000Z</time>
      </trkpt>
      <trkpt lat="43.2991610" lon="-3.6926140">
        <ele>319.912018</ele>
        <time>2019-08-25T10:59:19.000Z</time>
      </trkpt>
      <trkpt lat="43.2991720" lon="-3.6925510">
        <ele>320.229004</ele>
        <time>2019-08-25T10:59:24.000Z</time>
      </trkpt>
      <trkpt lat="43.2991780" lon="-3.6924820">
        <ele>320.977997</ele>
        <time>2019-08-25T10:59:30.000Z</time>
      </trkpt>
      <trkpt lat="43.2991950" lon="-3.6924220">
        <ele>321.432983</ele>
        <time>2019-08-25T10:59:35.000Z</time>
      </trkpt>
      <trkpt lat="43.2992210" lon="-3.6923680">
        <ele>321.425995</ele>
        <time>2019-08-25T10:59:40.000Z</time>
      </trkpt>
      <trkpt lat="43.2992390" lon="-3.6923080">
        <ele>322.007996</ele>
        <time>2019-08-25T10:59:45.000Z</time>
      </trkpt>
      <trkpt lat="43.2992560" lon="-3.6922390">
        <ele>322.540985</ele>
        <time>2019-08-25T10:59:50.000Z</time>
      </trkpt>
      <trkpt lat="43.2992770" lon="-3.6921740">
        <ele>323.327026</ele>
        <time>2019-08-25T10:59:55.000Z</time>
      </trkpt>
      <trkpt lat="43.2993060" lon="-3.6921200">
        <ele>324.570984</ele>
        <time>2019-08-25T11:00:03.000Z</time>
      </trkpt>
      <trkpt lat="43.2993160" lon="-3.6920550">
        <ele>326.642975</ele>
        <time>2019-08-25T11:00:09.000Z</time>
      </trkpt>
      <trkpt lat="43.2993320" lon="-3.6919930">
        <ele>327.687012</ele>
        <time>2019-08-25T11:00:15.000Z</time>
      </trkpt>
      <trkpt lat="43.2993400" lon="-3.6919290">
        <ele>329.837982</ele>
        <time>2019-08-25T11:00:20.000Z</time>
      </trkpt>
      <trkpt lat="43.2993520" lon="-3.6918610">
        <ele>330.039978</ele>
        <time>2019-08-25T11:00:26.000Z</time>
      </trkpt>
      <trkpt lat="43.2993730" lon="-3.6918020">
        <ele>332.317017</ele>
        <time>2019-08-25T11:00:31.000Z</time>
      </trkpt>
      <trkpt lat="43.2994010" lon="-3.6917370">
        <ele>334.973999</ele>
        <time>2019-08-25T11:00:36.000Z</time>
      </trkpt>
      <trkpt lat="43.2994120" lon="-3.6916740">
        <ele>335.056000</ele>
        <time>2019-08-25T11:00:41.000Z</time>
      </trkpt>
      <trkpt lat="43.2994260" lon="-3.6916060">
        <ele>337.521027</ele>
        <time>2019-08-25T11:00:47.000Z</time>
      </trkpt>
      <trkpt lat="43.2994400" lon="-3.6915450">
        <ele>338.507996</ele>
        <time>2019-08-25T11:00:52.000Z</time>
      </trkpt>
      <trkpt lat="43.2994420" lon="-3.6914810">
        <ele>339.661011</ele>
        <time>2019-08-25T11:00:58.000Z</time>
      </trkpt>
      <trkpt lat="43.2994200" lon="-3.6914240">
        <ele>338.727020</ele>
        <time>2019-08-25T11:01:33.000Z</time>
      </trkpt>
      <trkpt lat="43.2994530" lon="-3.6913730">
        <ele>340.411011</ele>
        <time>2019-08-25T11:01:44.000Z</time>
      </trkpt>
      <trkpt lat="43.2994700" lon="-3.6913130">
        <ele>341.882996</ele>
        <time>2019-08-25T11:01:48.000Z</time>
      </trkpt>
      <trkpt lat="43.2994840" lon="-3.6912530">
        <ele>342.667023</ele>
        <time>2019-08-25T11:01:52.000Z</time>
      </trkpt>
      <trkpt lat="43.2995000" lon="-3.6911830">
        <ele>342.398010</ele>
        <time>2019-08-25T11:01:56.000Z</time>
      </trkpt>
      <trkpt lat="43.2995280" lon="-3.6911260">
        <ele>342.660004</ele>
        <time>2019-08-25T11:02:01.000Z</time>
      </trkpt>
      <trkpt lat="43.2995520" lon="-3.6910600">
        <ele>345.166992</ele>
        <time>2019-08-25T11:02:06.000Z</time>
      </trkpt>
      <trkpt lat="43.2995790" lon="-3.6909960">
        <ele>347.289001</ele>
        <time>2019-08-25T11:02:10.000Z</time>
      </trkpt>
      <trkpt lat="43.2995950" lon="-3.6909300">
        <ele>349.006012</ele>
        <time>2019-08-25T11:02:14.000Z</time>
      </trkpt>
      <trkpt lat="43.2996010" lon="-3.6908610">
        <ele>350.925995</ele>
        <time>2019-08-25T11:02:19.000Z</time>
      </trkpt>
      <trkpt lat="43.2996240" lon="-3.6908000">
        <ele>351.908020</ele>
        <time>2019-08-25T11:02:23.000Z</time>
      </trkpt>
      <trkpt lat="43.2996460" lon="-3.6907390">
        <ele>353.021973</ele>
        <time>2019-08-25T11:02:27.000Z</time>
      </trkpt>
      <trkpt lat="43.2996590" lon="-3.6906750">
        <ele>353.838013</ele>
        <time>2019-08-25T11:02:31.000Z</time>
      </trkpt>
      <trkpt lat="43.2996840" lon="-3.6906060">
        <ele>354.391998</ele>
        <time>2019-08-25T11:02:36.000Z</time>
      </trkpt>
      <trkpt lat="43.2997100" lon="-3.6905520">
        <ele>355.963989</ele>
        <time>2019-08-25T11:02:40.000Z</time>
      </trkpt>
      <trkpt lat="43.2997400" lon="-3.6905000">
        <ele>355.917999</ele>
        <time>2019-08-25T11:02:44.000Z</time>
      </trkpt>
      <trkpt lat="43.2997680" lon="-3.6904500">
        <ele>356.338989</ele>
        <time>2019-08-25T11:02:48.000Z</time>
      </trkpt>
      <trkpt lat="43.2997930" lon="-3.6903820">
        <ele>357.270996</ele>
        <time>2019-08-25T11:02:53.000Z</time>
      </trkpt>
      <trkpt lat="43.2998220" lon="-3.6903150">
        <ele>358.257996</ele>
        <time>2019-08-25T11:02:58.000Z</time>
      </trkpt>
      <trkpt lat="43.2998480" lon="-3.6902640">
        <ele>359.135986</ele>
        <time>2019-08-25T11:03:02.000Z</time>
      </trkpt>
      <trkpt lat="43.2998860" lon="-3.6902120">
        <ele>360.316986</ele>
        <time>2019-08-25T11:03:07.000Z</time>
      </trkpt>
      <trkpt lat="43.2999150" lon="-3.6901630">
        <ele>361.917999</ele>
        <time>2019-08-25T11:03:11.000Z</time>
      </trkpt>
      <trkpt lat="43.2999410" lon="-3.6901030">
        <ele>363.007996</ele>
        <time>2019-08-25T11:03:15.000Z</time>
      </trkpt>
      <trkpt lat="43.2999800" lon="-3.6900570">
        <ele>363.367004</ele>
        <time>2019-08-25T11:03:21.000Z</time>
      </trkpt>
      <trkpt lat="43.3000030" lon="-3.6899880">
        <ele>363.342987</ele>
        <time>2019-08-25T11:03:26.000Z</time>
      </trkpt>
      <trkpt lat="43.3000320" lon="-3.6899220">
        <ele>363.717010</ele>
        <time>2019-08-25T11:03:30.000Z</time>
      </trkpt>
      <trkpt lat="43.3000660" lon="-3.6898690">
        <ele>364.139008</ele>
        <time>2019-08-25T11:03:34.000Z</time>
      </trkpt>
      <trkpt lat="43.3000970" lon="-3.6898150">
        <ele>364.643005</ele>
        <time>2019-08-25T11:03:38.000Z</time>
      </trkpt>
      <trkpt lat="43.3001250" lon="-3.6897520">
        <ele>364.864014</ele>
        <time>2019-08-25T11:03:42.000Z</time>
      </trkpt>
      <trkpt lat="43.3001470" lon="-3.6896920">
        <ele>365.545990</ele>
        <time>2019-08-25T11:03:46.000Z</time>
      </trkpt>
      <trkpt lat="43.3001770" lon="-3.6896430">
        <ele>366.122986</ele>
        <time>2019-08-25T11:03:50.000Z</time>
      </trkpt>
      <trkpt lat="43.3002060" lon="-3.6895940">
        <ele>367.713989</ele>
        <time>2019-08-25T11:03:55.000Z</time>
      </trkpt>
      <trkpt lat="43.3002460" lon="-3.6895480">
        <ele>368.753998</ele>
        <time>2019-08-25T11:04:01.000Z</time>
      </trkpt>
      <trkpt lat="43.3002820" lon="-3.6894940">
        <ele>369.308990</ele>
        <time>2019-08-25T11:04:06.000Z</time>
      </trkpt>
      <trkpt lat="43.3003080" lon="-3.6894400">
        <ele>369.307983</ele>
        <time>2019-08-25T11:04:11.000Z</time>
      </trkpt>
      <trkpt lat="43.3003360" lon="-3.6893880">
        <ele>369.255005</ele>
        <time>2019-08-25T11:04:16.000Z</time>
      </trkpt>
      <trkpt lat="43.3003610" lon="-3.6893270">
        <ele>369.651001</ele>
        <time>2019-08-25T11:04:21.000Z</time>
      </trkpt>
      <trkpt lat="43.3003850" lon="-3.6892650">
        <ele>370.465027</ele>
        <time>2019-08-25T11:04:26.000Z</time>
      </trkpt>
      <trkpt lat="43.3004180" lon="-3.6891980">
        <ele>371.947021</ele>
        <time>2019-08-25T11:04:31.000Z</time>
      </trkpt>
      <trkpt lat="43.3004490" lon="-3.6891420">
        <ele>375.151031</ele>
        <time>2019-08-25T11:04:47.000Z</time>
      </trkpt>
      <trkpt lat="43.3004780" lon="-3.6890890">
        <ele>376.391998</ele>
        <time>2019-08-25T11:04:52.000Z</time>
      </trkpt>
      <trkpt lat="43.3005060" lon="-3.6890390">
        <ele>377.213989</ele>
        <time>2019-08-25T11:04:57.000Z</time>
      </trkpt>
      <trkpt lat="43.3005400" lon="-3.6889960">
        <ele>378.121002</ele>
        <time>2019-08-25T11:05:02.000Z</time>
      </trkpt>
      <trkpt lat="43.3005770" lon="-3.6889560">
        <ele>379.251007</ele>
        <time>2019-08-25T11:05:07.000Z</time>
      </trkpt>
      <trkpt lat="43.3006180" lon="-3.6889230">
        <ele>380.000977</ele>
        <time>2019-08-25T11:05:12.000Z</time>
      </trkpt>
      <trkpt lat="43.3006600" lon="-3.6888860">
        <ele>381.311005</ele>
        <time>2019-08-25T11:05:18.000Z</time>
      </trkpt>
      <trkpt lat="43.3007020" lon="-3.6888500">
        <ele>382.707977</ele>
        <time>2019-08-25T11:05:24.000Z</time>
      </trkpt>
      <trkpt lat="43.3007410" lon="-3.6888060">
        <ele>384.189026</ele>
        <time>2019-08-25T11:05:30.000Z</time>
      </trkpt>
      <trkpt lat="43.3007830" lon="-3.6887770">
        <ele>384.225006</ele>
        <time>2019-08-25T11:05:35.000Z</time>
      </trkpt>
      <trkpt lat="43.3008270" lon="-3.6887410">
        <ele>386.149017</ele>
        <time>2019-08-25T11:05:42.000Z</time>
      </trkpt>
      <trkpt lat="43.3008720" lon="-3.6887050">
        <ele>386.431000</ele>
        <time>2019-08-25T11:05:48.000Z</time>
      </trkpt>
      <trkpt lat="43.3009130" lon="-3.6886690">
        <ele>387.285004</ele>
        <time>2019-08-25T11:05:54.000Z</time>
      </trkpt>
      <trkpt lat="43.3009470" lon="-3.6886200">
        <ele>387.295990</ele>
        <time>2019-08-25T11:06:01.000Z</time>
      </trkpt>
      <trkpt lat="43.3009790" lon="-3.6885700">
        <ele>387.788025</ele>
        <time>2019-08-25T11:06:07.000Z</time>
      </trkpt>
      <trkpt lat="43.3010060" lon="-3.6885180">
        <ele>388.544983</ele>
        <time>2019-08-25T11:06:12.000Z</time>
      </trkpt>
      <trkpt lat="43.3010350" lon="-3.6884630">
        <ele>389.515015</ele>
        <time>2019-08-25T11:06:17.000Z</time>
      </trkpt>
      <trkpt lat="43.3010760" lon="-3.6884250">
        <ele>390.764984</ele>
        <time>2019-08-25T11:06:23.000Z</time>
      </trkpt>
      <trkpt lat="43.3010850" lon="-3.6883620">
        <ele>391.411011</ele>
        <time>2019-08-25T11:06:39.000Z</time>
      </trkpt>
      <trkpt lat="43.3011180" lon="-3.6883090">
        <ele>392.408020</ele>
        <time>2019-08-25T11:06:44.000Z</time>
      </trkpt>
      <trkpt lat="43.3011470" lon="-3.6882490">
        <ele>393.674988</ele>
        <time>2019-08-25T11:06:50.000Z</time>
      </trkpt>
      <trkpt lat="43.3011730" lon="-3.6881960">
        <ele>394.520996</ele>
        <time>2019-08-25T11:06:55.000Z</time>
      </trkpt>
      <trkpt lat="43.3012030" lon="-3.6881380">
        <ele>396.095001</ele>
        <time>2019-08-25T11:07:00.000Z</time>
      </trkpt>
      <trkpt lat="43.3012240" lon="-3.6880770">
        <ele>396.337006</ele>
        <time>2019-08-25T11:07:05.000Z</time>
      </trkpt>
      <trkpt lat="43.3012410" lon="-3.6880180">
        <ele>397.290985</ele>
        <time>2019-08-25T11:07:10.000Z</time>
      </trkpt>
      <trkpt lat="43.3012530" lon="-3.6879450">
        <ele>397.682007</ele>
        <time>2019-08-25T11:07:15.000Z</time>
      </trkpt>
      <trkpt lat="43.3012630" lon="-3.6878800">
        <ele>397.544006</ele>
        <time>2019-08-25T11:07:20.000Z</time>
      </trkpt>
      <trkpt lat="43.3012720" lon="-3.6878150">
        <ele>398.861023</ele>
        <time>2019-08-25T11:07:33.000Z</time>
      </trkpt>
      <trkpt lat="43.3012900" lon="-3.6877510">
        <ele>399.238007</ele>
        <time>2019-08-25T11:07:37.000Z</time>
      </trkpt>
      <trkpt lat="43.3013120" lon="-3.6876930">
        <ele>400.169983</ele>
        <time>2019-08-25T11:07:41.000Z</time>
      </trkpt>
      <trkpt lat="43.3013390" lon="-3.6876280">
        <ele>400.717010</ele>
        <time>2019-08-25T11:07:46.000Z</time>
      </trkpt>
      <trkpt lat="43.3013580" lon="-3.6875700">
        <ele>401.807983</ele>
        <time>2019-08-25T11:07:50.000Z</time>
      </trkpt>
      <trkpt lat="43.3013790" lon="-3.6875140">
        <ele>402.267029</ele>
        <time>2019-08-25T11:07:54.000Z</time>
      </trkpt>
      <trkpt lat="43.3013940" lon="-3.6874530">
        <ele>402.382996</ele>
        <time>2019-08-25T11:07:58.000Z</time>
      </trkpt>
      <trkpt lat="43.3014140" lon="-3.6873840">
        <ele>402.897003</ele>
        <time>2019-08-25T11:08:03.000Z</time>
      </trkpt>
      <trkpt lat="43.3014260" lon="-3.6873220">
        <ele>402.718994</ele>
        <time>2019-08-25T11:08:07.000Z</time>
      </trkpt>
      <trkpt lat="43.3014390" lon="-3.6872550">
        <ele>402.972992</ele>
        <time>2019-08-25T11:08:11.000Z</time>
      </trkpt>
      <trkpt lat="43.3014520" lon="-3.6871910">
        <ele>402.463989</ele>
        <time>2019-08-25T11:08:15.000Z</time>
      </trkpt>
      <trkpt lat="43.3014690" lon="-3.6871320">
        <ele>402.396027</ele>
        <time>2019-08-25T11:08:19.000Z</time>
      </trkpt>
      <trkpt lat="43.3014880" lon="-3.6870670">
        <ele>400.913025</ele>
        <time>2019-08-25T11:08:24.000Z</time>
      </trkpt>
      <trkpt lat="43.3015050" lon="-3.6870010">
        <ele>402.114990</ele>
        <time>2019-08-25T11:08:29.000Z</time>
      </trkpt>
      <trkpt lat="43.3015250" lon="-3.6869390">
        <ele>402.865021</ele>
        <time>2019-08-25T11:08:33.000Z</time>
      </trkpt>
      <trkpt lat="43.3015380" lon="-3.6868650">
        <ele>402.610992</ele>
        <time>2019-08-25T11:08:38.000Z</time>
      </trkpt>
      <trkpt lat="43.3015520" lon="-3.6868060">
        <ele>401.908020</ele>
        <time>2019-08-25T11:08:42.000Z</time>
      </trkpt>
      <trkpt lat="43.3015710" lon="-3.6867380">
        <ele>402.615021</ele>
        <time>2019-08-25T11:08:47.000Z</time>
      </trkpt>
      <trkpt lat="43.3015930" lon="-3.6866670">
        <ele>400.681000</ele>
        <time>2019-08-25T11:08:52.000Z</time>
      </trkpt>
      <trkpt lat="43.3016210" lon="-3.6866040">
        <ele>403.175018</ele>
        <time>2019-08-25T11:08:56.000Z</time>
      </trkpt>
      <trkpt lat="43.3016500" lon="-3.6865400">
        <ele>404.647003</ele>
        <time>2019-08-25T11:09:00.000Z</time>
      </trkpt>
      <trkpt lat="43.3016800" lon="-3.6864900">
        <ele>403.791016</ele>
        <time>2019-08-25T11:09:03.000Z</time>
      </trkpt>
      <trkpt lat="43.3017020" lon="-3.6864120">
        <ele>405.442017</ele>
        <time>2019-08-25T11:09:07.000Z</time>
      </trkpt>
      <trkpt lat="43.3017220" lon="-3.6863480">
        <ele>405.134003</ele>
        <time>2019-08-25T11:09:10.000Z</time>
      </trkpt>
      <trkpt lat="43.3017500" lon="-3.6862780">
        <ele>406.951019</ele>
        <time>2019-08-25T11:09:14.000Z</time>
      </trkpt>
      <trkpt lat="43.3017790" lon="-3.6862110">
        <ele>407.464996</ele>
        <time>2019-08-25T11:09:18.000Z</time>
      </trkpt>
      <trkpt lat="43.3018110" lon="-3.6861510">
        <ele>408.368011</ele>
        <time>2019-08-25T11:09:23.000Z</time>
      </trkpt>
      <trkpt lat="43.3018550" lon="-3.6861140">
        <ele>408.614014</ele>
        <time>2019-08-25T11:09:27.000Z</time>
      </trkpt>
      <trkpt lat="43.3019000" lon="-3.6860880">
        <ele>409.408020</ele>
        <time>2019-08-25T11:09:31.000Z</time>
      </trkpt>
      <trkpt lat="43.3019380" lon="-3.6860440">
        <ele>409.260010</ele>
        <time>2019-08-25T11:09:35.000Z</time>
      </trkpt>
      <trkpt lat="43.3019820" lon="-3.6859990">
        <ele>408.766022</ele>
        <time>2019-08-25T11:09:40.000Z</time>
      </trkpt>
      <trkpt lat="43.3020290" lon="-3.6859670">
        <ele>410.239990</ele>
        <time>2019-08-25T11:09:44.000Z</time>
      </trkpt>
      <trkpt lat="43.3020750" lon="-3.6859290">
        <ele>410.612000</ele>
        <time>2019-08-25T11:09:48.000Z</time>
      </trkpt>
      <trkpt lat="43.3021240" lon="-3.6858990">
        <ele>410.266022</ele>
        <time>2019-08-25T11:09:52.000Z</time>
      </trkpt>
      <trkpt lat="43.3021810" lon="-3.6858860">
        <ele>410.546997</ele>
        <time>2019-08-25T11:09:56.000Z</time>
      </trkpt>
      <trkpt lat="43.3022340" lon="-3.6858650">
        <ele>410.378998</ele>
        <time>2019-08-25T11:10:00.000Z</time>
      </trkpt>
      <trkpt lat="43.3022780" lon="-3.6858450">
        <ele>411.386017</ele>
        <time>2019-08-25T11:10:03.000Z</time>
      </trkpt>
      <trkpt lat="43.3023220" lon="-3.6858120">
        <ele>413.877991</ele>
        <time>2019-08-25T11:10:07.000Z</time>
      </trkpt>
      <trkpt lat="43.3023650" lon="-3.6857650">
        <ele>414.032990</ele>
        <time>2019-08-25T11:10:11.000Z</time>
      </trkpt>
      <trkpt lat="43.3024090" lon="-3.6857140">
        <ele>414.925995</ele>
        <time>2019-08-25T11:10:15.000Z</time>
      </trkpt>
      <trkpt lat="43.3024520" lon="-3.6856550">
        <ele>415.308014</ele>
        <time>2019-08-25T11:10:19.000Z</time>
      </trkpt>
      <trkpt lat="43.3024730" lon="-3.6855860">
        <ele>414.670990</ele>
        <time>2019-08-25T11:10:23.000Z</time>
      </trkpt>
      <trkpt lat="43.3024740" lon="-3.6855140">
        <ele>415.277008</ele>
        <time>2019-08-25T11:10:27.000Z</time>
      </trkpt>
      <trkpt lat="43.3024370" lon="-3.6854610">
        <ele>416.321014</ele>
        <time>2019-08-25T11:10:31.000Z</time>
      </trkpt>
      <trkpt lat="43.3024040" lon="-3.6854160">
        <ele>417.133026</ele>
        <time>2019-08-25T11:10:34.000Z</time>
      </trkpt>
      <trkpt lat="43.3023840" lon="-3.6853580">
        <ele>415.826996</ele>
        <time>2019-08-25T11:10:38.000Z</time>
      </trkpt>
      <trkpt lat="43.3023640" lon="-3.6852950">
        <ele>416.518005</ele>
        <time>2019-08-25T11:10:42.000Z</time>
      </trkpt>
      <trkpt lat="43.3023530" lon="-3.6852350">
        <ele>417.380005</ele>
        <time>2019-08-25T11:10:46.000Z</time>
      </trkpt>
      <trkpt lat="43.3023680" lon="-3.6851740">
        <ele>417.516998</ele>
        <time>2019-08-25T11:10:49.000Z</time>
      </trkpt>
      <trkpt lat="43.3023900" lon="-3.6851170">
        <ele>417.716003</ele>
        <time>2019-08-25T11:10:53.000Z</time>
      </trkpt>
      <trkpt lat="43.3024010" lon="-3.6850440">
        <ele>418.975983</ele>
        <time>2019-08-25T11:10:57.000Z</time>
      </trkpt>
      <trkpt lat="43.3024140" lon="-3.6849810">
        <ele>419.812988</ele>
        <time>2019-08-25T11:11:01.000Z</time>
      </trkpt>
      <trkpt lat="43.3024330" lon="-3.6849170">
        <ele>419.508026</ele>
        <time>2019-08-25T11:11:05.000Z</time>
      </trkpt>
      <trkpt lat="43.3024460" lon="-3.6848510">
        <ele>420.044983</ele>
        <time>2019-08-25T11:11:09.000Z</time>
      </trkpt>
      <trkpt lat="43.3024570" lon="-3.6847880">
        <ele>420.770996</ele>
        <time>2019-08-25T11:11:13.000Z</time>
      </trkpt>
      <trkpt lat="43.3024670" lon="-3.6847270">
        <ele>421.385010</ele>
        <time>2019-08-25T11:11:17.000Z</time>
      </trkpt>
      <trkpt lat="43.3024890" lon="-3.6846650">
        <ele>422.377014</ele>
        <time>2019-08-25T11:11:21.000Z</time>
      </trkpt>
      <trkpt lat="43.3025140" lon="-3.6846060">
        <ele>423.440979</ele>
        <time>2019-08-25T11:11:25.000Z</time>
      </trkpt>
      <trkpt lat="43.3025360" lon="-3.6845360">
        <ele>424.662018</ele>
        <time>2019-08-25T11:11:29.000Z</time>
      </trkpt>
      <trkpt lat="43.3025580" lon="-3.6844720">
        <ele>425.973999</ele>
        <time>2019-08-25T11:11:34.000Z</time>
      </trkpt>
      <trkpt lat="43.3025780" lon="-3.6844040">
        <ele>428.961029</ele>
        <time>2019-08-25T11:11:38.000Z</time>
      </trkpt>
      <trkpt lat="43.3025970" lon="-3.6843340">
        <ele>430.487000</ele>
        <time>2019-08-25T11:11:42.000Z</time>
      </trkpt>
      <trkpt lat="43.3026100" lon="-3.6842650">
        <ele>430.341980</ele>
        <time>2019-08-25T11:11:46.000Z</time>
      </trkpt>
      <trkpt lat="43.3026080" lon="-3.6841960">
        <ele>430.525970</ele>
        <time>2019-08-25T11:11:50.000Z</time>
      </trkpt>
      <trkpt lat="43.3026080" lon="-3.6841290">
        <ele>431.608002</ele>
        <time>2019-08-25T11:11:54.000Z</time>
      </trkpt>
      <trkpt lat="43.3025970" lon="-3.6840630">
        <ele>431.052002</ele>
        <time>2019-08-25T11:12:00.000Z</time>
      </trkpt>
      <trkpt lat="43.3025920" lon="-3.6839870">
        <ele>430.238007</ele>
        <time>2019-08-25T11:12:05.000Z</time>
      </trkpt>
      <trkpt lat="43.3026050" lon="-3.6839140">
        <ele>431.661987</ele>
        <time>2019-08-25T11:12:08.000Z</time>
      </trkpt>
      <trkpt lat="43.3026260" lon="-3.6838420">
        <ele>431.454010</ele>
        <time>2019-08-25T11:12:10.000Z</time>
      </trkpt>
      <trkpt lat="43.3026580" lon="-3.6837600">
        <ele>431.058014</ele>
        <time>2019-08-25T11:12:12.000Z</time>
      </trkpt>
      <trkpt lat="43.3027020" lon="-3.6836660">
        <ele>430.188995</ele>
        <time>2019-08-25T11:12:14.000Z</time>
      </trkpt>
      <trkpt lat="43.3027460" lon="-3.6835700">
        <ele>429.861023</ele>
        <time>2019-08-25T11:12:16.000Z</time>
      </trkpt>
      <trkpt lat="43.3027800" lon="-3.6834690">
        <ele>429.747986</ele>
        <time>2019-08-25T11:12:18.000Z</time>
      </trkpt>
      <trkpt lat="43.3028100" lon="-3.6833650">
        <ele>430.492004</ele>
        <time>2019-08-25T11:12:20.000Z</time>
      </trkpt>
      <trkpt lat="43.3028470" lon="-3.6832620">
        <ele>431.173004</ele>
        <time>2019-08-25T11:12:22.000Z</time>
      </trkpt>
      <trkpt lat="43.3029040" lon="-3.6831500">
        <ele>430.420013</ele>
        <time>2019-08-25T11:12:24.000Z</time>
      </trkpt>
      <trkpt lat="43.3029530" lon="-3.6830310">
        <ele>430.607971</ele>
        <time>2019-08-25T11:12:26.000Z</time>
      </trkpt>
      <trkpt lat="43.3029480" lon="-3.6828890">
        <ele>430.663025</ele>
        <time>2019-08-25T11:12:28.000Z</time>
      </trkpt>
      <trkpt lat="43.3029000" lon="-3.6828400">
        <ele>431.829010</ele>
        <time>2019-08-25T11:12:30.000Z</time>
      </trkpt>
      <trkpt lat="43.3028620" lon="-3.6827930">
        <ele>433.022980</ele>
        <time>2019-08-25T11:12:33.000Z</time>
      </trkpt>
      <trkpt lat="43.3028260" lon="-3.6827490">
        <ele>437.384979</ele>
        <time>2019-08-25T11:12:47.000Z</time>
      </trkpt>
      <trkpt lat="43.3027760" lon="-3.6827160">
        <ele>436.038971</ele>
        <time>2019-08-25T11:12:52.000Z</time>
      </trkpt>
      <trkpt lat="43.3027420" lon="-3.6826630">
        <ele>436.020020</ele>
        <time>2019-08-25T11:12:57.000Z</time>
      </trkpt>
      <trkpt lat="43.3027130" lon="-3.6825960">
        <ele>440.071991</ele>
        <time>2019-08-25T11:13:02.000Z</time>
      </trkpt>
      <trkpt lat="43.3026980" lon="-3.6825320">
        <ele>441.429016</ele>
        <time>2019-08-25T11:13:06.000Z</time>
      </trkpt>
      <trkpt lat="43.3026920" lon="-3.6824590">
        <ele>444.533997</ele>
        <time>2019-08-25T11:13:10.000Z</time>
      </trkpt>
      <trkpt lat="43.3026890" lon="-3.6823890">
        <ele>445.654999</ele>
        <time>2019-08-25T11:13:15.000Z</time>
      </trkpt>
      <trkpt lat="43.3027100" lon="-3.6823320">
        <ele>446.210022</ele>
        <time>2019-08-25T11:13:22.000Z</time>
      </trkpt>
      <trkpt lat="43.3027400" lon="-3.6822860">
        <ele>447.608002</ele>
        <time>2019-08-25T11:13:30.000Z</time>
      </trkpt>
      <trkpt lat="43.3027450" lon="-3.6822240">
        <ele>449.827026</ele>
        <time>2019-08-25T11:13:37.000Z</time>
      </trkpt>
      <trkpt lat="43.3027210" lon="-3.6821670">
        <ele>450.532990</ele>
        <time>2019-08-25T11:13:43.000Z</time>
      </trkpt>
      <trkpt lat="43.3027280" lon="-3.6821040">
        <ele>450.266998</ele>
        <time>2019-08-25T11:13:48.000Z</time>
      </trkpt>
      <trkpt lat="43.3027190" lon="-3.6820430">
        <ele>451.238983</ele>
        <time>2019-08-25T11:14:07.000Z</time>
      </trkpt>
      <trkpt lat="43.3027440" lon="-3.6819880">
        <ele>453.483032</ele>
        <time>2019-08-25T11:14:12.000Z</time>
      </trkpt>
      <trkpt lat="43.3027720" lon="-3.6819300">
        <ele>454.134003</ele>
        <time>2019-08-25T11:14:18.000Z</time>
      </trkpt>
      <trkpt lat="43.3027950" lon="-3.6818660">
        <ele>455.396027</ele>
        <time>2019-08-25T11:14:24.000Z</time>
      </trkpt>
      <trkpt lat="43.3028050" lon="-3.6818050">
        <ele>456.912994</ele>
        <time>2019-08-25T11:14:30.000Z</time>
      </trkpt>
      <trkpt lat="43.3028270" lon="-3.6817430">
        <ele>459.522003</ele>
        <time>2019-08-25T11:14:44.000Z</time>
      </trkpt>
      <trkpt lat="43.3028380" lon="-3.6816710">
        <ele>460.362000</ele>
        <time>2019-08-25T11:14:51.000Z</time>
      </trkpt>
      <trkpt lat="43.3028480" lon="-3.6816010">
        <ele>465.308014</ele>
        <time>2019-08-25T11:14:57.000Z</time>
      </trkpt>
      <trkpt lat="43.3028830" lon="-3.6815500">
        <ele>465.908020</ele>
        <time>2019-08-25T11:15:18.000Z</time>
      </trkpt>
      <trkpt lat="43.3029260" lon="-3.6815120">
        <ele>466.946014</ele>
        <time>2019-08-25T11:15:24.000Z</time>
      </trkpt>
      <trkpt lat="43.3029740" lon="-3.6814900">
        <ele>470.382019</ele>
        <time>2019-08-25T11:15:32.000Z</time>
      </trkpt>
      <trkpt lat="43.3030200" lon="-3.6814700">
        <ele>471.765991</ele>
        <time>2019-08-25T11:15:38.000Z</time>
      </trkpt>
      <trkpt lat="43.3030690" lon="-3.6814510">
        <ele>472.168030</ele>
        <time>2019-08-25T11:15:45.000Z</time>
      </trkpt>
      <trkpt lat="43.3031150" lon="-3.6814520">
        <ele>472.731995</ele>
        <time>2019-08-25T11:15:52.000Z</time>
      </trkpt>
      <trkpt lat="43.3031600" lon="-3.6814240">
        <ele>474.753021</ele>
        <time>2019-08-25T11:15:58.000Z</time>
      </trkpt>
      <trkpt lat="43.3031980" lon="-3.6813790">
        <ele>474.815002</ele>
        <time>2019-08-25T11:16:05.000Z</time>
      </trkpt>
      <trkpt lat="43.3032370" lon="-3.6813320">
        <ele>474.972015</ele>
        <time>2019-08-25T11:16:11.000Z</time>
      </trkpt>
      <trkpt lat="43.3032800" lon="-3.6812920">
        <ele>476.649017</ele>
        <time>2019-08-25T11:16:16.000Z</time>
      </trkpt>
      <trkpt lat="43.3033280" lon="-3.6812850">
        <ele>476.902008</ele>
        <time>2019-08-25T11:16:27.000Z</time>
      </trkpt>
      <trkpt lat="43.3033680" lon="-3.6812430">
        <ele>478.021973</ele>
        <time>2019-08-25T11:16:33.000Z</time>
      </trkpt>
      <trkpt lat="43.3034190" lon="-3.6812430">
        <ele>478.207977</ele>
        <time>2019-08-25T11:16:39.000Z</time>
      </trkpt>
      <trkpt lat="43.3034630" lon="-3.6812160">
        <ele>478.858002</ele>
        <time>2019-08-25T11:16:45.000Z</time>
      </trkpt>
      <trkpt lat="43.3035080" lon="-3.6812190">
        <ele>479.964020</ele>
        <time>2019-08-25T11:16:51.000Z</time>
      </trkpt>
      <trkpt lat="43.3035620" lon="-3.6812150">
        <ele>480.498016</ele>
        <time>2019-08-25T11:16:57.000Z</time>
      </trkpt>
      <trkpt lat="43.3036080" lon="-3.6812110">
        <ele>481.289978</ele>
        <time>2019-08-25T11:17:02.000Z</time>
      </trkpt>
      <trkpt lat="43.3036620" lon="-3.6812170">
        <ele>483.233978</ele>
        <time>2019-08-25T11:17:08.000Z</time>
      </trkpt>
      <trkpt lat="43.3037140" lon="-3.6812100">
        <ele>483.934998</ele>
        <time>2019-08-25T11:17:13.000Z</time>
      </trkpt>
      <trkpt lat="43.3037610" lon="-3.6812030">
        <ele>485.597015</ele>
        <time>2019-08-25T11:17:18.000Z</time>
      </trkpt>
      <trkpt lat="43.3038090" lon="-3.6811740">
        <ele>486.014008</ele>
        <time>2019-08-25T11:17:23.000Z</time>
      </trkpt>
      <trkpt lat="43.3038690" lon="-3.6811890">
        <ele>487.597992</ele>
        <time>2019-08-25T11:17:48.000Z</time>
      </trkpt>
      <trkpt lat="43.3039220" lon="-3.6811850">
        <ele>489.815002</ele>
        <time>2019-08-25T11:17:53.000Z</time>
      </trkpt>
      <trkpt lat="43.3039690" lon="-3.6811720">
        <ele>489.825989</ele>
        <time>2019-08-25T11:17:57.000Z</time>
      </trkpt>
      <trkpt lat="43.3040200" lon="-3.6811700">
        <ele>488.608032</ele>
        <time>2019-08-25T11:18:01.000Z</time>
      </trkpt>
      <trkpt lat="43.3040710" lon="-3.6811530">
        <ele>489.062988</ele>
        <time>2019-08-25T11:18:05.000Z</time>
      </trkpt>
      <trkpt lat="43.3041150" lon="-3.6811710">
        <ele>489.969025</ele>
        <time>2019-08-25T11:18:08.000Z</time>
      </trkpt>
      <trkpt lat="43.3041690" lon="-3.6812050">
        <ele>490.192993</ele>
        <time>2019-08-25T11:18:12.000Z</time>
      </trkpt>
      <trkpt lat="43.3042090" lon="-3.6812500">
        <ele>490.575012</ele>
        <time>2019-08-25T11:18:16.000Z</time>
      </trkpt>
      <trkpt lat="43.3042490" lon="-3.6812980">
        <ele>491.258972</ele>
        <time>2019-08-25T11:18:20.000Z</time>
      </trkpt>
      <trkpt lat="43.3042870" lon="-3.6813560">
        <ele>492.929993</ele>
        <time>2019-08-25T11:18:24.000Z</time>
      </trkpt>
      <trkpt lat="43.3043330" lon="-3.6813940">
        <ele>494.011993</ele>
        <time>2019-08-25T11:18:28.000Z</time>
      </trkpt>
      <trkpt lat="43.3043830" lon="-3.6814250">
        <ele>493.848999</ele>
        <time>2019-08-25T11:18:32.000Z</time>
      </trkpt>
      <trkpt lat="43.3044310" lon="-3.6814540">
        <ele>493.917023</ele>
        <time>2019-08-25T11:18:36.000Z</time>
      </trkpt>
      <trkpt lat="43.3044760" lon="-3.6814890">
        <ele>494.387024</ele>
        <time>2019-08-25T11:18:40.000Z</time>
      </trkpt>
      <trkpt lat="43.3045220" lon="-3.6815360">
        <ele>494.615021</ele>
        <time>2019-08-25T11:18:44.000Z</time>
      </trkpt>
      <trkpt lat="43.3045610" lon="-3.6815850">
        <ele>495.408020</ele>
        <time>2019-08-25T11:18:48.000Z</time>
      </trkpt>
      <trkpt lat="43.3045960" lon="-3.6816350">
        <ele>495.734985</ele>
        <time>2019-08-25T11:18:52.000Z</time>
      </trkpt>
      <trkpt lat="43.3046340" lon="-3.6816920">
        <ele>496.320984</ele>
        <time>2019-08-25T11:18:56.000Z</time>
      </trkpt>
      <trkpt lat="43.3046620" lon="-3.6817490">
        <ele>496.445007</ele>
        <time>2019-08-25T11:19:00.000Z</time>
      </trkpt>
      <trkpt lat="43.3047030" lon="-3.6817890">
        <ele>496.317017</ele>
        <time>2019-08-25T11:19:04.000Z</time>
      </trkpt>
      <trkpt lat="43.3047350" lon="-3.6818470">
        <ele>496.971008</ele>
        <time>2019-08-25T11:19:08.000Z</time>
      </trkpt>
      <trkpt lat="43.3047650" lon="-3.6819050">
        <ele>497.692017</ele>
        <time>2019-08-25T11:19:12.000Z</time>
      </trkpt>
      <trkpt lat="43.3047980" lon="-3.6819490">
        <ele>497.554016</ele>
        <time>2019-08-25T11:19:16.000Z</time>
      </trkpt>
      <trkpt lat="43.3048290" lon="-3.6820040">
        <ele>498.330994</ele>
        <time>2019-08-25T11:19:21.000Z</time>
      </trkpt>
      <trkpt lat="43.3048620" lon="-3.6820640">
        <ele>499.196991</ele>
        <time>2019-08-25T11:19:25.000Z</time>
      </trkpt>
      <trkpt lat="43.3048950" lon="-3.6821080">
        <ele>499.122986</ele>
        <time>2019-08-25T11:19:28.000Z</time>
      </trkpt>
      <trkpt lat="43.3049260" lon="-3.6821580">
        <ele>500.125000</ele>
        <time>2019-08-25T11:19:32.000Z</time>
      </trkpt>
      <trkpt lat="43.3049510" lon="-3.6822100">
        <ele>500.508026</ele>
        <time>2019-08-25T11:19:36.000Z</time>
      </trkpt>
      <trkpt lat="43.3049690" lon="-3.6822760">
        <ele>501.292999</ele>
        <time>2019-08-25T11:19:40.000Z</time>
      </trkpt>
      <trkpt lat="43.3050000" lon="-3.6823350">
        <ele>502.469025</ele>
        <time>2019-08-25T11:19:44.000Z</time>
      </trkpt>
      <trkpt lat="43.3050330" lon="-3.6823950">
        <ele>502.782990</ele>
        <time>2019-08-25T11:19:48.000Z</time>
      </trkpt>
      <trkpt lat="43.3050640" lon="-3.6824550">
        <ele>503.914978</ele>
        <time>2019-08-25T11:19:52.000Z</time>
      </trkpt>
      <trkpt lat="43.3050940" lon="-3.6825190">
        <ele>504.289001</ele>
        <time>2019-08-25T11:19:56.000Z</time>
      </trkpt>
      <trkpt lat="43.3051340" lon="-3.6825640">
        <ele>505.080017</ele>
        <time>2019-08-25T11:20:00.000Z</time>
      </trkpt>
      <trkpt lat="43.3051640" lon="-3.6826270">
        <ele>505.351990</ele>
        <time>2019-08-25T11:20:04.000Z</time>
      </trkpt>
      <trkpt lat="43.3052070" lon="-3.6826780">
        <ele>505.639008</ele>
        <time>2019-08-25T11:20:08.000Z</time>
      </trkpt>
      <trkpt lat="43.3052520" lon="-3.6827160">
        <ele>506.863983</ele>
        <time>2019-08-25T11:20:12.000Z</time>
      </trkpt>
      <trkpt lat="43.3052950" lon="-3.6827500">
        <ele>507.706024</ele>
        <time>2019-08-25T11:20:16.000Z</time>
      </trkpt>
      <trkpt lat="43.3053260" lon="-3.6828030">
        <ele>508.915985</ele>
        <time>2019-08-25T11:20:21.000Z</time>
      </trkpt>
      <trkpt lat="43.3053670" lon="-3.6828470">
        <ele>510.507996</ele>
        <time>2019-08-25T11:20:28.000Z</time>
      </trkpt>
      <trkpt lat="43.3053840" lon="-3.6829110">
        <ele>511.220001</ele>
        <time>2019-08-25T11:20:33.000Z</time>
      </trkpt>
      <trkpt lat="43.3053790" lon="-3.6829890">
        <ele>512.286011</ele>
        <time>2019-08-25T11:20:38.000Z</time>
      </trkpt>
      <trkpt lat="43.3053740" lon="-3.6830640">
        <ele>512.929993</ele>
        <time>2019-08-25T11:20:43.000Z</time>
      </trkpt>
      <trkpt lat="43.3053620" lon="-3.6831350">
        <ele>513.372009</ele>
        <time>2019-08-25T11:20:48.000Z</time>
      </trkpt>
      <trkpt lat="43.3053650" lon="-3.6832000">
        <ele>513.166016</ele>
        <time>2019-08-25T11:20:53.000Z</time>
      </trkpt>
      <trkpt lat="43.3053700" lon="-3.6832790">
        <ele>513.677002</ele>
        <time>2019-08-25T11:20:59.000Z</time>
      </trkpt>
      <trkpt lat="43.3053610" lon="-3.6833470">
        <ele>514.239014</ele>
        <time>2019-08-25T11:21:04.000Z</time>
      </trkpt>
      <trkpt lat="43.3053630" lon="-3.6834160">
        <ele>515.066040</ele>
        <time>2019-08-25T11:21:09.000Z</time>
      </trkpt>
      <trkpt lat="43.3053800" lon="-3.6834880">
        <ele>515.447998</ele>
        <time>2019-08-25T11:21:14.000Z</time>
      </trkpt>
      <trkpt lat="43.3054090" lon="-3.6835450">
        <ele>515.861023</ele>
        <time>2019-08-25T11:21:19.000Z</time>
      </trkpt>
      <trkpt lat="43.3054120" lon="-3.6836140">
        <ele>517.017029</ele>
        <time>2019-08-25T11:21:23.000Z</time>
      </trkpt>
      <trkpt lat="43.3054350" lon="-3.6836700">
        <ele>517.208008</ele>
        <time>2019-08-25T11:21:28.000Z</time>
      </trkpt>
      <trkpt lat="43.3054470" lon="-3.6837430">
        <ele>519.247986</ele>
        <time>2019-08-25T11:21:43.000Z</time>
      </trkpt>
      <trkpt lat="43.3054580" lon="-3.6838070">
        <ele>519.383972</ele>
        <time>2019-08-25T11:21:50.000Z</time>
      </trkpt>
      <trkpt lat="43.3054860" lon="-3.6838570">
        <ele>520.447998</ele>
        <time>2019-08-25T11:21:56.000Z</time>
      </trkpt>
      <trkpt lat="43.3055010" lon="-3.6839290">
        <ele>520.780029</ele>
        <time>2019-08-25T11:22:02.000Z</time>
      </trkpt>
      <trkpt lat="43.3054980" lon="-3.6839940">
        <ele>521.484009</ele>
        <time>2019-08-25T11:22:07.000Z</time>
      </trkpt>
      <trkpt lat="43.3054830" lon="-3.6840620">
        <ele>522.424988</ele>
        <time>2019-08-25T11:22:13.000Z</time>
      </trkpt>
      <trkpt lat="43.3054560" lon="-3.6841170">
        <ele>523.487000</ele>
        <time>2019-08-25T11:22:17.000Z</time>
      </trkpt>
      <trkpt lat="43.3054290" lon="-3.6841820">
        <ele>525.213989</ele>
        <time>2019-08-25T11:22:22.000Z</time>
      </trkpt>
      <trkpt lat="43.3054100" lon="-3.6842560">
        <ele>526.019043</ele>
        <time>2019-08-25T11:22:27.000Z</time>
      </trkpt>
      <trkpt lat="43.3053980" lon="-3.6843240">
        <ele>527.208984</ele>
        <time>2019-08-25T11:22:32.000Z</time>
      </trkpt>
      <trkpt lat="43.3053900" lon="-3.6843340">
        <ele>534.287964</ele>
        <time>2019-08-25T11:27:19.000Z</time>
      </trkpt>
      <trkpt lat="43.3054500" lon="-3.6843270">
        <ele>535.976990</ele>
        <time>2019-08-25T11:27:22.000Z</time>
      </trkpt>
      <trkpt lat="43.3055010" lon="-3.6843260">
        <ele>537.561035</ele>
        <time>2019-08-25T11:27:25.000Z</time>
      </trkpt>
      <trkpt lat="43.3055500" lon="-3.6843220">
        <ele>538.527039</ele>
        <time>2019-08-25T11:27:28.000Z</time>
      </trkpt>
      <trkpt lat="43.3056060" lon="-3.6843260">
        <ele>540.708008</ele>
        <time>2019-08-25T11:27:32.000Z</time>
      </trkpt>
      <trkpt lat="43.3056570" lon="-3.6843130">
        <ele>540.710999</ele>
        <time>2019-08-25T11:27:36.000Z</time>
      </trkpt>
      <trkpt lat="43.3057050" lon="-3.6842890">
        <ele>542.546997</ele>
        <time>2019-08-25T11:27:46.000Z</time>
      </trkpt>
      <trkpt lat="43.3057370" lon="-3.6842420">
        <ele>545.270996</ele>
        <time>2019-08-25T11:27:53.000Z</time>
      </trkpt>
      <trkpt lat="43.3057820" lon="-3.6842110">
        <ele>546.963013</ele>
        <time>2019-08-25T11:28:00.000Z</time>
      </trkpt>
      <trkpt lat="43.3058210" lon="-3.6841730">
        <ele>547.687012</ele>
        <time>2019-08-25T11:28:06.000Z</time>
      </trkpt>
      <trkpt lat="43.3058550" lon="-3.6841330">
        <ele>548.468018</ele>
        <time>2019-08-25T11:28:12.000Z</time>
      </trkpt>
      <trkpt lat="43.3058890" lon="-3.6840810">
        <ele>549.640015</ele>
        <time>2019-08-25T11:28:18.000Z</time>
      </trkpt>
      <trkpt lat="43.3059310" lon="-3.6840390">
        <ele>550.187012</ele>
        <time>2019-08-25T11:28:24.000Z</time>
      </trkpt>
      <trkpt lat="43.3059750" lon="-3.6840040">
        <ele>551.549011</ele>
        <time>2019-08-25T11:28:33.000Z</time>
      </trkpt>
      <trkpt lat="43.3060120" lon="-3.6839630">
        <ele>550.901978</ele>
        <time>2019-08-25T11:28:38.000Z</time>
      </trkpt>
      <trkpt lat="43.3060510" lon="-3.6839290">
        <ele>551.122009</ele>
        <time>2019-08-25T11:28:43.000Z</time>
      </trkpt>
      <trkpt lat="43.3060950" lon="-3.6838880">
        <ele>551.208008</ele>
        <time>2019-08-25T11:28:52.000Z</time>
      </trkpt>
      <trkpt lat="43.3061390" lon="-3.6838330">
        <ele>551.488037</ele>
        <time>2019-08-25T11:28:55.000Z</time>
      </trkpt>
      <trkpt lat="43.3061670" lon="-3.6837800">
        <ele>551.414001</ele>
        <time>2019-08-25T11:28:57.000Z</time>
      </trkpt>
      <trkpt lat="43.3062050" lon="-3.6836970">
        <ele>551.648010</ele>
        <time>2019-08-25T11:29:00.000Z</time>
      </trkpt>
      <trkpt lat="43.3062250" lon="-3.6836060">
        <ele>551.619995</ele>
        <time>2019-08-25T11:29:02.000Z</time>
      </trkpt>
      <trkpt lat="43.3062300" lon="-3.6835360">
        <ele>552.153992</ele>
        <time>2019-08-25T11:29:04.000Z</time>
      </trkpt>
      <trkpt lat="43.3062290" lon="-3.6834550">
        <ele>552.215027</ele>
        <time>2019-08-25T11:29:07.000Z</time>
      </trkpt>
      <trkpt lat="43.3062270" lon="-3.6833810">
        <ele>551.716980</ele>
        <time>2019-08-25T11:29:10.000Z</time>
      </trkpt>
      <trkpt lat="43.3062340" lon="-3.6833190">
        <ele>551.744019</ele>
        <time>2019-08-25T11:29:13.000Z</time>
      </trkpt>
      <trkpt lat="43.3062380" lon="-3.6832540">
        <ele>550.716980</ele>
        <time>2019-08-25T11:29:16.000Z</time>
      </trkpt>
      <trkpt lat="43.3062400" lon="-3.6831680">
        <ele>551.187012</ele>
        <time>2019-08-25T11:29:19.000Z</time>
      </trkpt>
      <trkpt lat="43.3062430" lon="-3.6830750">
        <ele>551.315002</ele>
        <time>2019-08-25T11:29:22.000Z</time>
      </trkpt>
      <trkpt lat="43.3062440" lon="-3.6829860">
        <ele>551.307983</ele>
        <time>2019-08-25T11:29:25.000Z</time>
      </trkpt>
      <trkpt lat="43.3062410" lon="-3.6828990">
        <ele>551.794983</ele>
        <time>2019-08-25T11:29:28.000Z</time>
      </trkpt>
      <trkpt lat="43.3062310" lon="-3.6828150">
        <ele>552.411011</ele>
        <time>2019-08-25T11:29:31.000Z</time>
      </trkpt>
      <trkpt lat="43.3062190" lon="-3.6827290">
        <ele>552.655029</ele>
        <time>2019-08-25T11:29:34.000Z</time>
      </trkpt>
      <trkpt lat="43.3062100" lon="-3.6826430">
        <ele>553.046997</ele>
        <time>2019-08-25T11:29:37.000Z</time>
      </trkpt>
      <trkpt lat="43.3061940" lon="-3.6825630">
        <ele>552.531006</ele>
        <time>2019-08-25T11:29:40.000Z</time>
      </trkpt>
      <trkpt lat="43.3061680" lon="-3.6824880">
        <ele>553.532043</ele>
        <time>2019-08-25T11:29:43.000Z</time>
      </trkpt>
      <trkpt lat="43.3061390" lon="-3.6824190">
        <ele>553.593994</ele>
        <time>2019-08-25T11:29:46.000Z</time>
      </trkpt>
      <trkpt lat="43.3061120" lon="-3.6823540">
        <ele>553.411011</ele>
        <time>2019-08-25T11:29:49.000Z</time>
      </trkpt>
      <trkpt lat="43.3060890" lon="-3.6822880">
        <ele>553.872009</ele>
        <time>2019-08-25T11:29:53.000Z</time>
      </trkpt>
      <trkpt lat="43.3060750" lon="-3.6822160">
        <ele>553.412964</ele>
        <time>2019-08-25T11:29:56.000Z</time>
      </trkpt>
      <trkpt lat="43.3060520" lon="-3.6821510">
        <ele>554.114014</ele>
        <time>2019-08-25T11:29:59.000Z</time>
      </trkpt>
      <trkpt lat="43.3060340" lon="-3.6820830">
        <ele>554.307983</ele>
        <time>2019-08-25T11:30:02.000Z</time>
      </trkpt>
      <trkpt lat="43.3060220" lon="-3.6820120">
        <ele>553.330994</ele>
        <time>2019-08-25T11:30:06.000Z</time>
      </trkpt>
      <trkpt lat="43.3060150" lon="-3.6819450">
        <ele>553.166992</ele>
        <time>2019-08-25T11:31:19.000Z</time>
      </trkpt>
      <trkpt lat="43.3059980" lon="-3.6818810">
        <ele>553.240967</ele>
        <time>2019-08-25T11:31:22.000Z</time>
      </trkpt>
      <trkpt lat="43.3059750" lon="-3.6817990">
        <ele>553.713013</ele>
        <time>2019-08-25T11:31:25.000Z</time>
      </trkpt>
      <trkpt lat="43.3059540" lon="-3.6817190">
        <ele>554.017029</ele>
        <time>2019-08-25T11:31:28.000Z</time>
      </trkpt>
      <trkpt lat="43.3059310" lon="-3.6816420">
        <ele>554.557983</ele>
        <time>2019-08-25T11:31:31.000Z</time>
      </trkpt>
      <trkpt lat="43.3059050" lon="-3.6815680">
        <ele>554.610046</ele>
        <time>2019-08-25T11:31:34.000Z</time>
      </trkpt>
      <trkpt lat="43.3058800" lon="-3.6815010">
        <ele>555.016968</ele>
        <time>2019-08-25T11:31:37.000Z</time>
      </trkpt>
      <trkpt lat="43.3058600" lon="-3.6814250">
        <ele>555.661011</ele>
        <time>2019-08-25T11:31:40.000Z</time>
      </trkpt>
      <trkpt lat="43.3058430" lon="-3.6813490">
        <ele>555.820984</ele>
        <time>2019-08-25T11:31:43.000Z</time>
      </trkpt>
      <trkpt lat="43.3058210" lon="-3.6812760">
        <ele>556.112976</ele>
        <time>2019-08-25T11:31:46.000Z</time>
      </trkpt>
      <trkpt lat="43.3058000" lon="-3.6812060">
        <ele>556.408020</ele>
        <time>2019-08-25T11:31:49.000Z</time>
      </trkpt>
      <trkpt lat="43.3057790" lon="-3.6811360">
        <ele>557.380005</ele>
        <time>2019-08-25T11:31:52.000Z</time>
      </trkpt>
      <trkpt lat="43.3057600" lon="-3.6810720">
        <ele>557.876038</ele>
        <time>2019-08-25T11:31:55.000Z</time>
      </trkpt>
      <trkpt lat="43.3057370" lon="-3.6810030">
        <ele>558.779968</ele>
        <time>2019-08-25T11:31:58.000Z</time>
      </trkpt>
      <trkpt lat="43.3057090" lon="-3.6809470">
        <ele>559.161987</ele>
        <time>2019-08-25T11:32:01.000Z</time>
      </trkpt>
      <trkpt lat="43.3056870" lon="-3.6808880">
        <ele>559.796021</ele>
        <time>2019-08-25T11:32:04.000Z</time>
      </trkpt>
      <trkpt lat="43.3056670" lon="-3.6808280">
        <ele>559.516968</ele>
        <time>2019-08-25T11:32:07.000Z</time>
      </trkpt>
      <trkpt lat="43.3056480" lon="-3.6807660">
        <ele>558.989014</ele>
        <time>2019-08-25T11:32:10.000Z</time>
      </trkpt>
      <trkpt lat="43.3056290" lon="-3.6807010">
        <ele>559.045959</ele>
        <time>2019-08-25T11:32:13.000Z</time>
      </trkpt>
      <trkpt lat="43.3056060" lon="-3.6806310">
        <ele>559.247009</ele>
        <time>2019-08-25T11:32:16.000Z</time>
      </trkpt>
      <trkpt lat="43.3055720" lon="-3.6805650">
        <ele>559.729004</ele>
        <time>2019-08-25T11:32:19.000Z</time>
      </trkpt>
      <trkpt lat="43.3055220" lon="-3.6805230">
        <ele>560.121033</ele>
        <time>2019-08-25T11:32:22.000Z</time>
      </trkpt>
      <trkpt lat="43.3054660" lon="-3.6805030">
        <ele>560.007996</ele>
        <time>2019-08-25T11:32:25.000Z</time>
      </trkpt>
      <trkpt lat="43.3054130" lon="-3.6804900">
        <ele>560.247986</ele>
        <time>2019-08-25T11:32:28.000Z</time>
      </trkpt>
      <trkpt lat="43.3053670" lon="-3.6804670">
        <ele>560.723999</ele>
        <time>2019-08-25T11:32:31.000Z</time>
      </trkpt>
      <trkpt lat="43.3053200" lon="-3.6804380">
        <ele>561.678040</ele>
        <time>2019-08-25T11:32:34.000Z</time>
      </trkpt>
      <trkpt lat="43.3052740" lon="-3.6804070">
        <ele>561.359985</ele>
        <time>2019-08-25T11:32:37.000Z</time>
      </trkpt>
      <trkpt lat="43.3052340" lon="-3.6803760">
        <ele>561.833984</ele>
        <time>2019-08-25T11:32:40.000Z</time>
      </trkpt>
      <trkpt lat="43.3051940" lon="-3.6803170">
        <ele>561.784973</ele>
        <time>2019-08-25T11:32:44.000Z</time>
      </trkpt>
      <trkpt lat="43.3051630" lon="-3.6802510">
        <ele>563.096985</ele>
        <time>2019-08-25T11:32:48.000Z</time>
      </trkpt>
      <trkpt lat="43.3051330" lon="-3.6801820">
        <ele>564.313965</ele>
        <time>2019-08-25T11:32:52.000Z</time>
      </trkpt>
      <trkpt lat="43.3051090" lon="-3.6801260">
        <ele>565.295959</ele>
        <time>2019-08-25T11:32:55.000Z</time>
      </trkpt>
      <trkpt lat="43.3050840" lon="-3.6800610">
        <ele>565.731018</ele>
        <time>2019-08-25T11:32:59.000Z</time>
      </trkpt>
      <trkpt lat="43.3050630" lon="-3.6799860">
        <ele>566.824036</ele>
        <time>2019-08-25T11:33:03.000Z</time>
      </trkpt>
      <trkpt lat="43.3050460" lon="-3.6799240">
        <ele>567.708008</ele>
        <time>2019-08-25T11:33:07.000Z</time>
      </trkpt>
      <trkpt lat="43.3050300" lon="-3.6798620">
        <ele>568.062988</ele>
        <time>2019-08-25T11:33:11.000Z</time>
      </trkpt>
      <trkpt lat="43.3050210" lon="-3.6797860">
        <ele>569.359009</ele>
        <time>2019-08-25T11:33:16.000Z</time>
      </trkpt>
      <trkpt lat="43.3050070" lon="-3.6797240">
        <ele>569.333008</ele>
        <time>2019-08-25T11:33:20.000Z</time>
      </trkpt>
      <trkpt lat="43.3049950" lon="-3.6796600">
        <ele>570.575012</ele>
        <time>2019-08-25T11:33:24.000Z</time>
      </trkpt>
      <trkpt lat="43.3049740" lon="-3.6795890">
        <ele>570.919006</ele>
        <time>2019-08-25T11:33:29.000Z</time>
      </trkpt>
      <trkpt lat="43.3049520" lon="-3.6795200">
        <ele>571.369995</ele>
        <time>2019-08-25T11:33:34.000Z</time>
      </trkpt>
      <trkpt lat="43.3049360" lon="-3.6794620">
        <ele>571.671997</ele>
        <time>2019-08-25T11:33:38.000Z</time>
      </trkpt>
      <trkpt lat="43.3049190" lon="-3.6794020">
        <ele>571.748962</ele>
        <time>2019-08-25T11:33:43.000Z</time>
      </trkpt>
      <trkpt lat="43.3048880" lon="-3.6793510">
        <ele>571.799011</ele>
        <time>2019-08-25T11:33:48.000Z</time>
      </trkpt>
      <trkpt lat="43.3048610" lon="-3.6792990">
        <ele>572.006958</ele>
        <time>2019-08-25T11:33:52.000Z</time>
      </trkpt>
      <trkpt lat="43.3048330" lon="-3.6792330">
        <ele>571.927002</ele>
        <time>2019-08-25T11:33:56.000Z</time>
      </trkpt>
      <trkpt lat="43.3048040" lon="-3.6791790">
        <ele>571.807983</ele>
        <time>2019-08-25T11:33:58.000Z</time>
      </trkpt>
      <trkpt lat="43.3047620" lon="-3.6791300">
        <ele>571.713013</ele>
        <time>2019-08-25T11:34:00.000Z</time>
      </trkpt>
      <trkpt lat="43.3046870" lon="-3.6790590">
        <ele>571.648987</ele>
        <time>2019-08-25T11:34:02.000Z</time>
      </trkpt>
      <trkpt lat="43.3045850" lon="-3.6789750">
        <ele>571.042969</ele>
        <time>2019-08-25T11:34:04.000Z</time>
      </trkpt>
      <trkpt lat="43.3044580" lon="-3.6788900">
        <ele>570.825012</ele>
        <time>2019-08-25T11:34:06.000Z</time>
      </trkpt>
      <trkpt lat="43.3043550" lon="-3.6788300">
        <ele>570.419006</ele>
        <time>2019-08-25T11:34:08.000Z</time>
      </trkpt>
      <trkpt lat="43.3043460" lon="-3.6787640">
        <ele>571.470032</ele>
        <time>2019-08-25T11:34:11.000Z</time>
      </trkpt>
      <trkpt lat="43.3043130" lon="-3.6787080">
        <ele>572.071960</ele>
        <time>2019-08-25T11:34:26.000Z</time>
      </trkpt>
      <trkpt lat="43.3042800" lon="-3.6786660">
        <ele>572.388977</ele>
        <time>2019-08-25T11:34:31.000Z</time>
      </trkpt>
      <trkpt lat="43.3042420" lon="-3.6786280">
        <ele>573.378967</ele>
        <time>2019-08-25T11:34:36.000Z</time>
      </trkpt>
      <trkpt lat="43.3042000" lon="-3.6785860">
        <ele>573.205017</ele>
        <time>2019-08-25T11:34:44.000Z</time>
      </trkpt>
      <trkpt lat="43.3041800" lon="-3.6785220">
        <ele>573.625000</ele>
        <time>2019-08-25T11:34:50.000Z</time>
      </trkpt>
      <trkpt lat="43.3042160" lon="-3.6784780">
        <ele>574.608032</ele>
        <time>2019-08-25T11:34:55.000Z</time>
      </trkpt>
      <trkpt lat="43.3042640" lon="-3.6784620">
        <ele>575.630981</ele>
        <time>2019-08-25T11:35:00.000Z</time>
      </trkpt>
      <trkpt lat="43.3043090" lon="-3.6784610">
        <ele>575.966980</ele>
        <time>2019-08-25T11:35:05.000Z</time>
      </trkpt>
      <trkpt lat="43.3043560" lon="-3.6784680">
        <ele>576.171021</ele>
        <time>2019-08-25T11:35:10.000Z</time>
      </trkpt>
      <trkpt lat="43.3044030" lon="-3.6784810">
        <ele>577.233032</ele>
        <time>2019-08-25T11:35:15.000Z</time>
      </trkpt>
      <trkpt lat="43.3044500" lon="-3.6784970">
        <ele>577.036987</ele>
        <time>2019-08-25T11:35:21.000Z</time>
      </trkpt>
      <trkpt lat="43.3045030" lon="-3.6785060">
        <ele>578.578003</ele>
        <time>2019-08-25T11:35:27.000Z</time>
      </trkpt>
      <trkpt lat="43.3045520" lon="-3.6785210">
        <ele>579.760010</ele>
        <time>2019-08-25T11:35:32.000Z</time>
      </trkpt>
      <trkpt lat="43.3045970" lon="-3.6785280">
        <ele>580.396973</ele>
        <time>2019-08-25T11:35:37.000Z</time>
      </trkpt>
      <trkpt lat="43.3046420" lon="-3.6785190">
        <ele>581.524963</ele>
        <time>2019-08-25T11:35:42.000Z</time>
      </trkpt>
      <trkpt lat="43.3046900" lon="-3.6784880">
        <ele>582.425964</ele>
        <time>2019-08-25T11:35:47.000Z</time>
      </trkpt>
      <trkpt lat="43.3047280" lon="-3.6784460">
        <ele>583.408020</ele>
        <time>2019-08-25T11:35:53.000Z</time>
      </trkpt>
      <trkpt lat="43.3047390" lon="-3.6783800">
        <ele>585.007996</ele>
        <time>2019-08-25T11:36:15.000Z</time>
      </trkpt>
      <trkpt lat="43.3047450" lon="-3.6783160">
        <ele>586.796021</ele>
        <time>2019-08-25T11:36:21.000Z</time>
      </trkpt>
      <trkpt lat="43.3047470" lon="-3.6782470">
        <ele>588.462036</ele>
        <time>2019-08-25T11:36:27.000Z</time>
      </trkpt>
      <trkpt lat="43.3047490" lon="-3.6781770">
        <ele>589.546021</ele>
        <time>2019-08-25T11:36:33.000Z</time>
      </trkpt>
      <trkpt lat="43.3047640" lon="-3.6781170">
        <ele>590.658020</ele>
        <time>2019-08-25T11:36:38.000Z</time>
      </trkpt>
      <trkpt lat="43.3047910" lon="-3.6780580">
        <ele>591.622009</ele>
        <time>2019-08-25T11:36:44.000Z</time>
      </trkpt>
      <trkpt lat="43.3048250" lon="-3.6780150">
        <ele>592.913025</ele>
        <time>2019-08-25T11:36:50.000Z</time>
      </trkpt>
      <trkpt lat="43.3048590" lon="-3.6779670">
        <ele>593.994995</ele>
        <time>2019-08-25T11:36:55.000Z</time>
      </trkpt>
      <trkpt lat="43.3048940" lon="-3.6779150">
        <ele>594.992004</ele>
        <time>2019-08-25T11:37:00.000Z</time>
      </trkpt>
      <trkpt lat="43.3049330" lon="-3.6778660">
        <ele>595.597961</ele>
        <time>2019-08-25T11:37:05.000Z</time>
      </trkpt>
      <trkpt lat="43.3049640" lon="-3.6778160">
        <ele>596.015015</ele>
        <time>2019-08-25T11:37:10.000Z</time>
      </trkpt>
    </trkseg>
  </trk>
</gpx>
